<?xml version='1.0' encoding='UTF-8'?><gpx version="1.1" creator="JPX - https://github.com/jenetics/jpx" xmlns="http://www.topografix.com/GPX/1/1"><trk><trkseg><trkpt lat="45.718539420815254" lon="9.770991920784263"><ele>333.0</ele><time>2026-03-31T09:28:45Z</time></trkpt><trkpt lat="45.71846389000666" lon="9.77093127873711"><ele>333.0</ele><time>2026-03-31T09:28:47Z</time></trkpt><trkpt lat="45.718368515799014" lon="9.770869541296754"><ele>333.0</ele><time>2026-03-31T09:28:49Z</time></trkpt><trkpt lat="45.718264202930435" lon="9.770802779236604"><ele>333.0</ele><time>2026-03-31T09:28:51Z</time></trkpt><trkpt lat="45.718165175656836" lon="9.770727568758524"><ele>333.0</ele><time>2026-03-31T09:28:53Z</time></trkpt><trkpt lat="45.7180548243981" lon="9.770646589006862"><ele>333.0</ele><time>2026-03-31T09:28:55Z</time></trkpt><trkpt lat="45.71796234184187" lon="9.770576445690956"><ele>333.0</ele><time>2026-03-31T09:28:57Z</time></trkpt><trkpt lat="45.71788424710392" lon="9.770596120586614"><ele>333.0</ele><time>2026-03-31T09:28:59Z</time></trkpt><trkpt lat="45.71781295766589" lon="9.770674644940927"><ele>333.0</ele><time>2026-03-31T09:29:01Z</time></trkpt><trkpt lat="45.717736987117966" lon="9.7707883283033"><ele>333.0</ele><time>2026-03-31T09:29:03Z</time></trkpt><trkpt lat="45.717668167303245" lon="9.770935253726611"><ele>332.2</ele><time>2026-03-31T09:29:05Z</time></trkpt><trkpt lat="45.71759306758076" lon="9.771070219243667"><ele>331.4</ele><time>2026-03-31T09:29:07Z</time></trkpt><trkpt lat="45.71754558060948" lon="9.771210501134133"><ele>330.59999999999997</ele><time>2026-03-31T09:29:09Z</time></trkpt><trkpt lat="45.71750937917821" lon="9.77134280501905"><ele>329.79999999999995</ele><time>2026-03-31T09:29:11Z</time></trkpt><trkpt lat="45.7174701395271" lon="9.771457229805364"><ele>329.0</ele><time>2026-03-31T09:29:13Z</time></trkpt><trkpt lat="45.717421219478204" lon="9.77151686462664"><ele>329.0</ele><time>2026-03-31T09:29:15Z</time></trkpt><trkpt lat="45.717321041839675" lon="9.771475400742686"><ele>329.0</ele><time>2026-03-31T09:29:17Z</time></trkpt><trkpt lat="45.71719948451395" lon="9.771425772972698"><ele>329.0</ele><time>2026-03-31T09:29:19Z</time></trkpt><trkpt lat="45.717128926238175" lon="9.771412493210994"><ele>329.0</ele><time>2026-03-31T09:29:20Z</time></trkpt><trkpt lat="45.7170154120812" lon="9.771382808966333"><ele>329.0</ele><time>2026-03-31T09:29:22Z</time></trkpt><trkpt lat="45.716900878080544" lon="9.771396389219074"><ele>328.2</ele><time>2026-03-31T09:29:24Z</time></trkpt><trkpt lat="45.716803139958856" lon="9.771407577054775"><ele>327.4</ele><time>2026-03-31T09:29:26Z</time></trkpt><trkpt lat="45.71673353877473" lon="9.7714190960293"><ele>326.6</ele><time>2026-03-31T09:29:28Z</time></trkpt><trkpt lat="45.716665928982806" lon="9.77153342247487"><ele>325.8</ele><time>2026-03-31T09:29:30Z</time></trkpt><trkpt lat="45.71657690637346" lon="9.77164828060145"><ele>325.0</ele><time>2026-03-31T09:29:32Z</time></trkpt><trkpt lat="45.716486979733446" lon="9.771765435598136"><ele>325.0</ele><time>2026-03-31T09:29:34Z</time></trkpt><trkpt lat="45.716393651322086" lon="9.771874401631397"><ele>325.0</ele><time>2026-03-31T09:29:36Z</time></trkpt><trkpt lat="45.71630521575759" lon="9.771990914298312"><ele>325.0</ele><time>2026-03-31T09:29:38Z</time></trkpt><trkpt lat="45.71621975402007" lon="9.772107086105457"><ele>325.0</ele><time>2026-03-31T09:29:40Z</time></trkpt><trkpt lat="45.71612928143452" lon="9.772214149390267"><ele>326.4</ele><time>2026-03-31T09:29:42Z</time></trkpt><trkpt lat="45.71604789152875" lon="9.772323769719016"><ele>327.8</ele><time>2026-03-31T09:29:44Z</time></trkpt><trkpt lat="45.71596631514565" lon="9.77242803851118"><ele>329.20000000000005</ele><time>2026-03-31T09:29:46Z</time></trkpt><trkpt lat="45.715885863019416" lon="9.772519000730837"><ele>330.6</ele><time>2026-03-31T09:29:48Z</time></trkpt><trkpt lat="45.71579847357551" lon="9.772599365154948"><ele>332.0</ele><time>2026-03-31T09:29:50Z</time></trkpt><trkpt lat="45.71571200406464" lon="9.77266820903239"><ele>331.6</ele><time>2026-03-31T09:29:52Z</time></trkpt><trkpt lat="45.71563487591187" lon="9.772760228100728"><ele>331.20000000000005</ele><time>2026-03-31T09:29:54Z</time></trkpt><trkpt lat="45.71555913438327" lon="9.772859859470403"><ele>330.8</ele><time>2026-03-31T09:29:56Z</time></trkpt><trkpt lat="45.715488158010345" lon="9.772957612897994"><ele>330.4</ele><time>2026-03-31T09:29:58Z</time></trkpt><trkpt lat="45.71541045128404" lon="9.773036986209144"><ele>330.0</ele><time>2026-03-31T09:30:00Z</time></trkpt><trkpt lat="45.71532011440215" lon="9.773065019924418"><ele>330.0</ele><time>2026-03-31T09:30:02Z</time></trkpt><trkpt lat="45.715231401072714" lon="9.773124041744763"><ele>330.0</ele><time>2026-03-31T09:30:04Z</time></trkpt><trkpt lat="45.715195018458424" lon="9.773275605343665"><ele>330.0</ele><time>2026-03-31T09:30:06Z</time></trkpt><trkpt lat="45.71518275236188" lon="9.773440887373344"><ele>330.0</ele><time>2026-03-31T09:30:08Z</time></trkpt><trkpt lat="45.71516315324496" lon="9.773599538473137"><ele>330.0</ele><time>2026-03-31T09:30:10Z</time></trkpt><trkpt lat="45.715150372596995" lon="9.773750913881994"><ele>331.0</ele><time>2026-03-31T09:30:12Z</time></trkpt><trkpt lat="45.71514644391798" lon="9.773899500109817"><ele>332.0</ele><time>2026-03-31T09:30:14Z</time></trkpt><trkpt lat="45.715145980431565" lon="9.774043550169898"><ele>333.0</ele><time>2026-03-31T09:30:16Z</time></trkpt><trkpt lat="45.71515242622134" lon="9.77418410490986"><ele>334.0</ele><time>2026-03-31T09:30:18Z</time></trkpt><trkpt lat="45.71516714685871" lon="9.774315873118718"><ele>335.0</ele><time>2026-03-31T09:30:20Z</time></trkpt><trkpt lat="45.715181109088114" lon="9.774456044636432"><ele>336.4</ele><time>2026-03-31T09:30:22Z</time></trkpt><trkpt lat="45.715170399070715" lon="9.774593096314696"><ele>337.8</ele><time>2026-03-31T09:30:24Z</time></trkpt><trkpt lat="45.71514205399734" lon="9.774733280596736"><ele>339.20000000000005</ele><time>2026-03-31T09:30:26Z</time></trkpt><trkpt lat="45.71511249569218" lon="9.774866884634696"><ele>340.6</ele><time>2026-03-31T09:30:28Z</time></trkpt><trkpt lat="45.715089800476136" lon="9.775004550120089"><ele>342.0</ele><time>2026-03-31T09:30:30Z</time></trkpt><trkpt lat="45.715065070968194" lon="9.775139208848172"><ele>342.20000000000005</ele><time>2026-03-31T09:30:32Z</time></trkpt><trkpt lat="45.715026413518736" lon="9.775261511156167"><ele>342.4</ele><time>2026-03-31T09:30:34Z</time></trkpt><trkpt lat="45.714968042770856" lon="9.775376929477432"><ele>342.6</ele><time>2026-03-31T09:30:36Z</time></trkpt><trkpt lat="45.71488791611358" lon="9.775464075295982"><ele>342.79999999999995</ele><time>2026-03-31T09:30:38Z</time></trkpt><trkpt lat="45.71480352924086" lon="9.775550610213607"><ele>343.0</ele><time>2026-03-31T09:30:40Z</time></trkpt><trkpt lat="45.714715201361685" lon="9.775658241415199"><ele>343.0</ele><time>2026-03-31T09:30:42Z</time></trkpt><trkpt lat="45.71463309978139" lon="9.775772709659789"><ele>343.0</ele><time>2026-03-31T09:30:44Z</time></trkpt><trkpt lat="45.714566307471344" lon="9.775915335736856"><ele>343.0</ele><time>2026-03-31T09:30:46Z</time></trkpt><trkpt lat="45.71451882688035" lon="9.776069239324588"><ele>343.0</ele><time>2026-03-31T09:30:48Z</time></trkpt><trkpt lat="45.714497379476335" lon="9.776233116468097"><ele>343.2</ele><time>2026-03-31T09:30:50Z</time></trkpt><trkpt lat="45.714486668737074" lon="9.776385431723014"><ele>343.4</ele><time>2026-03-31T09:30:52Z</time></trkpt><trkpt lat="45.71447816211035" lon="9.776545909789137"><ele>343.59999999999997</ele><time>2026-03-31T09:30:54Z</time></trkpt><trkpt lat="45.71448511004899" lon="9.77670335305453"><ele>343.79999999999995</ele><time>2026-03-31T09:30:56Z</time></trkpt><trkpt lat="45.71452064540738" lon="9.776854533389546"><ele>344.0</ele><time>2026-03-31T09:30:58Z</time></trkpt><trkpt lat="45.71457427385594" lon="9.776985384428324"><ele>345.0</ele><time>2026-03-31T09:31:00Z</time></trkpt><trkpt lat="45.714640797583534" lon="9.777094064301876"><ele>346.0</ele><time>2026-03-31T09:31:02Z</time></trkpt><trkpt lat="45.71471034648628" lon="9.777197273564047"><ele>347.0</ele><time>2026-03-31T09:31:04Z</time></trkpt><trkpt lat="45.71478290607672" lon="9.777309926385392"><ele>348.0</ele><time>2026-03-31T09:31:06Z</time></trkpt><trkpt lat="45.71485149912908" lon="9.777436514777097"><ele>349.0</ele><time>2026-03-31T09:31:08Z</time></trkpt><trkpt lat="45.714908061840525" lon="9.777574447592363"><ele>350.0</ele><time>2026-03-31T09:31:10Z</time></trkpt><trkpt lat="45.714940285437706" lon="9.777731678630206"><ele>351.0</ele><time>2026-03-31T09:31:12Z</time></trkpt><trkpt lat="45.714955702944316" lon="9.777898917393086"><ele>352.0</ele><time>2026-03-31T09:31:14Z</time></trkpt><trkpt lat="45.71495476153818" lon="9.778070890205557"><ele>353.0</ele><time>2026-03-31T09:31:16Z</time></trkpt><trkpt lat="45.714964780709046" lon="9.778234109099726"><ele>353.0</ele><time>2026-03-31T09:31:18Z</time></trkpt><trkpt lat="45.714968998883464" lon="9.778399433149358"><ele>353.0</ele><time>2026-03-31T09:31:20Z</time></trkpt><trkpt lat="45.71497275038308" lon="9.778563157783879"><ele>353.0</ele><time>2026-03-31T09:31:22Z</time></trkpt><trkpt lat="45.71497666225844" lon="9.778728291158101"><ele>353.0</ele><time>2026-03-31T09:31:24Z</time></trkpt><trkpt lat="45.71497223771855" lon="9.778889618732004"><ele>353.0</ele><time>2026-03-31T09:31:26Z</time></trkpt><trkpt lat="45.71493637902108" lon="9.779048059947256"><ele>353.0</ele><time>2026-03-31T09:31:28Z</time></trkpt><trkpt lat="45.714877938791794" lon="9.77918463142094"><ele>353.0</ele><time>2026-03-31T09:31:30Z</time></trkpt><trkpt lat="45.714825930849926" lon="9.779322800405629"><ele>353.0</ele><time>2026-03-31T09:31:32Z</time></trkpt><trkpt lat="45.71476009935169" lon="9.779452779413072"><ele>351.0</ele><time>2026-03-31T09:31:34Z</time></trkpt><trkpt lat="45.71468998412766" lon="9.779579513045018"><ele>349.0</ele><time>2026-03-31T09:31:36Z</time></trkpt><trkpt lat="45.714602400685" lon="9.779697043759288"><ele>347.0</ele><time>2026-03-31T09:31:38Z</time></trkpt><trkpt lat="45.714510020254" lon="9.779805055390243"><ele>345.0</ele><time>2026-03-31T09:31:40Z</time></trkpt><trkpt lat="45.71441509989731" lon="9.779918074978212"><ele>347.0</ele><time>2026-03-31T09:31:42Z</time></trkpt><trkpt lat="45.7143699024096" lon="9.779983474189137"><ele>349.0</ele><time>2026-03-31T09:31:43Z</time></trkpt><trkpt lat="45.71429408883549" lon="9.780124368662856"><ele>351.0</ele><time>2026-03-31T09:31:45Z</time></trkpt><trkpt lat="45.71423869694329" lon="9.780282908710019"><ele>353.0</ele><time>2026-03-31T09:31:47Z</time></trkpt><trkpt lat="45.71420769383598" lon="9.780446422333531"><ele>355.0</ele><time>2026-03-31T09:31:49Z</time></trkpt><trkpt lat="45.714186860766425" lon="9.780608293499274"><ele>355.8</ele><time>2026-03-31T09:31:51Z</time></trkpt><trkpt lat="45.71417201944169" lon="9.780765948779358"><ele>356.6</ele><time>2026-03-31T09:31:53Z</time></trkpt><trkpt lat="45.714145300933886" lon="9.780904796317687"><ele>357.4</ele><time>2026-03-31T09:31:55Z</time></trkpt><trkpt lat="45.714130172660845" lon="9.781058706768551"><ele>358.2</ele><time>2026-03-31T09:31:57Z</time></trkpt><trkpt lat="45.71412248472454" lon="9.781203852904202"><ele>359.0</ele><time>2026-03-31T09:31:59Z</time></trkpt><trkpt lat="45.71411413648955" lon="9.781345616221314"><ele>359.6</ele><time>2026-03-31T09:32:01Z</time></trkpt><trkpt lat="45.7141057874874" lon="9.781482672659259"><ele>360.2</ele><time>2026-03-31T09:32:03Z</time></trkpt><trkpt lat="45.71410048893423" lon="9.781613713035869"><ele>360.8</ele><time>2026-03-31T09:32:05Z</time></trkpt><trkpt lat="45.714089902237916" lon="9.781746900297936"><ele>361.40000000000003</ele><time>2026-03-31T09:32:07Z</time></trkpt><trkpt lat="45.71406635846664" lon="9.781881379757214"><ele>362.0</ele><time>2026-03-31T09:32:09Z</time></trkpt><trkpt lat="45.71402428062425" lon="9.782017690267176"><ele>362.0</ele><time>2026-03-31T09:32:11Z</time></trkpt><trkpt lat="45.713967658112395" lon="9.782156835130783"><ele>362.0</ele><time>2026-03-31T09:32:13Z</time></trkpt><trkpt lat="45.71392300076486" lon="9.782311439938477"><ele>362.0</ele><time>2026-03-31T09:32:15Z</time></trkpt><trkpt lat="45.71387521008063" lon="9.78246848512532"><ele>362.0</ele><time>2026-03-31T09:32:17Z</time></trkpt><trkpt lat="45.71384247320419" lon="9.782630253445403"><ele>361.8</ele><time>2026-03-31T09:32:19Z</time></trkpt><trkpt lat="45.713834959543966" lon="9.782721566078951"><ele>361.6</ele><time>2026-03-31T09:32:20Z</time></trkpt><trkpt lat="45.713836008416116" lon="9.78290243068948"><ele>361.40000000000003</ele><time>2026-03-31T09:32:22Z</time></trkpt><trkpt lat="45.713847026180225" lon="9.78308343863946"><ele>361.20000000000005</ele><time>2026-03-31T09:32:24Z</time></trkpt><trkpt lat="45.713863530247956" lon="9.783258390837887"><ele>361.0</ele><time>2026-03-31T09:32:26Z</time></trkpt><trkpt lat="45.71387084995464" lon="9.783431520537194"><ele>361.75</ele><time>2026-03-31T09:32:28Z</time></trkpt><trkpt lat="45.71387703625962" lon="9.783605365305307"><ele>362.5</ele><time>2026-03-31T09:32:30Z</time></trkpt><trkpt lat="45.7138817534728" lon="9.783776779876499"><ele>363.25</ele><time>2026-03-31T09:32:32Z</time></trkpt><trkpt lat="45.713888082577576" lon="9.783949577752525"><ele>364.0</ele><time>2026-03-31T09:32:34Z</time></trkpt><trkpt lat="45.71389264624774" lon="9.784118292996276"><ele>364.0</ele><time>2026-03-31T09:32:36Z</time></trkpt><trkpt lat="45.71389324540112" lon="9.784282611312827"><ele>364.0</ele><time>2026-03-31T09:32:38Z</time></trkpt><trkpt lat="45.71388419140349" lon="9.784449425737044"><ele>364.0</ele><time>2026-03-31T09:32:40Z</time></trkpt><trkpt lat="45.71386856740482" lon="9.784609782047287"><ele>364.0</ele><time>2026-03-31T09:32:42Z</time></trkpt><trkpt lat="45.71386635972007" lon="9.78476505059973"><ele>365.2</ele><time>2026-03-31T09:32:44Z</time></trkpt><trkpt lat="45.7138422693811" lon="9.784909636132992"><ele>366.4</ele><time>2026-03-31T09:32:46Z</time></trkpt><trkpt lat="45.713838624762474" lon="9.78504674119501"><ele>367.6</ele><time>2026-03-31T09:32:48Z</time></trkpt><trkpt lat="45.71383684275135" lon="9.785189791803942"><ele>368.8</ele><time>2026-03-31T09:32:50Z</time></trkpt><trkpt lat="45.713816485956336" lon="9.78531916419682"><ele>370.0</ele><time>2026-03-31T09:32:52Z</time></trkpt><trkpt lat="45.71380257649411" lon="9.785446462184481"><ele>370.8</ele><time>2026-03-31T09:32:54Z</time></trkpt><trkpt lat="45.71378187719757" lon="9.785576445956668"><ele>371.6</ele><time>2026-03-31T09:32:56Z</time></trkpt><trkpt lat="45.713765758005096" lon="9.785711311124501"><ele>372.4</ele><time>2026-03-31T09:32:58Z</time></trkpt><trkpt lat="45.71374827339453" lon="9.785840792247022"><ele>373.2</ele><time>2026-03-31T09:33:00Z</time></trkpt><trkpt lat="45.713726499602586" lon="9.785970592640052"><ele>374.0</ele><time>2026-03-31T09:33:02Z</time></trkpt><trkpt lat="45.71371646715241" lon="9.786107103888554"><ele>374.4</ele><time>2026-03-31T09:33:04Z</time></trkpt><trkpt lat="45.71369426497978" lon="9.786245191054137"><ele>374.79999999999995</ele><time>2026-03-31T09:33:06Z</time></trkpt><trkpt lat="45.71367508630732" lon="9.786384081639286"><ele>375.20000000000005</ele><time>2026-03-31T09:33:08Z</time></trkpt><trkpt lat="45.71365286422433" lon="9.786542594042539"><ele>375.6</ele><time>2026-03-31T09:33:10Z</time></trkpt><trkpt lat="45.71363719093843" lon="9.786719032273828"><ele>376.0</ele><time>2026-03-31T09:33:12Z</time></trkpt><trkpt lat="45.7136244117601" lon="9.786898728710907"><ele>377.0</ele><time>2026-03-31T09:33:14Z</time></trkpt><trkpt lat="45.71363355295589" lon="9.787074516097407"><ele>378.0</ele><time>2026-03-31T09:33:16Z</time></trkpt><trkpt lat="45.713684998297936" lon="9.787233835704225"><ele>379.0</ele><time>2026-03-31T09:33:18Z</time></trkpt><trkpt lat="45.71373789610947" lon="9.787390666029353"><ele>380.0</ele><time>2026-03-31T09:33:20Z</time></trkpt><trkpt lat="45.71379961905113" lon="9.787542786557742"><ele>380.75</ele><time>2026-03-31T09:33:22Z</time></trkpt><trkpt lat="45.7138559229885" lon="9.78769286154798"><ele>381.5</ele><time>2026-03-31T09:33:24Z</time></trkpt><trkpt lat="45.713892052163786" lon="9.787858839686375"><ele>382.25</ele><time>2026-03-31T09:33:26Z</time></trkpt><trkpt lat="45.713903267276564" lon="9.788027265410724"><ele>383.0</ele><time>2026-03-31T09:33:28Z</time></trkpt><trkpt lat="45.71389313417027" lon="9.788192068252913"><ele>383.0</ele><time>2026-03-31T09:33:30Z</time></trkpt><trkpt lat="45.71386035002548" lon="9.788352811563653"><ele>383.0</ele><time>2026-03-31T09:33:32Z</time></trkpt><trkpt lat="45.71381084903768" lon="9.788504382375125"><ele>383.0</ele><time>2026-03-31T09:33:34Z</time></trkpt><trkpt lat="45.71375152460967" lon="9.788648416353757"><ele>383.0</ele><time>2026-03-31T09:33:36Z</time></trkpt><trkpt lat="45.71369427572351" lon="9.788791264569607"><ele>382.25</ele><time>2026-03-31T09:33:38Z</time></trkpt><trkpt lat="45.71363037395698" lon="9.788927269252952"><ele>381.5</ele><time>2026-03-31T09:33:40Z</time></trkpt><trkpt lat="45.71356685340321" lon="9.789062425991366"><ele>380.75</ele><time>2026-03-31T09:33:42Z</time></trkpt><trkpt lat="45.71349541397617" lon="9.78919987575369"><ele>380.0</ele><time>2026-03-31T09:33:44Z</time></trkpt><trkpt lat="45.71341297835781" lon="9.789327698481497"><ele>381.0</ele><time>2026-03-31T09:33:46Z</time></trkpt><trkpt lat="45.713311656436694" lon="9.789427459526213"><ele>382.0</ele><time>2026-03-31T09:33:48Z</time></trkpt><trkpt lat="45.71320340136949" lon="9.789508328835046"><ele>383.0</ele><time>2026-03-31T09:33:50Z</time></trkpt><trkpt lat="45.71309136242673" lon="9.789571664648205"><ele>384.0</ele><time>2026-03-31T09:33:52Z</time></trkpt><trkpt lat="45.71297522002627" lon="9.78961256227684"><ele>384.0</ele><time>2026-03-31T09:33:54Z</time></trkpt><trkpt lat="45.7128618928576" lon="9.789666741830112"><ele>384.0</ele><time>2026-03-31T09:33:56Z</time></trkpt><trkpt lat="45.712756983092866" lon="9.789750722649437"><ele>384.0</ele><time>2026-03-31T09:33:58Z</time></trkpt><trkpt lat="45.712661138177744" lon="9.78985408358679"><ele>384.0</ele><time>2026-03-31T09:34:00Z</time></trkpt><trkpt lat="45.712574531273575" lon="9.789972338150355"><ele>384.75</ele><time>2026-03-31T09:34:02Z</time></trkpt><trkpt lat="45.71248907665275" lon="9.79009003495126"><ele>385.5</ele><time>2026-03-31T09:34:04Z</time></trkpt><trkpt lat="45.71241238840631" lon="9.790221983651842"><ele>386.25</ele><time>2026-03-31T09:34:06Z</time></trkpt><trkpt lat="45.71233345550403" lon="9.790349293354291"><ele>387.0</ele><time>2026-03-31T09:34:08Z</time></trkpt><trkpt lat="45.71224311701102" lon="9.790462897441431"><ele>387.0</ele><time>2026-03-31T09:34:10Z</time></trkpt><trkpt lat="45.712147544597904" lon="9.790562579744911"><ele>387.0</ele><time>2026-03-31T09:34:12Z</time></trkpt><trkpt lat="45.71205986690686" lon="9.790681737946288"><ele>387.0</ele><time>2026-03-31T09:34:14Z</time></trkpt><trkpt lat="45.711980608391144" lon="9.790804172913099"><ele>387.0</ele><time>2026-03-31T09:34:16Z</time></trkpt><trkpt lat="45.71190123258655" lon="9.790916772621534"><ele>389.6</ele><time>2026-03-31T09:34:18Z</time></trkpt><trkpt lat="45.711826769966244" lon="9.791032165053743"><ele>392.20000000000005</ele><time>2026-03-31T09:34:20Z</time></trkpt><trkpt lat="45.711762024089694" lon="9.791148912186266"><ele>394.8</ele><time>2026-03-31T09:34:22Z</time></trkpt><trkpt lat="45.711704199540655" lon="9.791277209458883"><ele>397.4</ele><time>2026-03-31T09:34:24Z</time></trkpt><trkpt lat="45.71166277347221" lon="9.791406113270575"><ele>400.0</ele><time>2026-03-31T09:34:26Z</time></trkpt><trkpt lat="45.71163077563052" lon="9.791544478973877"><ele>400.0</ele><time>2026-03-31T09:34:28Z</time></trkpt><trkpt lat="45.71160001979076" lon="9.791674321746877"><ele>400.0</ele><time>2026-03-31T09:34:30Z</time></trkpt><trkpt lat="45.71156869989774" lon="9.791809326431578"><ele>400.0</ele><time>2026-03-31T09:34:32Z</time></trkpt><trkpt lat="45.71152798934919" lon="9.79193307501665"><ele>400.0</ele><time>2026-03-31T09:34:34Z</time></trkpt><trkpt lat="45.711483215818085" lon="9.792051005283904"><ele>400.0</ele><time>2026-03-31T09:34:36Z</time></trkpt><trkpt lat="45.711434003036686" lon="9.79216654369536"><ele>400.0</ele><time>2026-03-31T09:34:38Z</time></trkpt><trkpt lat="45.711380233603805" lon="9.792280119722964"><ele>400.0</ele><time>2026-03-31T09:34:40Z</time></trkpt><trkpt lat="45.7113283886017" lon="9.792396765995115"><ele>400.0</ele><time>2026-03-31T09:34:42Z</time></trkpt><trkpt lat="45.71128344300558" lon="9.792518879266593"><ele>400.0</ele><time>2026-03-31T09:34:44Z</time></trkpt><trkpt lat="45.711230642415615" lon="9.79264078227445"><ele>400.0</ele><time>2026-03-31T09:34:46Z</time></trkpt><trkpt lat="45.71118477059806" lon="9.792772716885693"><ele>400.0</ele><time>2026-03-31T09:34:48Z</time></trkpt><trkpt lat="45.71116358135599" lon="9.792915692347348"><ele>400.0</ele><time>2026-03-31T09:34:50Z</time></trkpt><trkpt lat="45.71115008840124" lon="9.79308581554747"><ele>400.0</ele><time>2026-03-31T09:34:52Z</time></trkpt><trkpt lat="45.71113747608884" lon="9.793261521876135"><ele>400.0</ele><time>2026-03-31T09:34:54Z</time></trkpt><trkpt lat="45.71112916695504" lon="9.7934313512457"><ele>400.6666666666667</ele><time>2026-03-31T09:34:56Z</time></trkpt><trkpt lat="45.71113050101792" lon="9.793590808094448"><ele>401.33333333333337</ele><time>2026-03-31T09:34:58Z</time></trkpt><trkpt lat="45.71113747172666" lon="9.79376475588844"><ele>402.0</ele><time>2026-03-31T09:35:00Z</time></trkpt><trkpt lat="45.711148324528885" lon="9.793855522347057"><ele>402.66666666666663</ele><time>2026-03-31T09:35:01Z</time></trkpt><trkpt lat="45.71116403227622" lon="9.793944896293686"><ele>403.3333333333333</ele><time>2026-03-31T09:35:02Z</time></trkpt><trkpt lat="45.7111838763601" lon="9.794030936213668"><ele>404.0</ele><time>2026-03-31T09:35:03Z</time></trkpt><trkpt lat="45.711210151466034" lon="9.794113204609259"><ele>404.0</ele><time>2026-03-31T09:35:04Z</time></trkpt><trkpt lat="45.711275258516345" lon="9.794268266625874"><ele>404.0</ele><time>2026-03-31T09:35:06Z</time></trkpt><trkpt lat="45.71130867864889" lon="9.794345931448433"><ele>404.0</ele><time>2026-03-31T09:35:07Z</time></trkpt><trkpt lat="45.71134272179709" lon="9.794425903483308"><ele>404.0</ele><time>2026-03-31T09:35:08Z</time></trkpt><trkpt lat="45.71141354224418" lon="9.79457147288598"><ele>404.0</ele><time>2026-03-31T09:35:10Z</time></trkpt><trkpt lat="45.71148543890857" lon="9.794717453090618"><ele>403.8333333333333</ele><time>2026-03-31T09:35:12Z</time></trkpt><trkpt lat="45.7115321037649" lon="9.794778753712263"><ele>403.66666666666663</ele><time>2026-03-31T09:35:13Z</time></trkpt><trkpt lat="45.71158720138196" lon="9.794831512829749"><ele>403.5</ele><time>2026-03-31T09:35:14Z</time></trkpt><trkpt lat="45.711645949209576" lon="9.794871982345473"><ele>403.33333333333337</ele><time>2026-03-31T09:35:15Z</time></trkpt><trkpt lat="45.71170620916764" lon="9.794904404011783"><ele>403.1666666666667</ele><time>2026-03-31T09:35:16Z</time></trkpt><trkpt lat="45.71182101926905" lon="9.794957385148757"><ele>403.0</ele><time>2026-03-31T09:35:18Z</time></trkpt><trkpt lat="45.711940845172386" lon="9.794999769615535"><ele>403.0</ele><time>2026-03-31T09:35:20Z</time></trkpt><trkpt lat="45.712060495048966" lon="9.795034895295549"><ele>403.0</ele><time>2026-03-31T09:35:22Z</time></trkpt><trkpt lat="45.71217115924794" lon="9.795085467410226"><ele>403.0</ele><time>2026-03-31T09:35:24Z</time></trkpt><trkpt lat="45.71227058056162" lon="9.795170792859173"><ele>403.0</ele><time>2026-03-31T09:35:26Z</time></trkpt><trkpt lat="45.712344820531804" lon="9.795297047148132"><ele>405.4</ele><time>2026-03-31T09:35:28Z</time></trkpt><trkpt lat="45.71238892498618" lon="9.795441826898934"><ele>407.79999999999995</ele><time>2026-03-31T09:35:30Z</time></trkpt><trkpt lat="45.712399704315324" lon="9.795592695304148"><ele>410.2</ele><time>2026-03-31T09:35:32Z</time></trkpt><trkpt lat="45.71237730206867" lon="9.79573669904612"><ele>412.6</ele><time>2026-03-31T09:35:34Z</time></trkpt><trkpt lat="45.71233869364598" lon="9.795885254225126"><ele>415.0</ele><time>2026-03-31T09:35:36Z</time></trkpt><trkpt lat="45.7122895942274" lon="9.796035454212927"><ele>415.0</ele><time>2026-03-31T09:35:38Z</time></trkpt><trkpt lat="45.7122469745391" lon="9.79619232404776"><ele>415.0</ele><time>2026-03-31T09:35:40Z</time></trkpt><trkpt lat="45.71219766684852" lon="9.796344679817413"><ele>415.0</ele><time>2026-03-31T09:35:42Z</time></trkpt><trkpt lat="45.71213327973244" lon="9.796496449843971"><ele>415.0</ele><time>2026-03-31T09:35:44Z</time></trkpt><trkpt lat="45.71209768731049" lon="9.796577459043451"><ele>415.0</ele><time>2026-03-31T09:35:45Z</time></trkpt><trkpt lat="45.712047210115294" lon="9.796650207102306"><ele>415.00000000000006</ele><time>2026-03-31T09:35:46Z</time></trkpt><trkpt lat="45.71198885769932" lon="9.796709977089339"><ele>415.0</ele><time>2026-03-31T09:35:47Z</time></trkpt><trkpt lat="45.71192322228942" lon="9.79677355913048"><ele>415.0</ele><time>2026-03-31T09:35:48Z</time></trkpt><trkpt lat="45.71185549295192" lon="9.796841472934732"><ele>415.0</ele><time>2026-03-31T09:35:49Z</time></trkpt><trkpt lat="45.711788290797955" lon="9.796925952398968"><ele>415.00000000000006</ele><time>2026-03-31T09:35:50Z</time></trkpt><trkpt lat="45.711721797629046" lon="9.797030428480483"><ele>415.0</ele><time>2026-03-31T09:35:51Z</time></trkpt><trkpt lat="45.71166439952921" lon="9.79715086422673"><ele>413.4</ele><time>2026-03-31T09:35:52Z</time></trkpt><trkpt lat="45.71161371111626" lon="9.797284038224962"><ele>411.8</ele><time>2026-03-31T09:35:53Z</time></trkpt><trkpt lat="45.71156691032872" lon="9.797422451612233"><ele>410.20000000000005</ele><time>2026-03-31T09:35:54Z</time></trkpt><trkpt lat="45.711523288704235" lon="9.797561852250505"><ele>408.6</ele><time>2026-03-31T09:35:55Z</time></trkpt><trkpt lat="45.71148216241604" lon="9.797696876316463"><ele>407.0</ele><time>2026-03-31T09:35:56Z</time></trkpt><trkpt lat="45.71143564007437" lon="9.797823670677598"><ele>405.66666666666663</ele><time>2026-03-31T09:35:57Z</time></trkpt><trkpt lat="45.71139014114727" lon="9.797943846250572"><ele>404.3333333333333</ele><time>2026-03-31T09:35:58Z</time></trkpt><trkpt lat="45.711339366082875" lon="9.798052389691646"><ele>403.0</ele><time>2026-03-31T09:35:59Z</time></trkpt><trkpt lat="45.711285843533176" lon="9.798150517013207"><ele>401.66666666666663</ele><time>2026-03-31T09:36:00Z</time></trkpt><trkpt lat="45.711227881484355" lon="9.79823657366627"><ele>400.3333333333333</ele><time>2026-03-31T09:36:01Z</time></trkpt><trkpt lat="45.71116892776883" lon="9.798317326460765"><ele>399.0</ele><time>2026-03-31T09:36:02Z</time></trkpt><trkpt lat="45.711113005970425" lon="9.798391446186683"><ele>399.85714285714283</ele><time>2026-03-31T09:36:03Z</time></trkpt><trkpt lat="45.71105672108572" lon="9.798457345731657"><ele>400.7142857142857</ele><time>2026-03-31T09:36:04Z</time></trkpt><trkpt lat="45.711009828752125" lon="9.79853206181363"><ele>401.57142857142856</ele><time>2026-03-31T09:36:05Z</time></trkpt><trkpt lat="45.710971923738015" lon="9.798617249191153"><ele>402.42857142857144</ele><time>2026-03-31T09:36:06Z</time></trkpt><trkpt lat="45.71094606859437" lon="9.798706185036686"><ele>403.2857142857143</ele><time>2026-03-31T09:36:07Z</time></trkpt><trkpt lat="45.71092949758896" lon="9.798797975434574"><ele>404.1428571428571</ele><time>2026-03-31T09:36:08Z</time></trkpt><trkpt lat="45.71091676786782" lon="9.79888930128313"><ele>405.0</ele><time>2026-03-31T09:36:09Z</time></trkpt><trkpt lat="45.710908537131985" lon="9.79907212279737"><ele>404.99999999999994</ele><time>2026-03-31T09:36:11Z</time></trkpt><trkpt lat="45.7109099557923" lon="9.799163028503951"><ele>405.0</ele><time>2026-03-31T09:36:12Z</time></trkpt><trkpt lat="45.71091986931595" lon="9.799258125064975"><ele>405.0</ele><time>2026-03-31T09:36:13Z</time></trkpt><trkpt lat="45.710942785067225" lon="9.79934836391389"><ele>405.0</ele><time>2026-03-31T09:36:14Z</time></trkpt><trkpt lat="45.71097302054224" lon="9.79943895954575"><ele>405.0</ele><time>2026-03-31T09:36:15Z</time></trkpt><trkpt lat="45.71098965828328" lon="9.799532956082993"><ele>404.99999999999994</ele><time>2026-03-31T09:36:16Z</time></trkpt><trkpt lat="45.711004227774744" lon="9.799632587300678"><ele>405.0</ele><time>2026-03-31T09:36:17Z</time></trkpt><trkpt lat="45.71101073350597" lon="9.799734778138458"><ele>404.4285714285714</ele><time>2026-03-31T09:36:18Z</time></trkpt><trkpt lat="45.71101062590063" lon="9.799842066792467"><ele>403.85714285714283</ele><time>2026-03-31T09:36:19Z</time></trkpt><trkpt lat="45.71099844690985" lon="9.799944285136686"><ele>403.2857142857143</ele><time>2026-03-31T09:36:20Z</time></trkpt><trkpt lat="45.71097503260129" lon="9.80004621678572"><ele>402.71428571428567</ele><time>2026-03-31T09:36:21Z</time></trkpt><trkpt lat="45.71094489800189" lon="9.800141975991385"><ele>402.14285714285717</ele><time>2026-03-31T09:36:22Z</time></trkpt><trkpt lat="45.710916291975295" lon="9.800241928502663"><ele>401.57142857142856</ele><time>2026-03-31T09:36:23Z</time></trkpt><trkpt lat="45.71088994257308" lon="9.800341231375743"><ele>401.0</ele><time>2026-03-31T09:36:24Z</time></trkpt><trkpt lat="45.710867626617215" lon="9.800439628229743"><ele>400.16666666666663</ele><time>2026-03-31T09:36:25Z</time></trkpt><trkpt lat="45.710852310832216" lon="9.800546466315133"><ele>399.3333333333333</ele><time>2026-03-31T09:36:26Z</time></trkpt><trkpt lat="45.71084980385963" lon="9.80065684311145"><ele>398.5</ele><time>2026-03-31T09:36:27Z</time></trkpt><trkpt lat="45.71086074631203" lon="9.800772639693758"><ele>397.66666666666663</ele><time>2026-03-31T09:36:28Z</time></trkpt><trkpt lat="45.710884834582785" lon="9.800893681011438"><ele>396.8333333333333</ele><time>2026-03-31T09:36:29Z</time></trkpt><trkpt lat="45.71091824867299" lon="9.801024540672577"><ele>396.0</ele><time>2026-03-31T09:36:30Z</time></trkpt><trkpt lat="45.71096047185539" lon="9.801160474899271"><ele>396.0</ele><time>2026-03-31T09:36:31Z</time></trkpt><trkpt lat="45.71102428100979" lon="9.801285397383428"><ele>396.0</ele><time>2026-03-31T09:36:32Z</time></trkpt><trkpt lat="45.711102231608606" lon="9.8013911087434"><ele>396.0</ele><time>2026-03-31T09:36:33Z</time></trkpt><trkpt lat="45.71119456725541" lon="9.80147956148615"><ele>396.0</ele><time>2026-03-31T09:36:34Z</time></trkpt><trkpt lat="45.711296709343806" lon="9.80156003606002"><ele>396.0</ele><time>2026-03-31T09:36:35Z</time></trkpt><trkpt lat="45.711397002662174" lon="9.801638488094405"><ele>394.20000000000005</ele><time>2026-03-31T09:36:36Z</time></trkpt><trkpt lat="45.71148839605279" lon="9.80171640095056"><ele>392.40000000000003</ele><time>2026-03-31T09:36:37Z</time></trkpt><trkpt lat="45.71157368231734" lon="9.801797013685295"><ele>390.6</ele><time>2026-03-31T09:36:38Z</time></trkpt><trkpt lat="45.71165843839954" lon="9.801883303132755"><ele>388.8</ele><time>2026-03-31T09:36:39Z</time></trkpt><trkpt lat="45.711735699347095" lon="9.80196758739216"><ele>387.0</ele><time>2026-03-31T09:36:40Z</time></trkpt><trkpt lat="45.71180645991189" lon="9.802064511536832"><ele>387.0</ele><time>2026-03-31T09:36:41Z</time></trkpt><trkpt lat="45.71187300619429" lon="9.802183692048425"><ele>387.0</ele><time>2026-03-31T09:36:42Z</time></trkpt><trkpt lat="45.71193358925526" lon="9.802320209777797"><ele>387.0</ele><time>2026-03-31T09:36:43Z</time></trkpt><trkpt lat="45.711992383609825" lon="9.802470564202533"><ele>387.0</ele><time>2026-03-31T09:36:44Z</time></trkpt><trkpt lat="45.71205177492253" lon="9.802626911513464"><ele>382.40000000000003</ele><time>2026-03-31T09:36:45Z</time></trkpt><trkpt lat="45.712110368825144" lon="9.80277322388929"><ele>377.8</ele><time>2026-03-31T09:36:46Z</time></trkpt><trkpt lat="45.71216232289428" lon="9.802908649856521"><ele>373.2</ele><time>2026-03-31T09:36:47Z</time></trkpt><trkpt lat="45.71220456050771" lon="9.803036031533223"><ele>368.6</ele><time>2026-03-31T09:36:48Z</time></trkpt><trkpt lat="45.71223126628543" lon="9.803159626565137"><ele>364.0</ele><time>2026-03-31T09:36:49Z</time></trkpt><trkpt lat="45.71224384371596" lon="9.80327559152404"><ele>364.0</ele><time>2026-03-31T09:36:50Z</time></trkpt><trkpt lat="45.71228383079282" lon="9.803438595353521"><ele>364.0</ele><time>2026-03-31T09:36:52Z</time></trkpt><trkpt lat="45.71234286765427" lon="9.803474705803257"><ele>364.0</ele><time>2026-03-31T09:36:53Z</time></trkpt><trkpt lat="45.71240653133167" lon="9.803474851321047"><ele>364.0</ele><time>2026-03-31T09:36:54Z</time></trkpt><trkpt lat="45.71246294034389" lon="9.803422466296341"><ele>364.0</ele><time>2026-03-31T09:36:55Z</time></trkpt><trkpt lat="45.71249085985961" lon="9.803331513465642"><ele>364.0</ele><time>2026-03-31T09:36:56Z</time></trkpt><trkpt lat="45.71249719864975" lon="9.80322963799814"><ele>364.0</ele><time>2026-03-31T09:36:57Z</time></trkpt><trkpt lat="45.712463819873285" lon="9.803128904830244"><ele>364.0</ele><time>2026-03-31T09:36:58Z</time></trkpt><trkpt lat="45.71241076358054" lon="9.803047401553101"><ele>364.0</ele><time>2026-03-31T09:36:59Z</time></trkpt><trkpt lat="45.71236972904358" lon="9.802963142585625"><ele>364.0</ele><time>2026-03-31T09:37:00Z</time></trkpt><trkpt lat="45.71235587741122" lon="9.802873828707469"><ele>364.0</ele><time>2026-03-31T09:37:01Z</time></trkpt><trkpt lat="45.71244464507556" lon="9.802765406967762"><ele>364.0</ele><time>2026-03-31T09:37:03Z</time></trkpt><trkpt lat="45.71250998025438" lon="9.802793467734759"><ele>364.0</ele><time>2026-03-31T09:37:04Z</time></trkpt><trkpt lat="45.712560667056614" lon="9.802868869046355"><ele>364.0</ele><time>2026-03-31T09:37:05Z</time></trkpt><trkpt lat="45.712604458047565" lon="9.802952943967014"><ele>364.0</ele><time>2026-03-31T09:37:06Z</time></trkpt><trkpt lat="45.712650918150196" lon="9.80304353296894"><ele>364.0</ele><time>2026-03-31T09:37:07Z</time></trkpt><trkpt lat="45.712690175570344" lon="9.803153737954815"><ele>364.0</ele><time>2026-03-31T09:37:08Z</time></trkpt><trkpt lat="45.71272266808179" lon="9.80328423261427"><ele>364.0</ele><time>2026-03-31T09:37:09Z</time></trkpt><trkpt lat="45.712739610475786" lon="9.803429166815862"><ele>359.0</ele><time>2026-03-31T09:37:10Z</time></trkpt><trkpt lat="45.71275858221907" lon="9.803579760477346"><ele>354.0</ele><time>2026-03-31T09:37:11Z</time></trkpt><trkpt lat="45.71277096749273" lon="9.803748892366418"><ele>349.0</ele><time>2026-03-31T09:37:12Z</time></trkpt><trkpt lat="45.712783493784514" lon="9.803928158201904"><ele>344.0</ele><time>2026-03-31T09:37:13Z</time></trkpt><trkpt lat="45.712801602842944" lon="9.804114767395285"><ele>344.0</ele><time>2026-03-31T09:37:14Z</time></trkpt><trkpt lat="45.71281683286916" lon="9.804308344525943"><ele>344.0</ele><time>2026-03-31T09:37:15Z</time></trkpt><trkpt lat="45.71283127626786" lon="9.804512353779145"><ele>344.0</ele><time>2026-03-31T09:37:16Z</time></trkpt><trkpt lat="45.71284375291706" lon="9.80471910434769"><ele>344.0</ele><time>2026-03-31T09:37:17Z</time></trkpt><trkpt lat="45.71285971255687" lon="9.804929154464647"><ele>342.6666666666667</ele><time>2026-03-31T09:37:18Z</time></trkpt><trkpt lat="45.71286716890914" lon="9.805144472443937"><ele>341.3333333333333</ele><time>2026-03-31T09:37:19Z</time></trkpt><trkpt lat="45.71287199255778" lon="9.80536651011734"><ele>340.0</ele><time>2026-03-31T09:37:20Z</time></trkpt><trkpt lat="45.71287403822493" lon="9.805591441642468"><ele>339.0</ele><time>2026-03-31T09:37:21Z</time></trkpt><trkpt lat="45.712877206905205" lon="9.805814341569931"><ele>338.0</ele><time>2026-03-31T09:37:22Z</time></trkpt><trkpt lat="45.71288538766215" lon="9.806024731254679"><ele>337.0</ele><time>2026-03-31T09:37:23Z</time></trkpt><trkpt lat="45.71289727027913" lon="9.80623504379001"><ele>337.0</ele><time>2026-03-31T09:37:24Z</time></trkpt><trkpt lat="45.712909266859334" lon="9.806434832957724"><ele>337.0</ele><time>2026-03-31T09:37:25Z</time></trkpt><trkpt lat="45.71291860594604" lon="9.806629640908005"><ele>337.0</ele><time>2026-03-31T09:37:26Z</time></trkpt><trkpt lat="45.71292780122423" lon="9.806816720475176"><ele>337.0</ele><time>2026-03-31T09:37:27Z</time></trkpt><trkpt lat="45.71294169056583" lon="9.806996410406851"><ele>337.0</ele><time>2026-03-31T09:37:28Z</time></trkpt><trkpt lat="45.71295097973969" lon="9.80717394578373"><ele>337.0</ele><time>2026-03-31T09:37:29Z</time></trkpt><trkpt lat="45.71295911379251" lon="9.80734507884305"><ele>337.0</ele><time>2026-03-31T09:37:30Z</time></trkpt><trkpt lat="45.71297075316258" lon="9.807516136743503"><ele>337.0</ele><time>2026-03-31T09:37:31Z</time></trkpt><trkpt lat="45.712982548943614" lon="9.80768256691269"><ele>336.6</ele><time>2026-03-31T09:37:32Z</time></trkpt><trkpt lat="45.71299363803638" lon="9.807844070119536"><ele>336.20000000000005</ele><time>2026-03-31T09:37:33Z</time></trkpt><trkpt lat="45.71300512304083" lon="9.808001417486553"><ele>335.8</ele><time>2026-03-31T09:37:34Z</time></trkpt><trkpt lat="45.71301340992939" lon="9.80815608698437"><ele>335.4</ele><time>2026-03-31T09:37:35Z</time></trkpt><trkpt lat="45.71302143629593" lon="9.808310247920502"><ele>335.0</ele><time>2026-03-31T09:37:36Z</time></trkpt><trkpt lat="45.71303183245891" lon="9.8084634698531"><ele>334.2</ele><time>2026-03-31T09:37:37Z</time></trkpt><trkpt lat="45.71303702872241" lon="9.8086118356671"><ele>333.4</ele><time>2026-03-31T09:37:38Z</time></trkpt><trkpt lat="45.71304459610426" lon="9.808761453375917"><ele>332.6</ele><time>2026-03-31T09:37:39Z</time></trkpt><trkpt lat="45.71305516555916" lon="9.808908590888405"><ele>331.8</ele><time>2026-03-31T09:37:40Z</time></trkpt><trkpt lat="45.71306771129178" lon="9.809053773635185"><ele>331.0</ele><time>2026-03-31T09:37:41Z</time></trkpt><trkpt lat="45.71307600925747" lon="9.809195782800671"><ele>330.8</ele><time>2026-03-31T09:37:42Z</time></trkpt><trkpt lat="45.71308028868524" lon="9.809335687471952"><ele>330.6</ele><time>2026-03-31T09:37:43Z</time></trkpt><trkpt lat="45.7130790667902" lon="9.809473438610949"><ele>330.4</ele><time>2026-03-31T09:37:44Z</time></trkpt><trkpt lat="45.7130691447388" lon="9.809613008259033"><ele>330.2</ele><time>2026-03-31T09:37:45Z</time></trkpt><trkpt lat="45.71304846040413" lon="9.809743448541141"><ele>330.0</ele><time>2026-03-31T09:37:46Z</time></trkpt><trkpt lat="45.71301240557256" lon="9.809866211458234"><ele>330.0</ele><time>2026-03-31T09:37:47Z</time></trkpt><trkpt lat="45.71296445449499" lon="9.809978213106492"><ele>330.0</ele><time>2026-03-31T09:37:48Z</time></trkpt><trkpt lat="45.71291591206671" lon="9.810084297948253"><ele>330.0</ele><time>2026-03-31T09:37:49Z</time></trkpt><trkpt lat="45.71286126028786" lon="9.810179840906692"><ele>330.0</ele><time>2026-03-31T09:37:50Z</time></trkpt><trkpt lat="45.7127963787186" lon="9.81026299902686"><ele>330.0</ele><time>2026-03-31T09:37:51Z</time></trkpt><trkpt lat="45.71273207757427" lon="9.810342693499779"><ele>330.0</ele><time>2026-03-31T09:37:52Z</time></trkpt><trkpt lat="45.71266961370947" lon="9.810427384485193"><ele>329.5</ele><time>2026-03-31T09:37:53Z</time></trkpt><trkpt lat="45.71261044746318" lon="9.81051638499196"><ele>329.0</ele><time>2026-03-31T09:37:54Z</time></trkpt><trkpt lat="45.71255131738013" lon="9.810600240511494"><ele>328.5</ele><time>2026-03-31T09:37:55Z</time></trkpt><trkpt lat="45.71248977608458" lon="9.810689074884614"><ele>328.0</ele><time>2026-03-31T09:37:56Z</time></trkpt><trkpt lat="45.712430047056074" lon="9.810778211247047"><ele>327.5</ele><time>2026-03-31T09:37:57Z</time></trkpt><trkpt lat="45.71237121036415" lon="9.810857088486568"><ele>327.0</ele><time>2026-03-31T09:37:58Z</time></trkpt><trkpt lat="45.71230877174431" lon="9.810946012740073"><ele>327.0</ele><time>2026-03-31T09:37:59Z</time></trkpt><trkpt lat="45.71224779404799" lon="9.811039349462309"><ele>327.0</ele><time>2026-03-31T09:38:00Z</time></trkpt><trkpt lat="45.71218802360637" lon="9.811127546720893"><ele>327.0</ele><time>2026-03-31T09:38:01Z</time></trkpt><trkpt lat="45.712125097577136" lon="9.811218201851295"><ele>327.0</ele><time>2026-03-31T09:38:02Z</time></trkpt><trkpt lat="45.71206310272771" lon="9.811306932065685"><ele>327.0</ele><time>2026-03-31T09:38:03Z</time></trkpt><trkpt lat="45.71200224987933" lon="9.811398300007617"><ele>327.0</ele><time>2026-03-31T09:38:04Z</time></trkpt><trkpt lat="45.71193812729512" lon="9.81148959249034"><ele>326.8</ele><time>2026-03-31T09:38:05Z</time></trkpt><trkpt lat="45.711874400191945" lon="9.811581272466869"><ele>326.6</ele><time>2026-03-31T09:38:06Z</time></trkpt><trkpt lat="45.71181237697572" lon="9.81167436632219"><ele>326.40000000000003</ele><time>2026-03-31T09:38:07Z</time></trkpt><trkpt lat="45.711751411990946" lon="9.811769570085112"><ele>326.20000000000005</ele><time>2026-03-31T09:38:08Z</time></trkpt><trkpt lat="45.711690345282804" lon="9.8118667886116"><ele>326.0</ele><time>2026-03-31T09:38:09Z</time></trkpt><trkpt lat="45.71162969855504" lon="9.811966087795813"><ele>325.4</ele><time>2026-03-31T09:38:10Z</time></trkpt><trkpt lat="45.71157217534704" lon="9.81206910378122"><ele>324.8</ele><time>2026-03-31T09:38:11Z</time></trkpt><trkpt lat="45.71151565935162" lon="9.812176187507667"><ele>324.2</ele><time>2026-03-31T09:38:12Z</time></trkpt><trkpt lat="45.71145874503385" lon="9.812280439622882"><ele>323.59999999999997</ele><time>2026-03-31T09:38:13Z</time></trkpt><trkpt lat="45.711405908208626" lon="9.812390127084843"><ele>323.0</ele><time>2026-03-31T09:38:14Z</time></trkpt><trkpt lat="45.71135426743528" lon="9.812501661210288"><ele>323.0</ele><time>2026-03-31T09:38:15Z</time></trkpt><trkpt lat="45.711304951631654" lon="9.812616341906063"><ele>323.0</ele><time>2026-03-31T09:38:16Z</time></trkpt><trkpt lat="45.711258019701454" lon="9.812733830360138"><ele>323.0</ele><time>2026-03-31T09:38:17Z</time></trkpt><trkpt lat="45.711209648584024" lon="9.812844704098977"><ele>323.0</ele><time>2026-03-31T09:38:18Z</time></trkpt><trkpt lat="45.711156521411155" lon="9.812956985658193"><ele>323.0</ele><time>2026-03-31T09:38:19Z</time></trkpt><trkpt lat="45.71110718952126" lon="9.813065284834627"><ele>322.33333333333337</ele><time>2026-03-31T09:38:20Z</time></trkpt><trkpt lat="45.71106053940774" lon="9.813177072179988"><ele>321.6666666666667</ele><time>2026-03-31T09:38:21Z</time></trkpt><trkpt lat="45.71101469028746" lon="9.813290292252441"><ele>321.0</ele><time>2026-03-31T09:38:22Z</time></trkpt><trkpt lat="45.71096888623511" lon="9.813398561140492"><ele>320.3333333333333</ele><time>2026-03-31T09:38:23Z</time></trkpt><trkpt lat="45.71092431953373" lon="9.813501130823274"><ele>319.66666666666663</ele><time>2026-03-31T09:38:24Z</time></trkpt><trkpt lat="45.71087725821267" lon="9.81360299852512"><ele>319.0</ele><time>2026-03-31T09:38:25Z</time></trkpt><trkpt lat="45.71083261111553" lon="9.813705492798926"><ele>318.8333333333333</ele><time>2026-03-31T09:38:26Z</time></trkpt><trkpt lat="45.71079035277874" lon="9.813807408590783"><ele>318.66666666666663</ele><time>2026-03-31T09:38:27Z</time></trkpt><trkpt lat="45.71074805310128" lon="9.81390672362608"><ele>318.5</ele><time>2026-03-31T09:38:28Z</time></trkpt><trkpt lat="45.710705391026615" lon="9.81400672034598"><ele>318.3333333333333</ele><time>2026-03-31T09:38:29Z</time></trkpt><trkpt lat="45.7106630314348" lon="9.81410112010708"><ele>318.1666666666667</ele><time>2026-03-31T09:38:30Z</time></trkpt><trkpt lat="45.71062067606651" lon="9.814194180891334"><ele>318.0</ele><time>2026-03-31T09:38:31Z</time></trkpt><trkpt lat="45.710581988389414" lon="9.81428578326281"><ele>318.0</ele><time>2026-03-31T09:38:32Z</time></trkpt><trkpt lat="45.71054420594479" lon="9.814375697104264"><ele>318.0</ele><time>2026-03-31T09:38:33Z</time></trkpt><trkpt lat="45.71050936610388" lon="9.814466464461884"><ele>318.0</ele><time>2026-03-31T09:38:34Z</time></trkpt><trkpt lat="45.71047433390536" lon="9.814559503942709"><ele>318.0</ele><time>2026-03-31T09:38:35Z</time></trkpt><trkpt lat="45.71044242633122" lon="9.814653197102826"><ele>318.0</ele><time>2026-03-31T09:38:36Z</time></trkpt><trkpt lat="45.71041389274676" lon="9.814745323155693"><ele>318.0</ele><time>2026-03-31T09:38:37Z</time></trkpt><trkpt lat="45.71038800201881" lon="9.81484014368569"><ele>318.0</ele><time>2026-03-31T09:38:38Z</time></trkpt><trkpt lat="45.71036610177554" lon="9.814934884557427"><ele>318.0</ele><time>2026-03-31T09:38:39Z</time></trkpt><trkpt lat="45.71034591816475" lon="9.815029249298782"><ele>318.0</ele><time>2026-03-31T09:38:40Z</time></trkpt><trkpt lat="45.710329701247204" lon="9.815128827766577"><ele>318.0</ele><time>2026-03-31T09:38:41Z</time></trkpt><trkpt lat="45.71031199901779" lon="9.81522794627605"><ele>318.0</ele><time>2026-03-31T09:38:42Z</time></trkpt><trkpt lat="45.71029188008072" lon="9.815325429267938"><ele>318.0</ele><time>2026-03-31T09:38:43Z</time></trkpt><trkpt lat="45.71027409076474" lon="9.815417815833625"><ele>318.0</ele><time>2026-03-31T09:38:44Z</time></trkpt><trkpt lat="45.71025981175126" lon="9.815516340106536"><ele>318.0</ele><time>2026-03-31T09:38:45Z</time></trkpt><trkpt lat="45.71024497401789" lon="9.815607552861886"><ele>317.57142857142856</ele><time>2026-03-31T09:38:46Z</time></trkpt><trkpt lat="45.710229923397556" lon="9.8157040023954"><ele>317.14285714285717</ele><time>2026-03-31T09:38:47Z</time></trkpt><trkpt lat="45.71021299288401" lon="9.815799228425952"><ele>316.7142857142857</ele><time>2026-03-31T09:38:48Z</time></trkpt><trkpt lat="45.71019850394733" lon="9.815891223648023"><ele>316.2857142857143</ele><time>2026-03-31T09:38:49Z</time></trkpt><trkpt lat="45.71018416585714" lon="9.815984674717814"><ele>315.8571428571429</ele><time>2026-03-31T09:38:50Z</time></trkpt><trkpt lat="45.71017137883532" lon="9.816075668238744"><ele>315.42857142857144</ele><time>2026-03-31T09:38:51Z</time></trkpt><trkpt lat="45.71016135198812" lon="9.816167331142823"><ele>315.0</ele><time>2026-03-31T09:38:52Z</time></trkpt><trkpt lat="45.71015492266007" lon="9.81625833094744"><ele>314.7142857142857</ele><time>2026-03-31T09:38:53Z</time></trkpt><trkpt lat="45.71014832873811" lon="9.816349416767148"><ele>314.42857142857144</ele><time>2026-03-31T09:38:54Z</time></trkpt><trkpt lat="45.710142899818585" lon="9.816442550132981"><ele>314.1428571428571</ele><time>2026-03-31T09:38:55Z</time></trkpt><trkpt lat="45.71014011900248" lon="9.8165329506128"><ele>313.8571428571429</ele><time>2026-03-31T09:38:56Z</time></trkpt><trkpt lat="45.71014056589293" lon="9.81662660536763"><ele>313.57142857142856</ele><time>2026-03-31T09:38:57Z</time></trkpt><trkpt lat="45.71014381912674" lon="9.81671674025884"><ele>313.2857142857143</ele><time>2026-03-31T09:38:58Z</time></trkpt><trkpt lat="45.71014603335677" lon="9.81681342501998"><ele>313.0</ele><time>2026-03-31T09:38:59Z</time></trkpt><trkpt lat="45.71014829616647" lon="9.816907599527374"><ele>313.0</ele><time>2026-03-31T09:39:00Z</time></trkpt><trkpt lat="45.710149790066446" lon="9.817002455518475"><ele>313.0</ele><time>2026-03-31T09:39:01Z</time></trkpt><trkpt lat="45.710152043412855" lon="9.817097653767025"><ele>313.0</ele><time>2026-03-31T09:39:02Z</time></trkpt><trkpt lat="45.710153287204484" lon="9.817194811932449"><ele>313.0</ele><time>2026-03-31T09:39:03Z</time></trkpt><trkpt lat="45.710153281338336" lon="9.817292047861352"><ele>313.0</ele><time>2026-03-31T09:39:04Z</time></trkpt><trkpt lat="45.71015212983994" lon="9.81739049419295"><ele>313.0</ele><time>2026-03-31T09:39:05Z</time></trkpt><trkpt lat="45.710151817972665" lon="9.817488348554448"><ele>313.0</ele><time>2026-03-31T09:39:06Z</time></trkpt><trkpt lat="45.710153935708405" lon="9.81758729911133"><ele>313.0</ele><time>2026-03-31T09:39:07Z</time></trkpt><trkpt lat="45.71015714126976" lon="9.817683185888221"><ele>313.0</ele><time>2026-03-31T09:39:08Z</time></trkpt><trkpt lat="45.71016030633687" lon="9.817774682418236"><ele>313.0</ele><time>2026-03-31T09:39:09Z</time></trkpt><trkpt lat="45.71016339831568" lon="9.817868302529757"><ele>313.0</ele><time>2026-03-31T09:39:10Z</time></trkpt><trkpt lat="45.710165707749624" lon="9.81795987668927"><ele>313.0</ele><time>2026-03-31T09:39:11Z</time></trkpt><trkpt lat="45.710168157380565" lon="9.818051608837903"><ele>313.0</ele><time>2026-03-31T09:39:12Z</time></trkpt><trkpt lat="45.71016774963795" lon="9.818143950937587"><ele>313.0</ele><time>2026-03-31T09:39:13Z</time></trkpt><trkpt lat="45.71017071099345" lon="9.818235578688927"><ele>313.0</ele><time>2026-03-31T09:39:14Z</time></trkpt><trkpt lat="45.71017463748242" lon="9.81832593981228"><ele>313.0</ele><time>2026-03-31T09:39:15Z</time></trkpt><trkpt lat="45.71018222987142" lon="9.818504832874796"><ele>313.0</ele><time>2026-03-31T09:39:17Z</time></trkpt><trkpt lat="45.71018639316879" lon="9.818598100694075"><ele>313.0</ele><time>2026-03-31T09:39:18Z</time></trkpt><trkpt lat="45.71018747852667" lon="9.81868993756658"><ele>313.0</ele><time>2026-03-31T09:39:19Z</time></trkpt><trkpt lat="45.71018814176903" lon="9.818780289716972"><ele>313.0</ele><time>2026-03-31T09:39:20Z</time></trkpt><trkpt lat="45.71018939418178" lon="9.818958691324992"><ele>313.0</ele><time>2026-03-31T09:39:22Z</time></trkpt><trkpt lat="45.71019435237758" lon="9.819130753218236"><ele>313.0</ele><time>2026-03-31T09:39:24Z</time></trkpt><trkpt lat="45.71020076387683" lon="9.819306825270143"><ele>313.0</ele><time>2026-03-31T09:39:26Z</time></trkpt><trkpt lat="45.71020690623411" lon="9.819482817729178"><ele>313.0</ele><time>2026-03-31T09:39:28Z</time></trkpt><trkpt lat="45.71021500704888" lon="9.819655953855227"><ele>313.25</ele><time>2026-03-31T09:39:30Z</time></trkpt><trkpt lat="45.710222364399336" lon="9.819829490536847"><ele>313.5</ele><time>2026-03-31T09:39:32Z</time></trkpt><trkpt lat="45.710229052858885" lon="9.820002518245145"><ele>313.75</ele><time>2026-03-31T09:39:34Z</time></trkpt><trkpt lat="45.71023043730005" lon="9.820175773893926"><ele>314.0</ele><time>2026-03-31T09:39:36Z</time></trkpt><trkpt lat="45.710235553080125" lon="9.820348998480355"><ele>314.5</ele><time>2026-03-31T09:39:38Z</time></trkpt><trkpt lat="45.71024031280657" lon="9.820518671370268"><ele>315.0</ele><time>2026-03-31T09:39:40Z</time></trkpt><trkpt lat="45.71024445928674" lon="9.820685491124861"><ele>315.5</ele><time>2026-03-31T09:39:42Z</time></trkpt><trkpt lat="45.71025006938117" lon="9.820850541023818"><ele>316.0</ele><time>2026-03-31T09:39:44Z</time></trkpt><trkpt lat="45.71025112968361" lon="9.821014116338114"><ele>317.0</ele><time>2026-03-31T09:39:46Z</time></trkpt><trkpt lat="45.71024950757269" lon="9.821181106589247"><ele>318.0</ele><time>2026-03-31T09:39:48Z</time></trkpt><trkpt lat="45.710242450747145" lon="9.821347421321702"><ele>319.0</ele><time>2026-03-31T09:39:50Z</time></trkpt><trkpt lat="45.710235958683434" lon="9.821507848214111"><ele>320.0</ele><time>2026-03-31T09:39:52Z</time></trkpt><trkpt lat="45.7102223754397" lon="9.821675498584113"><ele>320.5</ele><time>2026-03-31T09:39:54Z</time></trkpt><trkpt lat="45.71019997219988" lon="9.821840164148663"><ele>321.0</ele><time>2026-03-31T09:39:56Z</time></trkpt><trkpt lat="45.710174760394764" lon="9.822006563174805"><ele>321.5</ele><time>2026-03-31T09:39:58Z</time></trkpt><trkpt lat="45.71015011768286" lon="9.822175369094106"><ele>322.0</ele><time>2026-03-31T09:40:00Z</time></trkpt><trkpt lat="45.710125509177956" lon="9.822347999109978"><ele>322.0</ele><time>2026-03-31T09:40:02Z</time></trkpt><trkpt lat="45.710099197644645" lon="9.822523429290902"><ele>322.0</ele><time>2026-03-31T09:40:04Z</time></trkpt><trkpt lat="45.7100741289469" lon="9.822699758611398"><ele>322.0</ele><time>2026-03-31T09:40:06Z</time></trkpt><trkpt lat="45.710061080922806" lon="9.82278805530845"><ele>322.0</ele><time>2026-03-31T09:40:07Z</time></trkpt><trkpt lat="45.71004955744436" lon="9.822876989187302"><ele>322.0</ele><time>2026-03-31T09:40:08Z</time></trkpt><trkpt lat="45.7100238415569" lon="9.823046586857059"><ele>322.0</ele><time>2026-03-31T09:40:10Z</time></trkpt><trkpt lat="45.71000901954812" lon="9.82313613464013"><ele>322.0</ele><time>2026-03-31T09:40:11Z</time></trkpt><trkpt lat="45.709995118052426" lon="9.82322494762794"><ele>322.0</ele><time>2026-03-31T09:40:12Z</time></trkpt><trkpt lat="45.70997673812213" lon="9.82331283085347"><ele>322.0</ele><time>2026-03-31T09:40:13Z</time></trkpt><trkpt lat="45.709950092277175" lon="9.82340075972198"><ele>322.0</ele><time>2026-03-31T09:40:14Z</time></trkpt><trkpt lat="45.7099256662327" lon="9.823484405290582"><ele>322.0</ele><time>2026-03-31T09:40:15Z</time></trkpt><trkpt lat="45.7099058194183" lon="9.823574758432644"><ele>322.0</ele><time>2026-03-31T09:40:16Z</time></trkpt><trkpt lat="45.70989018741887" lon="9.82366857476852"><ele>321.85714285714283</ele><time>2026-03-31T09:40:17Z</time></trkpt><trkpt lat="45.70987510918393" lon="9.823756767925861"><ele>321.7142857142857</ele><time>2026-03-31T09:40:18Z</time></trkpt><trkpt lat="45.70986390386339" lon="9.823847567443"><ele>321.57142857142856</ele><time>2026-03-31T09:40:19Z</time></trkpt><trkpt lat="45.70985028309454" lon="9.823936480146878"><ele>321.42857142857144</ele><time>2026-03-31T09:40:20Z</time></trkpt><trkpt lat="45.70983631094109" lon="9.8240269475212"><ele>321.2857142857143</ele><time>2026-03-31T09:40:21Z</time></trkpt><trkpt lat="45.70981892749047" lon="9.824117638664426"><ele>321.1428571428571</ele><time>2026-03-31T09:40:22Z</time></trkpt><trkpt lat="45.70980310253758" lon="9.824209877950265"><ele>321.0</ele><time>2026-03-31T09:40:23Z</time></trkpt><trkpt lat="45.70978539426964" lon="9.824301939990315"><ele>320.85714285714283</ele><time>2026-03-31T09:40:24Z</time></trkpt><trkpt lat="45.70975771246309" lon="9.824391709931504"><ele>320.7142857142857</ele><time>2026-03-31T09:40:25Z</time></trkpt><trkpt lat="45.70972899433693" lon="9.82447940689685"><ele>320.57142857142856</ele><time>2026-03-31T09:40:26Z</time></trkpt><trkpt lat="45.709696502843485" lon="9.824566030454779"><ele>320.42857142857144</ele><time>2026-03-31T09:40:27Z</time></trkpt><trkpt lat="45.709660175665675" lon="9.824656228487601"><ele>320.2857142857143</ele><time>2026-03-31T09:40:28Z</time></trkpt><trkpt lat="45.709627556240136" lon="9.824751356997378"><ele>320.1428571428571</ele><time>2026-03-31T09:40:29Z</time></trkpt><trkpt lat="45.709593970705164" lon="9.824848407976553"><ele>320.0</ele><time>2026-03-31T09:40:30Z</time></trkpt><trkpt lat="45.709558776772006" lon="9.824942682630757"><ele>320.0</ele><time>2026-03-31T09:40:31Z</time></trkpt><trkpt lat="45.70952009167509" lon="9.82504179081425"><ele>320.0</ele><time>2026-03-31T09:40:32Z</time></trkpt><trkpt lat="45.70948516529815" lon="9.825137878660207"><ele>320.0</ele><time>2026-03-31T09:40:33Z</time></trkpt><trkpt lat="45.709445583111986" lon="9.825234809115447"><ele>320.0</ele><time>2026-03-31T09:40:34Z</time></trkpt><trkpt lat="45.70940787199008" lon="9.825333480324828"><ele>320.0</ele><time>2026-03-31T09:40:35Z</time></trkpt><trkpt lat="45.70936886575715" lon="9.825430017418824"><ele>320.0</ele><time>2026-03-31T09:40:36Z</time></trkpt><trkpt lat="45.70932880338197" lon="9.825530219478036"><ele>319.1666666666667</ele><time>2026-03-31T09:40:37Z</time></trkpt><trkpt lat="45.70928601573659" lon="9.825628051161189"><ele>318.33333333333337</ele><time>2026-03-31T09:40:38Z</time></trkpt><trkpt lat="45.70924013861579" lon="9.82573014796092"><ele>317.5</ele><time>2026-03-31T09:40:39Z</time></trkpt><trkpt lat="45.709193784458165" lon="9.825832895049334"><ele>316.6666666666667</ele><time>2026-03-31T09:40:40Z</time></trkpt><trkpt lat="45.70914531001645" lon="9.825932478942631"><ele>315.8333333333333</ele><time>2026-03-31T09:40:41Z</time></trkpt><trkpt lat="45.70909365443167" lon="9.82602850257666"><ele>315.0</ele><time>2026-03-31T09:40:42Z</time></trkpt><trkpt lat="45.70904338265579" lon="9.826117842944067"><ele>314.5</ele><time>2026-03-31T09:40:43Z</time></trkpt><trkpt lat="45.70898958639653" lon="9.826207947676465"><ele>314.0</ele><time>2026-03-31T09:40:44Z</time></trkpt><trkpt lat="45.70894070527259" lon="9.826298751943309"><ele>313.5</ele><time>2026-03-31T09:40:45Z</time></trkpt><trkpt lat="45.70889048130427" lon="9.826387639939114"><ele>313.0</ele><time>2026-03-31T09:40:46Z</time></trkpt><trkpt lat="45.708840202941936" lon="9.826470651465774"><ele>312.5</ele><time>2026-03-31T09:40:47Z</time></trkpt><trkpt lat="45.70879166430552" lon="9.826560082561942"><ele>312.0</ele><time>2026-03-31T09:40:48Z</time></trkpt><trkpt lat="45.70874234369729" lon="9.826648427790277"><ele>312.0</ele><time>2026-03-31T09:40:49Z</time></trkpt><trkpt lat="45.70869200348921" lon="9.826737925092713"><ele>312.0</ele><time>2026-03-31T09:40:50Z</time></trkpt><trkpt lat="45.70864285249969" lon="9.82683089499162"><ele>312.0</ele><time>2026-03-31T09:40:51Z</time></trkpt><trkpt lat="45.70859132831686" lon="9.82691802077507"><ele>312.0</ele><time>2026-03-31T09:40:52Z</time></trkpt><trkpt lat="45.708538713506236" lon="9.827005633742704"><ele>312.0</ele><time>2026-03-31T09:40:53Z</time></trkpt><trkpt lat="45.70849169542645" lon="9.82709507326192"><ele>312.0</ele><time>2026-03-31T09:40:54Z</time></trkpt><trkpt lat="45.70844437589534" lon="9.827186336228184"><ele>311.1666666666667</ele><time>2026-03-31T09:40:55Z</time></trkpt><trkpt lat="45.708394002870506" lon="9.827273225829252"><ele>310.3333333333333</ele><time>2026-03-31T09:40:56Z</time></trkpt><trkpt lat="45.70834103257302" lon="9.827358784668228"><ele>309.5</ele><time>2026-03-31T09:40:57Z</time></trkpt><trkpt lat="45.70828766153995" lon="9.827445918939663"><ele>308.66666666666663</ele><time>2026-03-31T09:40:58Z</time></trkpt><trkpt lat="45.70823585094358" lon="9.827535522384345"><ele>307.8333333333333</ele><time>2026-03-31T09:40:59Z</time></trkpt><trkpt lat="45.70818153754385" lon="9.82761630400583"><ele>307.0</ele><time>2026-03-31T09:41:00Z</time></trkpt><trkpt lat="45.708121312570405" lon="9.827690186487963"><ele>306.57142857142856</ele><time>2026-03-31T09:41:01Z</time></trkpt><trkpt lat="45.70806299022906" lon="9.827761835328962"><ele>306.1428571428571</ele><time>2026-03-31T09:41:02Z</time></trkpt><trkpt lat="45.70800467622553" lon="9.827831275780511"><ele>305.71428571428567</ele><time>2026-03-31T09:41:03Z</time></trkpt><trkpt lat="45.707945783997" lon="9.82789484290145"><ele>305.2857142857143</ele><time>2026-03-31T09:41:04Z</time></trkpt><trkpt lat="45.70788717880025" lon="9.82795638391556"><ele>304.8571428571429</ele><time>2026-03-31T09:41:05Z</time></trkpt><trkpt lat="45.70782762721137" lon="9.828014450935207"><ele>304.4285714285714</ele><time>2026-03-31T09:41:06Z</time></trkpt><trkpt lat="45.707769702294584" lon="9.828076178428951"><ele>304.0</ele><time>2026-03-31T09:41:07Z</time></trkpt><trkpt lat="45.70770978999995" lon="9.828133383083582"><ele>304.0</ele><time>2026-03-31T09:41:08Z</time></trkpt><trkpt lat="45.70764935039055" lon="9.828190557940454"><ele>304.0</ele><time>2026-03-31T09:41:09Z</time></trkpt><trkpt lat="45.707588223708306" lon="9.828251469466874"><ele>304.0</ele><time>2026-03-31T09:41:10Z</time></trkpt><trkpt lat="45.707524173161325" lon="9.828311490790536"><ele>304.0</ele><time>2026-03-31T09:41:11Z</time></trkpt><trkpt lat="45.707458037966056" lon="9.828375204112712"><ele>304.0</ele><time>2026-03-31T09:41:12Z</time></trkpt><trkpt lat="45.7073941492479" lon="9.82843146054909"><ele>304.0</ele><time>2026-03-31T09:41:13Z</time></trkpt><trkpt lat="45.707328272865524" lon="9.828492034405459"><ele>303.66666666666663</ele><time>2026-03-31T09:41:14Z</time></trkpt><trkpt lat="45.70726031687338" lon="9.828551858424703"><ele>303.3333333333333</ele><time>2026-03-31T09:41:15Z</time></trkpt><trkpt lat="45.70719603816556" lon="9.828616658426789"><ele>303.0</ele><time>2026-03-31T09:41:16Z</time></trkpt><trkpt lat="45.70713209057654" lon="9.828683701219115"><ele>302.6666666666667</ele><time>2026-03-31T09:41:17Z</time></trkpt><trkpt lat="45.707069839180406" lon="9.828752723137443"><ele>302.33333333333337</ele><time>2026-03-31T09:41:18Z</time></trkpt><trkpt lat="45.70700833451638" lon="9.828822471178217"><ele>302.0</ele><time>2026-03-31T09:41:19Z</time></trkpt><trkpt lat="45.70694401741385" lon="9.828886547340497"><ele>301.5</ele><time>2026-03-31T09:41:20Z</time></trkpt><trkpt lat="45.70687791380881" lon="9.828946163649858"><ele>301.0</ele><time>2026-03-31T09:41:21Z</time></trkpt><trkpt lat="45.70681377078526" lon="9.829013086631745"><ele>300.5</ele><time>2026-03-31T09:41:22Z</time></trkpt><trkpt lat="45.7067484949526" lon="9.82907898937527"><ele>300.0</ele><time>2026-03-31T09:41:23Z</time></trkpt><trkpt lat="45.70668172319454" lon="9.829147103851755"><ele>299.5</ele><time>2026-03-31T09:41:24Z</time></trkpt><trkpt lat="45.70661538387519" lon="9.829216309470036"><ele>299.0</ele><time>2026-03-31T09:41:25Z</time></trkpt><trkpt lat="45.70654989733098" lon="9.829282711491558"><ele>298.6666666666667</ele><time>2026-03-31T09:41:26Z</time></trkpt><trkpt lat="45.70648187610922" lon="9.829348555809569"><ele>298.33333333333337</ele><time>2026-03-31T09:41:27Z</time></trkpt><trkpt lat="45.706415991105686" lon="9.829417818209588"><ele>298.0</ele><time>2026-03-31T09:41:28Z</time></trkpt><trkpt lat="45.70634528368568" lon="9.8294844612951"><ele>297.6666666666667</ele><time>2026-03-31T09:41:29Z</time></trkpt><trkpt lat="45.70627478551881" lon="9.82954817740224"><ele>297.3333333333333</ele><time>2026-03-31T09:41:30Z</time></trkpt><trkpt lat="45.70620293863121" lon="9.829621099020116"><ele>297.0</ele><time>2026-03-31T09:41:31Z</time></trkpt><trkpt lat="45.70612841733412" lon="9.829692457001144"><ele>296.3333333333333</ele><time>2026-03-31T09:41:32Z</time></trkpt><trkpt lat="45.7060534024184" lon="9.829764842778898"><ele>295.6666666666667</ele><time>2026-03-31T09:41:33Z</time></trkpt><trkpt lat="45.705978888831275" lon="9.829836212517009"><ele>295.0</ele><time>2026-03-31T09:41:34Z</time></trkpt><trkpt lat="45.70590740742699" lon="9.829904419593543"><ele>294.33333333333337</ele><time>2026-03-31T09:41:35Z</time></trkpt><trkpt lat="45.70583522454676" lon="9.82997454474932"><ele>293.6666666666667</ele><time>2026-03-31T09:41:36Z</time></trkpt><trkpt lat="45.70576477204823" lon="9.830046108559"><ele>293.0</ele><time>2026-03-31T09:41:37Z</time></trkpt><trkpt lat="45.70569736744249" lon="9.830121426522757"><ele>293.1666666666667</ele><time>2026-03-31T09:41:38Z</time></trkpt><trkpt lat="45.70563339800992" lon="9.830197394494519"><ele>293.33333333333337</ele><time>2026-03-31T09:41:39Z</time></trkpt><trkpt lat="45.705577067137085" lon="9.830281327890722"><ele>293.5</ele><time>2026-03-31T09:41:40Z</time></trkpt><trkpt lat="45.705526419141336" lon="9.830374455531244"><ele>293.6666666666667</ele><time>2026-03-31T09:41:41Z</time></trkpt><trkpt lat="45.70548511123229" lon="9.830471296241"><ele>293.8333333333333</ele><time>2026-03-31T09:41:42Z</time></trkpt><trkpt lat="45.705450627723444" lon="9.830573963480028"><ele>294.0</ele><time>2026-03-31T09:41:43Z</time></trkpt><trkpt lat="45.70541960058255" lon="9.830679027904129"><ele>294.0</ele><time>2026-03-31T09:41:44Z</time></trkpt><trkpt lat="45.705387024251024" lon="9.830780802257024"><ele>294.0</ele><time>2026-03-31T09:41:45Z</time></trkpt><trkpt lat="45.70535291901506" lon="9.83087689424192"><ele>294.0</ele><time>2026-03-31T09:41:46Z</time></trkpt><trkpt lat="45.70532226838208" lon="9.830971859536632"><ele>294.0</ele><time>2026-03-31T09:41:47Z</time></trkpt><trkpt lat="45.70529572591785" lon="9.831066818043272"><ele>294.0</ele><time>2026-03-31T09:41:48Z</time></trkpt><trkpt lat="45.705270410987616" lon="9.831157557120573"><ele>294.0</ele><time>2026-03-31T09:41:49Z</time></trkpt><trkpt lat="45.70524168607834" lon="9.831242704249814"><ele>294.0</ele><time>2026-03-31T09:41:50Z</time></trkpt><trkpt lat="45.705198831295746" lon="9.831411778232106"><ele>294.0</ele><time>2026-03-31T09:41:52Z</time></trkpt><trkpt lat="45.70515971565062" lon="9.831584735868814"><ele>294.0</ele><time>2026-03-31T09:41:54Z</time></trkpt><trkpt lat="45.70513744680933" lon="9.831669891138757"><ele>294.0</ele><time>2026-03-31T09:41:55Z</time></trkpt><trkpt lat="45.70509358501713" lon="9.831836475607782"><ele>294.0</ele><time>2026-03-31T09:41:57Z</time></trkpt><trkpt lat="45.705044533027724" lon="9.831997555267987"><ele>294.0</ele><time>2026-03-31T09:41:59Z</time></trkpt><trkpt lat="45.70498975598568" lon="9.832157284420953"><ele>294.0</ele><time>2026-03-31T09:42:01Z</time></trkpt><trkpt lat="45.704929275163465" lon="9.832313968375356"><ele>294.0</ele><time>2026-03-31T09:42:03Z</time></trkpt><trkpt lat="45.704902038854165" lon="9.83239914013588"><ele>294.0</ele><time>2026-03-31T09:42:04Z</time></trkpt><trkpt lat="45.70486834823938" lon="9.832477052869738"><ele>294.0</ele><time>2026-03-31T09:42:05Z</time></trkpt><trkpt lat="45.7048349471362" lon="9.83255753533507"><ele>294.0</ele><time>2026-03-31T09:42:06Z</time></trkpt><trkpt lat="45.70480253352844" lon="9.832639634548746"><ele>294.0</ele><time>2026-03-31T09:42:07Z</time></trkpt><trkpt lat="45.70477045074781" lon="9.832721512846435"><ele>293.85714285714283</ele><time>2026-03-31T09:42:08Z</time></trkpt><trkpt lat="45.70473966570811" lon="9.832806142627447"><ele>293.7142857142857</ele><time>2026-03-31T09:42:09Z</time></trkpt><trkpt lat="45.70470845609734" lon="9.832890701846669"><ele>293.57142857142856</ele><time>2026-03-31T09:42:10Z</time></trkpt><trkpt lat="45.70467455133831" lon="9.832979101031823"><ele>293.42857142857144</ele><time>2026-03-31T09:42:11Z</time></trkpt><trkpt lat="45.70464103149088" lon="9.833064712420533"><ele>293.2857142857143</ele><time>2026-03-31T09:42:12Z</time></trkpt><trkpt lat="45.70460871491409" lon="9.833153497080756"><ele>293.1428571428571</ele><time>2026-03-31T09:42:13Z</time></trkpt><trkpt lat="45.704573230576926" lon="9.833238381202914"><ele>293.0</ele><time>2026-03-31T09:42:14Z</time></trkpt><trkpt lat="45.70453968205329" lon="9.833322473223136"><ele>292.99999999999994</ele><time>2026-03-31T09:42:15Z</time></trkpt><trkpt lat="45.70450614240351" lon="9.833408344223892"><ele>293.0</ele><time>2026-03-31T09:42:16Z</time></trkpt><trkpt lat="45.70447377683741" lon="9.833494112422434"><ele>293.0</ele><time>2026-03-31T09:42:17Z</time></trkpt><trkpt lat="45.704440709020695" lon="9.833575724162314"><ele>293.0</ele><time>2026-03-31T09:42:18Z</time></trkpt><trkpt lat="45.704411139906306" lon="9.833661498760495"><ele>293.0</ele><time>2026-03-31T09:42:19Z</time></trkpt><trkpt lat="45.7043762980756" lon="9.833744592708678"><ele>292.99999999999994</ele><time>2026-03-31T09:42:20Z</time></trkpt><trkpt lat="45.704339609269006" lon="9.833831241636554"><ele>293.0</ele><time>2026-03-31T09:42:21Z</time></trkpt><trkpt lat="45.70430506206837" lon="9.833921446375756"><ele>292.57142857142856</ele><time>2026-03-31T09:42:22Z</time></trkpt><trkpt lat="45.70427026304038" lon="9.834009635947995"><ele>292.1428571428571</ele><time>2026-03-31T09:42:23Z</time></trkpt><trkpt lat="45.70423655648604" lon="9.834096199653956"><ele>291.7142857142857</ele><time>2026-03-31T09:42:24Z</time></trkpt><trkpt lat="45.70420090128719" lon="9.834189137213903"><ele>291.2857142857143</ele><time>2026-03-31T09:42:25Z</time></trkpt><trkpt lat="45.70416864027769" lon="9.834280455650067"><ele>290.8571428571429</ele><time>2026-03-31T09:42:26Z</time></trkpt><trkpt lat="45.70413161044037" lon="9.834366907956348"><ele>290.42857142857144</ele><time>2026-03-31T09:42:27Z</time></trkpt><trkpt lat="45.704095766300036" lon="9.834457174553343"><ele>290.0</ele><time>2026-03-31T09:42:28Z</time></trkpt><trkpt lat="45.70406044921269" lon="9.834548315129105"><ele>289.7142857142857</ele><time>2026-03-31T09:42:29Z</time></trkpt><trkpt lat="45.70402682841251" lon="9.83464254599832"><ele>289.42857142857144</ele><time>2026-03-31T09:42:30Z</time></trkpt><trkpt lat="45.70399349297731" lon="9.83473163499323"><ele>289.14285714285717</ele><time>2026-03-31T09:42:31Z</time></trkpt><trkpt lat="45.7039564407279" lon="9.83482164358955"><ele>288.8571428571429</ele><time>2026-03-31T09:42:32Z</time></trkpt><trkpt lat="45.70391896125652" lon="9.834917080042306"><ele>288.57142857142856</ele><time>2026-03-31T09:42:33Z</time></trkpt><trkpt lat="45.70388257504299" lon="9.83501066002631"><ele>288.28571428571433</ele><time>2026-03-31T09:42:34Z</time></trkpt><trkpt lat="45.70384615860833" lon="9.835102686920582"><ele>288.0</ele><time>2026-03-31T09:42:35Z</time></trkpt><trkpt lat="45.703813060044666" lon="9.835193838521551"><ele>288.00000000000006</ele><time>2026-03-31T09:42:36Z</time></trkpt><trkpt lat="45.7037778186101" lon="9.835282728399855"><ele>288.0</ele><time>2026-03-31T09:42:37Z</time></trkpt><trkpt lat="45.70374347593801" lon="9.835369846920875"><ele>288.0</ele><time>2026-03-31T09:42:38Z</time></trkpt><trkpt lat="45.70371152672164" lon="9.835456084402162"><ele>288.0</ele><time>2026-03-31T09:42:39Z</time></trkpt><trkpt lat="45.703677885093235" lon="9.835536305276216"><ele>288.0</ele><time>2026-03-31T09:42:40Z</time></trkpt><trkpt lat="45.703644224638516" lon="9.835615856350898"><ele>288.00000000000006</ele><time>2026-03-31T09:42:41Z</time></trkpt><trkpt lat="45.70361355219642" lon="9.835697402420791"><ele>288.0</ele><time>2026-03-31T09:42:42Z</time></trkpt><trkpt lat="45.70358055588237" lon="9.835779232220071"><ele>287.8333333333333</ele><time>2026-03-31T09:42:43Z</time></trkpt><trkpt lat="45.703519550037086" lon="9.83593546567433"><ele>287.6666666666667</ele><time>2026-03-31T09:42:45Z</time></trkpt><trkpt lat="45.703488430476646" lon="9.836017694053337"><ele>287.5</ele><time>2026-03-31T09:42:46Z</time></trkpt><trkpt lat="45.70345619607186" lon="9.836102920470386"><ele>287.33333333333337</ele><time>2026-03-31T09:42:47Z</time></trkpt><trkpt lat="45.70342503932631" lon="9.836188655522474"><ele>287.1666666666667</ele><time>2026-03-31T09:42:48Z</time></trkpt><trkpt lat="45.7033897203687" lon="9.836273966178988"><ele>287.0</ele><time>2026-03-31T09:42:49Z</time></trkpt><trkpt lat="45.703355829894846" lon="9.836361531513088"><ele>287.0</ele><time>2026-03-31T09:42:50Z</time></trkpt><trkpt lat="45.70332369084923" lon="9.836449661224627"><ele>287.0</ele><time>2026-03-31T09:42:51Z</time></trkpt><trkpt lat="45.70329001464151" lon="9.836535446485142"><ele>287.0</ele><time>2026-03-31T09:42:52Z</time></trkpt><trkpt lat="45.703256204612146" lon="9.836620187133487"><ele>287.0</ele><time>2026-03-31T09:42:53Z</time></trkpt><trkpt lat="45.70322119118859" lon="9.836711003763492"><ele>287.0</ele><time>2026-03-31T09:42:54Z</time></trkpt><trkpt lat="45.70318872907029" lon="9.836794975015808"><ele>287.0</ele><time>2026-03-31T09:42:55Z</time></trkpt><trkpt lat="45.70315508525482" lon="9.83688313839201"><ele>287.0</ele><time>2026-03-31T09:42:56Z</time></trkpt><trkpt lat="45.70312160970826" lon="9.836972294681924"><ele>286.85714285714283</ele><time>2026-03-31T09:42:57Z</time></trkpt><trkpt lat="45.70308801915174" lon="9.83706135793918"><ele>286.7142857142857</ele><time>2026-03-31T09:42:58Z</time></trkpt><trkpt lat="45.70305464847075" lon="9.837149613852336"><ele>286.57142857142856</ele><time>2026-03-31T09:42:59Z</time></trkpt><trkpt lat="45.70301979636196" lon="9.8372370205134"><ele>286.42857142857144</ele><time>2026-03-31T09:43:00Z</time></trkpt><trkpt lat="45.70298856037865" lon="9.837320725143769"><ele>286.2857142857143</ele><time>2026-03-31T09:43:01Z</time></trkpt><trkpt lat="45.702958896068466" lon="9.837405485461392"><ele>286.1428571428571</ele><time>2026-03-31T09:43:02Z</time></trkpt><trkpt lat="45.70292554404074" lon="9.837490524453308"><ele>286.0</ele><time>2026-03-31T09:43:03Z</time></trkpt><trkpt lat="45.70289473131706" lon="9.837571013688633"><ele>285.99999999999994</ele><time>2026-03-31T09:43:04Z</time></trkpt><trkpt lat="45.70286146851419" lon="9.837650552613965"><ele>286.0</ele><time>2026-03-31T09:43:05Z</time></trkpt><trkpt lat="45.70283075591756" lon="9.83773079388962"><ele>286.0</ele><time>2026-03-31T09:43:06Z</time></trkpt><trkpt lat="45.702799157986384" lon="9.83781326766185"><ele>286.0</ele><time>2026-03-31T09:43:07Z</time></trkpt><trkpt lat="45.70276862947203" lon="9.837896317726496"><ele>286.0</ele><time>2026-03-31T09:43:08Z</time></trkpt><trkpt lat="45.702737714355564" lon="9.837978556111308"><ele>285.99999999999994</ele><time>2026-03-31T09:43:09Z</time></trkpt><trkpt lat="45.70270377408394" lon="9.83806179219355"><ele>286.0</ele><time>2026-03-31T09:43:10Z</time></trkpt><trkpt lat="45.70266895332999" lon="9.838144686836177"><ele>285.57142857142856</ele><time>2026-03-31T09:43:11Z</time></trkpt><trkpt lat="45.70263829547738" lon="9.838230527783077"><ele>285.1428571428571</ele><time>2026-03-31T09:43:12Z</time></trkpt><trkpt lat="45.70260672522011" lon="9.838317585172948"><ele>284.7142857142857</ele><time>2026-03-31T09:43:13Z</time></trkpt><trkpt lat="45.70257396421873" lon="9.838402619914227"><ele>284.2857142857143</ele><time>2026-03-31T09:43:14Z</time></trkpt><trkpt lat="45.70254094407408" lon="9.838485892916973"><ele>283.8571428571429</ele><time>2026-03-31T09:43:15Z</time></trkpt><trkpt lat="45.702509488091096" lon="9.838572271868784"><ele>283.42857142857144</ele><time>2026-03-31T09:43:16Z</time></trkpt><trkpt lat="45.70247785512653" lon="9.838656459306357"><ele>283.0</ele><time>2026-03-31T09:43:17Z</time></trkpt><trkpt lat="45.70244583985086" lon="9.83874028927823"><ele>282.8571428571429</ele><time>2026-03-31T09:43:18Z</time></trkpt><trkpt lat="45.70241259796275" lon="9.838822298082098"><ele>282.7142857142857</ele><time>2026-03-31T09:43:19Z</time></trkpt><trkpt lat="45.70237600463818" lon="9.838901910998901"><ele>282.57142857142856</ele><time>2026-03-31T09:43:20Z</time></trkpt><trkpt lat="45.70233870477445" lon="9.838978447623619"><ele>282.42857142857144</ele><time>2026-03-31T09:43:21Z</time></trkpt><trkpt lat="45.70229875495749" lon="9.839053103554185"><ele>282.2857142857143</ele><time>2026-03-31T09:43:22Z</time></trkpt><trkpt lat="45.702256657098076" lon="9.83912392488057"><ele>282.14285714285717</ele><time>2026-03-31T09:43:23Z</time></trkpt><trkpt lat="45.70221264209415" lon="9.839189225155561"><ele>282.0</ele><time>2026-03-31T09:43:24Z</time></trkpt><trkpt lat="45.70216748079091" lon="9.839257708937478"><ele>282.2857142857143</ele><time>2026-03-31T09:43:25Z</time></trkpt><trkpt lat="45.70212264793406" lon="9.839328090729959"><ele>282.57142857142856</ele><time>2026-03-31T09:43:26Z</time></trkpt><trkpt lat="45.70207681727193" lon="9.839395087832168"><ele>282.85714285714283</ele><time>2026-03-31T09:43:27Z</time></trkpt><trkpt lat="45.702027032109335" lon="9.839455425445179"><ele>283.1428571428571</ele><time>2026-03-31T09:43:28Z</time></trkpt><trkpt lat="45.70197248723692" lon="9.839512316781933"><ele>283.4285714285714</ele><time>2026-03-31T09:43:29Z</time></trkpt><trkpt lat="45.70191391496163" lon="9.839559310612929"><ele>283.7142857142857</ele><time>2026-03-31T09:43:30Z</time></trkpt><trkpt lat="45.70185015272273" lon="9.839588567120977"><ele>284.0</ele><time>2026-03-31T09:43:31Z</time></trkpt><trkpt lat="45.70178412079541" lon="9.839600604699143"><ele>284.0</ele><time>2026-03-31T09:43:32Z</time></trkpt><trkpt lat="45.70171810285795" lon="9.839596865337342"><ele>284.0</ele><time>2026-03-31T09:43:33Z</time></trkpt><trkpt lat="45.70165472803433" lon="9.83959127042803"><ele>284.0</ele><time>2026-03-31T09:43:34Z</time></trkpt><trkpt lat="45.70158802023462" lon="9.839590416128338"><ele>284.0</ele><time>2026-03-31T09:43:35Z</time></trkpt><trkpt lat="45.70152463230149" lon="9.839588158886901"><ele>284.0</ele><time>2026-03-31T09:43:36Z</time></trkpt><trkpt lat="45.70145938472164" lon="9.839586239847185"><ele>284.0</ele><time>2026-03-31T09:43:37Z</time></trkpt><trkpt lat="45.70139308622196" lon="9.839581714233315"><ele>284.0</ele><time>2026-03-31T09:43:38Z</time></trkpt><trkpt lat="45.701328057315784" lon="9.839577150117579"><ele>284.0</ele><time>2026-03-31T09:43:39Z</time></trkpt><trkpt lat="45.70126184545703" lon="9.839573259552349"><ele>284.0</ele><time>2026-03-31T09:43:40Z</time></trkpt><trkpt lat="45.701198796284274" lon="9.839570548750414"><ele>284.0</ele><time>2026-03-31T09:43:41Z</time></trkpt><trkpt lat="45.70113110469381" lon="9.839570535458193"><ele>284.0</ele><time>2026-03-31T09:43:42Z</time></trkpt><trkpt lat="45.70106609151732" lon="9.839568426914324"><ele>284.0</ele><time>2026-03-31T09:43:43Z</time></trkpt><trkpt lat="45.70099561855342" lon="9.83956730630103"><ele>284.0</ele><time>2026-03-31T09:43:44Z</time></trkpt><trkpt lat="45.700926536282424" lon="9.83955800365636"><ele>284.0</ele><time>2026-03-31T09:43:45Z</time></trkpt><trkpt lat="45.70085619434034" lon="9.839553474078457"><ele>284.0</ele><time>2026-03-31T09:43:46Z</time></trkpt><trkpt lat="45.70078630398062" lon="9.839553476640008"><ele>284.0</ele><time>2026-03-31T09:43:47Z</time></trkpt><trkpt lat="45.70071642185369" lon="9.83955311325"><ele>284.0</ele><time>2026-03-31T09:43:48Z</time></trkpt><trkpt lat="45.700646139229846" lon="9.839548229995492"><ele>284.0</ele><time>2026-03-31T09:43:49Z</time></trkpt><trkpt lat="45.700575821386074" lon="9.839545118963708"><ele>284.0</ele><time>2026-03-31T09:43:50Z</time></trkpt><trkpt lat="45.700506606149425" lon="9.839538321126243"><ele>284.0</ele><time>2026-03-31T09:43:51Z</time></trkpt><trkpt lat="45.70043795267976" lon="9.839536584776216"><ele>284.0</ele><time>2026-03-31T09:43:52Z</time></trkpt><trkpt lat="45.700370279422756" lon="9.839529352171073"><ele>284.0</ele><time>2026-03-31T09:43:53Z</time></trkpt><trkpt lat="45.70030073611086" lon="9.839530491374802"><ele>284.0</ele><time>2026-03-31T09:43:54Z</time></trkpt><trkpt lat="45.70023337049853" lon="9.83952415351819"><ele>284.0</ele><time>2026-03-31T09:43:55Z</time></trkpt><trkpt lat="45.70016376669747" lon="9.839518765717788"><ele>284.0</ele><time>2026-03-31T09:43:56Z</time></trkpt><trkpt lat="45.70009458635816" lon="9.83951928119206"><ele>284.0</ele><time>2026-03-31T09:43:57Z</time></trkpt><trkpt lat="45.70002499732619" lon="9.839516613075718"><ele>284.0</ele><time>2026-03-31T09:43:58Z</time></trkpt><trkpt lat="45.69995831804963" lon="9.839520460931164"><ele>284.0</ele><time>2026-03-31T09:43:59Z</time></trkpt><trkpt lat="45.69989460090886" lon="9.839535843711323"><ele>283.85714285714283</ele><time>2026-03-31T09:44:00Z</time></trkpt><trkpt lat="45.69983756563162" lon="9.839576641835219"><ele>283.71428571428567</ele><time>2026-03-31T09:44:01Z</time></trkpt><trkpt lat="45.69978842532792" lon="9.839635006475284"><ele>283.57142857142856</ele><time>2026-03-31T09:44:02Z</time></trkpt><trkpt lat="45.699749689552974" lon="9.839709234646262"><ele>283.42857142857144</ele><time>2026-03-31T09:44:03Z</time></trkpt><trkpt lat="45.69971733182529" lon="9.83979085638769"><ele>283.28571428571433</ele><time>2026-03-31T09:44:04Z</time></trkpt><trkpt lat="45.699653396279544" lon="9.839944784647853"><ele>283.14285714285717</ele><time>2026-03-31T09:44:06Z</time></trkpt><trkpt lat="45.69961884421897" lon="9.84002081526892"><ele>283.0</ele><time>2026-03-31T09:44:07Z</time></trkpt><trkpt lat="45.69955127347191" lon="9.840176477713255"><ele>282.75</ele><time>2026-03-31T09:44:09Z</time></trkpt><trkpt lat="45.69951563398259" lon="9.840253376838557"><ele>282.5</ele><time>2026-03-31T09:44:10Z</time></trkpt><trkpt lat="45.699480275340456" lon="9.840329365137151"><ele>282.25</ele><time>2026-03-31T09:44:11Z</time></trkpt><trkpt lat="45.699445111691766" lon="9.84040576440622"><ele>282.0</ele><time>2026-03-31T09:44:12Z</time></trkpt><trkpt lat="45.69941116779844" lon="9.84048209805914"><ele>281.75</ele><time>2026-03-31T09:44:13Z</time></trkpt><trkpt lat="45.699376124543406" lon="9.840557673723099"><ele>281.5</ele><time>2026-03-31T09:44:14Z</time></trkpt><trkpt lat="45.69934040081171" lon="9.84063567119956"><ele>281.25</ele><time>2026-03-31T09:44:15Z</time></trkpt><trkpt lat="45.69930701878389" lon="9.840714110278073"><ele>281.0</ele><time>2026-03-31T09:44:16Z</time></trkpt><trkpt lat="45.69927064679003" lon="9.840791669936355"><ele>281.00000000000006</ele><time>2026-03-31T09:44:17Z</time></trkpt><trkpt lat="45.699237627657865" lon="9.840869527137642"><ele>281.0</ele><time>2026-03-31T09:44:18Z</time></trkpt><trkpt lat="45.699204685747475" lon="9.840947590793201"><ele>281.0</ele><time>2026-03-31T09:44:19Z</time></trkpt><trkpt lat="45.699171182183015" lon="9.841028841522084"><ele>281.0</ele><time>2026-03-31T09:44:20Z</time></trkpt><trkpt lat="45.69913351765877" lon="9.841103631750324"><ele>281.0</ele><time>2026-03-31T09:44:21Z</time></trkpt><trkpt lat="45.69909747733042" lon="9.841180808439768"><ele>281.00000000000006</ele><time>2026-03-31T09:44:22Z</time></trkpt><trkpt lat="45.69906851778987" lon="9.841268079195366"><ele>281.0</ele><time>2026-03-31T09:44:23Z</time></trkpt><trkpt lat="45.69905472803478" lon="9.841356837626188"><ele>281.6</ele><time>2026-03-31T09:44:24Z</time></trkpt><trkpt lat="45.69905265901768" lon="9.84144860276959"><ele>282.20000000000005</ele><time>2026-03-31T09:44:25Z</time></trkpt><trkpt lat="45.699051293415266" lon="9.841622913011866"><ele>282.79999999999995</ele><time>2026-03-31T09:44:27Z</time></trkpt><trkpt lat="45.69903500509414" lon="9.841803007582737"><ele>283.4</ele><time>2026-03-31T09:44:29Z</time></trkpt><trkpt lat="45.69898610754327" lon="9.84196499644006"><ele>284.0</ele><time>2026-03-31T09:44:31Z</time></trkpt><trkpt lat="45.698951788486546" lon="9.84204090873331"><ele>284.57142857142856</ele><time>2026-03-31T09:44:32Z</time></trkpt><trkpt lat="45.69891901919812" lon="9.842120293260468"><ele>285.1428571428571</ele><time>2026-03-31T09:44:33Z</time></trkpt><trkpt lat="45.698888161345415" lon="9.842199877559677"><ele>285.7142857142857</ele><time>2026-03-31T09:44:34Z</time></trkpt><trkpt lat="45.69885659474593" lon="9.842279718429943"><ele>286.2857142857143</ele><time>2026-03-31T09:44:35Z</time></trkpt><trkpt lat="45.69882475777857" lon="9.842358820561618"><ele>286.8571428571429</ele><time>2026-03-31T09:44:36Z</time></trkpt><trkpt lat="45.69879146995459" lon="9.842439121349612"><ele>287.42857142857144</ele><time>2026-03-31T09:44:37Z</time></trkpt><trkpt lat="45.69876047197212" lon="9.84252011825096"><ele>288.0</ele><time>2026-03-31T09:44:38Z</time></trkpt><trkpt lat="45.698697815589526" lon="9.842679842259251"><ele>286.6666666666667</ele><time>2026-03-31T09:44:40Z</time></trkpt><trkpt lat="45.69866946500636" lon="9.842762411979908"><ele>285.3333333333333</ele><time>2026-03-31T09:44:41Z</time></trkpt><trkpt lat="45.6986429510456" lon="9.84284789115599"><ele>284.0</ele><time>2026-03-31T09:44:42Z</time></trkpt><trkpt lat="45.698622404326954" lon="9.842937686115764"><ele>282.66666666666663</ele><time>2026-03-31T09:44:43Z</time></trkpt><trkpt lat="45.69859046195931" lon="9.84311386143001"><ele>281.3333333333333</ele><time>2026-03-31T09:44:45Z</time></trkpt><trkpt lat="45.69857535189259" lon="9.843203069059388"><ele>280.0</ele><time>2026-03-31T09:44:46Z</time></trkpt><trkpt lat="45.69856018589224" lon="9.843292564014918"><ele>280.4</ele><time>2026-03-31T09:44:47Z</time></trkpt><trkpt lat="45.69853315190856" lon="9.84346778411965"><ele>280.8</ele><time>2026-03-31T09:44:49Z</time></trkpt><trkpt lat="45.69851241752901" lon="9.843556211220587"><ele>281.2</ele><time>2026-03-31T09:44:50Z</time></trkpt><trkpt lat="45.69847830199265" lon="9.843731525514244"><ele>281.6</ele><time>2026-03-31T09:44:52Z</time></trkpt><trkpt lat="45.69845870090777" lon="9.843821167596888"><ele>282.0</ele><time>2026-03-31T09:44:53Z</time></trkpt><trkpt lat="45.698426922606615" lon="9.843993576815832"><ele>282.0</ele><time>2026-03-31T09:44:55Z</time></trkpt><trkpt lat="45.69839644917134" lon="9.84415511607482"><ele>282.0</ele><time>2026-03-31T09:44:57Z</time></trkpt><trkpt lat="45.69836765342814" lon="9.844313989014951"><ele>282.0</ele><time>2026-03-31T09:44:59Z</time></trkpt><trkpt lat="45.69834408049728" lon="9.844463286117207"><ele>282.0</ele><time>2026-03-31T09:45:01Z</time></trkpt><trkpt lat="45.698314618043135" lon="9.844613600278327"><ele>282.0</ele><time>2026-03-31T09:45:03Z</time></trkpt><trkpt lat="45.698284034507836" lon="9.84478905307095"><ele>282.3333333333333</ele><time>2026-03-31T09:45:05Z</time></trkpt><trkpt lat="45.69826705664701" lon="9.844876299750128"><ele>282.6666666666667</ele><time>2026-03-31T09:45:06Z</time></trkpt><trkpt lat="45.698230241127554" lon="9.845046061848596"><ele>283.0</ele><time>2026-03-31T09:45:08Z</time></trkpt><trkpt lat="45.69821392012327" lon="9.84513313094212"><ele>283.33333333333337</ele><time>2026-03-31T09:45:09Z</time></trkpt><trkpt lat="45.69818345639232" lon="9.845305635690236"><ele>283.6666666666667</ele><time>2026-03-31T09:45:11Z</time></trkpt><trkpt lat="45.69816735861272" lon="9.845392861615524"><ele>284.0</ele><time>2026-03-31T09:45:12Z</time></trkpt><trkpt lat="45.69814917049479" lon="9.845481316647492"><ele>284.0</ele><time>2026-03-31T09:45:13Z</time></trkpt><trkpt lat="45.698127619096454" lon="9.84556671601325"><ele>284.0</ele><time>2026-03-31T09:45:14Z</time></trkpt><trkpt lat="45.698105456711794" lon="9.845651093687136"><ele>284.0</ele><time>2026-03-31T09:45:15Z</time></trkpt><trkpt lat="45.69806899802852" lon="9.845821973399223"><ele>284.0</ele><time>2026-03-31T09:45:17Z</time></trkpt><trkpt lat="45.69803309593946" lon="9.845986233017541"><ele>284.0</ele><time>2026-03-31T09:45:19Z</time></trkpt><trkpt lat="45.69800490809184" lon="9.84613195730662"><ele>283.8</ele><time>2026-03-31T09:45:21Z</time></trkpt><trkpt lat="45.6979968755573" lon="9.846221870418045"><ele>283.59999999999997</ele><time>2026-03-31T09:45:22Z</time></trkpt><trkpt lat="45.6979463086441" lon="9.846351883506282"><ele>283.4</ele><time>2026-03-31T09:45:24Z</time></trkpt><trkpt lat="45.697854088948276" lon="9.846439444417769"><ele>283.2</ele><time>2026-03-31T09:45:26Z</time></trkpt><trkpt lat="45.697739867123644" lon="9.846471742660297"><ele>283.0</ele><time>2026-03-31T09:45:28Z</time></trkpt><trkpt lat="45.697620406733094" lon="9.84643956850543"><ele>282.0</ele><time>2026-03-31T09:45:30Z</time></trkpt><trkpt lat="45.69756365659213" lon="9.846396777135892"><ele>281.0</ele><time>2026-03-31T09:45:31Z</time></trkpt><trkpt lat="45.69750630363387" lon="9.846353335457852"><ele>280.0</ele><time>2026-03-31T09:45:32Z</time></trkpt><trkpt lat="45.697410775732344" lon="9.846293875792533"><ele>279.0</ele><time>2026-03-31T09:45:34Z</time></trkpt><trkpt lat="45.69734084293409" lon="9.846240555196205"><ele>278.0</ele><time>2026-03-31T09:45:36Z</time></trkpt><trkpt lat="45.697261908787105" lon="9.84629965779721"><ele>277.0</ele><time>2026-03-31T09:45:39Z</time></trkpt><trkpt lat="45.697242636355405" lon="9.846425133799547"><ele>277.0</ele><time>2026-03-31T09:45:41Z</time></trkpt><trkpt lat="45.697224164468466" lon="9.846594671033053"><ele>277.0</ele><time>2026-03-31T09:45:43Z</time></trkpt><trkpt lat="45.69722254490164" lon="9.846698528044556"><ele>277.0</ele><time>2026-03-31T09:45:44Z</time></trkpt><trkpt lat="45.69723276959211" lon="9.846878945985328"><ele>277.0</ele><time>2026-03-31T09:45:46Z</time></trkpt><trkpt lat="45.69723373130464" lon="9.846969738063423"><ele>277.0</ele><time>2026-03-31T09:45:47Z</time></trkpt><trkpt lat="45.69724784277587" lon="9.84715264315943"><ele>277.0</ele><time>2026-03-31T09:45:49Z</time></trkpt><trkpt lat="45.697254408985934" lon="9.847243572101066"><ele>277.0</ele><time>2026-03-31T09:45:50Z</time></trkpt><trkpt lat="45.697262967622514" lon="9.84733852540994"><ele>277.0</ele><time>2026-03-31T09:45:51Z</time></trkpt><trkpt lat="45.69726768591275" lon="9.847429124830036"><ele>277.0</ele><time>2026-03-31T09:45:52Z</time></trkpt><trkpt lat="45.69727397251145" lon="9.847526060559147"><ele>277.0</ele><time>2026-03-31T09:45:53Z</time></trkpt><trkpt lat="45.697276635909006" lon="9.847619183920397"><ele>277.0</ele><time>2026-03-31T09:45:54Z</time></trkpt><trkpt lat="45.69728362486061" lon="9.847710651243677"><ele>277.0</ele><time>2026-03-31T09:45:55Z</time></trkpt><trkpt lat="45.697291804727506" lon="9.847807687463328"><ele>277.0</ele><time>2026-03-31T09:45:56Z</time></trkpt><trkpt lat="45.69729568211865" lon="9.847902046610841"><ele>277.0</ele><time>2026-03-31T09:45:57Z</time></trkpt><trkpt lat="45.69730089566111" lon="9.847996579179561"><ele>277.0</ele><time>2026-03-31T09:45:58Z</time></trkpt><trkpt lat="45.697306658765484" lon="9.848091331713782"><ele>277.0</ele><time>2026-03-31T09:45:59Z</time></trkpt><trkpt lat="45.69731601508361" lon="9.848186992889481"><ele>277.0</ele><time>2026-03-31T09:46:00Z</time></trkpt><trkpt lat="45.697323349668395" lon="9.848281921910667"><ele>277.0</ele><time>2026-03-31T09:46:01Z</time></trkpt><trkpt lat="45.69732982350816" lon="9.848375698749338"><ele>277.0</ele><time>2026-03-31T09:46:02Z</time></trkpt><trkpt lat="45.69733792960055" lon="9.848466848663127"><ele>276.42857142857144</ele><time>2026-03-31T09:46:03Z</time></trkpt><trkpt lat="45.69733975273378" lon="9.848558394781838"><ele>275.85714285714283</ele><time>2026-03-31T09:46:04Z</time></trkpt><trkpt lat="45.69735102058662" lon="9.848651453273801"><ele>275.2857142857143</ele><time>2026-03-31T09:46:05Z</time></trkpt><trkpt lat="45.69736030791216" lon="9.8487419848234"><ele>274.7142857142857</ele><time>2026-03-31T09:46:06Z</time></trkpt><trkpt lat="45.697371911528975" lon="9.848834527835361"><ele>274.1428571428571</ele><time>2026-03-31T09:46:07Z</time></trkpt><trkpt lat="45.69738679439337" lon="9.84892916949633"><ele>273.57142857142856</ele><time>2026-03-31T09:46:08Z</time></trkpt><trkpt lat="45.697400654192705" lon="9.849017571487527"><ele>273.0</ele><time>2026-03-31T09:46:09Z</time></trkpt><trkpt lat="45.69742266766871" lon="9.849108674617923"><ele>273.0</ele><time>2026-03-31T09:46:10Z</time></trkpt><trkpt lat="45.6974434090188" lon="9.849195669918739"><ele>273.0</ele><time>2026-03-31T09:46:11Z</time></trkpt><trkpt lat="45.69749105877018" lon="9.84936138004287"><ele>273.0</ele><time>2026-03-31T09:46:13Z</time></trkpt><trkpt lat="45.69754487849102" lon="9.849523419648065"><ele>273.0</ele><time>2026-03-31T09:46:15Z</time></trkpt><trkpt lat="45.6976031033231" lon="9.849684232623131"><ele>273.0</ele><time>2026-03-31T09:46:17Z</time></trkpt><trkpt lat="45.697632415650574" lon="9.849764959929049"><ele>272.4</ele><time>2026-03-31T09:46:18Z</time></trkpt><trkpt lat="45.697661825852414" lon="9.849847655561454"><ele>271.8</ele><time>2026-03-31T09:46:19Z</time></trkpt><trkpt lat="45.69772430935804" lon="9.850005354922335"><ele>271.2</ele><time>2026-03-31T09:46:21Z</time></trkpt><trkpt lat="45.69778264851903" lon="9.850164204999972"><ele>270.6</ele><time>2026-03-31T09:46:23Z</time></trkpt><trkpt lat="45.69781359833637" lon="9.850245272094241"><ele>270.0</ele><time>2026-03-31T09:46:24Z</time></trkpt><trkpt lat="45.697875074301145" lon="9.850402837350666"><ele>269.6666666666667</ele><time>2026-03-31T09:46:26Z</time></trkpt><trkpt lat="45.69790786429443" lon="9.85048176093205"><ele>269.3333333333333</ele><time>2026-03-31T09:46:27Z</time></trkpt><trkpt lat="45.697974795552554" lon="9.850636609475108"><ele>269.0</ele><time>2026-03-31T09:46:29Z</time></trkpt><trkpt lat="45.69801153942882" lon="9.850709929604538"><ele>268.66666666666663</ele><time>2026-03-31T09:46:30Z</time></trkpt><trkpt lat="45.69804819350944" lon="9.850788040516916"><ele>268.3333333333333</ele><time>2026-03-31T09:46:31Z</time></trkpt><trkpt lat="45.69808700697445" lon="9.850861977063502"><ele>268.0</ele><time>2026-03-31T09:46:32Z</time></trkpt><trkpt lat="45.69816336597767" lon="9.851004271976484"><ele>268.0</ele><time>2026-03-31T09:46:34Z</time></trkpt><trkpt lat="45.698243221952694" lon="9.851138544408354"><ele>268.0</ele><time>2026-03-31T09:46:36Z</time></trkpt><trkpt lat="45.69832599395943" lon="9.851268638486387"><ele>268.0</ele><time>2026-03-31T09:46:38Z</time></trkpt><trkpt lat="45.698407419947124" lon="9.851400935034183"><ele>268.0</ele><time>2026-03-31T09:46:40Z</time></trkpt><trkpt lat="45.69844976510952" lon="9.851468781883119"><ele>268.0</ele><time>2026-03-31T09:46:41Z</time></trkpt><trkpt lat="45.69849382549464" lon="9.851534944790998"><ele>268.0</ele><time>2026-03-31T09:46:42Z</time></trkpt><trkpt lat="45.69857451917088" lon="9.851669963924383"><ele>268.0</ele><time>2026-03-31T09:46:44Z</time></trkpt><trkpt lat="45.69865394316737" lon="9.851808536385919"><ele>268.0</ele><time>2026-03-31T09:46:46Z</time></trkpt><trkpt lat="45.69873510402274" lon="9.851940993611686"><ele>268.0</ele><time>2026-03-31T09:46:48Z</time></trkpt><trkpt lat="45.6988128582683" lon="9.852067802473726"><ele>271.25</ele><time>2026-03-31T09:46:50Z</time></trkpt><trkpt lat="45.69889622578303" lon="9.852201516559715"><ele>274.5</ele><time>2026-03-31T09:46:52Z</time></trkpt><trkpt lat="45.69897745806775" lon="9.852338429940461"><ele>277.75</ele><time>2026-03-31T09:46:54Z</time></trkpt><trkpt lat="45.69905646573467" lon="9.852478795533205"><ele>281.0</ele><time>2026-03-31T09:46:56Z</time></trkpt><trkpt lat="45.69913174560038" lon="9.852621258305042"><ele>278.5</ele><time>2026-03-31T09:46:58Z</time></trkpt><trkpt lat="45.69920349784034" lon="9.852765841209461"><ele>276.0</ele><time>2026-03-31T09:47:00Z</time></trkpt><trkpt lat="45.6992700055744" lon="9.852909173924477"><ele>273.5</ele><time>2026-03-31T09:47:02Z</time></trkpt><trkpt lat="45.6993346329509" lon="9.853055327751406"><ele>271.0</ele><time>2026-03-31T09:47:04Z</time></trkpt><trkpt lat="45.69940048881213" lon="9.853200376815742"><ele>274.40000000000003</ele><time>2026-03-31T09:47:06Z</time></trkpt><trkpt lat="45.69946778537529" lon="9.853349209139063"><ele>277.8</ele><time>2026-03-31T09:47:08Z</time></trkpt><trkpt lat="45.699533072179584" lon="9.853494462199308"><ele>281.20000000000005</ele><time>2026-03-31T09:47:10Z</time></trkpt><trkpt lat="45.699566319000226" lon="9.85357119270897"><ele>284.6</ele><time>2026-03-31T09:47:11Z</time></trkpt><trkpt lat="45.69963397889409" lon="9.853720964207428"><ele>288.0</ele><time>2026-03-31T09:47:13Z</time></trkpt><trkpt lat="45.69969996113219" lon="9.853873366677805"><ele>288.0</ele><time>2026-03-31T09:47:15Z</time></trkpt><trkpt lat="45.69976781657015" lon="9.854020802711576"><ele>288.0</ele><time>2026-03-31T09:47:17Z</time></trkpt><trkpt lat="45.69982754905507" lon="9.854166012544427"><ele>288.0</ele><time>2026-03-31T09:47:19Z</time></trkpt><trkpt lat="45.699889798884215" lon="9.854306581233073"><ele>288.0</ele><time>2026-03-31T09:47:21Z</time></trkpt><trkpt lat="45.69995582300603" lon="9.85445357618865"><ele>285.1666666666667</ele><time>2026-03-31T09:47:23Z</time></trkpt><trkpt lat="45.69999127927331" lon="9.854530795051376"><ele>282.3333333333333</ele><time>2026-03-31T09:47:24Z</time></trkpt><trkpt lat="45.70005672279585" lon="9.854687388379116"><ele>279.5</ele><time>2026-03-31T09:47:26Z</time></trkpt><trkpt lat="45.700090361777626" lon="9.854767017136421"><ele>276.66666666666663</ele><time>2026-03-31T09:47:27Z</time></trkpt><trkpt lat="45.70012554258096" lon="9.854847082625591"><ele>273.8333333333333</ele><time>2026-03-31T09:47:28Z</time></trkpt><trkpt lat="45.700161254881024" lon="9.854926875602642"><ele>271.0</ele><time>2026-03-31T09:47:29Z</time></trkpt><trkpt lat="45.70019545565118" lon="9.855008316895145"><ele>271.0</ele><time>2026-03-31T09:47:30Z</time></trkpt><trkpt lat="45.70023134895413" lon="9.855092000221905"><ele>271.0</ele><time>2026-03-31T09:47:31Z</time></trkpt><trkpt lat="45.70026781193908" lon="9.855174896521179"><ele>271.0</ele><time>2026-03-31T09:47:32Z</time></trkpt><trkpt lat="45.700304245144025" lon="9.855255950015671"><ele>271.0</ele><time>2026-03-31T09:47:33Z</time></trkpt><trkpt lat="45.70034019059433" lon="9.855338235175624"><ele>271.0</ele><time>2026-03-31T09:47:34Z</time></trkpt><trkpt lat="45.70037643665876" lon="9.85542187202309"><ele>271.0</ele><time>2026-03-31T09:47:35Z</time></trkpt><trkpt lat="45.700410681503435" lon="9.855501597397515"><ele>271.0</ele><time>2026-03-31T09:47:36Z</time></trkpt><trkpt lat="45.70044266749532" lon="9.855583396565297"><ele>270.66666666666663</ele><time>2026-03-31T09:47:37Z</time></trkpt><trkpt lat="45.70047402449168" lon="9.855665293286487"><ele>270.3333333333333</ele><time>2026-03-31T09:47:38Z</time></trkpt><trkpt lat="45.70050394374745" lon="9.855749671463196"><ele>270.0</ele><time>2026-03-31T09:47:39Z</time></trkpt><trkpt lat="45.700534816115336" lon="9.855828929274045"><ele>269.6666666666667</ele><time>2026-03-31T09:47:40Z</time></trkpt><trkpt lat="45.700567704174674" lon="9.85590838713705"><ele>269.33333333333337</ele><time>2026-03-31T09:47:41Z</time></trkpt><trkpt lat="45.70063279787675" lon="9.856057081136068"><ele>269.0</ele><time>2026-03-31T09:47:43Z</time></trkpt><trkpt lat="45.7007059996828" lon="9.85620205132601"><ele>269.0</ele><time>2026-03-31T09:47:45Z</time></trkpt><trkpt lat="45.70077600470731" lon="9.85635022379222"><ele>269.0</ele><time>2026-03-31T09:47:47Z</time></trkpt><trkpt lat="45.700843507031955" lon="9.856500196496503"><ele>269.0</ele><time>2026-03-31T09:47:49Z</time></trkpt><trkpt lat="45.700912607594034" lon="9.856645172891293"><ele>269.0</ele><time>2026-03-31T09:47:51Z</time></trkpt><trkpt lat="45.70098470579483" lon="9.856786013239967"><ele>268.25</ele><time>2026-03-31T09:47:53Z</time></trkpt><trkpt lat="45.70106166471562" lon="9.856926281925997"><ele>267.5</ele><time>2026-03-31T09:47:55Z</time></trkpt><trkpt lat="45.70114092748892" lon="9.857053838953249"><ele>266.75</ele><time>2026-03-31T09:47:57Z</time></trkpt><trkpt lat="45.701225084962296" lon="9.857170487529471"><ele>266.0</ele><time>2026-03-31T09:47:59Z</time></trkpt><trkpt lat="45.701312201884434" lon="9.857292253450064"><ele>266.0</ele><time>2026-03-31T09:48:01Z</time></trkpt><trkpt lat="45.70140053902219" lon="9.857406153301573"><ele>266.0</ele><time>2026-03-31T09:48:03Z</time></trkpt><trkpt lat="45.70149693928003" lon="9.857518483054019"><ele>266.0</ele><time>2026-03-31T09:48:05Z</time></trkpt><trkpt lat="45.70159644281304" lon="9.85762359377919"><ele>266.0</ele><time>2026-03-31T09:48:07Z</time></trkpt><trkpt lat="45.70169122952133" lon="9.857718960988331"><ele>265.5</ele><time>2026-03-31T09:48:09Z</time></trkpt><trkpt lat="45.70179080939513" lon="9.857810624501044"><ele>265.0</ele><time>2026-03-31T09:48:11Z</time></trkpt><trkpt lat="45.701892508953016" lon="9.85789151074576"><ele>264.5</ele><time>2026-03-31T09:48:13Z</time></trkpt><trkpt lat="45.70199472195019" lon="9.857977672773172"><ele>264.0</ele><time>2026-03-31T09:48:15Z</time></trkpt><trkpt lat="45.70209831707149" lon="9.858050707399823"><ele>264.0</ele><time>2026-03-31T09:48:17Z</time></trkpt><trkpt lat="45.702206842739265" lon="9.858125285389379"><ele>264.0</ele><time>2026-03-31T09:48:19Z</time></trkpt><trkpt lat="45.702312401778094" lon="9.85820376881816"><ele>264.0</ele><time>2026-03-31T09:48:21Z</time></trkpt><trkpt lat="45.702417883635256" lon="9.858278876643194"><ele>264.0</ele><time>2026-03-31T09:48:23Z</time></trkpt><trkpt lat="45.70252233557791" lon="9.858368887824204"><ele>263.0</ele><time>2026-03-31T09:48:25Z</time></trkpt><trkpt lat="45.70260881801541" lon="9.858488546397961"><ele>262.0</ele><time>2026-03-31T09:48:27Z</time></trkpt><trkpt lat="45.70267370676622" lon="9.858631341381566"><ele>261.0</ele><time>2026-03-31T09:48:29Z</time></trkpt><trkpt lat="45.70276934961036" lon="9.858739138970202"><ele>260.0</ele><time>2026-03-31T09:48:31Z</time></trkpt><trkpt lat="45.702890423049865" lon="9.858756618874033"><ele>260.0</ele><time>2026-03-31T09:48:33Z</time></trkpt><trkpt lat="45.70299661650222" lon="9.858682409774726"><ele>260.0</ele><time>2026-03-31T09:48:35Z</time></trkpt><trkpt lat="45.70307105555925" lon="9.858573592647355"><ele>260.0</ele><time>2026-03-31T09:48:37Z</time></trkpt><trkpt lat="45.70314801453011" lon="9.858482204373537"><ele>260.0</ele><time>2026-03-31T09:48:39Z</time></trkpt><trkpt lat="45.70325306200926" lon="9.858408632185558"><ele>260.0</ele><time>2026-03-31T09:48:41Z</time></trkpt><trkpt lat="45.70336909999593" lon="9.858388962413212"><ele>260.0</ele><time>2026-03-31T09:48:43Z</time></trkpt><trkpt lat="45.703481150521824" lon="9.858401675559799"><ele>260.0</ele><time>2026-03-31T09:48:45Z</time></trkpt><trkpt lat="45.70357601876696" lon="9.858429247268544"><ele>260.0</ele><time>2026-03-31T09:48:47Z</time></trkpt><trkpt lat="45.703611564459656" lon="9.858544360934701"><ele>260.0</ele><time>2026-03-31T09:48:49Z</time></trkpt><trkpt lat="45.70356614895564" lon="9.858700329755708"><ele>260.0</ele><time>2026-03-31T09:48:51Z</time></trkpt><trkpt lat="45.70353287732049" lon="9.858860636142074"><ele>260.0</ele><time>2026-03-31T09:48:53Z</time></trkpt><trkpt lat="45.70349909576219" lon="9.859025777148032"><ele>260.0</ele><time>2026-03-31T09:48:55Z</time></trkpt><trkpt lat="45.70347498679626" lon="9.859184881358726"><ele>260.0</ele><time>2026-03-31T09:48:57Z</time></trkpt><trkpt lat="45.70349965163557" lon="9.859346441830986"><ele>260.0</ele><time>2026-03-31T09:48:59Z</time></trkpt><trkpt lat="45.70355073606185" lon="9.85940600576476"><ele>260.0</ele><time>2026-03-31T09:49:00Z</time></trkpt><trkpt lat="45.703604896926876" lon="9.859457764273388"><ele>260.6</ele><time>2026-03-31T09:49:01Z</time></trkpt><trkpt lat="45.70365620399592" lon="9.859512034086105"><ele>261.2</ele><time>2026-03-31T09:49:02Z</time></trkpt><trkpt lat="45.703753781976715" lon="9.859624622066022"><ele>261.8</ele><time>2026-03-31T09:49:04Z</time></trkpt><trkpt lat="45.703792626702345" lon="9.859697842020235"><ele>262.4</ele><time>2026-03-31T09:49:05Z</time></trkpt><trkpt lat="45.703867642979475" lon="9.859838596516399"><ele>263.0</ele><time>2026-03-31T09:49:07Z</time></trkpt><trkpt lat="45.703941437393475" lon="9.85997532038283"><ele>263.0</ele><time>2026-03-31T09:49:09Z</time></trkpt><trkpt lat="45.70401383334855" lon="9.860109107851818"><ele>263.0</ele><time>2026-03-31T09:49:11Z</time></trkpt><trkpt lat="45.70408402019173" lon="9.860249979748238"><ele>263.0</ele><time>2026-03-31T09:49:13Z</time></trkpt><trkpt lat="45.70416085031673" lon="9.860382088606434"><ele>263.0</ele><time>2026-03-31T09:49:15Z</time></trkpt><trkpt lat="45.704239580748" lon="9.860511270490548"><ele>263.0</ele><time>2026-03-31T09:49:17Z</time></trkpt><trkpt lat="45.70431542335793" lon="9.8606466964102"><ele>263.0</ele><time>2026-03-31T09:49:19Z</time></trkpt><trkpt lat="45.704386616532986" lon="9.860784085060542"><ele>263.0</ele><time>2026-03-31T09:49:21Z</time></trkpt><trkpt lat="45.70446060276953" lon="9.86091547978807"><ele>263.0</ele><time>2026-03-31T09:49:23Z</time></trkpt><trkpt lat="45.70452977334689" lon="9.861046112056282"><ele>263.25</ele><time>2026-03-31T09:49:25Z</time></trkpt><trkpt lat="45.70457516377521" lon="9.861201091091905"><ele>263.5</ele><time>2026-03-31T09:49:27Z</time></trkpt><trkpt lat="45.70456016782368" lon="9.86136908863223"><ele>263.75</ele><time>2026-03-31T09:49:29Z</time></trkpt><trkpt lat="45.70448656549231" lon="9.86150474343318"><ele>264.0</ele><time>2026-03-31T09:49:31Z</time></trkpt><trkpt lat="45.704398173816365" lon="9.861619865488942"><ele>264.25</ele><time>2026-03-31T09:49:33Z</time></trkpt><trkpt lat="45.70430898319507" lon="9.861729042096506"><ele>264.5</ele><time>2026-03-31T09:49:35Z</time></trkpt><trkpt lat="45.70422166671845" lon="9.861848895340373"><ele>264.75</ele><time>2026-03-31T09:49:37Z</time></trkpt><trkpt lat="45.704141001121435" lon="9.861979224423738"><ele>265.0</ele><time>2026-03-31T09:49:39Z</time></trkpt><trkpt lat="45.70410476311564" lon="9.862140422481554"><ele>265.0</ele><time>2026-03-31T09:49:41Z</time></trkpt><trkpt lat="45.70412313121688" lon="9.862304515736481"><ele>265.0</ele><time>2026-03-31T09:49:43Z</time></trkpt><trkpt lat="45.70416191938264" lon="9.862461737191028"><ele>265.0</ele><time>2026-03-31T09:49:45Z</time></trkpt><trkpt lat="45.70420381453948" lon="9.862622673914364"><ele>265.0</ele><time>2026-03-31T09:49:47Z</time></trkpt><trkpt lat="45.70422804334069" lon="9.862707885302099"><ele>265.0</ele><time>2026-03-31T09:49:48Z</time></trkpt><trkpt lat="45.70426855103355" lon="9.862870724305742"><ele>265.25</ele><time>2026-03-31T09:49:50Z</time></trkpt><trkpt lat="45.70430989349566" lon="9.863027974717916"><ele>265.5</ele><time>2026-03-31T09:49:52Z</time></trkpt><trkpt lat="45.70435744207465" lon="9.863189637660161"><ele>265.75</ele><time>2026-03-31T09:49:54Z</time></trkpt><trkpt lat="45.70439594211161" lon="9.863339675452176"><ele>266.0</ele><time>2026-03-31T09:49:56Z</time></trkpt><trkpt lat="45.7044302659187" lon="9.86348247908135"><ele>266.0</ele><time>2026-03-31T09:49:58Z</time></trkpt><trkpt lat="45.704475186045386" lon="9.86363998268948"><ele>266.0</ele><time>2026-03-31T09:50:00Z</time></trkpt><trkpt lat="45.7045129021722" lon="9.863804622785368"><ele>266.0</ele><time>2026-03-31T09:50:02Z</time></trkpt><trkpt lat="45.70455307427615" lon="9.863960587138662"><ele>266.0</ele><time>2026-03-31T09:50:04Z</time></trkpt><trkpt lat="45.70459609996324" lon="9.864118076094641"><ele>266.0</ele><time>2026-03-31T09:50:06Z</time></trkpt><trkpt lat="45.70463825013907" lon="9.86427540801805"><ele>266.0</ele><time>2026-03-31T09:50:08Z</time></trkpt><trkpt lat="45.70467392795306" lon="9.864437778700447"><ele>266.0</ele><time>2026-03-31T09:50:10Z</time></trkpt><trkpt lat="45.70470223248109" lon="9.864598503433632"><ele>266.0</ele><time>2026-03-31T09:50:12Z</time></trkpt><trkpt lat="45.704735057613355" lon="9.864759019211327"><ele>266.0</ele><time>2026-03-31T09:50:14Z</time></trkpt><trkpt lat="45.704767779723994" lon="9.86492254497782"><ele>266.0</ele><time>2026-03-31T09:50:16Z</time></trkpt><trkpt lat="45.704791592942584" lon="9.865089928084673"><ele>266.0</ele><time>2026-03-31T09:50:18Z</time></trkpt><trkpt lat="45.70480774614803" lon="9.865259203124749"><ele>266.0</ele><time>2026-03-31T09:50:20Z</time></trkpt><trkpt lat="45.704832427595385" lon="9.865426222897401"><ele>265.75</ele><time>2026-03-31T09:50:22Z</time></trkpt><trkpt lat="45.704851955359786" lon="9.865594413225416"><ele>265.5</ele><time>2026-03-31T09:50:24Z</time></trkpt><trkpt lat="45.70486455354478" lon="9.86576455388646"><ele>265.25</ele><time>2026-03-31T09:50:26Z</time></trkpt><trkpt lat="45.70487895854306" lon="9.865936509334174"><ele>265.0</ele><time>2026-03-31T09:50:28Z</time></trkpt><trkpt lat="45.70489603024896" lon="9.866103268953713"><ele>265.75</ele><time>2026-03-31T09:50:30Z</time></trkpt><trkpt lat="45.7049057078287" lon="9.866274170657478"><ele>266.5</ele><time>2026-03-31T09:50:32Z</time></trkpt><trkpt lat="45.704920922992045" lon="9.866438526378413"><ele>267.25</ele><time>2026-03-31T09:50:34Z</time></trkpt><trkpt lat="45.70493810353557" lon="9.866604892806286"><ele>268.0</ele><time>2026-03-31T09:50:36Z</time></trkpt><trkpt lat="45.70495136015024" lon="9.866771181555567"><ele>269.0</ele><time>2026-03-31T09:50:38Z</time></trkpt><trkpt lat="45.70496834622981" lon="9.866938582589512"><ele>270.0</ele><time>2026-03-31T09:50:40Z</time></trkpt><trkpt lat="45.7049798596753" lon="9.867106607262533"><ele>271.0</ele><time>2026-03-31T09:50:42Z</time></trkpt><trkpt lat="45.70499205451653" lon="9.867272671477668"><ele>272.0</ele><time>2026-03-31T09:50:44Z</time></trkpt><trkpt lat="45.70500715670924" lon="9.867439876454748"><ele>272.0</ele><time>2026-03-31T09:50:46Z</time></trkpt><trkpt lat="45.705019034093446" lon="9.86760677049689"><ele>272.0</ele><time>2026-03-31T09:50:48Z</time></trkpt><trkpt lat="45.705034282757566" lon="9.867774879801258"><ele>272.0</ele><time>2026-03-31T09:50:50Z</time></trkpt><trkpt lat="45.705045468780995" lon="9.867947563245645"><ele>272.0</ele><time>2026-03-31T09:50:52Z</time></trkpt><trkpt lat="45.705059733389234" lon="9.868113482412427"><ele>271.75</ele><time>2026-03-31T09:50:54Z</time></trkpt><trkpt lat="45.7050828966168" lon="9.868277378338568"><ele>271.5</ele><time>2026-03-31T09:50:56Z</time></trkpt><trkpt lat="45.7051005816788" lon="9.86843782031066"><ele>271.25</ele><time>2026-03-31T09:50:58Z</time></trkpt><trkpt lat="45.70509743928763" lon="9.868601861013795"><ele>271.0</ele><time>2026-03-31T09:51:00Z</time></trkpt><trkpt lat="45.705135902045924" lon="9.868765057252693"><ele>271.0</ele><time>2026-03-31T09:51:02Z</time></trkpt><trkpt lat="45.705212294149014" lon="9.86890179871364"><ele>271.0</ele><time>2026-03-31T09:51:04Z</time></trkpt><trkpt lat="45.70526199205181" lon="9.869062054750751"><ele>271.0</ele><time>2026-03-31T09:51:06Z</time></trkpt><trkpt lat="45.70528993818388" lon="9.86922615828833"><ele>271.0</ele><time>2026-03-31T09:51:08Z</time></trkpt><trkpt lat="45.7053208305732" lon="9.869387906409912"><ele>270.5</ele><time>2026-03-31T09:51:10Z</time></trkpt><trkpt lat="45.70535768809122" lon="9.869552052758296"><ele>270.0</ele><time>2026-03-31T09:51:12Z</time></trkpt><trkpt lat="45.70539878465915" lon="9.86971276547954"><ele>269.5</ele><time>2026-03-31T09:51:14Z</time></trkpt><trkpt lat="45.70543047118679" lon="9.869871125399662"><ele>269.0</ele><time>2026-03-31T09:51:16Z</time></trkpt><trkpt lat="45.70545780258773" lon="9.87003446491232"><ele>269.25</ele><time>2026-03-31T09:51:18Z</time></trkpt><trkpt lat="45.70549712944824" lon="9.87019643156034"><ele>269.5</ele><time>2026-03-31T09:51:20Z</time></trkpt><trkpt lat="45.7055374486951" lon="9.870343915205957"><ele>269.75</ele><time>2026-03-31T09:51:22Z</time></trkpt><trkpt lat="45.705571097969205" lon="9.870510053402723"><ele>270.0</ele><time>2026-03-31T09:51:24Z</time></trkpt><trkpt lat="45.70561298975793" lon="9.870671966873086"><ele>270.0</ele><time>2026-03-31T09:51:26Z</time></trkpt><trkpt lat="45.705660080537754" lon="9.870831037757352"><ele>270.0</ele><time>2026-03-31T09:51:28Z</time></trkpt><trkpt lat="45.70570927271887" lon="9.870987393669571"><ele>270.0</ele><time>2026-03-31T09:51:30Z</time></trkpt><trkpt lat="45.70575752651108" lon="9.871139283826318"><ele>270.0</ele><time>2026-03-31T09:51:32Z</time></trkpt><trkpt lat="45.705810417588154" lon="9.871290115011607"><ele>270.0</ele><time>2026-03-31T09:51:34Z</time></trkpt><trkpt lat="45.705864614209304" lon="9.871434240620843"><ele>270.0</ele><time>2026-03-31T09:51:36Z</time></trkpt><trkpt lat="45.70591827356395" lon="9.871581615653358"><ele>270.0</ele><time>2026-03-31T09:51:38Z</time></trkpt><trkpt lat="45.70597338408246" lon="9.871723069338028"><ele>270.0</ele><time>2026-03-31T09:51:40Z</time></trkpt><trkpt lat="45.706027381841345" lon="9.871877028702611"><ele>270.0</ele><time>2026-03-31T09:51:42Z</time></trkpt><trkpt lat="45.706085473149614" lon="9.87202239283659"><ele>270.0</ele><time>2026-03-31T09:51:44Z</time></trkpt><trkpt lat="45.70614628209109" lon="9.872174465121288"><ele>270.0</ele><time>2026-03-31T09:51:46Z</time></trkpt><trkpt lat="45.706195446190776" lon="9.872331878672792"><ele>270.0</ele><time>2026-03-31T09:51:48Z</time></trkpt><trkpt lat="45.70625425338701" lon="9.87247977156335"><ele>270.25</ele><time>2026-03-31T09:51:50Z</time></trkpt><trkpt lat="45.70631688438335" lon="9.872631589727703"><ele>270.5</ele><time>2026-03-31T09:51:52Z</time></trkpt><trkpt lat="45.706370409450315" lon="9.872779610730063"><ele>270.75</ele><time>2026-03-31T09:51:54Z</time></trkpt><trkpt lat="45.70642791028817" lon="9.872928384403673"><ele>271.0</ele><time>2026-03-31T09:51:56Z</time></trkpt><trkpt lat="45.706480738068855" lon="9.873078308006676"><ele>271.0</ele><time>2026-03-31T09:51:58Z</time></trkpt><trkpt lat="45.70653681315076" lon="9.873224930719719"><ele>271.0</ele><time>2026-03-31T09:52:00Z</time></trkpt><trkpt lat="45.70659736012391" lon="9.873370345615863"><ele>271.0</ele><time>2026-03-31T09:52:02Z</time></trkpt><trkpt lat="45.70665448749615" lon="9.873521572251992"><ele>271.0</ele><time>2026-03-31T09:52:04Z</time></trkpt><trkpt lat="45.70671393232517" lon="9.873668887267653"><ele>271.75</ele><time>2026-03-31T09:52:06Z</time></trkpt><trkpt lat="45.706762790008796" lon="9.87381545320235"><ele>272.5</ele><time>2026-03-31T09:52:08Z</time></trkpt><trkpt lat="45.706813893494" lon="9.873968778939126"><ele>273.25</ele><time>2026-03-31T09:52:10Z</time></trkpt><trkpt lat="45.70686813866317" lon="9.87411944509199"><ele>274.0</ele><time>2026-03-31T09:52:12Z</time></trkpt><trkpt lat="45.706923761933815" lon="9.87426606113485"><ele>274.0</ele><time>2026-03-31T09:52:14Z</time></trkpt><trkpt lat="45.70698015330155" lon="9.874410834361017"><ele>274.0</ele><time>2026-03-31T09:52:16Z</time></trkpt><trkpt lat="45.70703468815623" lon="9.874561328647086"><ele>274.0</ele><time>2026-03-31T09:52:18Z</time></trkpt><trkpt lat="45.707093710515636" lon="9.874709135112392"><ele>274.0</ele><time>2026-03-31T09:52:20Z</time></trkpt><trkpt lat="45.70715145261926" lon="9.874856009680592"><ele>274.0</ele><time>2026-03-31T09:52:22Z</time></trkpt><trkpt lat="45.70719931636579" lon="9.874996397252936"><ele>274.0</ele><time>2026-03-31T09:52:24Z</time></trkpt><trkpt lat="45.70722750594031" lon="9.875140086522908"><ele>274.0</ele><time>2026-03-31T09:52:26Z</time></trkpt><trkpt lat="45.707257257176835" lon="9.875273214359463"><ele>274.0</ele><time>2026-03-31T09:52:28Z</time></trkpt><trkpt lat="45.70732863739889" lon="9.875387088876753"><ele>274.0</ele><time>2026-03-31T09:52:30Z</time></trkpt><trkpt lat="45.70742485028254" lon="9.875498469954142"><ele>274.25</ele><time>2026-03-31T09:52:32Z</time></trkpt><trkpt lat="45.707503028900085" lon="9.875618381966023"><ele>274.5</ele><time>2026-03-31T09:52:34Z</time></trkpt><trkpt lat="45.707580487259015" lon="9.875742704159686"><ele>274.75</ele><time>2026-03-31T09:52:36Z</time></trkpt><trkpt lat="45.70765957940621" lon="9.875860145085074"><ele>275.0</ele><time>2026-03-31T09:52:38Z</time></trkpt><trkpt lat="45.70773556525143" lon="9.875971472922302"><ele>276.0</ele><time>2026-03-31T09:52:40Z</time></trkpt><trkpt lat="45.707821171385525" lon="9.876082975231679"><ele>277.0</ele><time>2026-03-31T09:52:42Z</time></trkpt><trkpt lat="45.707921793087614" lon="9.876182585572023"><ele>278.0</ele><time>2026-03-31T09:52:44Z</time></trkpt><trkpt lat="45.708023359738895" lon="9.876271944331364"><ele>279.0</ele><time>2026-03-31T09:52:46Z</time></trkpt><trkpt lat="45.708125569693514" lon="9.876352648216422"><ele>279.0</ele><time>2026-03-31T09:52:48Z</time></trkpt><trkpt lat="45.70823369086468" lon="9.876444006289791"><ele>279.0</ele><time>2026-03-31T09:52:50Z</time></trkpt><trkpt lat="45.70829021123665" lon="9.876493830145716"><ele>279.0</ele><time>2026-03-31T09:52:51Z</time></trkpt><trkpt lat="45.70834710540191" lon="9.87654525147135"><ele>279.0</ele><time>2026-03-31T09:52:52Z</time></trkpt><trkpt lat="45.708404474764095" lon="9.876594462681597"><ele>279.0</ele><time>2026-03-31T09:52:53Z</time></trkpt><trkpt lat="45.70846318000326" lon="9.876639327912761"><ele>279.0</ele><time>2026-03-31T09:52:54Z</time></trkpt><trkpt lat="45.70852086230776" lon="9.876680820105559"><ele>278.4</ele><time>2026-03-31T09:52:55Z</time></trkpt><trkpt lat="45.70863055188331" lon="9.876762730907421"><ele>277.79999999999995</ele><time>2026-03-31T09:52:57Z</time></trkpt><trkpt lat="45.7087316006143" lon="9.876842753740183"><ele>277.20000000000005</ele><time>2026-03-31T09:52:59Z</time></trkpt><trkpt lat="45.70882271552994" lon="9.87692078068292"><ele>276.6</ele><time>2026-03-31T09:53:01Z</time></trkpt><trkpt lat="45.708906703267616" lon="9.876993615102265"><ele>276.0</ele><time>2026-03-31T09:53:03Z</time></trkpt><trkpt lat="45.708993814958205" lon="9.877078627159944"><ele>278.0</ele><time>2026-03-31T09:53:05Z</time></trkpt><trkpt lat="45.70909080664945" lon="9.877171319106255"><ele>280.0</ele><time>2026-03-31T09:53:07Z</time></trkpt><trkpt lat="45.70918496350366" lon="9.877265809317134"><ele>282.0</ele><time>2026-03-31T09:53:09Z</time></trkpt><trkpt lat="45.709285807545484" lon="9.877356537001521"><ele>284.0</ele><time>2026-03-31T09:53:11Z</time></trkpt><trkpt lat="45.70938509256944" lon="9.877452840161657"><ele>283.59999999999997</ele><time>2026-03-31T09:53:13Z</time></trkpt><trkpt lat="45.70948029647614" lon="9.877541540186662"><ele>283.2</ele><time>2026-03-31T09:53:15Z</time></trkpt><trkpt lat="45.709576646410454" lon="9.877629479107323"><ele>282.79999999999995</ele><time>2026-03-31T09:53:17Z</time></trkpt><trkpt lat="45.709674700954835" lon="9.87771012146896"><ele>282.4</ele><time>2026-03-31T09:53:19Z</time></trkpt><trkpt lat="45.709767429847105" lon="9.877785151551185"><ele>282.0</ele><time>2026-03-31T09:53:21Z</time></trkpt><trkpt lat="45.709863697993754" lon="9.877877046317986"><ele>282.0</ele><time>2026-03-31T09:53:23Z</time></trkpt><trkpt lat="45.70990630436968" lon="9.877947248647388"><ele>282.0</ele><time>2026-03-31T09:53:24Z</time></trkpt><trkpt lat="45.709988338740004" lon="9.87807705371556"><ele>282.0</ele><time>2026-03-31T09:53:26Z</time></trkpt><trkpt lat="45.710034194403455" lon="9.878139790572526"><ele>282.0</ele><time>2026-03-31T09:53:27Z</time></trkpt><trkpt lat="45.71013077143106" lon="9.878248850619578"><ele>282.0</ele><time>2026-03-31T09:53:29Z</time></trkpt><trkpt lat="45.710233643476826" lon="9.878347948449832"><ele>281.6</ele><time>2026-03-31T09:53:31Z</time></trkpt><trkpt lat="45.710340465737524" lon="9.878431707620964"><ele>281.2</ele><time>2026-03-31T09:53:33Z</time></trkpt><trkpt lat="45.71039884070476" lon="9.878469691174935"><ele>280.8</ele><time>2026-03-31T09:53:34Z</time></trkpt><trkpt lat="45.71050034337763" lon="9.8785627827303"><ele>280.4</ele><time>2026-03-31T09:53:36Z</time></trkpt><trkpt lat="45.710585124634164" lon="9.878670105956976"><ele>280.0</ele><time>2026-03-31T09:53:38Z</time></trkpt><trkpt lat="45.71065467573423" lon="9.878786500238006"><ele>280.0</ele><time>2026-03-31T09:53:40Z</time></trkpt><trkpt lat="45.71072409136376" lon="9.87891476183456"><ele>280.0</ele><time>2026-03-31T09:53:42Z</time></trkpt><trkpt lat="45.71078857593096" lon="9.879019866205116"><ele>280.0</ele><time>2026-03-31T09:53:44Z</time></trkpt><trkpt lat="45.710853588097415" lon="9.879122652821865"><ele>280.0</ele><time>2026-03-31T09:53:46Z</time></trkpt><trkpt lat="45.71091179045905" lon="9.87923654836045"><ele>280.0</ele><time>2026-03-31T09:53:48Z</time></trkpt><trkpt lat="45.7109899905839" lon="9.87930802593015"><ele>280.0</ele><time>2026-03-31T09:53:50Z</time></trkpt><trkpt lat="45.7110894792378" lon="9.879374375217626"><ele>280.0</ele><time>2026-03-31T09:53:52Z</time></trkpt><trkpt lat="45.71120270750894" lon="9.87938125552557"><ele>280.0</ele><time>2026-03-31T09:53:54Z</time></trkpt><trkpt lat="45.711268499614626" lon="9.879473094428336"><ele>280.0</ele><time>2026-03-31T09:53:56Z</time></trkpt><trkpt lat="45.71129476001895" lon="9.879555698409364"><ele>280.0</ele><time>2026-03-31T09:53:57Z</time></trkpt><trkpt lat="45.711320104462246" lon="9.879642924249342"><ele>280.0</ele><time>2026-03-31T09:53:58Z</time></trkpt><trkpt lat="45.71137175410954" lon="9.879806654711142"><ele>280.0</ele><time>2026-03-31T09:54:00Z</time></trkpt><trkpt lat="45.71141481190991" lon="9.879976186474071"><ele>280.0</ele><time>2026-03-31T09:54:02Z</time></trkpt><trkpt lat="45.71145914512311" lon="9.880143301837197"><ele>280.0</ele><time>2026-03-31T09:54:04Z</time></trkpt><trkpt lat="45.711502436699504" lon="9.88030402633437"><ele>280.0</ele><time>2026-03-31T09:54:06Z</time></trkpt><trkpt lat="45.7115501351244" lon="9.880459483611185"><ele>281.25</ele><time>2026-03-31T09:54:08Z</time></trkpt><trkpt lat="45.711607313058266" lon="9.880614660032489"><ele>282.5</ele><time>2026-03-31T09:54:10Z</time></trkpt><trkpt lat="45.711687402548534" lon="9.880742278223652"><ele>283.75</ele><time>2026-03-31T09:54:12Z</time></trkpt><trkpt lat="45.711785954494495" lon="9.880843195597183"><ele>285.0</ele><time>2026-03-31T09:54:14Z</time></trkpt><trkpt lat="45.711895067973074" lon="9.880908588264166"><ele>283.75</ele><time>2026-03-31T09:54:16Z</time></trkpt><trkpt lat="45.71201316402689" lon="9.880939094005523"><ele>282.5</ele><time>2026-03-31T09:54:18Z</time></trkpt><trkpt lat="45.71212814312803" lon="9.880955734080135"><ele>281.25</ele><time>2026-03-31T09:54:20Z</time></trkpt><trkpt lat="45.712245159173946" lon="9.880966063433908"><ele>280.0</ele><time>2026-03-31T09:54:22Z</time></trkpt><trkpt lat="45.71236247537118" lon="9.880969698535713"><ele>280.0</ele><time>2026-03-31T09:54:24Z</time></trkpt><trkpt lat="45.71247778529914" lon="9.88097873640439"><ele>280.0</ele><time>2026-03-31T09:54:26Z</time></trkpt><trkpt lat="45.712595235032566" lon="9.880984250719996"><ele>280.0</ele><time>2026-03-31T09:54:28Z</time></trkpt><trkpt lat="45.71271091807568" lon="9.881003880291935"><ele>280.0</ele><time>2026-03-31T09:54:30Z</time></trkpt><trkpt lat="45.71282566241895" lon="9.88104193977406"><ele>280.5</ele><time>2026-03-31T09:54:32Z</time></trkpt><trkpt lat="45.7129264010403" lon="9.88112982743146"><ele>281.0</ele><time>2026-03-31T09:54:34Z</time></trkpt><trkpt lat="45.71299293709936" lon="9.881262575971943"><ele>281.5</ele><time>2026-03-31T09:54:36Z</time></trkpt><trkpt lat="45.71304182273984" lon="9.881416745879807"><ele>282.0</ele><time>2026-03-31T09:54:38Z</time></trkpt><trkpt lat="45.713070246765795" lon="9.88158067948113"><ele>282.0</ele><time>2026-03-31T09:54:40Z</time></trkpt><trkpt lat="45.71308018618111" lon="9.881742821593939"><ele>282.0</ele><time>2026-03-31T09:54:42Z</time></trkpt><trkpt lat="45.71307151683518" lon="9.88191274589311"><ele>282.0</ele><time>2026-03-31T09:54:44Z</time></trkpt><trkpt lat="45.71306150582875" lon="9.882078835615616"><ele>282.0</ele><time>2026-03-31T09:54:46Z</time></trkpt><trkpt lat="45.71305368118538" lon="9.882255400396998"><ele>282.25</ele><time>2026-03-31T09:54:48Z</time></trkpt><trkpt lat="45.71304532821031" lon="9.882427243421777"><ele>282.5</ele><time>2026-03-31T09:54:50Z</time></trkpt><trkpt lat="45.71303992175488" lon="9.882596282212337"><ele>282.75</ele><time>2026-03-31T09:54:52Z</time></trkpt><trkpt lat="45.71303866955375" lon="9.88276282689801"><ele>283.0</ele><time>2026-03-31T09:54:54Z</time></trkpt><trkpt lat="45.71303757195384" lon="9.882929861061822"><ele>283.0</ele><time>2026-03-31T09:54:56Z</time></trkpt><trkpt lat="45.71305525145663" lon="9.883094220144251"><ele>283.0</ele><time>2026-03-31T09:54:58Z</time></trkpt><trkpt lat="45.71308009299905" lon="9.883251054719604"><ele>283.0</ele><time>2026-03-31T09:55:00Z</time></trkpt><trkpt lat="45.71311563079083" lon="9.883401936520043"><ele>283.0</ele><time>2026-03-31T09:55:02Z</time></trkpt><trkpt lat="45.71317478011701" lon="9.883559619837781"><ele>284.25</ele><time>2026-03-31T09:55:04Z</time></trkpt><trkpt lat="45.71324193003913" lon="9.883688287052266"><ele>285.5</ele><time>2026-03-31T09:55:06Z</time></trkpt><trkpt lat="45.71330368909506" lon="9.883822793871728"><ele>286.75</ele><time>2026-03-31T09:55:08Z</time></trkpt><trkpt lat="45.71336863512946" lon="9.883955098661891"><ele>288.0</ele><time>2026-03-31T09:55:10Z</time></trkpt><trkpt lat="45.713435444801874" lon="9.884098451124881"><ele>288.0</ele><time>2026-03-31T09:55:12Z</time></trkpt><trkpt lat="45.71349661866471" lon="9.884249480317397"><ele>288.0</ele><time>2026-03-31T09:55:14Z</time></trkpt><trkpt lat="45.71355361367778" lon="9.884395114427907"><ele>288.0</ele><time>2026-03-31T09:55:16Z</time></trkpt><trkpt lat="45.71361567837856" lon="9.884531524815253"><ele>288.0</ele><time>2026-03-31T09:55:18Z</time></trkpt><trkpt lat="45.713667442093346" lon="9.884663391137977"><ele>287.8333333333333</ele><time>2026-03-31T09:55:20Z</time></trkpt><trkpt lat="45.713698957014074" lon="9.884773475993217"><ele>287.6666666666667</ele><time>2026-03-31T09:55:22Z</time></trkpt><trkpt lat="45.71373619644027" lon="9.884886457311124"><ele>287.5</ele><time>2026-03-31T09:55:24Z</time></trkpt><trkpt lat="45.71377153467564" lon="9.885007118560413"><ele>287.33333333333337</ele><time>2026-03-31T09:55:26Z</time></trkpt><trkpt lat="45.71382697468995" lon="9.885136608725523"><ele>287.1666666666667</ele><time>2026-03-31T09:55:28Z</time></trkpt><trkpt lat="45.71385130464804" lon="9.88521995043341"><ele>287.0</ele><time>2026-03-31T09:55:29Z</time></trkpt><trkpt lat="45.71391521419783" lon="9.885357163581814"><ele>287.0</ele><time>2026-03-31T09:55:31Z</time></trkpt><trkpt lat="45.71395162727312" lon="9.885510307490145"><ele>287.0</ele><time>2026-03-31T09:55:33Z</time></trkpt><trkpt lat="45.71400250303907" lon="9.885655551259621"><ele>287.0</ele><time>2026-03-31T09:55:35Z</time></trkpt><trkpt lat="45.71407018331428" lon="9.885781308082125"><ele>287.0</ele><time>2026-03-31T09:55:37Z</time></trkpt><trkpt lat="45.71413867136523" lon="9.885909589672657"><ele>286.5</ele><time>2026-03-31T09:55:39Z</time></trkpt><trkpt lat="45.7142112478057" lon="9.886035080582774"><ele>286.0</ele><time>2026-03-31T09:55:41Z</time></trkpt><trkpt lat="45.71425239180347" lon="9.8861050965753"><ele>285.5</ele><time>2026-03-31T09:55:42Z</time></trkpt><trkpt lat="45.714292418921715" lon="9.886176326185227"><ele>285.0</ele><time>2026-03-31T09:55:43Z</time></trkpt><trkpt lat="45.7143318759474" lon="9.886249086134915"><ele>284.5</ele><time>2026-03-31T09:55:44Z</time></trkpt><trkpt lat="45.714371319510974" lon="9.886319898441371"><ele>284.0</ele><time>2026-03-31T09:55:45Z</time></trkpt><trkpt lat="45.71444718757212" lon="9.886451130500554"><ele>284.0</ele><time>2026-03-31T09:55:47Z</time></trkpt><trkpt lat="45.71452739463486" lon="9.88655679504651"><ele>284.0</ele><time>2026-03-31T09:55:49Z</time></trkpt><trkpt lat="45.71461195007207" lon="9.886651798471114"><ele>284.0</ele><time>2026-03-31T09:55:51Z</time></trkpt><trkpt lat="45.71469702507697" lon="9.886733927457279"><ele>284.0</ele><time>2026-03-31T09:55:53Z</time></trkpt><trkpt lat="45.714769410125655" lon="9.886761208295662"><ele>284.0</ele><time>2026-03-31T09:55:55Z</time></trkpt><trkpt lat="45.71485949071964" lon="9.886796763937326"><ele>284.2</ele><time>2026-03-31T09:55:57Z</time></trkpt><trkpt lat="45.71492317605443" lon="9.886845790046292"><ele>284.4</ele><time>2026-03-31T09:55:58Z</time></trkpt><trkpt lat="45.714976169461764" lon="9.88690033092908"><ele>284.6</ele><time>2026-03-31T09:55:59Z</time></trkpt><trkpt lat="45.715071450037016" lon="9.88700621113171"><ele>284.8</ele><time>2026-03-31T09:56:01Z</time></trkpt><trkpt lat="45.71516615630576" lon="9.887112617223197"><ele>285.0</ele><time>2026-03-31T09:56:03Z</time></trkpt><trkpt lat="45.71525477974432" lon="9.887228862473226"><ele>285.0</ele><time>2026-03-31T09:56:05Z</time></trkpt><trkpt lat="45.71534353766795" lon="9.887347843144841"><ele>285.0</ele><time>2026-03-31T09:56:07Z</time></trkpt><trkpt lat="45.715425159663766" lon="9.887473876117884"><ele>285.0</ele><time>2026-03-31T09:56:09Z</time></trkpt><trkpt lat="45.715508366373385" lon="9.887597911000238"><ele>285.0</ele><time>2026-03-31T09:56:11Z</time></trkpt><trkpt lat="45.71559129514597" lon="9.887717997052414"><ele>285.25</ele><time>2026-03-31T09:56:13Z</time></trkpt><trkpt lat="45.715676157104866" lon="9.887835641021386"><ele>285.5</ele><time>2026-03-31T09:56:15Z</time></trkpt><trkpt lat="45.715760426508695" lon="9.887959594407377"><ele>285.75</ele><time>2026-03-31T09:56:17Z</time></trkpt><trkpt lat="45.715845851090585" lon="9.888072492434075"><ele>286.0</ele><time>2026-03-31T09:56:19Z</time></trkpt><trkpt lat="45.715940761940196" lon="9.88817308416187"><ele>286.0</ele><time>2026-03-31T09:56:21Z</time></trkpt><trkpt lat="45.716038859370066" lon="9.888270756336118"><ele>286.0</ele><time>2026-03-31T09:56:23Z</time></trkpt><trkpt lat="45.716142665559495" lon="9.888351406292458"><ele>286.0</ele><time>2026-03-31T09:56:25Z</time></trkpt><trkpt lat="45.71624844788138" lon="9.88843039010344"><ele>286.0</ele><time>2026-03-31T09:56:27Z</time></trkpt><trkpt lat="45.71635738849303" lon="9.888500301976256"><ele>286.5</ele><time>2026-03-31T09:56:29Z</time></trkpt><trkpt lat="45.7164645254229" lon="9.888570038609778"><ele>287.0</ele><time>2026-03-31T09:56:31Z</time></trkpt><trkpt lat="45.71657294000531" lon="9.888638517581011"><ele>287.5</ele><time>2026-03-31T09:56:33Z</time></trkpt><trkpt lat="45.71667778016665" lon="9.88871763730133"><ele>288.0</ele><time>2026-03-31T09:56:35Z</time></trkpt><trkpt lat="45.71678474653297" lon="9.888794044566831"><ele>288.0</ele><time>2026-03-31T09:56:37Z</time></trkpt><trkpt lat="45.716885238453024" lon="9.888888225444466"><ele>288.0</ele><time>2026-03-31T09:56:39Z</time></trkpt><trkpt lat="45.716971777426345" lon="9.889011992982534"><ele>288.0</ele><time>2026-03-31T09:56:41Z</time></trkpt><trkpt lat="45.71705307069408" lon="9.889129490888378"><ele>288.0</ele><time>2026-03-31T09:56:43Z</time></trkpt><trkpt lat="45.71711001598066" lon="9.889225132483613"><ele>288.0</ele><time>2026-03-31T09:56:45Z</time></trkpt><trkpt lat="45.71717623336353" lon="9.88927325919919"><ele>287.8333333333333</ele><time>2026-03-31T09:59:05Z</time></trkpt><trkpt lat="45.71722310173009" lon="9.889344065405487"><ele>287.6666666666667</ele><time>2026-03-31T09:59:07Z</time></trkpt><trkpt lat="45.71729412621661" lon="9.88940566444526"><ele>287.5</ele><time>2026-03-31T09:59:09Z</time></trkpt><trkpt lat="45.71737489247859" lon="9.889475425163756"><ele>287.33333333333337</ele><time>2026-03-31T09:59:11Z</time></trkpt><trkpt lat="45.71744668337376" lon="9.889526370742098"><ele>287.1666666666667</ele><time>2026-03-31T09:59:13Z</time></trkpt><trkpt lat="45.717521204419114" lon="9.889560032578766"><ele>287.0</ele><time>2026-03-31T09:59:15Z</time></trkpt><trkpt lat="45.71761738658677" lon="9.889590300049573"><ele>287.0</ele><time>2026-03-31T09:59:17Z</time></trkpt><trkpt lat="45.71771191806314" lon="9.889645334874995"><ele>287.0</ele><time>2026-03-31T09:59:19Z</time></trkpt><trkpt lat="45.71779657194049" lon="9.889683329253284"><ele>287.0</ele><time>2026-03-31T09:59:21Z</time></trkpt><trkpt lat="45.71789673948746" lon="9.88973149426267"><ele>287.0</ele><time>2026-03-31T09:59:23Z</time></trkpt><trkpt lat="45.71799857144546" lon="9.889790421554626"><ele>287.0</ele><time>2026-03-31T09:59:25Z</time></trkpt><trkpt lat="45.718090774086804" lon="9.889852094371863"><ele>286.8</ele><time>2026-03-31T09:59:27Z</time></trkpt><trkpt lat="45.718188403908684" lon="9.889925636473494"><ele>286.6</ele><time>2026-03-31T09:59:29Z</time></trkpt><trkpt lat="45.718256419396575" lon="9.890022525069336"><ele>286.40000000000003</ele><time>2026-03-31T09:59:31Z</time></trkpt><trkpt lat="45.718305279050334" lon="9.89010491196854"><ele>286.2</ele><time>2026-03-31T09:59:33Z</time></trkpt><trkpt lat="45.718335693672756" lon="9.89023291986245"><ele>286.0</ele><time>2026-03-31T09:59:36Z</time></trkpt><trkpt lat="45.71828535851501" lon="9.890358179941352"><ele>286.8</ele><time>2026-03-31T09:59:38Z</time></trkpt><trkpt lat="45.718236533946275" lon="9.89049653688481"><ele>287.6</ele><time>2026-03-31T09:59:40Z</time></trkpt><trkpt lat="45.71820935022749" lon="9.890651952601718"><ele>288.4</ele><time>2026-03-31T09:59:42Z</time></trkpt><trkpt lat="45.718204873605636" lon="9.890816581886956"><ele>289.2</ele><time>2026-03-31T09:59:44Z</time></trkpt><trkpt lat="45.71822292069423" lon="9.89097080392252"><ele>290.0</ele><time>2026-03-31T09:59:46Z</time></trkpt><trkpt lat="45.71827887318322" lon="9.891111007748927"><ele>290.0</ele><time>2026-03-31T09:59:48Z</time></trkpt><trkpt lat="45.7183506568337" lon="9.891239647663644"><ele>290.0</ele><time>2026-03-31T09:59:50Z</time></trkpt><trkpt lat="45.71841972715016" lon="9.891364220380511"><ele>290.0</ele><time>2026-03-31T09:59:52Z</time></trkpt><trkpt lat="45.71845842911767" lon="9.891435921223461"><ele>290.0</ele><time>2026-03-31T09:59:53Z</time></trkpt><trkpt lat="45.71853482669554" lon="9.89156704080741"><ele>290.0</ele><time>2026-03-31T09:59:55Z</time></trkpt><trkpt lat="45.718600565322205" lon="9.89170936657808"><ele>290.0</ele><time>2026-03-31T09:59:57Z</time></trkpt><trkpt lat="45.71865518590023" lon="9.891851425670128"><ele>290.0</ele><time>2026-03-31T09:59:59Z</time></trkpt><trkpt lat="45.718731713091465" lon="9.891977572406518"><ele>290.0</ele><time>2026-03-31T10:00:01Z</time></trkpt><trkpt lat="45.71881240176686" lon="9.8920963210361"><ele>290.0</ele><time>2026-03-31T10:00:03Z</time></trkpt><trkpt lat="45.71889872248837" lon="9.892210115814045"><ele>290.0</ele><time>2026-03-31T10:00:05Z</time></trkpt><trkpt lat="45.71898880602437" lon="9.892322045449982"><ele>290.0</ele><time>2026-03-31T10:00:07Z</time></trkpt><trkpt lat="45.71907803016048" lon="9.89243424107635"><ele>290.0</ele><time>2026-03-31T10:00:09Z</time></trkpt><trkpt lat="45.71916613671677" lon="9.892548040607304"><ele>290.0</ele><time>2026-03-31T10:00:11Z</time></trkpt><trkpt lat="45.719261502866054" lon="9.892652707209553"><ele>290.5</ele><time>2026-03-31T10:00:13Z</time></trkpt><trkpt lat="45.71936183808745" lon="9.892748871301798"><ele>291.0</ele><time>2026-03-31T10:00:15Z</time></trkpt><trkpt lat="45.71945568067326" lon="9.89285710787822"><ele>291.5</ele><time>2026-03-31T10:00:17Z</time></trkpt><trkpt lat="45.71954983917524" lon="9.892957471989853"><ele>292.0</ele><time>2026-03-31T10:00:19Z</time></trkpt><trkpt lat="45.71963369109622" lon="9.893077683532148"><ele>292.25</ele><time>2026-03-31T10:00:21Z</time></trkpt><trkpt lat="45.7197322406301" lon="9.893182423866739"><ele>292.5</ele><time>2026-03-31T10:00:23Z</time></trkpt><trkpt lat="45.719821750305165" lon="9.893297137646346"><ele>292.75</ele><time>2026-03-31T10:00:25Z</time></trkpt><trkpt lat="45.719912508867075" lon="9.893403777837442"><ele>293.0</ele><time>2026-03-31T10:00:27Z</time></trkpt><trkpt lat="45.720002692792754" lon="9.893504882041743"><ele>294.25</ele><time>2026-03-31T10:00:29Z</time></trkpt><trkpt lat="45.720097089320845" lon="9.893594491043926"><ele>295.5</ele><time>2026-03-31T10:00:31Z</time></trkpt><trkpt lat="45.72020297367403" lon="9.893664034876652"><ele>296.75</ele><time>2026-03-31T10:00:33Z</time></trkpt><trkpt lat="45.72030350035838" lon="9.893741023399338"><ele>298.0</ele><time>2026-03-31T10:00:35Z</time></trkpt><trkpt lat="45.72040539098252" lon="9.893808435374472"><ele>298.0</ele><time>2026-03-31T10:00:37Z</time></trkpt><trkpt lat="45.7205076906032" lon="9.893876211641587"><ele>298.0</ele><time>2026-03-31T10:00:39Z</time></trkpt><trkpt lat="45.720597388022654" lon="9.893960010064285"><ele>298.0</ele><time>2026-03-31T10:00:41Z</time></trkpt><trkpt lat="45.72068033566733" lon="9.89406723488139"><ele>298.0</ele><time>2026-03-31T10:00:43Z</time></trkpt><trkpt lat="45.72075312301991" lon="9.894194490923285"><ele>298.0</ele><time>2026-03-31T10:00:45Z</time></trkpt><trkpt lat="45.7208178666136" lon="9.894324603927394"><ele>298.75</ele><time>2026-03-31T10:00:47Z</time></trkpt><trkpt lat="45.72088331809943" lon="9.894463818090008"><ele>299.5</ele><time>2026-03-31T10:00:49Z</time></trkpt><trkpt lat="45.7209371251379" lon="9.894614260051844"><ele>300.25</ele><time>2026-03-31T10:00:51Z</time></trkpt><trkpt lat="45.720968478492516" lon="9.894765609957268"><ele>301.0</ele><time>2026-03-31T10:00:53Z</time></trkpt><trkpt lat="45.720996960681205" lon="9.894918092101738"><ele>301.0</ele><time>2026-03-31T10:00:55Z</time></trkpt><trkpt lat="45.721001905063275" lon="9.895061214893737"><ele>301.0</ele><time>2026-03-31T10:00:57Z</time></trkpt><trkpt lat="45.721005951898086" lon="9.895160106011446"><ele>301.0</ele><time>2026-03-31T10:00:58Z</time></trkpt><trkpt lat="45.72101130590505" lon="9.895301066278876"><ele>301.0</ele><time>2026-03-31T10:01:00Z</time></trkpt><trkpt lat="45.721023091342445" lon="9.895470050924121"><ele>301.0</ele><time>2026-03-31T10:01:02Z</time></trkpt><trkpt lat="45.72103747434117" lon="9.89562314182075"><ele>301.16666666666663</ele><time>2026-03-31T10:01:04Z</time></trkpt><trkpt lat="45.72107239493721" lon="9.895781173786126"><ele>301.3333333333333</ele><time>2026-03-31T10:01:06Z</time></trkpt><trkpt lat="45.72109662562312" lon="9.895875540390529"><ele>301.5</ele><time>2026-03-31T10:01:07Z</time></trkpt><trkpt lat="45.72112093221072" lon="9.895985941572183"><ele>301.6666666666667</ele><time>2026-03-31T10:01:08Z</time></trkpt><trkpt lat="45.72114818506381" lon="9.896073704644337"><ele>301.83333333333337</ele><time>2026-03-31T10:01:09Z</time></trkpt><trkpt lat="45.721187194644" lon="9.896148009447192"><ele>302.0</ele><time>2026-03-31T10:01:10Z</time></trkpt><trkpt lat="45.721240123719795" lon="9.896200477739686"><ele>302.0</ele><time>2026-03-31T10:01:11Z</time></trkpt><trkpt lat="45.72129441962564" lon="9.896347626088634"><ele>302.0</ele><time>2026-03-31T10:01:13Z</time></trkpt><trkpt lat="45.72131622102039" lon="9.896445075379317"><ele>302.0</ele><time>2026-03-31T10:01:14Z</time></trkpt><trkpt lat="45.72134933488545" lon="9.896611029323294"><ele>302.0</ele><time>2026-03-31T10:01:16Z</time></trkpt><trkpt lat="45.72136991548635" lon="9.896762126141901"><ele>302.0</ele><time>2026-03-31T10:01:18Z</time></trkpt><trkpt lat="45.72141683443296" lon="9.8969215944585"><ele>302.5</ele><time>2026-03-31T10:01:20Z</time></trkpt><trkpt lat="45.72146876362088" lon="9.897092242213056"><ele>303.0</ele><time>2026-03-31T10:01:22Z</time></trkpt><trkpt lat="45.7215345074424" lon="9.897240653626758"><ele>303.5</ele><time>2026-03-31T10:01:24Z</time></trkpt><trkpt lat="45.721568491441694" lon="9.897318302236007"><ele>304.0</ele><time>2026-03-31T10:01:25Z</time></trkpt><trkpt lat="45.721601637181585" lon="9.897396046983319"><ele>304.5</ele><time>2026-03-31T10:01:26Z</time></trkpt><trkpt lat="45.7216364812041" lon="9.89747433548464"><ele>305.0</ele><time>2026-03-31T10:01:27Z</time></trkpt><trkpt lat="45.72167246111067" lon="9.897549080480399"><ele>304.25</ele><time>2026-03-31T10:01:28Z</time></trkpt><trkpt lat="45.72174079107732" lon="9.89769203747941"><ele>303.5</ele><time>2026-03-31T10:01:30Z</time></trkpt><trkpt lat="45.72180790996126" lon="9.897837096882581"><ele>302.75</ele><time>2026-03-31T10:01:32Z</time></trkpt><trkpt lat="45.721866267948485" lon="9.897958106120354"><ele>302.0</ele><time>2026-03-31T10:01:34Z</time></trkpt><trkpt lat="45.72195228776283" lon="9.89807264627923"><ele>302.0</ele><time>2026-03-31T10:01:36Z</time></trkpt><trkpt lat="45.7220060757335" lon="9.898139346017864"><ele>302.0</ele><time>2026-03-31T10:01:37Z</time></trkpt><trkpt lat="45.72205415012995" lon="9.898198775746286"><ele>302.0</ele><time>2026-03-31T10:01:38Z</time></trkpt><trkpt lat="45.722145445624115" lon="9.898312393497585"><ele>302.0</ele><time>2026-03-31T10:01:40Z</time></trkpt><trkpt lat="45.72223367455788" lon="9.898420163544378"><ele>302.0</ele><time>2026-03-31T10:01:42Z</time></trkpt><trkpt lat="45.722327763598074" lon="9.898518011304807"><ele>302.0</ele><time>2026-03-31T10:01:44Z</time></trkpt><trkpt lat="45.72241621220943" lon="9.898614919150974"><ele>302.0</ele><time>2026-03-31T10:01:46Z</time></trkpt><trkpt lat="45.72251482171427" lon="9.898700572110052"><ele>302.0</ele><time>2026-03-31T10:01:48Z</time></trkpt><trkpt lat="45.72261769541989" lon="9.898784819548448"><ele>302.0</ele><time>2026-03-31T10:01:50Z</time></trkpt><trkpt lat="45.72270766975092" lon="9.898866897458289"><ele>302.0</ele><time>2026-03-31T10:01:52Z</time></trkpt><trkpt lat="45.72280537774721" lon="9.898946772773906"><ele>302.0</ele><time>2026-03-31T10:01:54Z</time></trkpt><trkpt lat="45.72287986513789" lon="9.899038829064997"><ele>302.0</ele><time>2026-03-31T10:01:56Z</time></trkpt><trkpt lat="45.72294820988933" lon="9.899166804175318"><ele>302.0</ele><time>2026-03-31T10:01:58Z</time></trkpt><trkpt lat="45.72301854225858" lon="9.899304412696736"><ele>302.0</ele><time>2026-03-31T10:02:00Z</time></trkpt><trkpt lat="45.72309251721048" lon="9.89943703772666"><ele>302.0</ele><time>2026-03-31T10:02:02Z</time></trkpt><trkpt lat="45.72317686946688" lon="9.89955202129848"><ele>302.0</ele><time>2026-03-31T10:02:04Z</time></trkpt><trkpt lat="45.72328338588789" lon="9.89962653950135"><ele>302.0</ele><time>2026-03-31T10:02:06Z</time></trkpt><trkpt lat="45.72339288569815" lon="9.899680088691602"><ele>302.0</ele><time>2026-03-31T10:02:08Z</time></trkpt><trkpt lat="45.72348890295774" lon="9.899776566093225"><ele>302.0</ele><time>2026-03-31T10:02:10Z</time></trkpt><trkpt lat="45.723520492385" lon="9.899860788652358"><ele>302.0</ele><time>2026-03-31T10:02:11Z</time></trkpt><trkpt lat="45.72356830215222" lon="9.900015348062704"><ele>302.0</ele><time>2026-03-31T10:02:13Z</time></trkpt><trkpt lat="45.72363058962036" lon="9.900102770020371"><ele>302.0</ele><time>2026-03-31T10:02:15Z</time></trkpt><trkpt lat="45.72375447132327" lon="9.900135201898214"><ele>302.0</ele><time>2026-03-31T10:02:17Z</time></trkpt><trkpt lat="45.723845126729636" lon="9.90018945496957"><ele>302.0</ele><time>2026-03-31T10:02:19Z</time></trkpt><trkpt lat="45.723778773923996" lon="9.900298571909529"><ele>302.0</ele><time>2026-03-31T10:02:22Z</time></trkpt><trkpt lat="45.72376302910415" lon="9.900387631774358"><ele>302.0</ele><time>2026-03-31T10:02:24Z</time></trkpt><trkpt lat="45.72384814297744" lon="9.900400101620566"><ele>302.0</ele><time>2026-03-31T10:02:26Z</time></trkpt><trkpt lat="45.72395345815676" lon="9.900453171680033"><ele>302.0</ele><time>2026-03-31T10:02:28Z</time></trkpt><trkpt lat="45.72401699444271" lon="9.900482160840925"><ele>302.0</ele><time>2026-03-31T10:02:29Z</time></trkpt><trkpt lat="45.724110220672735" lon="9.900586507996058"><ele>302.0</ele><time>2026-03-31T10:02:31Z</time></trkpt><trkpt lat="45.724188002389084" lon="9.90070700699755"><ele>302.0</ele><time>2026-03-31T10:02:33Z</time></trkpt><trkpt lat="45.72426038191977" lon="9.900837513709181"><ele>302.0</ele><time>2026-03-31T10:02:35Z</time></trkpt><trkpt lat="45.72432128250911" lon="9.900960170283186"><ele>302.0</ele><time>2026-03-31T10:02:37Z</time></trkpt><trkpt lat="45.724388229221084" lon="9.901099757516027"><ele>302.75</ele><time>2026-03-31T10:02:39Z</time></trkpt><trkpt lat="45.72447237643111" lon="9.901224836225927"><ele>303.5</ele><time>2026-03-31T10:02:41Z</time></trkpt><trkpt lat="45.724575469187194" lon="9.901305763507699"><ele>304.25</ele><time>2026-03-31T10:02:43Z</time></trkpt><trkpt lat="45.72467803148331" lon="9.901378550968614"><ele>305.0</ele><time>2026-03-31T10:02:45Z</time></trkpt><trkpt lat="45.724780430963726" lon="9.901456611433625"><ele>305.0</ele><time>2026-03-31T10:02:47Z</time></trkpt><trkpt lat="45.72488245458401" lon="9.901517173756568"><ele>305.0</ele><time>2026-03-31T10:02:49Z</time></trkpt><trkpt lat="45.72498001961379" lon="9.901552755480997"><ele>305.0</ele><time>2026-03-31T10:02:51Z</time></trkpt><trkpt lat="45.725072515575114" lon="9.90155245208575"><ele>305.0</ele><time>2026-03-31T10:02:53Z</time></trkpt><trkpt lat="45.72514263505084" lon="9.90154709837048"><ele>305.0</ele><time>2026-03-31T10:02:55Z</time></trkpt><trkpt lat="45.725190075142834" lon="9.901636379684117"><ele>305.8</ele><time>2026-03-31T10:02:58Z</time></trkpt><trkpt lat="45.72524894613563" lon="9.901739552889476"><ele>306.6</ele><time>2026-03-31T10:03:00Z</time></trkpt><trkpt lat="45.72533281371381" lon="9.9018516081971"><ele>307.4</ele><time>2026-03-31T10:03:02Z</time></trkpt><trkpt lat="45.725406961457" lon="9.901977672677504"><ele>308.2</ele><time>2026-03-31T10:03:04Z</time></trkpt><trkpt lat="45.72548021760364" lon="9.902101795680666"><ele>309.0</ele><time>2026-03-31T10:03:06Z</time></trkpt><trkpt lat="45.72555948868709" lon="9.902219220458903"><ele>309.0</ele><time>2026-03-31T10:03:08Z</time></trkpt><trkpt lat="45.72563702204127" lon="9.902332162353918"><ele>309.0</ele><time>2026-03-31T10:03:10Z</time></trkpt><trkpt lat="45.72571501151981" lon="9.902444941193506"><ele>309.0</ele><time>2026-03-31T10:03:12Z</time></trkpt><trkpt lat="45.72579433759448" lon="9.902547200135372"><ele>309.0</ele><time>2026-03-31T10:03:14Z</time></trkpt><trkpt lat="45.72586766338225" lon="9.902644665587772"><ele>309.0</ele><time>2026-03-31T10:03:16Z</time></trkpt><trkpt lat="45.725932918199895" lon="9.902743779412646"><ele>309.59999999999997</ele><time>2026-03-31T10:03:18Z</time></trkpt><trkpt lat="45.72599378005279" lon="9.902867900473868"><ele>310.2</ele><time>2026-03-31T10:03:20Z</time></trkpt><trkpt lat="45.726063740171114" lon="9.902986373809668"><ele>310.79999999999995</ele><time>2026-03-31T10:03:22Z</time></trkpt><trkpt lat="45.726133293650356" lon="9.903110914098773"><ele>311.4</ele><time>2026-03-31T10:03:24Z</time></trkpt><trkpt lat="45.726198419654494" lon="9.903226028401464"><ele>312.0</ele><time>2026-03-31T10:03:26Z</time></trkpt><trkpt lat="45.72627029851136" lon="9.90334827257144"><ele>312.8</ele><time>2026-03-31T10:03:28Z</time></trkpt><trkpt lat="45.726337926331624" lon="9.903484179128924"><ele>313.6</ele><time>2026-03-31T10:03:30Z</time></trkpt><trkpt lat="45.726384389397985" lon="9.903555688531934"><ele>314.40000000000003</ele><time>2026-03-31T10:03:31Z</time></trkpt><trkpt lat="45.726443380608146" lon="9.903694211955594"><ele>315.2</ele><time>2026-03-31T10:03:33Z</time></trkpt><trkpt lat="45.72650418158578" lon="9.903829052166433"><ele>316.0</ele><time>2026-03-31T10:03:35Z</time></trkpt><trkpt lat="45.726543200451935" lon="9.903972442621406"><ele>316.0</ele><time>2026-03-31T10:03:37Z</time></trkpt><trkpt lat="45.72658374557686" lon="9.904119435484267"><ele>316.0</ele><time>2026-03-31T10:03:39Z</time></trkpt><trkpt lat="45.7266302439447" lon="9.90426236750748"><ele>316.0</ele><time>2026-03-31T10:03:41Z</time></trkpt><trkpt lat="45.72669007145418" lon="9.904401985077051"><ele>316.0</ele><time>2026-03-31T10:03:43Z</time></trkpt><trkpt lat="45.7267777347685" lon="9.904508569661921"><ele>316.25</ele><time>2026-03-31T10:03:45Z</time></trkpt><trkpt lat="45.72686756925977" lon="9.90460915277486"><ele>316.5</ele><time>2026-03-31T10:03:47Z</time></trkpt><trkpt lat="45.72696007654161" lon="9.904709790016595"><ele>316.75</ele><time>2026-03-31T10:03:49Z</time></trkpt><trkpt lat="45.72706177223874" lon="9.904791839403885"><ele>317.0</ele><time>2026-03-31T10:03:51Z</time></trkpt><trkpt lat="45.72716293154032" lon="9.904881836020968"><ele>317.0</ele><time>2026-03-31T10:03:53Z</time></trkpt><trkpt lat="45.72721739025375" lon="9.904930703924265"><ele>317.0</ele><time>2026-03-31T10:03:54Z</time></trkpt><trkpt lat="45.72730627916527" lon="9.905048098662036"><ele>317.0</ele><time>2026-03-31T10:03:56Z</time></trkpt><trkpt lat="45.72736900645425" lon="9.905198369647103"><ele>317.0</ele><time>2026-03-31T10:03:58Z</time></trkpt><trkpt lat="45.727378109511136" lon="9.905370454698849"><ele>317.0</ele><time>2026-03-31T10:04:00Z</time></trkpt><trkpt lat="45.72734723623061" lon="9.905523856012078"><ele>317.6</ele><time>2026-03-31T10:04:02Z</time></trkpt><trkpt lat="45.72730710638066" lon="9.905664078762282"><ele>318.2</ele><time>2026-03-31T10:04:04Z</time></trkpt><trkpt lat="45.7272676250836" lon="9.90580187313176"><ele>318.8</ele><time>2026-03-31T10:04:06Z</time></trkpt><trkpt lat="45.72722692492466" lon="9.905938901991627"><ele>319.4</ele><time>2026-03-31T10:04:08Z</time></trkpt><trkpt lat="45.72717744896043" lon="9.906064351582259"><ele>320.0</ele><time>2026-03-31T10:04:10Z</time></trkpt><trkpt lat="45.7271331987345" lon="9.906205619593742"><ele>321.4</ele><time>2026-03-31T10:04:12Z</time></trkpt><trkpt lat="45.72706939727373" lon="9.906316654768277"><ele>322.8</ele><time>2026-03-31T10:04:14Z</time></trkpt><trkpt lat="45.726998134405434" lon="9.906426328346523"><ele>324.20000000000005</ele><time>2026-03-31T10:04:16Z</time></trkpt><trkpt lat="45.72692144863647" lon="9.906521598871624"><ele>325.6</ele><time>2026-03-31T10:04:18Z</time></trkpt><trkpt lat="45.72685061841978" lon="9.906613684233829"><ele>327.0</ele><time>2026-03-31T10:04:20Z</time></trkpt><trkpt lat="45.72676899127472" lon="9.906666661995214"><ele>327.8</ele><time>2026-03-31T10:04:22Z</time></trkpt><trkpt lat="45.72669325634061" lon="9.906710027059331"><ele>328.6</ele><time>2026-03-31T10:04:24Z</time></trkpt><trkpt lat="45.726629952730796" lon="9.906782991527518"><ele>329.40000000000003</ele><time>2026-03-31T10:04:26Z</time></trkpt><trkpt lat="45.72663221197577" lon="9.906920861943817"><ele>330.20000000000005</ele><time>2026-03-31T10:04:28Z</time></trkpt><trkpt lat="45.726733451826725" lon="9.906996275711085"><ele>331.0</ele><time>2026-03-31T10:04:30Z</time></trkpt><trkpt lat="45.72681046667976" lon="9.90704453310438"><ele>331.5</ele><time>2026-03-31T10:04:32Z</time></trkpt><trkpt lat="45.726868723034215" lon="9.907101418102664"><ele>332.0</ele><time>2026-03-31T10:04:34Z</time></trkpt><trkpt lat="45.72691592761005" lon="9.907188694210525"><ele>332.5</ele><time>2026-03-31T10:04:36Z</time></trkpt><trkpt lat="45.72696518501954" lon="9.9072761439953"><ele>333.0</ele><time>2026-03-31T10:04:38Z</time></trkpt><trkpt lat="45.72702414083751" lon="9.907381723027923"><ele>333.5</ele><time>2026-03-31T10:04:40Z</time></trkpt><trkpt lat="45.72705949921727" lon="9.90747436808781"><ele>334.0</ele><time>2026-03-31T10:04:42Z</time></trkpt><trkpt lat="45.72709993686769" lon="9.907581009913118"><ele>335.0</ele><time>2026-03-31T10:04:44Z</time></trkpt><trkpt lat="45.72714092555472" lon="9.90768902118735"><ele>336.0</ele><time>2026-03-31T10:04:46Z</time></trkpt><trkpt lat="45.72717354080365" lon="9.907801182167798"><ele>337.0</ele><time>2026-03-31T10:04:48Z</time></trkpt><trkpt lat="45.72719393975897" lon="9.907914938389087"><ele>338.0</ele><time>2026-03-31T10:04:50Z</time></trkpt><trkpt lat="45.72720008296242" lon="9.908034995371755"><ele>339.0</ele><time>2026-03-31T10:04:52Z</time></trkpt><trkpt lat="45.72719428858131" lon="9.908143251186793"><ele>340.0</ele><time>2026-03-31T10:04:54Z</time></trkpt><trkpt lat="45.72718146844926" lon="9.908243183063808"><ele>340.0</ele><time>2026-03-31T10:04:56Z</time></trkpt><trkpt lat="45.72717393954086" lon="9.908354282836127"><ele>340.0</ele><time>2026-03-31T10:04:58Z</time></trkpt><trkpt lat="45.727180891676134" lon="9.908476321258242"><ele>340.0</ele><time>2026-03-31T10:05:00Z</time></trkpt><trkpt lat="45.72720911624053" lon="9.908586922291816"><ele>340.0</ele><time>2026-03-31T10:05:02Z</time></trkpt><trkpt lat="45.72724756718312" lon="9.908694329006067"><ele>340.0</ele><time>2026-03-31T10:05:04Z</time></trkpt><trkpt lat="45.727305699978515" lon="9.908790986192999"><ele>340.0</ele><time>2026-03-31T10:05:06Z</time></trkpt><trkpt lat="45.727361986493705" lon="9.908899871478148"><ele>342.16666666666663</ele><time>2026-03-31T10:05:08Z</time></trkpt><trkpt lat="45.72741270790579" lon="9.90901561987508"><ele>344.3333333333333</ele><time>2026-03-31T10:05:10Z</time></trkpt><trkpt lat="45.72747323413489" lon="9.909108389846333"><ele>346.5</ele><time>2026-03-31T10:05:12Z</time></trkpt><trkpt lat="45.727527070746405" lon="9.909204353969004"><ele>348.6666666666667</ele><time>2026-03-31T10:05:14Z</time></trkpt><trkpt lat="45.727579014987235" lon="9.909298165610183"><ele>350.83333333333337</ele><time>2026-03-31T10:05:16Z</time></trkpt><trkpt lat="45.727627644372404" lon="9.909388516984786"><ele>353.0</ele><time>2026-03-31T10:05:18Z</time></trkpt><trkpt lat="45.72767647224761" lon="9.9094850600563"><ele>352.83333333333337</ele><time>2026-03-31T10:05:20Z</time></trkpt><trkpt lat="45.72772376285183" lon="9.909580735305994"><ele>352.6666666666667</ele><time>2026-03-31T10:05:22Z</time></trkpt><trkpt lat="45.7277686432251" lon="9.909666978223122"><ele>352.5</ele><time>2026-03-31T10:05:24Z</time></trkpt><trkpt lat="45.72781628561235" lon="9.909755491026946"><ele>352.3333333333333</ele><time>2026-03-31T10:05:26Z</time></trkpt><trkpt lat="45.72785726627786" lon="9.909854261856074"><ele>352.16666666666663</ele><time>2026-03-31T10:05:28Z</time></trkpt><trkpt lat="45.72790499110994" lon="9.90994466411475"><ele>352.0</ele><time>2026-03-31T10:05:30Z</time></trkpt><trkpt lat="45.72795285546092" lon="9.91003560420828"><ele>354.5</ele><time>2026-03-31T10:05:32Z</time></trkpt><trkpt lat="45.72799580919203" lon="9.910135900633918"><ele>357.0</ele><time>2026-03-31T10:05:34Z</time></trkpt><trkpt lat="45.72803551359232" lon="9.910235538716087"><ele>359.5</ele><time>2026-03-31T10:05:36Z</time></trkpt><trkpt lat="45.72807148293601" lon="9.910342788649626"><ele>362.0</ele><time>2026-03-31T10:05:38Z</time></trkpt><trkpt lat="45.72811313051353" lon="9.91045187669308"><ele>364.5</ele><time>2026-03-31T10:05:40Z</time></trkpt><trkpt lat="45.72815118410454" lon="9.91055476943383"><ele>367.0</ele><time>2026-03-31T10:05:42Z</time></trkpt><trkpt lat="45.72819665185143" lon="9.910672264432785"><ele>367.0</ele><time>2026-03-31T10:05:44Z</time></trkpt><trkpt lat="45.728237414754304" lon="9.910781644368566"><ele>367.0</ele><time>2026-03-31T10:05:46Z</time></trkpt><trkpt lat="45.72827391098081" lon="9.91089161017713"><ele>367.0</ele><time>2026-03-31T10:05:48Z</time></trkpt><trkpt lat="45.72831401871451" lon="9.910994876107786"><ele>367.0</ele><time>2026-03-31T10:05:50Z</time></trkpt><trkpt lat="45.72835896662662" lon="9.911085173030965"><ele>367.0</ele><time>2026-03-31T10:05:52Z</time></trkpt><trkpt lat="45.72840718517073" lon="9.911168243701475"><ele>367.0</ele><time>2026-03-31T10:05:54Z</time></trkpt><trkpt lat="45.72846428679942" lon="9.91124180588913"><ele>367.0</ele><time>2026-03-31T10:05:56Z</time></trkpt><trkpt lat="45.7285293779088" lon="9.91129915735702"><ele>367.0</ele><time>2026-03-31T10:05:58Z</time></trkpt><trkpt lat="45.728594436152584" lon="9.911358104580705"><ele>367.0</ele><time>2026-03-31T10:06:00Z</time></trkpt><trkpt lat="45.72864832375354" lon="9.911440837638706"><ele>367.0</ele><time>2026-03-31T10:06:02Z</time></trkpt><trkpt lat="45.728595856753415" lon="9.91153406319315"><ele>367.0</ele><time>2026-03-31T10:06:04Z</time></trkpt><trkpt lat="45.72851123054616" lon="9.911465745617072"><ele>367.0</ele><time>2026-03-31T10:06:06Z</time></trkpt><trkpt lat="45.72844586906507" lon="9.91139048463388"><ele>370.16666666666663</ele><time>2026-03-31T10:06:08Z</time></trkpt><trkpt lat="45.72837644320391" lon="9.91131575481883"><ele>373.3333333333333</ele><time>2026-03-31T10:06:10Z</time></trkpt><trkpt lat="45.72830189741258" lon="9.911243318280365"><ele>376.5</ele><time>2026-03-31T10:06:12Z</time></trkpt><trkpt lat="45.728224432846325" lon="9.91118127735014"><ele>379.66666666666663</ele><time>2026-03-31T10:06:14Z</time></trkpt><trkpt lat="45.728149852172585" lon="9.911120340933076"><ele>382.8333333333333</ele><time>2026-03-31T10:06:16Z</time></trkpt><trkpt lat="45.72808183170112" lon="9.911050011387788"><ele>386.0</ele><time>2026-03-31T10:06:18Z</time></trkpt><trkpt lat="45.72801467803441" lon="9.910974280647348"><ele>385.8</ele><time>2026-03-31T10:06:20Z</time></trkpt><trkpt lat="45.72794881898874" lon="9.91089722498159"><ele>385.6</ele><time>2026-03-31T10:06:22Z</time></trkpt><trkpt lat="45.727879595873674" lon="9.910821309849274"><ele>385.4</ele><time>2026-03-31T10:06:24Z</time></trkpt><trkpt lat="45.7278060292434" lon="9.910745293757895"><ele>385.2</ele><time>2026-03-31T10:06:26Z</time></trkpt><trkpt lat="45.72772499038584" lon="9.910651340844607"><ele>385.0</ele><time>2026-03-31T10:06:28Z</time></trkpt><trkpt lat="45.72764965883993" lon="9.91054326037522"><ele>385.0</ele><time>2026-03-31T10:06:30Z</time></trkpt><trkpt lat="45.72756077466104" lon="9.910492142505698"><ele>385.0</ele><time>2026-03-31T10:06:32Z</time></trkpt><trkpt lat="45.72744951086606" lon="9.910533438564377"><ele>385.0</ele><time>2026-03-31T10:06:34Z</time></trkpt><trkpt lat="45.72738939722933" lon="9.910629045957807"><ele>385.0</ele><time>2026-03-31T10:06:36Z</time></trkpt><trkpt lat="45.72732533567657" lon="9.910677213142067"><ele>385.0</ele><time>2026-03-31T10:06:38Z</time></trkpt><trkpt lat="45.727272601609975" lon="9.910786712090077"><ele>385.0</ele><time>2026-03-31T10:06:40Z</time></trkpt><trkpt lat="45.72723197565897" lon="9.910905634771643"><ele>385.0</ele><time>2026-03-31T10:06:42Z</time></trkpt><trkpt lat="45.72717212888538" lon="9.911032914354214"><ele>385.0</ele><time>2026-03-31T10:06:44Z</time></trkpt><trkpt lat="45.72710557399793" lon="9.91118082141582"><ele>385.0</ele><time>2026-03-31T10:06:46Z</time></trkpt><trkpt lat="45.727069055002914" lon="9.911267950399212"><ele>385.0</ele><time>2026-03-31T10:06:47Z</time></trkpt><trkpt lat="45.727031647975195" lon="9.911355712326122"><ele>385.57142857142856</ele><time>2026-03-31T10:06:48Z</time></trkpt><trkpt lat="45.72699123252793" lon="9.911446531369341"><ele>386.1428571428571</ele><time>2026-03-31T10:06:49Z</time></trkpt><trkpt lat="45.72696000427653" lon="9.911548147737147"><ele>386.7142857142857</ele><time>2026-03-31T10:06:50Z</time></trkpt><trkpt lat="45.72693369421588" lon="9.911650200335934"><ele>387.2857142857143</ele><time>2026-03-31T10:06:51Z</time></trkpt><trkpt lat="45.72690704170507" lon="9.911743022015576"><ele>387.85714285714283</ele><time>2026-03-31T10:06:52Z</time></trkpt><trkpt lat="45.726866230485456" lon="9.91182295326463"><ele>388.42857142857144</ele><time>2026-03-31T10:06:53Z</time></trkpt><trkpt lat="45.7268155822686" lon="9.91188653722305"><ele>389.0</ele><time>2026-03-31T10:06:54Z</time></trkpt><trkpt lat="45.72675466629452" lon="9.911934728142723"><ele>390.0</ele><time>2026-03-31T10:06:55Z</time></trkpt><trkpt lat="45.726689977490075" lon="9.911970140633894"><ele>391.0</ele><time>2026-03-31T10:06:56Z</time></trkpt><trkpt lat="45.72662279496549" lon="9.911986075656268"><ele>392.0</ele><time>2026-03-31T10:06:57Z</time></trkpt><trkpt lat="45.7265536965417" lon="9.911987128869331"><ele>393.0</ele><time>2026-03-31T10:06:58Z</time></trkpt><trkpt lat="45.726488424959186" lon="9.911981819169581"><ele>394.0</ele><time>2026-03-31T10:06:59Z</time></trkpt><trkpt lat="45.72642189473071" lon="9.911995039342946"><ele>395.0</ele><time>2026-03-31T10:07:00Z</time></trkpt><trkpt lat="45.72635701288649" lon="9.91200806641596"><ele>396.0</ele><time>2026-03-31T10:07:01Z</time></trkpt><trkpt lat="45.7262526349896" lon="9.912025509923776"><ele>396.0</ele><time>2026-03-31T10:07:03Z</time></trkpt><trkpt lat="45.726182173735815" lon="9.91202808597603"><ele>396.0</ele><time>2026-03-31T10:07:04Z</time></trkpt><trkpt lat="45.72607298282873" lon="9.912051982031473"><ele>396.0</ele><time>2026-03-31T10:07:06Z</time></trkpt><trkpt lat="45.725962983266" lon="9.912079169231637"><ele>396.0</ele><time>2026-03-31T10:07:08Z</time></trkpt><trkpt lat="45.72585367224181" lon="9.912106329434865"><ele>396.0</ele><time>2026-03-31T10:07:10Z</time></trkpt><trkpt lat="45.72574765124714" lon="9.912153533107562"><ele>395.20000000000005</ele><time>2026-03-31T10:07:12Z</time></trkpt><trkpt lat="45.72565483818078" lon="9.91222401906864"><ele>394.40000000000003</ele><time>2026-03-31T10:07:14Z</time></trkpt><trkpt lat="45.725573429963326" lon="9.91233273121956"><ele>393.6</ele><time>2026-03-31T10:07:16Z</time></trkpt><trkpt lat="45.725503872613885" lon="9.91245869916993"><ele>392.8</ele><time>2026-03-31T10:07:18Z</time></trkpt><trkpt lat="45.725455748480535" lon="9.912592010511002"><ele>392.0</ele><time>2026-03-31T10:07:20Z</time></trkpt><trkpt lat="45.7254142682796" lon="9.912725151873635"><ele>391.20000000000005</ele><time>2026-03-31T10:07:22Z</time></trkpt><trkpt lat="45.72536660804727" lon="9.912852185659702"><ele>390.4</ele><time>2026-03-31T10:07:24Z</time></trkpt><trkpt lat="45.725304667155584" lon="9.912963832740502"><ele>389.6</ele><time>2026-03-31T10:07:26Z</time></trkpt><trkpt lat="45.72525581769006" lon="9.913087954239062"><ele>388.79999999999995</ele><time>2026-03-31T10:07:28Z</time></trkpt><trkpt lat="45.72521506022795" lon="9.913220083377665"><ele>388.0</ele><time>2026-03-31T10:07:30Z</time></trkpt><trkpt lat="45.72517484850612" lon="9.913357734740332"><ele>390.59999999999997</ele><time>2026-03-31T10:07:32Z</time></trkpt><trkpt lat="45.72513605009037" lon="9.913494159526817"><ele>393.2</ele><time>2026-03-31T10:07:34Z</time></trkpt><trkpt lat="45.725099054520186" lon="9.913635720323358"><ele>395.8</ele><time>2026-03-31T10:07:36Z</time></trkpt><trkpt lat="45.72506342148442" lon="9.913765244461848"><ele>398.4</ele><time>2026-03-31T10:07:38Z</time></trkpt><trkpt lat="45.72501977269707" lon="9.913905119550915"><ele>401.0</ele><time>2026-03-31T10:07:40Z</time></trkpt><trkpt lat="45.7249868640524" lon="9.913998198098176"><ele>401.0</ele><time>2026-03-31T10:07:42Z</time></trkpt><trkpt lat="45.72495705103514" lon="9.91408191276758"><ele>401.0</ele><time>2026-03-31T10:07:44Z</time></trkpt><trkpt lat="45.724928412967834" lon="9.914183219901728"><ele>401.0</ele><time>2026-03-31T10:07:47Z</time></trkpt><trkpt lat="45.72487400043197" lon="9.91426110834758"><ele>401.0</ele><time>2026-03-31T10:07:49Z</time></trkpt><trkpt lat="45.72482993213563" lon="9.914341688723086"><ele>401.0</ele><time>2026-03-31T10:07:51Z</time></trkpt><trkpt lat="45.72478689011723" lon="9.914429649223287"><ele>401.0</ele><time>2026-03-31T10:07:54Z</time></trkpt><trkpt lat="45.72474506262405" lon="9.914515117140546"><ele>401.0</ele><time>2026-03-31T10:07:58Z</time></trkpt><trkpt lat="45.72468562789982" lon="9.914610587037732"><ele>404.8</ele><time>2026-03-31T10:08:01Z</time></trkpt><trkpt lat="45.724642595267646" lon="9.914722151949558"><ele>408.6</ele><time>2026-03-31T10:08:03Z</time></trkpt><trkpt lat="45.72459074146723" lon="9.914847760930803"><ele>412.4</ele><time>2026-03-31T10:08:05Z</time></trkpt><trkpt lat="45.72454148172884" lon="9.914976291503312"><ele>416.2</ele><time>2026-03-31T10:08:07Z</time></trkpt><trkpt lat="45.7244990867578" lon="9.915110759694588"><ele>420.0</ele><time>2026-03-31T10:08:09Z</time></trkpt><trkpt lat="45.724459124427376" lon="9.915252395306473"><ele>423.0</ele><time>2026-03-31T10:08:11Z</time></trkpt><trkpt lat="45.7243995621291" lon="9.915357791000385"><ele>426.0</ele><time>2026-03-31T10:08:13Z</time></trkpt><trkpt lat="45.72435100413827" lon="9.91544201724587"><ele>429.0</ele><time>2026-03-31T10:08:15Z</time></trkpt><trkpt lat="45.72430055829084" lon="9.91553253864353"><ele>432.0</ele><time>2026-03-31T10:08:17Z</time></trkpt><trkpt lat="45.72422586123904" lon="9.915640807529803"><ele>435.0</ele><time>2026-03-31T10:08:19Z</time></trkpt><trkpt lat="45.72414904994891" lon="9.915760092299166"><ele>431.2</ele><time>2026-03-31T10:08:21Z</time></trkpt><trkpt lat="45.72407069037486" lon="9.915875656650707"><ele>427.4</ele><time>2026-03-31T10:08:23Z</time></trkpt><trkpt lat="45.723983025937294" lon="9.91597556843855"><ele>423.6</ele><time>2026-03-31T10:08:25Z</time></trkpt><trkpt lat="45.723909629651565" lon="9.916086739443424"><ele>419.8</ele><time>2026-03-31T10:08:27Z</time></trkpt><trkpt lat="45.7238734002535" lon="9.916218969144104"><ele>416.0</ele><time>2026-03-31T10:08:29Z</time></trkpt><trkpt lat="45.7238938644659" lon="9.916355439008434"><ele>415.99999999999994</ele><time>2026-03-31T10:08:31Z</time></trkpt><trkpt lat="45.723935719265036" lon="9.916470565879761"><ele>416.0</ele><time>2026-03-31T10:08:33Z</time></trkpt><trkpt lat="45.72397969927574" lon="9.916576904827878"><ele>416.0</ele><time>2026-03-31T10:08:35Z</time></trkpt><trkpt lat="45.724020962937495" lon="9.916682815058493"><ele>416.0</ele><time>2026-03-31T10:08:37Z</time></trkpt><trkpt lat="45.724062710049985" lon="9.91678712908597"><ele>415.99999999999994</ele><time>2026-03-31T10:08:39Z</time></trkpt><trkpt lat="45.72410546780585" lon="9.916889391157252"><ele>416.0</ele><time>2026-03-31T10:08:41Z</time></trkpt><trkpt lat="45.72414592667273" lon="9.916995607979883"><ele>417.49999999999994</ele><time>2026-03-31T10:08:43Z</time></trkpt><trkpt lat="45.72417894147788" lon="9.917108046919783"><ele>419.0</ele><time>2026-03-31T10:08:45Z</time></trkpt><trkpt lat="45.7242170480502" lon="9.917210035547384"><ele>420.5</ele><time>2026-03-31T10:08:47Z</time></trkpt><trkpt lat="45.72426635954336" lon="9.917314766406813"><ele>422.0</ele><time>2026-03-31T10:08:49Z</time></trkpt><trkpt lat="45.724316179928216" lon="9.91743422728424"><ele>423.49999999999994</ele><time>2026-03-31T10:08:51Z</time></trkpt><trkpt lat="45.72436200173248" lon="9.917550142933734"><ele>425.0</ele><time>2026-03-31T10:08:53Z</time></trkpt><trkpt lat="45.724392286748646" lon="9.917670217309192"><ele>428.8333333333333</ele><time>2026-03-31T10:08:55Z</time></trkpt><trkpt lat="45.72441284549652" lon="9.917794931832951"><ele>432.66666666666663</ele><time>2026-03-31T10:08:57Z</time></trkpt><trkpt lat="45.72443706601052" lon="9.91791454839827"><ele>436.5</ele><time>2026-03-31T10:08:59Z</time></trkpt><trkpt lat="45.72445398732909" lon="9.918027852764025"><ele>440.33333333333337</ele><time>2026-03-31T10:09:01Z</time></trkpt><trkpt lat="45.72445688538337" lon="9.918132828080118"><ele>444.1666666666667</ele><time>2026-03-31T10:09:03Z</time></trkpt><trkpt lat="45.72445855936276" lon="9.918236542695356"><ele>448.0</ele><time>2026-03-31T10:09:05Z</time></trkpt><trkpt lat="45.72445530777483" lon="9.918340225201508"><ele>448.2857142857143</ele><time>2026-03-31T10:09:07Z</time></trkpt><trkpt lat="45.7244567252062" lon="9.918439818330029"><ele>448.57142857142856</ele><time>2026-03-31T10:09:09Z</time></trkpt><trkpt lat="45.72447187840569" lon="9.918542633123172"><ele>448.8571428571429</ele><time>2026-03-31T10:09:11Z</time></trkpt><trkpt lat="45.72450522004148" lon="9.918629621049032"><ele>449.14285714285717</ele><time>2026-03-31T10:09:13Z</time></trkpt><trkpt lat="45.724482776355856" lon="9.91872011717382"><ele>449.42857142857144</ele><time>2026-03-31T10:09:15Z</time></trkpt><trkpt lat="45.724400304436756" lon="9.918699583850294"><ele>449.7142857142858</ele><time>2026-03-31T10:09:17Z</time></trkpt><trkpt lat="45.72437263129582" lon="9.91858705142096"><ele>450.00000000000006</ele><time>2026-03-31T10:09:19Z</time></trkpt><trkpt lat="45.72435831956979" lon="9.918488062246738"><ele>450.3333333333333</ele><time>2026-03-31T10:09:21Z</time></trkpt><trkpt lat="45.72432710755152" lon="9.918408410418099"><ele>450.66666666666663</ele><time>2026-03-31T10:09:23Z</time></trkpt><trkpt lat="45.72427330055563" lon="9.918299539111226"><ele>451.0</ele><time>2026-03-31T10:09:26Z</time></trkpt><trkpt lat="45.724204773771945" lon="9.918216427673523"><ele>451.3333333333333</ele><time>2026-03-31T10:09:29Z</time></trkpt><trkpt lat="45.72411509328511" lon="9.918240180890331"><ele>451.66666666666663</ele><time>2026-03-31T10:09:32Z</time></trkpt><trkpt lat="45.72410253594699" lon="9.918343709861292"><ele>452.0</ele><time>2026-03-31T10:09:34Z</time></trkpt><trkpt lat="45.724134872896784" lon="9.918434312204642"><ele>451.99999999999994</ele><time>2026-03-31T10:09:36Z</time></trkpt><trkpt lat="45.724165024388114" lon="9.918515624205746"><ele>452.0</ele><time>2026-03-31T10:09:38Z</time></trkpt><trkpt lat="45.724181596570205" lon="9.918641007624892"><ele>452.0</ele><time>2026-03-31T10:09:41Z</time></trkpt><trkpt lat="45.72417337840995" lon="9.918731294998823"><ele>452.0</ele><time>2026-03-31T10:09:43Z</time></trkpt><trkpt lat="45.724152478864276" lon="9.918858916014772"><ele>451.99999999999994</ele><time>2026-03-31T10:09:46Z</time></trkpt><trkpt lat="45.7241413511439" lon="9.91898189962093"><ele>452.0</ele><time>2026-03-31T10:09:49Z</time></trkpt><trkpt lat="45.72410684033207" lon="9.919098315356345"><ele>451.99999999999994</ele><time>2026-03-31T10:09:52Z</time></trkpt><trkpt lat="45.72404063307174" lon="9.919040329624778"><ele>452.0</ele><time>2026-03-31T10:09:54Z</time></trkpt><trkpt lat="45.72404554443453" lon="9.918927186792823"><ele>452.0</ele><time>2026-03-31T10:09:56Z</time></trkpt><trkpt lat="45.72401698292236" lon="9.918800814256036"><ele>452.0</ele><time>2026-03-31T10:09:59Z</time></trkpt><trkpt lat="45.72398290308136" lon="9.91868418422325"><ele>451.99999999999994</ele><time>2026-03-31T10:10:02Z</time></trkpt><trkpt lat="45.72393866851957" lon="9.91857139554705"><ele>452.0</ele><time>2026-03-31T10:10:05Z</time></trkpt><trkpt lat="45.72390079128683" lon="9.91845831551588"><ele>451.99999999999994</ele><time>2026-03-31T10:10:08Z</time></trkpt><trkpt lat="45.72384497890654" lon="9.918382265661375"><ele>452.0</ele><time>2026-03-31T10:10:11Z</time></trkpt><trkpt lat="45.72377763666335" lon="9.91835686252432"><ele>452.0</ele><time>2026-03-31T10:10:19Z</time></trkpt><trkpt lat="45.723779726695625" lon="9.918484550191309"><ele>452.0</ele><time>2026-03-31T10:11:14Z</time></trkpt><trkpt lat="45.723800779090816" lon="9.918612040220019"><ele>451.99999999999994</ele><time>2026-03-31T10:11:17Z</time></trkpt><trkpt lat="45.72383571015393" lon="9.918720281061033"><ele>452.0</ele><time>2026-03-31T10:11:20Z</time></trkpt><trkpt lat="45.723848512548265" lon="9.918820331880125"><ele>452.0</ele><time>2026-03-31T10:11:22Z</time></trkpt><trkpt lat="45.723849473719" lon="9.918924511349962"><ele>452.0</ele><time>2026-03-31T10:11:24Z</time></trkpt><trkpt lat="45.72383249780769" lon="9.919037123133654"><ele>452.0</ele><time>2026-03-31T10:11:27Z</time></trkpt><trkpt lat="45.72382535723247" lon="9.919132409260662"><ele>452.0</ele><time>2026-03-31T10:11:29Z</time></trkpt><trkpt lat="45.723815838909616" lon="9.919234468782467"><ele>452.0</ele><time>2026-03-31T10:11:31Z</time></trkpt><trkpt lat="45.72381194899331" lon="9.919326404424613"><ele>452.0</ele><time>2026-03-31T10:11:33Z</time></trkpt><trkpt lat="45.72379008243419" lon="9.91945102186732"><ele>452.0</ele><time>2026-03-31T10:11:36Z</time></trkpt><trkpt lat="45.72372197262204" lon="9.919431030704631"><ele>452.0</ele><time>2026-03-31T10:11:38Z</time></trkpt><trkpt lat="45.72371259640066" lon="9.919318456392151"><ele>452.0</ele><time>2026-03-31T10:11:40Z</time></trkpt><trkpt lat="45.72371824899883" lon="9.919214883705566"><ele>452.0</ele><time>2026-03-31T10:11:42Z</time></trkpt><trkpt lat="45.72371538402452" lon="9.919119321222313"><ele>452.0</ele><time>2026-03-31T10:11:44Z</time></trkpt><trkpt lat="45.72369456532403" lon="9.919033625365309"><ele>452.0</ele><time>2026-03-31T10:11:46Z</time></trkpt><trkpt lat="45.72366488130437" lon="9.918951453585636"><ele>452.0</ele><time>2026-03-31T10:11:48Z</time></trkpt><trkpt lat="45.72364691664184" lon="9.918863421067936"><ele>452.0</ele><time>2026-03-31T10:11:50Z</time></trkpt><trkpt lat="45.72361253106882" lon="9.918736295213662"><ele>451.99999999999994</ele><time>2026-03-31T10:11:53Z</time></trkpt><trkpt lat="45.723587869278816" lon="9.918611047438882"><ele>452.0</ele><time>2026-03-31T10:11:56Z</time></trkpt><trkpt lat="45.72353941364013" lon="9.918501649195205"><ele>452.0</ele><time>2026-03-31T10:11:59Z</time></trkpt><trkpt lat="45.72349397091616" lon="9.918437294367314"><ele>452.0</ele><time>2026-03-31T10:12:01Z</time></trkpt><trkpt lat="45.72342701813836" lon="9.918345796220258"><ele>451.99999999999994</ele><time>2026-03-31T10:12:04Z</time></trkpt><trkpt lat="45.72336299867214" lon="9.918387619768605"><ele>452.0</ele><time>2026-03-31T10:12:06Z</time></trkpt><trkpt lat="45.723365605845004" lon="9.918499144831294"><ele>457.7142857142857</ele><time>2026-03-31T10:12:08Z</time></trkpt><trkpt lat="45.72341765882835" lon="9.918587646455642"><ele>463.42857142857144</ele><time>2026-03-31T10:12:10Z</time></trkpt><trkpt lat="45.72345323038055" lon="9.91867967793128"><ele>469.14285714285717</ele><time>2026-03-31T10:12:12Z</time></trkpt><trkpt lat="45.72346707792114" lon="9.918776361083209"><ele>474.8571428571429</ele><time>2026-03-31T10:12:14Z</time></trkpt><trkpt lat="45.72347373431121" lon="9.91887280548101"><ele>480.57142857142856</ele><time>2026-03-31T10:12:16Z</time></trkpt><trkpt lat="45.72347069271929" lon="9.918967739997145"><ele>486.28571428571433</ele><time>2026-03-31T10:12:18Z</time></trkpt><trkpt lat="45.723464048947335" lon="9.91906366049699"><ele>492.00000000000006</ele><time>2026-03-31T10:12:20Z</time></trkpt><trkpt lat="45.723462130537385" lon="9.91915674966614"><ele>492.00000000000006</ele><time>2026-03-31T10:12:22Z</time></trkpt><trkpt lat="45.72346456235686" lon="9.919248170634695"><ele>492.0</ele><time>2026-03-31T10:12:24Z</time></trkpt><trkpt lat="45.72348241384679" lon="9.91933777444911"><ele>492.00000000000006</ele><time>2026-03-31T10:12:26Z</time></trkpt><trkpt lat="45.72343827362442" lon="9.919448896615965"><ele>492.00000000000006</ele><time>2026-03-31T10:12:29Z</time></trkpt><trkpt lat="45.723377507054565" lon="9.919389547067476"><ele>492.0</ele><time>2026-03-31T10:12:31Z</time></trkpt><trkpt lat="45.723380381879025" lon="9.919277813744952"><ele>492.00000000000006</ele><time>2026-03-31T10:12:33Z</time></trkpt><trkpt lat="45.72337671892758" lon="9.919178908827297"><ele>492.00000000000006</ele><time>2026-03-31T10:12:35Z</time></trkpt><trkpt lat="45.72336598653376" lon="9.919080781204858"><ele>492.00000000000006</ele><time>2026-03-31T10:12:37Z</time></trkpt><trkpt lat="45.72334217092617" lon="9.918986972060225"><ele>492.0</ele><time>2026-03-31T10:12:39Z</time></trkpt><trkpt lat="45.72331020607965" lon="9.918903623264354"><ele>492.00000000000006</ele><time>2026-03-31T10:12:41Z</time></trkpt><trkpt lat="45.72327903700309" lon="9.918822372613839"><ele>492.00000000000006</ele><time>2026-03-31T10:12:43Z</time></trkpt><trkpt lat="45.72325606251647" lon="9.918735329039507"><ele>492.0</ele><time>2026-03-31T10:12:45Z</time></trkpt><trkpt lat="45.72323237194392" lon="9.918651687362775"><ele>492.00000000000006</ele><time>2026-03-31T10:12:47Z</time></trkpt><trkpt lat="45.72319839772111" lon="9.918575480691281"><ele>492.00000000000006</ele><time>2026-03-31T10:12:49Z</time></trkpt><trkpt lat="45.72314857530046" lon="9.918516346228456"><ele>492.00000000000006</ele><time>2026-03-31T10:12:51Z</time></trkpt><trkpt lat="45.723080784450154" lon="9.918529060132025"><ele>492.0</ele><time>2026-03-31T10:12:53Z</time></trkpt><trkpt lat="45.72305050863777" lon="9.918631427299458"><ele>492.00000000000006</ele><time>2026-03-31T10:12:55Z</time></trkpt><trkpt lat="45.723059042557885" lon="9.918738033249651"><ele>492.00000000000006</ele><time>2026-03-31T10:12:57Z</time></trkpt><trkpt lat="45.72306005339528" lon="9.918835156481293"><ele>492.0</ele><time>2026-03-31T10:12:59Z</time></trkpt><trkpt lat="45.723070770052416" lon="9.918970184306556"><ele>492.00000000000006</ele><time>2026-03-31T10:13:02Z</time></trkpt><trkpt lat="45.723081767081815" lon="9.919061175598527"><ele>492.00000000000006</ele><time>2026-03-31T10:13:04Z</time></trkpt><trkpt lat="45.723070518735085" lon="9.919196471913509"><ele>493.5</ele><time>2026-03-31T10:13:07Z</time></trkpt><trkpt lat="45.723071816417914" lon="9.919289372425542"><ele>495.0</ele><time>2026-03-31T10:13:09Z</time></trkpt><trkpt lat="45.723078488225326" lon="9.91938235932385"><ele>496.5</ele><time>2026-03-31T10:13:11Z</time></trkpt><trkpt lat="45.72308462436504" lon="9.91951644955791"><ele>498.0</ele><time>2026-03-31T10:13:14Z</time></trkpt><trkpt lat="45.72308263264683" lon="9.919648315551235"><ele>499.5</ele><time>2026-03-31T10:13:17Z</time></trkpt><trkpt lat="45.723070508826424" lon="9.91977667387732"><ele>501.0</ele><time>2026-03-31T10:13:20Z</time></trkpt><trkpt lat="45.7230331024162" lon="9.919891745268714"><ele>501.0</ele><time>2026-03-31T10:13:23Z</time></trkpt><trkpt lat="45.72298977799129" lon="9.920010828684738"><ele>501.0</ele><time>2026-03-31T10:13:26Z</time></trkpt><trkpt lat="45.722925447386615" lon="9.920108165329559"><ele>501.0</ele><time>2026-03-31T10:13:29Z</time></trkpt><trkpt lat="45.722877355636676" lon="9.92021698584779"><ele>501.0</ele><time>2026-03-31T10:13:32Z</time></trkpt><trkpt lat="45.722840963012516" lon="9.920330053799296"><ele>501.0</ele><time>2026-03-31T10:13:35Z</time></trkpt><trkpt lat="45.72281179542699" lon="9.920451217387999"><ele>503.8333333333333</ele><time>2026-03-31T10:13:38Z</time></trkpt><trkpt lat="45.72278608557755" lon="9.920569611285906"><ele>506.66666666666663</ele><time>2026-03-31T10:13:41Z</time></trkpt><trkpt lat="45.7227796711809" lon="9.92066026871807"><ele>509.5</ele><time>2026-03-31T10:13:43Z</time></trkpt><trkpt lat="45.72277350649796" lon="9.920783111171737"><ele>512.3333333333333</ele><time>2026-03-31T10:13:46Z</time></trkpt><trkpt lat="45.72277349112655" lon="9.920902051216144"><ele>515.1666666666666</ele><time>2026-03-31T10:13:49Z</time></trkpt><trkpt lat="45.72279010287343" lon="9.921019601987627"><ele>518.0</ele><time>2026-03-31T10:13:52Z</time></trkpt><trkpt lat="45.72281805627424" lon="9.921143121866159"><ele>520.8333333333333</ele><time>2026-03-31T10:13:55Z</time></trkpt><trkpt lat="45.72286482023367" lon="9.921210143153404"><ele>523.6666666666666</ele><time>2026-03-31T10:13:57Z</time></trkpt><trkpt lat="45.72292062228594" lon="9.921255521471819"><ele>526.5</ele><time>2026-03-31T10:13:59Z</time></trkpt><trkpt lat="45.72301205379892" lon="9.921294324350457"><ele>529.3333333333334</ele><time>2026-03-31T10:14:02Z</time></trkpt><trkpt lat="45.72310586651911" lon="9.921310456302244"><ele>532.1666666666667</ele><time>2026-03-31T10:14:05Z</time></trkpt><trkpt lat="45.72315925529656" lon="9.921362021449891"><ele>535.0</ele><time>2026-03-31T10:14:07Z</time></trkpt><trkpt lat="45.72320838800004" lon="9.92147229410951"><ele>535.0</ele><time>2026-03-31T10:14:10Z</time></trkpt><trkpt lat="45.723231970860965" lon="9.921594459544922"><ele>535.0</ele><time>2026-03-31T10:14:13Z</time></trkpt><trkpt lat="45.72325557702756" lon="9.921712742151767"><ele>535.0</ele><time>2026-03-31T10:14:16Z</time></trkpt><trkpt lat="45.723255423320694" lon="9.92183996170722"><ele>535.0</ele><time>2026-03-31T10:14:19Z</time></trkpt><trkpt lat="45.72323953994015" lon="9.921972998764385"><ele>535.0</ele><time>2026-03-31T10:14:22Z</time></trkpt><trkpt lat="45.72321934567274" lon="9.922060880924098"><ele>535.0</ele><time>2026-03-31T10:14:24Z</time></trkpt><trkpt lat="45.72320376211376" lon="9.922152237685395"><ele>538.6666666666667</ele><time>2026-03-31T10:14:26Z</time></trkpt><trkpt lat="45.72317888771769" lon="9.922277859455793"><ele>542.3333333333334</ele><time>2026-03-31T10:14:29Z</time></trkpt><trkpt lat="45.72317116460283" lon="9.922396724195988"><ele>546.0</ele><time>2026-03-31T10:14:32Z</time></trkpt><trkpt lat="45.72317591393905" lon="9.922487721116822"><ele>549.6666666666666</ele><time>2026-03-31T10:14:34Z</time></trkpt><trkpt lat="45.72318902842768" lon="9.922625954152503"><ele>553.3333333333333</ele><time>2026-03-31T10:14:37Z</time></trkpt><trkpt lat="45.72320529251631" lon="9.922717713189625"><ele>557.0</ele><time>2026-03-31T10:14:39Z</time></trkpt><trkpt lat="45.72323484616521" lon="9.92280796136883"><ele>559.7142857142858</ele><time>2026-03-31T10:14:41Z</time></trkpt><trkpt lat="45.72328748403111" lon="9.92292464786513"><ele>562.4285714285714</ele><time>2026-03-31T10:14:44Z</time></trkpt><trkpt lat="45.72332261226796" lon="9.923003100568721"><ele>565.1428571428571</ele><time>2026-03-31T10:14:46Z</time></trkpt><trkpt lat="45.72335787500542" lon="9.923081674547554"><ele>567.8571428571429</ele><time>2026-03-31T10:14:48Z</time></trkpt><trkpt lat="45.72338009054942" lon="9.923166050514324"><ele>570.5714285714286</ele><time>2026-03-31T10:14:50Z</time></trkpt><trkpt lat="45.72340387434354" lon="9.92329649363059"><ele>573.2857142857143</ele><time>2026-03-31T10:14:53Z</time></trkpt><trkpt lat="45.72340049410916" lon="9.923387367596904"><ele>576.0</ele><time>2026-03-31T10:14:55Z</time></trkpt><trkpt lat="45.72339461729739" lon="9.923478481792756"><ele>577.4285714285714</ele><time>2026-03-31T10:14:57Z</time></trkpt><trkpt lat="45.723392264504724" lon="9.92357009410804"><ele>578.8571428571429</ele><time>2026-03-31T10:14:59Z</time></trkpt><trkpt lat="45.72339612022339" lon="9.92366179218202"><ele>580.2857142857142</ele><time>2026-03-31T10:15:01Z</time></trkpt><trkpt lat="45.723406761645606" lon="9.92375528824921"><ele>581.7142857142858</ele><time>2026-03-31T10:15:03Z</time></trkpt><trkpt lat="45.72342296161359" lon="9.923845801586115"><ele>583.1428571428571</ele><time>2026-03-31T10:15:05Z</time></trkpt><trkpt lat="45.723437896985615" lon="9.923935959870384"><ele>584.5714285714286</ele><time>2026-03-31T10:15:07Z</time></trkpt><trkpt lat="45.72345919819634" lon="9.924031854282115"><ele>586.0</ele><time>2026-03-31T10:15:09Z</time></trkpt><trkpt lat="45.72346385477876" lon="9.924123574724353"><ele>586.8333333333334</ele><time>2026-03-31T10:15:11Z</time></trkpt><trkpt lat="45.72346615625788" lon="9.924252481043569"><ele>587.6666666666667</ele><time>2026-03-31T10:15:14Z</time></trkpt><trkpt lat="45.72347043056473" lon="9.924345708050991"><ele>588.5</ele><time>2026-03-31T10:15:16Z</time></trkpt><trkpt lat="45.72345898461097" lon="9.924473746475407"><ele>589.3333333333334</ele><time>2026-03-31T10:15:19Z</time></trkpt><trkpt lat="45.72343314388498" lon="9.924557135121223"><ele>590.1666666666666</ele><time>2026-03-31T10:15:21Z</time></trkpt><trkpt lat="45.72341240783498" lon="9.92468334404824"><ele>591.0</ele><time>2026-03-31T10:15:24Z</time></trkpt><trkpt lat="45.72340386745108" lon="9.92481739715898"><ele>591.0</ele><time>2026-03-31T10:15:27Z</time></trkpt><trkpt lat="45.72340287033256" lon="9.924930122218989"><ele>591.0</ele><time>2026-03-31T10:15:30Z</time></trkpt><trkpt lat="45.72339152255203" lon="9.92502788426654"><ele>591.0</ele><time>2026-03-31T10:15:32Z</time></trkpt><trkpt lat="45.72338775840783" lon="9.92516018882683"><ele>591.0</ele><time>2026-03-31T10:15:35Z</time></trkpt><trkpt lat="45.72338411183618" lon="9.925250368920706"><ele>591.0</ele><time>2026-03-31T10:15:37Z</time></trkpt><trkpt lat="45.723376157566754" lon="9.925340128982091"><ele>591.0</ele><time>2026-03-31T10:15:39Z</time></trkpt><trkpt lat="45.723378671341" lon="9.925432720859563"><ele>591.0</ele><time>2026-03-31T10:15:41Z</time></trkpt><trkpt lat="45.72338820608058" lon="9.925525379298065"><ele>593.8</ele><time>2026-03-31T10:15:43Z</time></trkpt><trkpt lat="45.72340525038614" lon="9.92565689049184"><ele>596.6</ele><time>2026-03-31T10:15:46Z</time></trkpt><trkpt lat="45.72344189546928" lon="9.925776528503052"><ele>599.4</ele><time>2026-03-31T10:15:49Z</time></trkpt><trkpt lat="45.72348246060682" lon="9.925896794416541"><ele>602.2</ele><time>2026-03-31T10:15:52Z</time></trkpt><trkpt lat="45.72351993171733" lon="9.926016546880582"><ele>605.0</ele><time>2026-03-31T10:15:55Z</time></trkpt><trkpt lat="45.723570390820974" lon="9.926130221196273"><ele>605.0</ele><time>2026-03-31T10:15:58Z</time></trkpt><trkpt lat="45.72362254877128" lon="9.92624211137543"><ele>605.0</ele><time>2026-03-31T10:16:01Z</time></trkpt><trkpt lat="45.723684948127016" lon="9.926340332087403"><ele>605.0</ele><time>2026-03-31T10:16:04Z</time></trkpt><trkpt lat="45.72373426374909" lon="9.926402881656143"><ele>605.0</ele><time>2026-03-31T10:16:06Z</time></trkpt><trkpt lat="45.72378214388152" lon="9.926468718163875"><ele>605.0</ele><time>2026-03-31T10:16:08Z</time></trkpt><trkpt lat="45.72383421878617" lon="9.926524333426148"><ele>605.0</ele><time>2026-03-31T10:16:10Z</time></trkpt><trkpt lat="45.72390262775665" lon="9.926612108051573"><ele>605.0</ele><time>2026-03-31T10:16:13Z</time></trkpt><trkpt lat="45.72394792882068" lon="9.926677042123151"><ele>605.0</ele><time>2026-03-31T10:16:15Z</time></trkpt><trkpt lat="45.72399919340886" lon="9.92673730154224"><ele>605.0</ele><time>2026-03-31T10:16:17Z</time></trkpt><trkpt lat="45.72405052591413" lon="9.926809339919599"><ele>605.0</ele><time>2026-03-31T10:16:19Z</time></trkpt><trkpt lat="45.72409751638191" lon="9.926887819308412"><ele>605.0</ele><time>2026-03-31T10:16:21Z</time></trkpt><trkpt lat="45.724141957155425" lon="9.926956705468129"><ele>605.0</ele><time>2026-03-31T10:16:23Z</time></trkpt><trkpt lat="45.72418129020985" lon="9.92702865206217"><ele>605.0</ele><time>2026-03-31T10:16:25Z</time></trkpt><trkpt lat="45.72422350163791" lon="9.927099394581953"><ele>606.6666666666666</ele><time>2026-03-31T10:16:27Z</time></trkpt><trkpt lat="45.724284699575705" lon="9.927204747910771"><ele>608.3333333333333</ele><time>2026-03-31T10:16:30Z</time></trkpt><trkpt lat="45.72432813670139" lon="9.927273621752997"><ele>610.0</ele><time>2026-03-31T10:16:32Z</time></trkpt><trkpt lat="45.7243760813876" lon="9.92734638894532"><ele>611.6666666666666</ele><time>2026-03-31T10:16:34Z</time></trkpt><trkpt lat="45.72442007517137" lon="9.92741340318628"><ele>613.3333333333334</ele><time>2026-03-31T10:16:36Z</time></trkpt><trkpt lat="45.72449219045181" lon="9.927500455166063"><ele>615.0</ele><time>2026-03-31T10:16:39Z</time></trkpt><trkpt lat="45.72454116235649" lon="9.927559606677278"><ele>618.1666666666666</ele><time>2026-03-31T10:16:41Z</time></trkpt><trkpt lat="45.72461329651187" lon="9.927651266568901"><ele>621.3333333333334</ele><time>2026-03-31T10:16:44Z</time></trkpt><trkpt lat="45.72466301957699" lon="9.927710119558283"><ele>624.5</ele><time>2026-03-31T10:16:46Z</time></trkpt><trkpt lat="45.72473511330632" lon="9.927794004416914"><ele>627.6666666666667</ele><time>2026-03-31T10:16:49Z</time></trkpt><trkpt lat="45.72478121029162" lon="9.92785712681035"><ele>630.8333333333334</ele><time>2026-03-31T10:16:51Z</time></trkpt><trkpt lat="45.72482944796882" lon="9.92791555849764"><ele>634.0</ele><time>2026-03-31T10:16:53Z</time></trkpt><trkpt lat="45.72490090424157" lon="9.928005384117531"><ele>634.0</ele><time>2026-03-31T10:16:56Z</time></trkpt><trkpt lat="45.72497717040397" lon="9.928087591238903"><ele>634.0</ele><time>2026-03-31T10:16:59Z</time></trkpt><trkpt lat="45.72504655059467" lon="9.928179069526841"><ele>634.0</ele><time>2026-03-31T10:17:02Z</time></trkpt><trkpt lat="45.72509216697161" lon="9.928244175350118"><ele>634.0</ele><time>2026-03-31T10:17:04Z</time></trkpt><trkpt lat="45.725131731021335" lon="9.92831613981387"><ele>634.0</ele><time>2026-03-31T10:17:06Z</time></trkpt><trkpt lat="45.72517365387049" lon="9.928386124737141"><ele>634.0</ele><time>2026-03-31T10:17:08Z</time></trkpt><trkpt lat="45.725205058295366" lon="9.928465039537963"><ele>634.0</ele><time>2026-03-31T10:17:10Z</time></trkpt><trkpt lat="45.72524147807664" lon="9.928542208164153"><ele>634.5714285714286</ele><time>2026-03-31T10:17:12Z</time></trkpt><trkpt lat="45.72527585398332" lon="9.928625794807743"><ele>635.1428571428571</ele><time>2026-03-31T10:17:14Z</time></trkpt><trkpt lat="45.72529704388038" lon="9.928717230396995"><ele>635.7142857142858</ele><time>2026-03-31T10:17:16Z</time></trkpt><trkpt lat="45.725328424232956" lon="9.928803433443974"><ele>636.2857142857142</ele><time>2026-03-31T10:17:18Z</time></trkpt><trkpt lat="45.7253574936571" lon="9.928887193357593"><ele>636.8571428571428</ele><time>2026-03-31T10:17:20Z</time></trkpt><trkpt lat="45.72539398829527" lon="9.928971696654708"><ele>637.4285714285714</ele><time>2026-03-31T10:17:22Z</time></trkpt><trkpt lat="45.72543758504343" lon="9.92905173077184"><ele>638.0</ele><time>2026-03-31T10:17:24Z</time></trkpt><trkpt lat="45.72548675887127" lon="9.929134887984425"><ele>638.0</ele><time>2026-03-31T10:17:26Z</time></trkpt><trkpt lat="45.7255403429907" lon="9.929210078446609"><ele>638.0</ele><time>2026-03-31T10:17:28Z</time></trkpt><trkpt lat="45.7255941243156" lon="9.929278674179802"><ele>638.0</ele><time>2026-03-31T10:17:30Z</time></trkpt><trkpt lat="45.725661412735484" lon="9.929330170561526"><ele>638.0</ele><time>2026-03-31T10:17:32Z</time></trkpt><trkpt lat="45.72573740692391" lon="9.929355970724014"><ele>638.0</ele><time>2026-03-31T10:17:34Z</time></trkpt><trkpt lat="45.72581406082809" lon="9.92933823392788"><ele>638.0</ele><time>2026-03-31T10:17:36Z</time></trkpt><trkpt lat="45.72588454984797" lon="9.929289380709182"><ele>638.0</ele><time>2026-03-31T10:17:38Z</time></trkpt><trkpt lat="45.72594450591731" lon="9.929209552819572"><ele>638.0</ele><time>2026-03-31T10:17:40Z</time></trkpt><trkpt lat="45.72599321870914" lon="9.929115662305147"><ele>638.0</ele><time>2026-03-31T10:17:42Z</time></trkpt><trkpt lat="45.726026340329184" lon="9.92901039742719"><ele>638.0</ele><time>2026-03-31T10:17:44Z</time></trkpt><trkpt lat="45.7260467714932" lon="9.928896824524724"><ele>638.0</ele><time>2026-03-31T10:17:46Z</time></trkpt><trkpt lat="45.726073931406404" lon="9.92879060769315"><ele>638.0</ele><time>2026-03-31T10:17:48Z</time></trkpt><trkpt lat="45.72609435794913" lon="9.928683607449774"><ele>640.7142857142858</ele><time>2026-03-31T10:17:50Z</time></trkpt><trkpt lat="45.72612050706472" lon="9.928588862315907"><ele>643.4285714285713</ele><time>2026-03-31T10:17:52Z</time></trkpt><trkpt lat="45.72618359657225" lon="9.928567679729712"><ele>646.1428571428571</ele><time>2026-03-31T10:17:55Z</time></trkpt><trkpt lat="45.7261525855708" lon="9.928663065284512"><ele>648.8571428571429</ele><time>2026-03-31T10:17:58Z</time></trkpt><trkpt lat="45.72611848633474" lon="9.92874307806124"><ele>651.5714285714287</ele><time>2026-03-31T10:18:38Z</time></trkpt><trkpt lat="45.726125810984904" lon="9.92864794798335"><ele>654.2857142857142</ele><time>2026-03-31T10:18:45Z</time></trkpt><trkpt lat="45.72615156831394" lon="9.928522911717177"><ele>657.0</ele><time>2026-03-31T10:18:48Z</time></trkpt><trkpt lat="45.72615151470647" lon="9.928426999022864"><ele>657.3333333333334</ele><time>2026-03-31T10:18:50Z</time></trkpt><trkpt lat="45.72616773681732" lon="9.928312932255766"><ele>657.6666666666666</ele><time>2026-03-31T10:18:52Z</time></trkpt><trkpt lat="45.72619551482883" lon="9.928216056385274"><ele>658.0</ele><time>2026-03-31T10:18:54Z</time></trkpt><trkpt lat="45.726235005082984" lon="9.928119857389763"><ele>658.3333333333333</ele><time>2026-03-31T10:18:56Z</time></trkpt><trkpt lat="45.726322583874634" lon="9.928138876021817"><ele>658.6666666666666</ele><time>2026-03-31T10:18:58Z</time></trkpt><trkpt lat="45.72633406145475" lon="9.928267791423083"><ele>659.0</ele><time>2026-03-31T10:19:00Z</time></trkpt><trkpt lat="45.72632208726761" lon="9.928385879247498"><ele>658.7142857142858</ele><time>2026-03-31T10:19:02Z</time></trkpt><trkpt lat="45.72632999094712" lon="9.928495428568077"><ele>658.4285714285713</ele><time>2026-03-31T10:19:04Z</time></trkpt><trkpt lat="45.72636374485913" lon="9.928588386689428"><ele>658.1428571428571</ele><time>2026-03-31T10:19:06Z</time></trkpt><trkpt lat="45.72639818203226" lon="9.928679028099204"><ele>657.8571428571429</ele><time>2026-03-31T10:19:08Z</time></trkpt><trkpt lat="45.72644582667624" lon="9.928760441487492"><ele>657.5714285714287</ele><time>2026-03-31T10:19:10Z</time></trkpt><trkpt lat="45.72649060067768" lon="9.928840535061244"><ele>657.2857142857142</ele><time>2026-03-31T10:19:12Z</time></trkpt><trkpt lat="45.72652117633031" lon="9.928920558631404"><ele>657.0</ele><time>2026-03-31T10:19:14Z</time></trkpt><trkpt lat="45.72655817682095" lon="9.928997285605849"><ele>657.0</ele><time>2026-03-31T10:19:16Z</time></trkpt><trkpt lat="45.72659208603547" lon="9.929075778347963"><ele>657.0</ele><time>2026-03-31T10:19:18Z</time></trkpt><trkpt lat="45.72663550874364" lon="9.929183147444414"><ele>657.0</ele><time>2026-03-31T10:19:21Z</time></trkpt><trkpt lat="45.72667528329159" lon="9.929302322879222"><ele>657.0</ele><time>2026-03-31T10:19:24Z</time></trkpt><trkpt lat="45.72672022883904" lon="9.929416037503746"><ele>657.0</ele><time>2026-03-31T10:19:27Z</time></trkpt><trkpt lat="45.72676049825808" lon="9.929531153780255"><ele>657.0</ele><time>2026-03-31T10:19:30Z</time></trkpt><trkpt lat="45.72680988864627" lon="9.929596907278848"><ele>657.1666666666666</ele><time>2026-03-31T10:19:32Z</time></trkpt><trkpt lat="45.726855400201586" lon="9.929693865740914"><ele>657.3333333333334</ele><time>2026-03-31T10:19:35Z</time></trkpt><trkpt lat="45.726922031083475" lon="9.929786815912667"><ele>657.5</ele><time>2026-03-31T10:19:38Z</time></trkpt><trkpt lat="45.72700317086808" lon="9.929846786297999"><ele>657.6666666666667</ele><time>2026-03-31T10:19:41Z</time></trkpt><trkpt lat="45.72708008717946" lon="9.929915328864908"><ele>657.8333333333334</ele><time>2026-03-31T10:19:44Z</time></trkpt><trkpt lat="45.72713764526765" lon="9.930011053669041"><ele>658.0</ele><time>2026-03-31T10:19:47Z</time></trkpt><trkpt lat="45.72721915875733" lon="9.930080231049615"><ele>659.5</ele><time>2026-03-31T10:19:50Z</time></trkpt><trkpt lat="45.72730350296263" lon="9.930139243592667"><ele>661.0</ele><time>2026-03-31T10:19:53Z</time></trkpt><trkpt lat="45.72739146706945" lon="9.930193847713815"><ele>662.5</ele><time>2026-03-31T10:19:56Z</time></trkpt><trkpt lat="45.72747207120767" lon="9.930260233886798"><ele>664.0</ele><time>2026-03-31T10:19:59Z</time></trkpt><trkpt lat="45.7275596315242" lon="9.93030451835955"><ele>665.5</ele><time>2026-03-31T10:20:02Z</time></trkpt><trkpt lat="45.727620613403666" lon="9.930332657236493"><ele>667.0</ele><time>2026-03-31T10:20:04Z</time></trkpt><trkpt lat="45.72767501729469" lon="9.930387492640573"><ele>671.4000000000001</ele><time>2026-03-31T10:20:06Z</time></trkpt><trkpt lat="45.7277524821545" lon="9.930461996986093"><ele>675.8000000000001</ele><time>2026-03-31T10:20:09Z</time></trkpt><trkpt lat="45.727836879818526" lon="9.930500154906266"><ele>680.2</ele><time>2026-03-31T10:20:12Z</time></trkpt><trkpt lat="45.72791638738501" lon="9.930561866804444"><ele>684.6</ele><time>2026-03-31T10:20:15Z</time></trkpt><trkpt lat="45.727996096170656" lon="9.930614593475967"><ele>689.0</ele><time>2026-03-31T10:20:18Z</time></trkpt><trkpt lat="45.72808387884346" lon="9.93066536321988"><ele>689.0</ele><time>2026-03-31T10:20:21Z</time></trkpt><trkpt lat="45.72817007309043" lon="9.930717945327098"><ele>689.0</ele><time>2026-03-31T10:20:24Z</time></trkpt><trkpt lat="45.728227393020724" lon="9.930761279791813"><ele>689.0</ele><time>2026-03-31T10:20:26Z</time></trkpt><trkpt lat="45.72828443613431" lon="9.930802929735245"><ele>689.0</ele><time>2026-03-31T10:20:28Z</time></trkpt><trkpt lat="45.72834947255014" lon="9.930835469765634"><ele>689.0</ele><time>2026-03-31T10:20:30Z</time></trkpt><trkpt lat="45.72843266496753" lon="9.930901084189678"><ele>689.0</ele><time>2026-03-31T10:20:33Z</time></trkpt><trkpt lat="45.728517573862334" lon="9.93096493664121"><ele>690.5</ele><time>2026-03-31T10:20:36Z</time></trkpt><trkpt lat="45.72857177153606" lon="9.931016093996488"><ele>692.0</ele><time>2026-03-31T10:20:38Z</time></trkpt><trkpt lat="45.7286215973018" lon="9.931072997241104"><ele>693.5</ele><time>2026-03-31T10:20:40Z</time></trkpt><trkpt lat="45.72869230870741" lon="9.93116036367807"><ele>695.0</ele><time>2026-03-31T10:20:43Z</time></trkpt><trkpt lat="45.728758412216386" lon="9.931251897721806"><ele>696.5</ele><time>2026-03-31T10:20:46Z</time></trkpt><trkpt lat="45.728825178675" lon="9.931343210874324"><ele>698.0</ele><time>2026-03-31T10:20:49Z</time></trkpt><trkpt lat="45.728895358422804" lon="9.931426520136107"><ele>698.0</ele><time>2026-03-31T10:20:52Z</time></trkpt><trkpt lat="45.72895901256265" lon="9.931519962152104"><ele>698.0</ele><time>2026-03-31T10:20:55Z</time></trkpt><trkpt lat="45.72902337459953" lon="9.931615895278313"><ele>698.0</ele><time>2026-03-31T10:20:58Z</time></trkpt><trkpt lat="45.729064948509176" lon="9.931687365023668"><ele>698.0</ele><time>2026-03-31T10:21:00Z</time></trkpt><trkpt lat="45.72911933346774" lon="9.931792151241238"><ele>698.0</ele><time>2026-03-31T10:21:03Z</time></trkpt><trkpt lat="45.72912667413221" lon="9.931882138156347"><ele>698.0</ele><time>2026-03-31T10:21:05Z</time></trkpt><trkpt lat="45.72911220890135" lon="9.93197219719108"><ele>699.5</ele><time>2026-03-31T10:21:07Z</time></trkpt><trkpt lat="45.72908297559363" lon="9.932098586992847"><ele>701.0</ele><time>2026-03-31T10:21:10Z</time></trkpt><trkpt lat="45.729058606804216" lon="9.932184004143851"><ele>702.5</ele><time>2026-03-31T10:21:12Z</time></trkpt><trkpt lat="45.72903282333608" lon="9.932266978488673"><ele>704.0</ele><time>2026-03-31T10:21:14Z</time></trkpt><trkpt lat="45.72899570905714" lon="9.932384184947784"><ele>705.5</ele><time>2026-03-31T10:21:17Z</time></trkpt><trkpt lat="45.72895838037009" lon="9.932508324634446"><ele>707.0</ele><time>2026-03-31T10:21:20Z</time></trkpt><trkpt lat="45.728924515532334" lon="9.932624445243475"><ele>709.5</ele><time>2026-03-31T10:21:23Z</time></trkpt><trkpt lat="45.728892671278416" lon="9.932741256060758"><ele>712.0</ele><time>2026-03-31T10:21:26Z</time></trkpt><trkpt lat="45.72889590809385" lon="9.932871851478009"><ele>714.5</ele><time>2026-03-31T10:21:29Z</time></trkpt><trkpt lat="45.72892581004792" lon="9.932953574553146"><ele>717.0</ele><time>2026-03-31T10:21:31Z</time></trkpt><trkpt lat="45.72897067225565" lon="9.9330168472773"><ele>719.5</ele><time>2026-03-31T10:21:33Z</time></trkpt><trkpt lat="45.72903154299308" lon="9.933073613846927"><ele>722.0</ele><time>2026-03-31T10:21:35Z</time></trkpt><trkpt lat="45.729090402090904" lon="9.933165922183775"><ele>722.0</ele><time>2026-03-31T10:21:38Z</time></trkpt><trkpt lat="45.72912768413953" lon="9.933242200984958"><ele>722.0</ele><time>2026-03-31T10:21:40Z</time></trkpt><trkpt lat="45.729150595445226" lon="9.933329725371511"><ele>722.0</ele><time>2026-03-31T10:21:42Z</time></trkpt><trkpt lat="45.7291671769705" lon="9.933418529543212"><ele>722.0</ele><time>2026-03-31T10:21:44Z</time></trkpt><trkpt lat="45.72916822913436" lon="9.933510758737201"><ele>722.0</ele><time>2026-03-31T10:21:46Z</time></trkpt><trkpt lat="45.7291670604568" lon="9.933609795339978"><ele>722.0</ele><time>2026-03-31T10:21:48Z</time></trkpt><trkpt lat="45.7291603923386" lon="9.933704462410848"><ele>722.0</ele><time>2026-03-31T10:21:50Z</time></trkpt><trkpt lat="45.72915097450233" lon="9.93379628087452"><ele>723.4285714285714</ele><time>2026-03-31T10:21:52Z</time></trkpt><trkpt lat="45.72912530543093" lon="9.933887082428775"><ele>724.8571428571428</ele><time>2026-03-31T10:21:54Z</time></trkpt><trkpt lat="45.72912577104937" lon="9.93398002683903"><ele>726.2857142857142</ele><time>2026-03-31T10:21:56Z</time></trkpt><trkpt lat="45.72911443780439" lon="9.934076400430063"><ele>727.7142857142858</ele><time>2026-03-31T10:21:58Z</time></trkpt><trkpt lat="45.72910802045056" lon="9.934171904586908"><ele>729.1428571428571</ele><time>2026-03-31T10:22:00Z</time></trkpt><trkpt lat="45.72909651030504" lon="9.934268442322406"><ele>730.5714285714286</ele><time>2026-03-31T10:22:02Z</time></trkpt><trkpt lat="45.72908745562219" lon="9.934380862928881"><ele>732.0</ele><time>2026-03-31T10:22:04Z</time></trkpt><trkpt lat="45.72907412792831" lon="9.9344978096691"><ele>732.3333333333334</ele><time>2026-03-31T10:22:06Z</time></trkpt><trkpt lat="45.72905651826498" lon="9.934616131458402"><ele>732.6666666666666</ele><time>2026-03-31T10:22:08Z</time></trkpt><trkpt lat="45.72903335906353" lon="9.934745589286095"><ele>733.0</ele><time>2026-03-31T10:22:10Z</time></trkpt><trkpt lat="45.729019856666135" lon="9.934890201201844"><ele>733.3333333333333</ele><time>2026-03-31T10:22:12Z</time></trkpt><trkpt lat="45.7290206915103" lon="9.935037651707262"><ele>733.6666666666666</ele><time>2026-03-31T10:22:14Z</time></trkpt><trkpt lat="45.729017215754226" lon="9.935132071989633"><ele>734.0</ele><time>2026-03-31T10:22:15Z</time></trkpt><trkpt lat="45.7290262594286" lon="9.935268290128095"><ele>734.8000000000001</ele><time>2026-03-31T10:22:17Z</time></trkpt><trkpt lat="45.729035418387845" lon="9.935410964429225"><ele>735.6</ele><time>2026-03-31T10:22:19Z</time></trkpt><trkpt lat="45.729048889309546" lon="9.935557050508194"><ele>736.4</ele><time>2026-03-31T10:22:21Z</time></trkpt><trkpt lat="45.72906552002921" lon="9.935692502280437"><ele>737.2</ele><time>2026-03-31T10:22:23Z</time></trkpt><trkpt lat="45.729082810243185" lon="9.935821814380363"><ele>738.0</ele><time>2026-03-31T10:22:25Z</time></trkpt><trkpt lat="45.729089788518024" lon="9.935950111088214"><ele>739.2</ele><time>2026-03-31T10:22:27Z</time></trkpt><trkpt lat="45.72909678689982" lon="9.936089725418933"><ele>740.4</ele><time>2026-03-31T10:22:29Z</time></trkpt><trkpt lat="45.729101692105914" lon="9.936224172975825"><ele>741.6</ele><time>2026-03-31T10:22:31Z</time></trkpt><trkpt lat="45.72909668473392" lon="9.9363555309875"><ele>742.8000000000001</ele><time>2026-03-31T10:22:33Z</time></trkpt><trkpt lat="45.729093843130386" lon="9.936496310354284"><ele>744.0</ele><time>2026-03-31T10:22:35Z</time></trkpt><trkpt lat="45.72908955022666" lon="9.93663197097316"><ele>746.1666666666666</ele><time>2026-03-31T10:22:37Z</time></trkpt><trkpt lat="45.72909638769742" lon="9.936756920010602"><ele>748.3333333333334</ele><time>2026-03-31T10:22:39Z</time></trkpt><trkpt lat="45.72909356964012" lon="9.93687399013337"><ele>750.5</ele><time>2026-03-31T10:22:41Z</time></trkpt><trkpt lat="45.72909034089663" lon="9.936996850699813"><ele>752.6666666666667</ele><time>2026-03-31T10:22:43Z</time></trkpt><trkpt lat="45.729101575398886" lon="9.937122813492136"><ele>754.8333333333334</ele><time>2026-03-31T10:22:45Z</time></trkpt><trkpt lat="45.72913224056605" lon="9.937260089874922"><ele>757.0</ele><time>2026-03-31T10:22:47Z</time></trkpt><trkpt lat="45.7291540270168" lon="9.93737732828064"><ele>757.0</ele><time>2026-03-31T10:22:49Z</time></trkpt><trkpt lat="45.729178983331" lon="9.93750009710969"><ele>757.0</ele><time>2026-03-31T10:22:51Z</time></trkpt><trkpt lat="45.72920497718873" lon="9.937614640785908"><ele>757.0</ele><time>2026-03-31T10:22:53Z</time></trkpt><trkpt lat="45.729234597796456" lon="9.937725720933413"><ele>757.0</ele><time>2026-03-31T10:22:55Z</time></trkpt><trkpt lat="45.7292678780969" lon="9.937837879319192"><ele>757.0</ele><time>2026-03-31T10:22:57Z</time></trkpt><trkpt lat="45.72931262609472" lon="9.937946311832398"><ele>757.0</ele><time>2026-03-31T10:22:59Z</time></trkpt><trkpt lat="45.7293363526223" lon="9.938063441508389"><ele>758.8333333333334</ele><time>2026-03-31T10:23:01Z</time></trkpt><trkpt lat="45.72936380853461" lon="9.938174923140247"><ele>760.6666666666667</ele><time>2026-03-31T10:23:03Z</time></trkpt><trkpt lat="45.72938884654247" lon="9.938292751109989"><ele>762.5</ele><time>2026-03-31T10:23:05Z</time></trkpt><trkpt lat="45.72941599919961" lon="9.938411623941409"><ele>764.3333333333334</ele><time>2026-03-31T10:23:07Z</time></trkpt><trkpt lat="45.729450317916964" lon="9.938529427219606"><ele>766.1666666666666</ele><time>2026-03-31T10:23:09Z</time></trkpt><trkpt lat="45.729469084152356" lon="9.938652910366773"><ele>768.0</ele><time>2026-03-31T10:23:11Z</time></trkpt><trkpt lat="45.7294714150116" lon="9.938781114091539"><ele>768.2</ele><time>2026-03-31T10:23:13Z</time></trkpt><trkpt lat="45.72946325775467" lon="9.938914031901048"><ele>768.4</ele><time>2026-03-31T10:23:15Z</time></trkpt><trkpt lat="45.72944982235518" lon="9.939034946147089"><ele>768.6</ele><time>2026-03-31T10:23:17Z</time></trkpt><trkpt lat="45.72948859650562" lon="9.939189186391026"><ele>768.8000000000001</ele><time>2026-03-31T10:23:19Z</time></trkpt><trkpt lat="45.729569122195386" lon="9.93930522283344"><ele>769.0</ele><time>2026-03-31T10:23:21Z</time></trkpt><trkpt lat="45.729672925325424" lon="9.939377900476485"><ele>770.6</ele><time>2026-03-31T10:23:23Z</time></trkpt><trkpt lat="45.72977231701981" lon="9.939456668848369"><ele>772.2</ele><time>2026-03-31T10:23:25Z</time></trkpt><trkpt lat="45.72986652988304" lon="9.939541045383189"><ele>773.8000000000001</ele><time>2026-03-31T10:23:27Z</time></trkpt><trkpt lat="45.72994215959734" lon="9.939640847349073"><ele>775.4000000000001</ele><time>2026-03-31T10:23:29Z</time></trkpt><trkpt lat="45.730004672426254" lon="9.939727362000454"><ele>777.0</ele><time>2026-03-31T10:23:31Z</time></trkpt><trkpt lat="45.73007808063265" lon="9.939843794297042"><ele>777.0</ele><time>2026-03-31T10:23:33Z</time></trkpt><trkpt lat="45.73012837432517" lon="9.939991358856739"><ele>777.0</ele><time>2026-03-31T10:23:35Z</time></trkpt><trkpt lat="45.730226753915346" lon="9.940065790298297"><ele>777.0</ele><time>2026-03-31T10:23:37Z</time></trkpt><trkpt lat="45.7303186713834" lon="9.939954090820308"><ele>777.0</ele><time>2026-03-31T10:23:39Z</time></trkpt><trkpt lat="45.730323289922886" lon="9.939796243930985"><ele>778.0</ele><time>2026-03-31T10:23:41Z</time></trkpt><trkpt lat="45.73033429846871" lon="9.939667301883878"><ele>779.0</ele><time>2026-03-31T10:23:43Z</time></trkpt><trkpt lat="45.73035278173063" lon="9.939538482210468"><ele>780.0</ele><time>2026-03-31T10:23:45Z</time></trkpt><trkpt lat="45.73036319505437" lon="9.939418330026863"><ele>781.0</ele><time>2026-03-31T10:23:47Z</time></trkpt><trkpt lat="45.730376200689015" lon="9.939310434461103"><ele>782.0</ele><time>2026-03-31T10:23:49Z</time></trkpt><trkpt lat="45.73040358956937" lon="9.93921876131259"><ele>783.0</ele><time>2026-03-31T10:23:51Z</time></trkpt><trkpt lat="45.73043966703147" lon="9.939095250419038"><ele>783.0</ele><time>2026-03-31T10:23:54Z</time></trkpt><trkpt lat="45.73047322263372" lon="9.938976195055668"><ele>783.0</ele><time>2026-03-31T10:23:57Z</time></trkpt><trkpt lat="45.73052308362961" lon="9.938897168788657"><ele>783.0</ele><time>2026-03-31T10:23:59Z</time></trkpt><trkpt lat="45.73057430861202" lon="9.938814392738577"><ele>783.0</ele><time>2026-03-31T10:24:01Z</time></trkpt><trkpt lat="45.730625009021566" lon="9.938746587969431"><ele>783.0</ele><time>2026-03-31T10:24:03Z</time></trkpt><trkpt lat="45.73067145693242" lon="9.938676088641818"><ele>783.0</ele><time>2026-03-31T10:24:05Z</time></trkpt><trkpt lat="45.73071604551988" lon="9.938610164750848"><ele>783.0</ele><time>2026-03-31T10:24:07Z</time></trkpt><trkpt lat="45.730775575389444" lon="9.938564672143956"><ele>783.0</ele><time>2026-03-31T10:24:10Z</time></trkpt><trkpt lat="45.73084982516621" lon="9.938592494045151"><ele>783.0</ele><time>2026-03-31T10:26:26Z</time></trkpt><trkpt lat="45.73083571175689" lon="9.938692343687269"><ele>783.0</ele><time>2026-03-31T10:26:28Z</time></trkpt><trkpt lat="45.73091382608975" lon="9.938766626532173"><ele>783.0</ele><time>2026-03-31T10:26:31Z</time></trkpt><trkpt lat="45.73099610491042" lon="9.938802078685958"><ele>783.0</ele><time>2026-03-31T10:26:33Z</time></trkpt><trkpt lat="45.73106985247712" lon="9.938879611361692"><ele>783.0</ele><time>2026-03-31T10:26:35Z</time></trkpt><trkpt lat="45.73112400048828" lon="9.938977482147509"><ele>785.1666666666666</ele><time>2026-03-31T10:26:37Z</time></trkpt><trkpt lat="45.731191490336805" lon="9.939042864988984"><ele>787.3333333333333</ele><time>2026-03-31T10:26:39Z</time></trkpt><trkpt lat="45.731268604919876" lon="9.93910492177293"><ele>789.5</ele><time>2026-03-31T10:26:41Z</time></trkpt><trkpt lat="45.731350486809426" lon="9.939135311806634"><ele>791.6666666666666</ele><time>2026-03-31T10:26:43Z</time></trkpt><trkpt lat="45.73140571553856" lon="9.939215621964026"><ele>793.8333333333333</ele><time>2026-03-31T10:26:45Z</time></trkpt><trkpt lat="45.7313719210986" lon="9.93933269110395"><ele>796.0</ele><time>2026-03-31T10:26:47Z</time></trkpt><trkpt lat="45.73126821479766" lon="9.93935205777771"><ele>794.9999999999999</ele><time>2026-03-31T10:26:49Z</time></trkpt><trkpt lat="45.731164555039264" lon="9.939357541970203"><ele>794.0</ele><time>2026-03-31T10:26:51Z</time></trkpt><trkpt lat="45.73108585264298" lon="9.939407772750055"><ele>793.0</ele><time>2026-03-31T10:26:53Z</time></trkpt><trkpt lat="45.73103249347479" lon="9.939508712304335"><ele>792.0</ele><time>2026-03-31T10:26:55Z</time></trkpt><trkpt lat="45.73099513374796" lon="9.939615318651208"><ele>790.9999999999999</ele><time>2026-03-31T10:26:57Z</time></trkpt><trkpt lat="45.73098697030371" lon="9.939730422533879"><ele>790.0</ele><time>2026-03-31T10:26:59Z</time></trkpt><trkpt lat="45.73097728306389" lon="9.939842741538444"><ele>789.9999999999999</ele><time>2026-03-31T10:27:01Z</time></trkpt><trkpt lat="45.73096405343909" lon="9.939957306868003"><ele>790.0</ele><time>2026-03-31T10:27:03Z</time></trkpt><trkpt lat="45.73096147642067" lon="9.94005234679562"><ele>790.0</ele><time>2026-03-31T10:27:05Z</time></trkpt><trkpt lat="45.73094825096504" lon="9.940170509313521"><ele>790.0</ele><time>2026-03-31T10:27:07Z</time></trkpt><trkpt lat="45.73093789065231" lon="9.940283088332544"><ele>789.9999999999999</ele><time>2026-03-31T10:27:09Z</time></trkpt><trkpt lat="45.73092375642668" lon="9.940398856377373"><ele>790.0</ele><time>2026-03-31T10:27:11Z</time></trkpt><trkpt lat="45.73091310293922" lon="9.940524424981948"><ele>791.6666666666666</ele><time>2026-03-31T10:27:13Z</time></trkpt><trkpt lat="45.730901228526506" lon="9.940646534267746"><ele>793.3333333333333</ele><time>2026-03-31T10:27:15Z</time></trkpt><trkpt lat="45.73089201117083" lon="9.940762196294424"><ele>795.0</ele><time>2026-03-31T10:27:17Z</time></trkpt><trkpt lat="45.73088048843804" lon="9.940862795252025"><ele>796.6666666666667</ele><time>2026-03-31T10:27:19Z</time></trkpt><trkpt lat="45.7308624541639" lon="9.940965849197458"><ele>798.3333333333334</ele><time>2026-03-31T10:27:21Z</time></trkpt><trkpt lat="45.730874046943235" lon="9.941066869908552"><ele>800.0</ele><time>2026-03-31T10:27:23Z</time></trkpt><trkpt lat="45.730933972031366" lon="9.941138672009137"><ele>801.6666666666667</ele><time>2026-03-31T10:27:25Z</time></trkpt><trkpt lat="45.73099690651446" lon="9.941125013002585"><ele>803.3333333333334</ele><time>2026-03-31T10:27:27Z</time></trkpt><trkpt lat="45.73105616110257" lon="9.941047908845059"><ele>805.0</ele><time>2026-03-31T10:27:29Z</time></trkpt><trkpt lat="45.73110186102665" lon="9.940936420837224"><ele>806.6666666666667</ele><time>2026-03-31T10:27:31Z</time></trkpt><trkpt lat="45.73114456499668" lon="9.940831129872185"><ele>808.3333333333334</ele><time>2026-03-31T10:27:33Z</time></trkpt><trkpt lat="45.731195390021284" lon="9.940738480224212"><ele>810.0</ele><time>2026-03-31T10:27:35Z</time></trkpt><trkpt lat="45.73125359733675" lon="9.940655930452033"><ele>811.6666666666666</ele><time>2026-03-31T10:27:37Z</time></trkpt><trkpt lat="45.731304788804614" lon="9.940568785750644"><ele>813.3333333333333</ele><time>2026-03-31T10:27:39Z</time></trkpt><trkpt lat="45.73136507738352" lon="9.940480352443917"><ele>815.0</ele><time>2026-03-31T10:27:41Z</time></trkpt><trkpt lat="45.73142680319766" lon="9.940403659088313"><ele>816.6666666666666</ele><time>2026-03-31T10:27:43Z</time></trkpt><trkpt lat="45.73149140136529" lon="9.94033594448868"><ele>818.3333333333333</ele><time>2026-03-31T10:27:45Z</time></trkpt><trkpt lat="45.73156807234547" lon="9.94026538424532"><ele>820.0</ele><time>2026-03-31T10:27:47Z</time></trkpt><trkpt lat="45.73165994384911" lon="9.940240601068046"><ele>819.9999999999999</ele><time>2026-03-31T10:27:49Z</time></trkpt><trkpt lat="45.73175000813584" lon="9.940245783320146"><ele>820.0</ele><time>2026-03-31T10:27:51Z</time></trkpt><trkpt lat="45.731832445150296" lon="9.94026572269322"><ele>820.0</ele><time>2026-03-31T10:27:53Z</time></trkpt><trkpt lat="45.73191044860601" lon="9.940308182763628"><ele>820.0</ele><time>2026-03-31T10:27:55Z</time></trkpt><trkpt lat="45.731986359148216" lon="9.940349821226912"><ele>819.9999999999999</ele><time>2026-03-31T10:27:57Z</time></trkpt><trkpt lat="45.73205727314239" lon="9.940413891450314"><ele>820.0</ele><time>2026-03-31T10:27:59Z</time></trkpt><trkpt lat="45.73212576349434" lon="9.940490018314073"><ele>823.1666666666666</ele><time>2026-03-31T10:28:01Z</time></trkpt><trkpt lat="45.73219275624883" lon="9.940561137038037"><ele>826.3333333333333</ele><time>2026-03-31T10:28:03Z</time></trkpt><trkpt lat="45.732252938806816" lon="9.940626575488363"><ele>829.5</ele><time>2026-03-31T10:28:05Z</time></trkpt><trkpt lat="45.73231268855805" lon="9.940700287322427"><ele>832.6666666666667</ele><time>2026-03-31T10:28:07Z</time></trkpt><trkpt lat="45.732371133924175" lon="9.940771395497611"><ele>835.8333333333334</ele><time>2026-03-31T10:28:09Z</time></trkpt><trkpt lat="45.732421887940326" lon="9.940849906514005"><ele>839.0</ele><time>2026-03-31T10:28:11Z</time></trkpt><trkpt lat="45.73247187979457" lon="9.9409283246193"><ele>839.0000000000001</ele><time>2026-03-31T10:28:13Z</time></trkpt><trkpt lat="45.73250847084041" lon="9.94100998518036"><ele>839.0</ele><time>2026-03-31T10:28:15Z</time></trkpt><trkpt lat="45.73256946972953" lon="9.941096263472577"><ele>839.0</ele><time>2026-03-31T10:28:17Z</time></trkpt><trkpt lat="45.73264088765663" lon="9.941143324047776"><ele>839.0</ele><time>2026-03-31T10:28:19Z</time></trkpt><trkpt lat="45.732720405530216" lon="9.941084479958207"><ele>839.0000000000001</ele><time>2026-03-31T10:28:21Z</time></trkpt><trkpt lat="45.732729789770005" lon="9.940961361802513"><ele>839.0</ele><time>2026-03-31T10:28:23Z</time></trkpt><trkpt lat="45.73271922685094" lon="9.940822667204333"><ele>839.0</ele><time>2026-03-31T10:28:25Z</time></trkpt><trkpt lat="45.73270654796804" lon="9.940689784878531"><ele>839.0</ele><time>2026-03-31T10:28:27Z</time></trkpt><trkpt lat="45.73269520173752" lon="9.94055573092707"><ele>839.0</ele><time>2026-03-31T10:28:29Z</time></trkpt><trkpt lat="45.7326825821314" lon="9.94042559604338"><ele>839.0</ele><time>2026-03-31T10:28:31Z</time></trkpt><trkpt lat="45.73267000142689" lon="9.940300094724453"><ele>839.0</ele><time>2026-03-31T10:28:33Z</time></trkpt><trkpt lat="45.732659501009536" lon="9.940175059229668"><ele>839.0000000000001</ele><time>2026-03-31T10:28:35Z</time></trkpt><trkpt lat="45.73266552697606" lon="9.940053838389218"><ele>839.0</ele><time>2026-03-31T10:28:37Z</time></trkpt><trkpt lat="45.73268785411806" lon="9.939940180138372"><ele>839.0</ele><time>2026-03-31T10:28:39Z</time></trkpt><trkpt lat="45.73272624305139" lon="9.939834852732847"><ele>839.0</ele><time>2026-03-31T10:28:41Z</time></trkpt><trkpt lat="45.73276974069998" lon="9.939728079617957"><ele>839.0000000000001</ele><time>2026-03-31T10:28:43Z</time></trkpt><trkpt lat="45.73282719655016" lon="9.939634529100443"><ele>839.0</ele><time>2026-03-31T10:28:45Z</time></trkpt><trkpt lat="45.732897957025116" lon="9.939582754184563"><ele>839.3333333333334</ele><time>2026-03-31T10:28:47Z</time></trkpt><trkpt lat="45.732969829895985" lon="9.93964357591896"><ele>839.6666666666667</ele><time>2026-03-31T10:28:49Z</time></trkpt><trkpt lat="45.73296405308651" lon="9.939769334189478"><ele>840.0</ele><time>2026-03-31T10:28:51Z</time></trkpt><trkpt lat="45.73293030221717" lon="9.939860219684284"><ele>840.3333333333333</ele><time>2026-03-31T10:28:53Z</time></trkpt><trkpt lat="45.732912875597705" lon="9.939961984152673"><ele>840.6666666666666</ele><time>2026-03-31T10:28:55Z</time></trkpt><trkpt lat="45.732914637358526" lon="9.940071118341159"><ele>841.0</ele><time>2026-03-31T10:28:57Z</time></trkpt><trkpt lat="45.732925778272396" lon="9.940185672159092"><ele>843.8333333333333</ele><time>2026-03-31T10:28:59Z</time></trkpt><trkpt lat="45.73294598497769" lon="9.940298970158993"><ele>846.6666666666666</ele><time>2026-03-31T10:29:01Z</time></trkpt><trkpt lat="45.73296494083726" lon="9.940411649696392"><ele>849.5</ele><time>2026-03-31T10:29:03Z</time></trkpt><trkpt lat="45.732985570143015" lon="9.940520047153436"><ele>852.3333333333333</ele><time>2026-03-31T10:29:05Z</time></trkpt><trkpt lat="45.733003275015335" lon="9.940629427826401"><ele>855.1666666666666</ele><time>2026-03-31T10:29:07Z</time></trkpt><trkpt lat="45.73301860080017" lon="9.940741266550393"><ele>858.0</ele><time>2026-03-31T10:29:09Z</time></trkpt><trkpt lat="45.733030222810804" lon="9.940856477894997"><ele>858.0</ele><time>2026-03-31T10:29:11Z</time></trkpt><trkpt lat="45.733055144709745" lon="9.940974842500529"><ele>858.0</ele><time>2026-03-31T10:29:13Z</time></trkpt><trkpt lat="45.73309977688358" lon="9.941061990808217"><ele>858.0</ele><time>2026-03-31T10:29:15Z</time></trkpt><trkpt lat="45.73318481742973" lon="9.941074478279859"><ele>858.0</ele><time>2026-03-31T10:29:17Z</time></trkpt><trkpt lat="45.733239020552936" lon="9.940977466384457"><ele>858.0</ele><time>2026-03-31T10:29:19Z</time></trkpt><trkpt lat="45.73323193936724" lon="9.940857502006988"><ele>858.0</ele><time>2026-03-31T10:29:21Z</time></trkpt><trkpt lat="45.73324467245465" lon="9.94074203464593"><ele>858.0</ele><time>2026-03-31T10:29:23Z</time></trkpt><trkpt lat="45.73327332445423" lon="9.940638296155255"><ele>858.0</ele><time>2026-03-31T10:29:25Z</time></trkpt><trkpt lat="45.73332495770777" lon="9.940549951279031"><ele>858.0</ele><time>2026-03-31T10:29:27Z</time></trkpt><trkpt lat="45.73340464607308" lon="9.940546438870706"><ele>858.0</ele><time>2026-03-31T10:29:29Z</time></trkpt><trkpt lat="45.73345578244408" lon="9.940642151653325"><ele>858.0</ele><time>2026-03-31T10:29:31Z</time></trkpt><trkpt lat="45.73344290061986" lon="9.940762876480855"><ele>858.0</ele><time>2026-03-31T10:29:33Z</time></trkpt><trkpt lat="45.73342597461864" lon="9.940883910555803"><ele>860.3333333333334</ele><time>2026-03-31T10:29:35Z</time></trkpt><trkpt lat="45.73339594911003" lon="9.940990805710356"><ele>862.6666666666667</ele><time>2026-03-31T10:29:37Z</time></trkpt><trkpt lat="45.733378756107186" lon="9.941107030479355"><ele>865.0</ele><time>2026-03-31T10:29:39Z</time></trkpt><trkpt lat="45.733365910234035" lon="9.94121937677556"><ele>867.3333333333334</ele><time>2026-03-31T10:29:41Z</time></trkpt><trkpt lat="45.733353351141375" lon="9.941332050886624"><ele>869.6666666666667</ele><time>2026-03-31T10:29:43Z</time></trkpt><trkpt lat="45.73333983838979" lon="9.94144616546396"><ele>872.0</ele><time>2026-03-31T10:29:45Z</time></trkpt><trkpt lat="45.73332587896004" lon="9.941562110741799"><ele>872.0000000000001</ele><time>2026-03-31T10:29:47Z</time></trkpt><trkpt lat="45.733318440007345" lon="9.941661198793557"><ele>872.0</ele><time>2026-03-31T10:29:49Z</time></trkpt><trkpt lat="45.73329809035884" lon="9.941779960828176"><ele>872.0</ele><time>2026-03-31T10:29:51Z</time></trkpt><trkpt lat="45.7332823765502" lon="9.941889691014662"><ele>872.0</ele><time>2026-03-31T10:29:53Z</time></trkpt><trkpt lat="45.733269292343714" lon="9.941996202178705"><ele>872.0000000000001</ele><time>2026-03-31T10:29:55Z</time></trkpt><trkpt lat="45.733258404631606" lon="9.942100640577811"><ele>872.0</ele><time>2026-03-31T10:29:57Z</time></trkpt><trkpt lat="45.73329807159254" lon="9.942189645623435"><ele>873.6</ele><time>2026-03-31T10:29:59Z</time></trkpt><trkpt lat="45.73338388906573" lon="9.942203100527447"><ele>875.2</ele><time>2026-03-31T10:30:01Z</time></trkpt><trkpt lat="45.73345760398517" lon="9.942128141860156"><ele>876.8</ele><time>2026-03-31T10:30:03Z</time></trkpt><trkpt lat="45.73348311237815" lon="9.941998073055812"><ele>878.4</ele><time>2026-03-31T10:30:05Z</time></trkpt><trkpt lat="45.73352110486634" lon="9.941859133198276"><ele>880.0</ele><time>2026-03-31T10:30:07Z</time></trkpt><trkpt lat="45.733563314609" lon="9.941708850011688"><ele>882.6</ele><time>2026-03-31T10:30:09Z</time></trkpt><trkpt lat="45.733622208322565" lon="9.941577596742237"><ele>885.2</ele><time>2026-03-31T10:30:11Z</time></trkpt><trkpt lat="45.73369042649029" lon="9.941457047044235"><ele>887.8</ele><time>2026-03-31T10:30:13Z</time></trkpt><trkpt lat="45.733760224426554" lon="9.941339913008301"><ele>890.4</ele><time>2026-03-31T10:30:15Z</time></trkpt><trkpt lat="45.733827779596616" lon="9.941228871819762"><ele>893.0</ele><time>2026-03-31T10:30:17Z</time></trkpt><trkpt lat="45.73392898968701" lon="9.941198905219084"><ele>893.0</ele><time>2026-03-31T10:30:19Z</time></trkpt><trkpt lat="45.73398703490349" lon="9.94134297441098"><ele>893.0</ele><time>2026-03-31T10:30:21Z</time></trkpt><trkpt lat="45.733964009531896" lon="9.941428687607903"><ele>893.0</ele><time>2026-03-31T10:30:22Z</time></trkpt><trkpt lat="45.73387668820879" lon="9.94152943593515"><ele>893.0</ele><time>2026-03-31T10:30:24Z</time></trkpt><trkpt lat="45.73380751871545" lon="9.941636682056158"><ele>893.0</ele><time>2026-03-31T10:30:26Z</time></trkpt><trkpt lat="45.73375444909844" lon="9.941764101870245"><ele>897.0</ele><time>2026-03-31T10:30:28Z</time></trkpt><trkpt lat="45.73371603743535" lon="9.941914000968682"><ele>901.0</ele><time>2026-03-31T10:30:30Z</time></trkpt><trkpt lat="45.733677738397326" lon="9.942067944969795"><ele>905.0</ele><time>2026-03-31T10:30:32Z</time></trkpt><trkpt lat="45.733638797089945" lon="9.942224696728776"><ele>909.0</ele><time>2026-03-31T10:30:34Z</time></trkpt><trkpt lat="45.733597481076956" lon="9.94237806273418"><ele>909.0</ele><time>2026-03-31T10:30:36Z</time></trkpt><trkpt lat="45.733558101184364" lon="9.942528355591062"><ele>909.0000000000001</ele><time>2026-03-31T10:30:38Z</time></trkpt><trkpt lat="45.73352947060116" lon="9.942682662923366"><ele>909.0000000000001</ele><time>2026-03-31T10:30:40Z</time></trkpt><trkpt lat="45.733509976582575" lon="9.942847970513125"><ele>909.0</ele><time>2026-03-31T10:30:42Z</time></trkpt><trkpt lat="45.73353377749709" lon="9.942999941045693"><ele>909.0</ele><time>2026-03-31T10:30:44Z</time></trkpt><trkpt lat="45.733542001851184" lon="9.943092442291997"><ele>909.8000000000001</ele><time>2026-03-31T10:30:45Z</time></trkpt><trkpt lat="45.73359459744989" lon="9.943225639563414"><ele>910.6000000000001</ele><time>2026-03-31T10:30:47Z</time></trkpt><trkpt lat="45.733643521618056" lon="9.943368421629776"><ele>911.4</ele><time>2026-03-31T10:30:49Z</time></trkpt><trkpt lat="45.73370141248906" lon="9.943487549514394"><ele>912.2</ele><time>2026-03-31T10:30:51Z</time></trkpt><trkpt lat="45.733756059726" lon="9.94363043082255"><ele>913.0</ele><time>2026-03-31T10:30:53Z</time></trkpt><trkpt lat="45.73377133131981" lon="9.943792949652487"><ele>914.4</ele><time>2026-03-31T10:30:55Z</time></trkpt><trkpt lat="45.73369899962924" lon="9.943904680602161"><ele>915.8</ele><time>2026-03-31T10:30:57Z</time></trkpt><trkpt lat="45.73358503741714" lon="9.943875562677569"><ele>917.2</ele><time>2026-03-31T10:30:59Z</time></trkpt><trkpt lat="45.733485618169965" lon="9.94388759323548"><ele>918.6</ele><time>2026-03-31T10:31:01Z</time></trkpt><trkpt lat="45.73340290451676" lon="9.943991342705466"><ele>920.0</ele><time>2026-03-31T10:31:03Z</time></trkpt><trkpt lat="45.73334697830836" lon="9.94413556208475"><ele>917.25</ele><time>2026-03-31T10:31:05Z</time></trkpt><trkpt lat="45.73330651996534" lon="9.944288283554176"><ele>914.5</ele><time>2026-03-31T10:31:07Z</time></trkpt><trkpt lat="45.73327013871278" lon="9.944437852358416"><ele>911.75</ele><time>2026-03-31T10:31:09Z</time></trkpt><trkpt lat="45.73324831893967" lon="9.944602045131715"><ele>909.0</ele><time>2026-03-31T10:31:11Z</time></trkpt><trkpt lat="45.73325225683083" lon="9.94477573971104"><ele>909.0</ele><time>2026-03-31T10:31:13Z</time></trkpt><trkpt lat="45.73327049462007" lon="9.944941356043072"><ele>909.0</ele><time>2026-03-31T10:31:15Z</time></trkpt><trkpt lat="45.73330592475352" lon="9.945103237181593"><ele>909.0</ele><time>2026-03-31T10:31:17Z</time></trkpt><trkpt lat="45.73332085165284" lon="9.945261602166653"><ele>909.0</ele><time>2026-03-31T10:31:19Z</time></trkpt><trkpt lat="45.73325700999357" lon="9.945402799696637"><ele>913.0</ele><time>2026-03-31T10:31:21Z</time></trkpt><trkpt lat="45.733138719021376" lon="9.94538152773983"><ele>917.0</ele><time>2026-03-31T10:31:23Z</time></trkpt><trkpt lat="45.73304761758682" lon="9.945306232295662"><ele>921.0</ele><time>2026-03-31T10:31:25Z</time></trkpt><trkpt lat="45.73294474882953" lon="9.945263425278515"><ele>925.0</ele><time>2026-03-31T10:31:27Z</time></trkpt><trkpt lat="45.73282748901967" lon="9.945217363983993"><ele>925.0</ele><time>2026-03-31T10:31:29Z</time></trkpt><trkpt lat="45.73273011876233" lon="9.945156208128777"><ele>925.0</ele><time>2026-03-31T10:31:31Z</time></trkpt><trkpt lat="45.73262350128785" lon="9.945145595760847"><ele>925.0</ele><time>2026-03-31T10:31:33Z</time></trkpt><trkpt lat="45.7325305182273" lon="9.945231783996853"><ele>925.0</ele><time>2026-03-31T10:31:35Z</time></trkpt><trkpt lat="45.73248591077977" lon="9.945385652439368"><ele>925.0</ele><time>2026-03-31T10:31:37Z</time></trkpt><trkpt lat="45.732487339138466" lon="9.945480411504825"><ele>922.25</ele><time>2026-03-31T10:31:38Z</time></trkpt><trkpt lat="45.73252463404562" lon="9.945635859903843"><ele>919.5</ele><time>2026-03-31T10:31:40Z</time></trkpt><trkpt lat="45.73255249850524" lon="9.945796559838268"><ele>916.75</ele><time>2026-03-31T10:31:42Z</time></trkpt><trkpt lat="45.73258128050463" lon="9.945944209875076"><ele>914.0</ele><time>2026-03-31T10:31:44Z</time></trkpt><trkpt lat="45.732614599405196" lon="9.946098395173527"><ele>914.0</ele><time>2026-03-31T10:31:46Z</time></trkpt><trkpt lat="45.732639793007706" lon="9.946253635172047"><ele>914.0000000000001</ele><time>2026-03-31T10:31:48Z</time></trkpt><trkpt lat="45.73266020895525" lon="9.946411240624299"><ele>914.0000000000001</ele><time>2026-03-31T10:31:50Z</time></trkpt><trkpt lat="45.73267957644666" lon="9.946561936402729"><ele>914.0</ele><time>2026-03-31T10:31:52Z</time></trkpt><trkpt lat="45.73269010055054" lon="9.946711388160223"><ele>914.0</ele><time>2026-03-31T10:31:54Z</time></trkpt><trkpt lat="45.73270012168588" lon="9.946862987934983"><ele>916.0</ele><time>2026-03-31T10:31:56Z</time></trkpt><trkpt lat="45.73271170399159" lon="9.947017232640565"><ele>918.0000000000001</ele><time>2026-03-31T10:31:58Z</time></trkpt><trkpt lat="45.73272327609125" lon="9.947169663400276"><ele>920.0000000000001</ele><time>2026-03-31T10:32:00Z</time></trkpt><trkpt lat="45.73273177389054" lon="9.947314314819527"><ele>922.0</ele><time>2026-03-31T10:32:02Z</time></trkpt><trkpt lat="45.73277397138722" lon="9.947436065344965"><ele>924.0</ele><time>2026-03-31T10:32:04Z</time></trkpt><trkpt lat="45.732881963683276" lon="9.94744059730772"><ele>928.6</ele><time>2026-03-31T10:32:06Z</time></trkpt><trkpt lat="45.732950888928826" lon="9.947315968441169"><ele>933.2</ele><time>2026-03-31T10:32:08Z</time></trkpt><trkpt lat="45.73296223232725" lon="9.947226888543863"><ele>937.8000000000001</ele><time>2026-03-31T10:32:09Z</time></trkpt><trkpt lat="45.73297379155374" lon="9.947059526486083"><ele>942.4000000000001</ele><time>2026-03-31T10:32:11Z</time></trkpt><trkpt lat="45.73299495760032" lon="9.946903417772335"><ele>947.0</ele><time>2026-03-31T10:32:13Z</time></trkpt><trkpt lat="45.73301007197388" lon="9.94676010881582"><ele>945.2</ele><time>2026-03-31T10:32:15Z</time></trkpt><trkpt lat="45.73303655470362" lon="9.946611835521368"><ele>943.4000000000001</ele><time>2026-03-31T10:32:17Z</time></trkpt><trkpt lat="45.73306095071607" lon="9.946526771919462"><ele>941.5999999999999</ele><time>2026-03-31T10:32:18Z</time></trkpt><trkpt lat="45.733105197432835" lon="9.946363370908538"><ele>939.8</ele><time>2026-03-31T10:32:20Z</time></trkpt><trkpt lat="45.733208082731345" lon="9.946269241031295"><ele>938.0</ele><time>2026-03-31T10:32:22Z</time></trkpt><trkpt lat="45.73327221398657" lon="9.946397634627823"><ele>938.0</ele><time>2026-03-31T10:32:24Z</time></trkpt><trkpt lat="45.733250736244784" lon="9.946487503747472"><ele>938.0</ele><time>2026-03-31T10:32:25Z</time></trkpt><trkpt lat="45.73320596461098" lon="9.946630173021838"><ele>938.0</ele><time>2026-03-31T10:32:27Z</time></trkpt><trkpt lat="45.73318873620155" lon="9.94678342050429"><ele>938.0</ele><time>2026-03-31T10:32:29Z</time></trkpt><trkpt lat="45.7331910716569" lon="9.94693880880001"><ele>938.0</ele><time>2026-03-31T10:32:31Z</time></trkpt><trkpt lat="45.733176430709314" lon="9.947091638588397"><ele>939.8</ele><time>2026-03-31T10:32:33Z</time></trkpt><trkpt lat="45.733164000991366" lon="9.947253932746243"><ele>941.5999999999999</ele><time>2026-03-31T10:32:35Z</time></trkpt><trkpt lat="45.73316175487364" lon="9.947409386748484"><ele>943.4000000000001</ele><time>2026-03-31T10:32:37Z</time></trkpt><trkpt lat="45.73315631892062" lon="9.94755805312061"><ele>945.2</ele><time>2026-03-31T10:32:39Z</time></trkpt><trkpt lat="45.73314808252605" lon="9.947699827579832"><ele>947.0</ele><time>2026-03-31T10:32:41Z</time></trkpt><trkpt lat="45.733163821305155" lon="9.94785773868905"><ele>948.8</ele><time>2026-03-31T10:32:43Z</time></trkpt><trkpt lat="45.733129165408315" lon="9.94798100851441"><ele>950.6</ele><time>2026-03-31T10:32:45Z</time></trkpt><trkpt lat="45.73312717125005" lon="9.94810949343781"><ele>952.3999999999999</ele><time>2026-03-31T10:32:47Z</time></trkpt><trkpt lat="45.73314406383865" lon="9.948258958629104"><ele>954.1999999999999</ele><time>2026-03-31T10:32:49Z</time></trkpt><trkpt lat="45.7331642717808" lon="9.94839545748475"><ele>956.0</ele><time>2026-03-31T10:32:51Z</time></trkpt><trkpt lat="45.733196598753125" lon="9.94852805852034"><ele>957.1999999999999</ele><time>2026-03-31T10:32:53Z</time></trkpt><trkpt lat="45.733247365456855" lon="9.948652608478536"><ele>958.3999999999999</ele><time>2026-03-31T10:32:55Z</time></trkpt><trkpt lat="45.7333023736187" lon="9.948768184873282"><ele>959.6</ele><time>2026-03-31T10:32:57Z</time></trkpt><trkpt lat="45.733354455020105" lon="9.9488793518719"><ele>960.8</ele><time>2026-03-31T10:32:59Z</time></trkpt><trkpt lat="45.73339582987239" lon="9.94898958477929"><ele>962.0</ele><time>2026-03-31T10:33:01Z</time></trkpt><trkpt lat="45.73339741331066" lon="9.949115631133804"><ele>964.5000000000001</ele><time>2026-03-31T10:33:03Z</time></trkpt><trkpt lat="45.73335522342589" lon="9.94921563142032"><ele>967.0</ele><time>2026-03-31T10:33:05Z</time></trkpt><trkpt lat="45.73330324321383" lon="9.949294991458824"><ele>969.5</ele><time>2026-03-31T10:33:07Z</time></trkpt><trkpt lat="45.73323090937577" lon="9.949342158358093"><ele>972.0</ele><time>2026-03-31T10:33:09Z</time></trkpt><trkpt lat="45.73314949445546" lon="9.949359717827868"><ele>974.5000000000001</ele><time>2026-03-31T10:33:11Z</time></trkpt><trkpt lat="45.733062684837385" lon="9.949396323174252"><ele>977.0</ele><time>2026-03-31T10:33:13Z</time></trkpt><trkpt lat="45.73299192147677" lon="9.949436363957938"><ele>977.0000000000001</ele><time>2026-03-31T10:33:15Z</time></trkpt><trkpt lat="45.73291927973161" lon="9.949479888134928"><ele>977.0</ele><time>2026-03-31T10:33:17Z</time></trkpt><trkpt lat="45.732847032881" lon="9.94954074837152"><ele>977.0</ele><time>2026-03-31T10:33:19Z</time></trkpt><trkpt lat="45.73277864876932" lon="9.94961893813804"><ele>977.0</ele><time>2026-03-31T10:33:21Z</time></trkpt><trkpt lat="45.732718459978194" lon="9.949705571704722"><ele>977.0000000000001</ele><time>2026-03-31T10:33:23Z</time></trkpt><trkpt lat="45.73266913556734" lon="9.949808014764079"><ele>977.0</ele><time>2026-03-31T10:33:25Z</time></trkpt><trkpt lat="45.73263256657777" lon="9.94992005626258"><ele>976.2</ele><time>2026-03-31T10:33:27Z</time></trkpt><trkpt lat="45.73261354683639" lon="9.950047411259057"><ele>975.4000000000001</ele><time>2026-03-31T10:33:29Z</time></trkpt><trkpt lat="45.73259732944047" lon="9.950174184787189"><ele>974.5999999999999</ele><time>2026-03-31T10:33:31Z</time></trkpt><trkpt lat="45.732594166282745" lon="9.950311741509648"><ele>973.8</ele><time>2026-03-31T10:33:33Z</time></trkpt><trkpt lat="45.7325986058143" lon="9.950447335349525"><ele>973.0</ele><time>2026-03-31T10:33:35Z</time></trkpt><trkpt lat="45.73261078870384" lon="9.95058163088052"><ele>973.0</ele><time>2026-03-31T10:33:37Z</time></trkpt><trkpt lat="45.73262702834271" lon="9.950713002721217"><ele>973.0</ele><time>2026-03-31T10:33:39Z</time></trkpt><trkpt lat="45.73262994840506" lon="9.950852801552411"><ele>973.0</ele><time>2026-03-31T10:33:41Z</time></trkpt><trkpt lat="45.73259451674853" lon="9.950979520721846"><ele>973.0</ele><time>2026-03-31T10:33:43Z</time></trkpt><trkpt lat="45.732528273331106" lon="9.951036373677027"><ele>973.0</ele><time>2026-03-31T10:33:45Z</time></trkpt><trkpt lat="45.73242724983057" lon="9.950968219334433"><ele>973.0</ele><time>2026-03-31T10:33:47Z</time></trkpt><trkpt lat="45.732339201886184" lon="9.95089525174053"><ele>973.0</ele><time>2026-03-31T10:33:49Z</time></trkpt><trkpt lat="45.73224431656108" lon="9.950825358312434"><ele>973.0</ele><time>2026-03-31T10:33:51Z</time></trkpt><trkpt lat="45.73213321135095" lon="9.950799858937502"><ele>973.0</ele><time>2026-03-31T10:33:53Z</time></trkpt><trkpt lat="45.73203583282647" lon="9.950803635352843"><ele>973.0</ele><time>2026-03-31T10:33:55Z</time></trkpt><trkpt lat="45.73193232340069" lon="9.950841743445253"><ele>974.4</ele><time>2026-03-31T10:33:57Z</time></trkpt><trkpt lat="45.731828776229925" lon="9.950904259817893"><ele>975.8</ele><time>2026-03-31T10:33:59Z</time></trkpt><trkpt lat="45.7317413420405" lon="9.95099212302102"><ele>977.2</ele><time>2026-03-31T10:34:01Z</time></trkpt><trkpt lat="45.731665722716606" lon="9.951079844540821"><ele>978.6</ele><time>2026-03-31T10:34:03Z</time></trkpt><trkpt lat="45.731624426098506" lon="9.951188157431623"><ele>980.0</ele><time>2026-03-31T10:34:50Z</time></trkpt><trkpt lat="45.73159411028665" lon="9.95130233813875"><ele>980.0</ele><time>2026-03-31T10:34:52Z</time></trkpt><trkpt lat="45.731569747305045" lon="9.951417610753197"><ele>980.0</ele><time>2026-03-31T10:34:54Z</time></trkpt><trkpt lat="45.73155920076322" lon="9.951509348061089"><ele>980.0</ele><time>2026-03-31T10:34:56Z</time></trkpt><trkpt lat="45.7315465002461" lon="9.951655940212612"><ele>980.0</ele><time>2026-03-31T10:34:58Z</time></trkpt><trkpt lat="45.73154973960606" lon="9.951824644195069"><ele>980.0</ele><time>2026-03-31T10:35:00Z</time></trkpt><trkpt lat="45.731595669529405" lon="9.951969676294212"><ele>981.1666666666667</ele><time>2026-03-31T10:35:02Z</time></trkpt><trkpt lat="45.73158080241486" lon="9.952064251322478"><ele>982.3333333333334</ele><time>2026-03-31T10:35:03Z</time></trkpt><trkpt lat="45.731545397426174" lon="9.952145893938637"><ele>983.5</ele><time>2026-03-31T10:35:04Z</time></trkpt><trkpt lat="45.73148455833331" lon="9.952191961945244"><ele>984.6666666666667</ele><time>2026-03-31T10:35:05Z</time></trkpt><trkpt lat="45.731416757958506" lon="9.952203821381115"><ele>985.8333333333334</ele><time>2026-03-31T10:35:06Z</time></trkpt><trkpt lat="45.73130255476254" lon="9.952194310266599"><ele>987.0</ele><time>2026-03-31T10:35:08Z</time></trkpt><trkpt lat="45.73119008880826" lon="9.952225013611121"><ele>987.0</ele><time>2026-03-31T10:35:10Z</time></trkpt><trkpt lat="45.73110800681714" lon="9.952352401092854"><ele>987.0</ele><time>2026-03-31T10:35:12Z</time></trkpt><trkpt lat="45.73106547076405" lon="9.952521295207907"><ele>987.0</ele><time>2026-03-31T10:35:14Z</time></trkpt><trkpt lat="45.731028240570666" lon="9.95268321295234"><ele>987.0</ele><time>2026-03-31T10:35:16Z</time></trkpt><trkpt lat="45.73099597868418" lon="9.952844321565154"><ele>987.4000000000001</ele><time>2026-03-31T10:35:18Z</time></trkpt><trkpt lat="45.730972258370514" lon="9.953003423992904"><ele>987.8000000000001</ele><time>2026-03-31T10:35:20Z</time></trkpt><trkpt lat="45.73091211156654" lon="9.95314562934677"><ele>988.2</ele><time>2026-03-31T10:35:22Z</time></trkpt><trkpt lat="45.73081347496107" lon="9.953219889379264"><ele>988.6</ele><time>2026-03-31T10:35:24Z</time></trkpt><trkpt lat="45.73071748306111" lon="9.953275093919993"><ele>989.0</ele><time>2026-03-31T10:35:26Z</time></trkpt><trkpt lat="45.73068270655042" lon="9.953422129839806"><ele>991.2</ele><time>2026-03-31T10:35:28Z</time></trkpt><trkpt lat="45.73076870446342" lon="9.953527172243215"><ele>993.4000000000001</ele><time>2026-03-31T10:35:30Z</time></trkpt><trkpt lat="45.73087330340041" lon="9.953530019800757"><ele>995.6</ele><time>2026-03-31T10:35:32Z</time></trkpt><trkpt lat="45.730965070134104" lon="9.953576987494811"><ele>997.8</ele><time>2026-03-31T10:35:34Z</time></trkpt><trkpt lat="45.731055153658374" lon="9.953635918498572"><ele>1000.0</ele><time>2026-03-31T10:35:36Z</time></trkpt><trkpt lat="45.73116960014927" lon="9.95366038780429"><ele>1000.25</ele><time>2026-03-31T10:35:38Z</time></trkpt><trkpt lat="45.731288712453235" lon="9.953589495045835"><ele>1000.5</ele><time>2026-03-31T10:35:40Z</time></trkpt><trkpt lat="45.73132249754387" lon="9.953434579112402"><ele>1000.75</ele><time>2026-03-31T10:35:42Z</time></trkpt><trkpt lat="45.731354263376375" lon="9.95327361772582"><ele>1001.0</ele><time>2026-03-31T10:35:44Z</time></trkpt><trkpt lat="45.73141824645162" lon="9.953124050317497"><ele>1001.0000000000001</ele><time>2026-03-31T10:35:46Z</time></trkpt><trkpt lat="45.73146050604827" lon="9.953053717595829"><ele>1001.0</ele><time>2026-03-31T10:35:47Z</time></trkpt><trkpt lat="45.731509327130475" lon="9.952995020460772"><ele>1001.0</ele><time>2026-03-31T10:35:48Z</time></trkpt><trkpt lat="45.73159935802691" lon="9.95287722327343"><ele>1001.0</ele><time>2026-03-31T10:35:50Z</time></trkpt><trkpt lat="45.73170977465988" lon="9.952786132835163"><ele>1001.0000000000001</ele><time>2026-03-31T10:35:52Z</time></trkpt><trkpt lat="45.73176546828717" lon="9.952743618669881"><ele>1001.0</ele><time>2026-03-31T10:35:53Z</time></trkpt><trkpt lat="45.73187606567307" lon="9.952664204696903"><ele>1001.6666666666667</ele><time>2026-03-31T10:35:55Z</time></trkpt><trkpt lat="45.731985732442126" lon="9.952583365450975"><ele>1002.3333333333334</ele><time>2026-03-31T10:35:57Z</time></trkpt><trkpt lat="45.732033878303824" lon="9.952523505413511"><ele>1003.0</ele><time>2026-03-31T10:35:58Z</time></trkpt><trkpt lat="45.73206705673799" lon="9.952444082736683"><ele>1003.6666666666667</ele><time>2026-03-31T10:35:59Z</time></trkpt><trkpt lat="45.7320810208815" lon="9.95235518845547"><ele>1004.3333333333334</ele><time>2026-03-31T10:36:00Z</time></trkpt><trkpt lat="45.7320852305694" lon="9.952187712245264"><ele>1005.0</ele><time>2026-03-31T10:36:02Z</time></trkpt><trkpt lat="45.73212964363202" lon="9.952040639103792"><ele>1005.0</ele><time>2026-03-31T10:36:04Z</time></trkpt><trkpt lat="45.73223012779846" lon="9.951973625686938"><ele>1005.0</ele><time>2026-03-31T10:36:06Z</time></trkpt><trkpt lat="45.73233841045977" lon="9.951933397123582"><ele>1005.0</ele><time>2026-03-31T10:36:08Z</time></trkpt><trkpt lat="45.73243868690322" lon="9.951926209424437"><ele>1005.0</ele><time>2026-03-31T10:36:10Z</time></trkpt><trkpt lat="45.7324897071596" lon="9.952088242285278"><ele>1005.0</ele><time>2026-03-31T10:36:12Z</time></trkpt><trkpt lat="45.73245843949078" lon="9.952171675319715"><ele>1005.0</ele><time>2026-03-31T10:36:13Z</time></trkpt><trkpt lat="45.73240104568146" lon="9.952315805765751"><ele>1005.0</ele><time>2026-03-31T10:36:15Z</time></trkpt><trkpt lat="45.73238590485838" lon="9.952478368766403"><ele>1005.0</ele><time>2026-03-31T10:36:17Z</time></trkpt><trkpt lat="45.73239427555541" lon="9.95263969908329"><ele>1005.0</ele><time>2026-03-31T10:36:19Z</time></trkpt><trkpt lat="45.73241924250711" lon="9.952783407715728"><ele>1005.0</ele><time>2026-03-31T10:36:21Z</time></trkpt><trkpt lat="45.732448923188144" lon="9.952940205983118"><ele>1007.8</ele><time>2026-03-31T10:36:23Z</time></trkpt><trkpt lat="45.73246113314991" lon="9.95308011661486"><ele>1010.6</ele><time>2026-03-31T10:36:25Z</time></trkpt><trkpt lat="45.73247126345742" lon="9.953227194236824"><ele>1013.4000000000001</ele><time>2026-03-31T10:36:27Z</time></trkpt><trkpt lat="45.73242597142342" lon="9.953372035022202"><ele>1016.2</ele><time>2026-03-31T10:36:29Z</time></trkpt><trkpt lat="45.732368495552386" lon="9.953409965033392"><ele>1019.0</ele><time>2026-03-31T10:36:30Z</time></trkpt><trkpt lat="45.73225284399788" lon="9.95341891437732"><ele>1021.6666666666667</ele><time>2026-03-31T10:36:32Z</time></trkpt><trkpt lat="45.73218586606645" lon="9.953400395240921"><ele>1024.3333333333335</ele><time>2026-03-31T10:36:33Z</time></trkpt><trkpt lat="45.73206852897047" lon="9.953374646523814"><ele>1027.0</ele><time>2026-03-31T10:36:35Z</time></trkpt><trkpt lat="45.73198411623625" lon="9.95347102240727"><ele>1029.6666666666667</ele><time>2026-03-31T10:36:37Z</time></trkpt><trkpt lat="45.731986830797" lon="9.953564822826248"><ele>1032.3333333333333</ele><time>2026-03-31T10:36:38Z</time></trkpt><trkpt lat="45.732036860563" lon="9.95363658258938"><ele>1035.0</ele><time>2026-03-31T10:36:39Z</time></trkpt><trkpt lat="45.73210646946504" lon="9.953653894680635"><ele>1035.0</ele><time>2026-03-31T10:36:40Z</time></trkpt><trkpt lat="45.73222582689446" lon="9.95360683123534"><ele>1035.0</ele><time>2026-03-31T10:36:42Z</time></trkpt><trkpt lat="45.7323370031091" lon="9.953630992470462"><ele>1035.0</ele><time>2026-03-31T10:36:44Z</time></trkpt><trkpt lat="45.732449789481656" lon="9.953639367320864"><ele>1035.0</ele><time>2026-03-31T10:36:46Z</time></trkpt><trkpt lat="45.73256347891615" lon="9.953636042730407"><ele>1035.0</ele><time>2026-03-31T10:36:48Z</time></trkpt><trkpt lat="45.73266321399366" lon="9.953555428416896"><ele>1035.0</ele><time>2026-03-31T10:36:50Z</time></trkpt><trkpt lat="45.73271778809723" lon="9.95340970231945"><ele>1035.0</ele><time>2026-03-31T10:36:52Z</time></trkpt><trkpt lat="45.73276020953359" lon="9.953255801615375"><ele>1035.0</ele><time>2026-03-31T10:36:54Z</time></trkpt><trkpt lat="45.7328102862936" lon="9.953115004640441"><ele>1036.3333333333333</ele><time>2026-03-31T10:36:56Z</time></trkpt><trkpt lat="45.73287066553057" lon="9.952985088023345"><ele>1037.6666666666667</ele><time>2026-03-31T10:36:58Z</time></trkpt><trkpt lat="45.732920328431526" lon="9.952874622537314"><ele>1039.0</ele><time>2026-03-31T10:37:00Z</time></trkpt><trkpt lat="45.73297310984994" lon="9.95282291855558"><ele>1040.3333333333335</ele><time>2026-03-31T10:37:02Z</time></trkpt><trkpt lat="45.733040433587064" lon="9.952868712200868"><ele>1041.6666666666667</ele><time>2026-03-31T10:37:04Z</time></trkpt><trkpt lat="45.73311456930951" lon="9.952871455151044"><ele>1043.0</ele><time>2026-03-31T10:37:07Z</time></trkpt><trkpt lat="45.73308673820289" lon="9.95298412236218"><ele>1043.0</ele><time>2026-03-31T10:38:11Z</time></trkpt><trkpt lat="45.7330338069192" lon="9.953076278622765"><ele>1043.0</ele><time>2026-03-31T10:38:13Z</time></trkpt><trkpt lat="45.73299118354265" lon="9.953171046194875"><ele>1043.0</ele><time>2026-03-31T10:38:15Z</time></trkpt><trkpt lat="45.732947122964106" lon="9.953283401252225"><ele>1043.0</ele><time>2026-03-31T10:38:17Z</time></trkpt><trkpt lat="45.73291419591887" lon="9.953418415416559"><ele>1043.0</ele><time>2026-03-31T10:38:19Z</time></trkpt><trkpt lat="45.73288230797557" lon="9.953575421635168"><ele>1041.4</ele><time>2026-03-31T10:38:21Z</time></trkpt><trkpt lat="45.73284423822558" lon="9.953738578051885"><ele>1039.8</ele><time>2026-03-31T10:38:23Z</time></trkpt><trkpt lat="45.73278671479134" lon="9.953882059284252"><ele>1038.2</ele><time>2026-03-31T10:38:25Z</time></trkpt><trkpt lat="45.73272688884601" lon="9.953973430300582"><ele>1036.6</ele><time>2026-03-31T10:38:27Z</time></trkpt><trkpt lat="45.73265012767218" lon="9.954072528968076"><ele>1035.0</ele><time>2026-03-31T10:38:29Z</time></trkpt><trkpt lat="45.73259722844364" lon="9.954129289155649"><ele>1039.0</ele><time>2026-03-31T10:38:30Z</time></trkpt><trkpt lat="45.732508770472315" lon="9.954209201624026"><ele>1043.0</ele><time>2026-03-31T10:38:32Z</time></trkpt><trkpt lat="45.73241624485173" lon="9.954285746963016"><ele>1047.0</ele><time>2026-03-31T10:38:34Z</time></trkpt><trkpt lat="45.7323991550407" lon="9.95444234045724"><ele>1051.0</ele><time>2026-03-31T10:38:36Z</time></trkpt><trkpt lat="45.732533718447584" lon="9.95448735776827"><ele>1051.0</ele><time>2026-03-31T10:38:38Z</time></trkpt><trkpt lat="45.732623380981195" lon="9.954389490222031"><ele>1051.0</ele><time>2026-03-31T10:38:40Z</time></trkpt><trkpt lat="45.73271709667621" lon="9.954284285404679"><ele>1051.0</ele><time>2026-03-31T10:38:42Z</time></trkpt><trkpt lat="45.732815920260926" lon="9.95420147555396"><ele>1051.0</ele><time>2026-03-31T10:38:44Z</time></trkpt><trkpt lat="45.732907347726574" lon="9.954106737825882"><ele>1052.0</ele><time>2026-03-31T10:38:46Z</time></trkpt><trkpt lat="45.733003028758816" lon="9.953999871367461"><ele>1053.0</ele><time>2026-03-31T10:38:48Z</time></trkpt><trkpt lat="45.73308521350506" lon="9.953904194006888"><ele>1054.0</ele><time>2026-03-31T10:38:50Z</time></trkpt><trkpt lat="45.733170045732045" lon="9.953801043320507"><ele>1055.0</ele><time>2026-03-31T10:38:52Z</time></trkpt><trkpt lat="45.733245564977324" lon="9.9536828121292"><ele>1055.0</ele><time>2026-03-31T10:38:54Z</time></trkpt><trkpt lat="45.73332771917033" lon="9.95358273759126"><ele>1055.0</ele><time>2026-03-31T10:38:56Z</time></trkpt><trkpt lat="45.733409895158374" lon="9.953487745886324"><ele>1055.0</ele><time>2026-03-31T10:38:58Z</time></trkpt><trkpt lat="45.73350254193824" lon="9.95341223958573"><ele>1055.0</ele><time>2026-03-31T10:39:00Z</time></trkpt><trkpt lat="45.7335942480338" lon="9.953359890201286"><ele>1055.0</ele><time>2026-03-31T10:39:02Z</time></trkpt><trkpt lat="45.73366880362012" lon="9.953482278126478"><ele>1055.0</ele><time>2026-03-31T10:39:04Z</time></trkpt><trkpt lat="45.73364619183192" lon="9.95362401957783"><ele>1055.0</ele><time>2026-03-31T10:39:06Z</time></trkpt><trkpt lat="45.73358677932346" lon="9.953736449474663"><ele>1055.0</ele><time>2026-03-31T10:39:08Z</time></trkpt><trkpt lat="45.73352649465574" lon="9.95386306119503"><ele>1055.0</ele><time>2026-03-31T10:39:10Z</time></trkpt><trkpt lat="45.733469239619794" lon="9.954001588554657"><ele>1055.0</ele><time>2026-03-31T10:39:12Z</time></trkpt><trkpt lat="45.733411035662456" lon="9.95413822455724"><ele>1057.75</ele><time>2026-03-31T10:39:14Z</time></trkpt><trkpt lat="45.7333488454871" lon="9.954282249332884"><ele>1060.5</ele><time>2026-03-31T10:39:16Z</time></trkpt><trkpt lat="45.733275208143596" lon="9.954424215929354"><ele>1063.25</ele><time>2026-03-31T10:39:18Z</time></trkpt><trkpt lat="45.733207247779994" lon="9.954553615343164"><ele>1066.0</ele><time>2026-03-31T10:39:20Z</time></trkpt><trkpt lat="45.733122229890284" lon="9.954664830707355"><ele>1066.0</ele><time>2026-03-31T10:39:22Z</time></trkpt><trkpt lat="45.73304217391352" lon="9.954779217731293"><ele>1066.0</ele><time>2026-03-31T10:39:24Z</time></trkpt><trkpt lat="45.732966910033646" lon="9.954892660946523"><ele>1066.0</ele><time>2026-03-31T10:39:26Z</time></trkpt><trkpt lat="45.73294595740617" lon="9.955053579998387"><ele>1066.0</ele><time>2026-03-31T10:39:28Z</time></trkpt><trkpt lat="45.73297550351866" lon="9.955197505885772"><ele>1066.0</ele><time>2026-03-31T10:39:30Z</time></trkpt><trkpt lat="45.73304170246997" lon="9.955282569237205"><ele>1064.5714285714284</ele><time>2026-03-31T10:39:32Z</time></trkpt><trkpt lat="45.733095082329" lon="9.955346414977457"><ele>1063.142857142857</ele><time>2026-03-31T10:39:34Z</time></trkpt><trkpt lat="45.73314664139097" lon="9.955438434309697"><ele>1061.7142857142858</ele><time>2026-03-31T10:39:37Z</time></trkpt><trkpt lat="45.73315102201357" lon="9.955538334580643"><ele>1060.2857142857142</ele><time>2026-03-31T10:39:40Z</time></trkpt><trkpt lat="45.73314126469843" lon="9.955438436752956"><ele>1058.857142857143</ele><time>2026-03-31T10:40:22Z</time></trkpt><trkpt lat="45.733171624891824" lon="9.955520496812628"><ele>1057.4285714285713</ele><time>2026-03-31T10:40:50Z</time></trkpt><trkpt lat="45.7331830201529" lon="9.95561529396782"><ele>1056.0</ele><time>2026-03-31T10:40:58Z</time></trkpt><trkpt lat="45.73324787795902" lon="9.955599258840731"><ele>1056.0</ele><time>2026-03-31T10:42:40Z</time></trkpt><trkpt lat="45.73328663098391" lon="9.955476656919577"><ele>1056.0</ele><time>2026-03-31T10:42:44Z</time></trkpt><trkpt lat="45.73328498209587" lon="9.955326781596021"><ele>1056.0</ele><time>2026-03-31T10:42:46Z</time></trkpt><trkpt lat="45.73333372572056" lon="9.955192394859132"><ele>1056.0</ele><time>2026-03-31T10:42:48Z</time></trkpt><trkpt lat="45.73340910067406" lon="9.95512931055399"><ele>1056.0</ele><time>2026-03-31T10:42:50Z</time></trkpt><trkpt lat="45.733469525261626" lon="9.955047121801114"><ele>1057.6666666666667</ele><time>2026-03-31T10:42:52Z</time></trkpt><trkpt lat="45.73353237457705" lon="9.954963598761717"><ele>1059.3333333333333</ele><time>2026-03-31T10:42:54Z</time></trkpt><trkpt lat="45.73359969734416" lon="9.954880766525202"><ele>1061.0</ele><time>2026-03-31T10:42:56Z</time></trkpt><trkpt lat="45.733668717082054" lon="9.954792115073527"><ele>1062.6666666666665</ele><time>2026-03-31T10:42:58Z</time></trkpt><trkpt lat="45.733739379346346" lon="9.95470808569893"><ele>1064.3333333333333</ele><time>2026-03-31T10:43:00Z</time></trkpt><trkpt lat="45.73380937011415" lon="9.954636356741453"><ele>1066.0</ele><time>2026-03-31T10:43:02Z</time></trkpt><trkpt lat="45.73388804254532" lon="9.954567389787474"><ele>1068.6</ele><time>2026-03-31T10:43:04Z</time></trkpt><trkpt lat="45.73396208244501" lon="9.95448796177954"><ele>1071.1999999999998</ele><time>2026-03-31T10:43:06Z</time></trkpt><trkpt lat="45.734041971936996" lon="9.954409065695371"><ele>1073.8000000000002</ele><time>2026-03-31T10:43:08Z</time></trkpt><trkpt lat="45.73411904492733" lon="9.95433052005264"><ele>1076.4</ele><time>2026-03-31T10:43:10Z</time></trkpt><trkpt lat="45.73419700632266" lon="9.954249094473068"><ele>1079.0</ele><time>2026-03-31T10:43:12Z</time></trkpt><trkpt lat="45.73426965042781" lon="9.954162980520707"><ele>1079.0</ele><time>2026-03-31T10:43:14Z</time></trkpt><trkpt lat="45.73433553470433" lon="9.954062910860916"><ele>1079.0</ele><time>2026-03-31T10:43:16Z</time></trkpt><trkpt lat="45.734395888031806" lon="9.953956528400624"><ele>1079.0</ele><time>2026-03-31T10:43:18Z</time></trkpt><trkpt lat="45.73446127934523" lon="9.953853058686184"><ele>1079.0</ele><time>2026-03-31T10:43:20Z</time></trkpt><trkpt lat="45.73452435237963" lon="9.953759711941911"><ele>1079.0</ele><time>2026-03-31T10:43:22Z</time></trkpt><trkpt lat="45.73458471012166" lon="9.953661928475595"><ele>1082.2</ele><time>2026-03-31T10:43:24Z</time></trkpt><trkpt lat="45.73466665486387" lon="9.953583371399018"><ele>1085.4</ele><time>2026-03-31T10:43:26Z</time></trkpt><trkpt lat="45.734730093716344" lon="9.953492723781258"><ele>1088.6</ele><time>2026-03-31T10:43:28Z</time></trkpt><trkpt lat="45.73480239095423" lon="9.95342305216975"><ele>1091.8</ele><time>2026-03-31T10:43:30Z</time></trkpt><trkpt lat="45.7348738894379" lon="9.953328763706487"><ele>1095.0</ele><time>2026-03-31T10:43:32Z</time></trkpt><trkpt lat="45.73494296131307" lon="9.953240792664682"><ele>1095.0</ele><time>2026-03-31T10:43:34Z</time></trkpt><trkpt lat="45.7350278556219" lon="9.953167715331398"><ele>1095.0</ele><time>2026-03-31T10:43:36Z</time></trkpt><trkpt lat="45.73510660393366" lon="9.953094402863865"><ele>1095.0</ele><time>2026-03-31T10:43:38Z</time></trkpt><trkpt lat="45.73520194292124" lon="9.953054378653999"><ele>1095.0</ele><time>2026-03-31T10:43:40Z</time></trkpt><trkpt lat="45.73529823380938" lon="9.95302743379016"><ele>1095.0</ele><time>2026-03-31T10:43:42Z</time></trkpt><trkpt lat="45.73539234482982" lon="9.952997396285895"><ele>1099.2</ele><time>2026-03-31T10:43:44Z</time></trkpt><trkpt lat="45.73548469726752" lon="9.952948814432082"><ele>1103.4</ele><time>2026-03-31T10:43:46Z</time></trkpt><trkpt lat="45.73556995434907" lon="9.952872912375161"><ele>1107.6</ele><time>2026-03-31T10:43:48Z</time></trkpt><trkpt lat="45.73564446937799" lon="9.952770556289636"><ele>1111.8</ele><time>2026-03-31T10:43:50Z</time></trkpt><trkpt lat="45.7357077292154" lon="9.952655136569508"><ele>1116.0</ele><time>2026-03-31T10:43:52Z</time></trkpt><trkpt lat="45.73577191015212" lon="9.952544408551486"><ele>1114.2</ele><time>2026-03-31T10:43:54Z</time></trkpt><trkpt lat="45.7358425764817" lon="9.952437932994226"><ele>1112.3999999999999</ele><time>2026-03-31T10:43:56Z</time></trkpt><trkpt lat="45.73592091778155" lon="9.952336280417908"><ele>1110.6</ele><time>2026-03-31T10:43:58Z</time></trkpt><trkpt lat="45.73600153744457" lon="9.952230705181783"><ele>1108.8</ele><time>2026-03-31T10:44:00Z</time></trkpt><trkpt lat="45.7360829778544" lon="9.952131548745045"><ele>1107.0</ele><time>2026-03-31T10:44:02Z</time></trkpt><trkpt lat="45.73616488284207" lon="9.952039301384232"><ele>1110.6</ele><time>2026-03-31T10:44:04Z</time></trkpt><trkpt lat="45.736241708739804" lon="9.951942106216746"><ele>1114.2</ele><time>2026-03-31T10:44:06Z</time></trkpt><trkpt lat="45.7363175826279" lon="9.95185076573183"><ele>1117.8</ele><time>2026-03-31T10:44:08Z</time></trkpt><trkpt lat="45.736384693982984" lon="9.951744200508763"><ele>1121.4</ele><time>2026-03-31T10:44:10Z</time></trkpt><trkpt lat="45.736450841782414" lon="9.951646034190091"><ele>1125.0</ele><time>2026-03-31T10:44:12Z</time></trkpt><trkpt lat="45.736517991102446" lon="9.951553550195719"><ele>1125.0</ele><time>2026-03-31T10:44:14Z</time></trkpt><trkpt lat="45.73658059306161" lon="9.951451268921343"><ele>1125.0</ele><time>2026-03-31T10:44:16Z</time></trkpt><trkpt lat="45.73664391058508" lon="9.95134191857378"><ele>1125.0</ele><time>2026-03-31T10:44:18Z</time></trkpt><trkpt lat="45.73670562237768" lon="9.951232136882199"><ele>1125.0</ele><time>2026-03-31T10:44:20Z</time></trkpt><trkpt lat="45.736763247708545" lon="9.951113844724823"><ele>1125.0</ele><time>2026-03-31T10:44:22Z</time></trkpt><trkpt lat="45.73681782628543" lon="9.95098977812855"><ele>1123.8</ele><time>2026-03-31T10:44:24Z</time></trkpt><trkpt lat="45.736873485847624" lon="9.950865167272697"><ele>1122.6</ele><time>2026-03-31T10:44:26Z</time></trkpt><trkpt lat="45.73692736605228" lon="9.950738680246573"><ele>1121.4</ele><time>2026-03-31T10:44:28Z</time></trkpt><trkpt lat="45.73697547077175" lon="9.9506055532425"><ele>1120.2</ele><time>2026-03-31T10:44:30Z</time></trkpt><trkpt lat="45.7370314408063" lon="9.950476709594268"><ele>1119.0</ele><time>2026-03-31T10:44:32Z</time></trkpt><trkpt lat="45.737086090930646" lon="9.950347771343578"><ele>1122.8</ele><time>2026-03-31T10:44:34Z</time></trkpt><trkpt lat="45.737149814384665" lon="9.950228594678274"><ele>1126.6000000000001</ele><time>2026-03-31T10:44:36Z</time></trkpt><trkpt lat="45.73721355216907" lon="9.95011272192325"><ele>1130.4</ele><time>2026-03-31T10:44:38Z</time></trkpt><trkpt lat="45.73728614088265" lon="9.950011190314482"><ele>1134.2</ele><time>2026-03-31T10:44:40Z</time></trkpt><trkpt lat="45.737362585092676" lon="9.949911979139806"><ele>1138.0</ele><time>2026-03-31T10:44:42Z</time></trkpt><trkpt lat="45.737445644387364" lon="9.94982481102344"><ele>1138.0</ele><time>2026-03-31T10:44:44Z</time></trkpt><trkpt lat="45.737527761203104" lon="9.949741526111945"><ele>1138.0</ele><time>2026-03-31T10:44:46Z</time></trkpt><trkpt lat="45.73761270615075" lon="9.949666138237061"><ele>1138.0</ele><time>2026-03-31T10:44:48Z</time></trkpt><trkpt lat="45.73770087450744" lon="9.949602848057399"><ele>1138.0</ele><time>2026-03-31T10:44:50Z</time></trkpt><trkpt lat="45.73779047221868" lon="9.949525622417294"><ele>1138.0</ele><time>2026-03-31T10:44:52Z</time></trkpt><trkpt lat="45.737871305268854" lon="9.949432718883285"><ele>1140.8</ele><time>2026-03-31T10:44:54Z</time></trkpt><trkpt lat="45.737931686895486" lon="9.94935068701519"><ele>1143.6</ele><time>2026-03-31T10:44:56Z</time></trkpt><trkpt lat="45.73799585600793" lon="9.949218692939612"><ele>1146.4</ele><time>2026-03-31T10:44:58Z</time></trkpt><trkpt lat="45.73806177445895" lon="9.949113034937849"><ele>1149.2</ele><time>2026-03-31T10:45:00Z</time></trkpt><trkpt lat="45.73814604012409" lon="9.949034264501922"><ele>1152.0</ele><time>2026-03-31T10:45:02Z</time></trkpt><trkpt lat="45.73824406546176" lon="9.948960331503836"><ele>1152.0</ele><time>2026-03-31T10:45:04Z</time></trkpt><trkpt lat="45.738336000029" lon="9.948911470277414"><ele>1152.0</ele><time>2026-03-31T10:45:06Z</time></trkpt><trkpt lat="45.73843805721228" lon="9.948882557590844"><ele>1152.0</ele><time>2026-03-31T10:45:08Z</time></trkpt><trkpt lat="45.738539573504575" lon="9.948856403677707"><ele>1152.0</ele><time>2026-03-31T10:45:10Z</time></trkpt><trkpt lat="45.73864312892203" lon="9.948840926530144"><ele>1152.0</ele><time>2026-03-31T10:45:12Z</time></trkpt><trkpt lat="45.73873085100475" lon="9.948848156750936"><ele>1155.6</ele><time>2026-03-31T10:45:14Z</time></trkpt><trkpt lat="45.73882776069497" lon="9.948823525553168"><ele>1159.2</ele><time>2026-03-31T10:45:16Z</time></trkpt><trkpt lat="45.73892732713018" lon="9.948795849174068"><ele>1162.8</ele><time>2026-03-31T10:45:18Z</time></trkpt><trkpt lat="45.7390294470866" lon="9.948744001247169"><ele>1166.4</ele><time>2026-03-31T10:45:20Z</time></trkpt><trkpt lat="45.739100940318885" lon="9.948636882767536"><ele>1170.0</ele><time>2026-03-31T10:45:22Z</time></trkpt><trkpt lat="45.73915283745961" lon="9.948516629260725"><ele>1170.0</ele><time>2026-03-31T10:45:24Z</time></trkpt><trkpt lat="45.73921520768554" lon="9.948398872671305"><ele>1170.0</ele><time>2026-03-31T10:45:26Z</time></trkpt><trkpt lat="45.7392905707796" lon="9.948303470041564"><ele>1170.0</ele><time>2026-03-31T10:45:28Z</time></trkpt><trkpt lat="45.739377665016605" lon="9.948227006624375"><ele>1170.0</ele><time>2026-03-31T10:45:30Z</time></trkpt><trkpt lat="45.739474427231144" lon="9.948157427385963"><ele>1170.0</ele><time>2026-03-31T10:45:32Z</time></trkpt><trkpt lat="45.73957659371179" lon="9.948091454065384"><ele>1171.6</ele><time>2026-03-31T10:45:34Z</time></trkpt><trkpt lat="45.73967278906573" lon="9.948033817001967"><ele>1173.2</ele><time>2026-03-31T10:45:36Z</time></trkpt><trkpt lat="45.73976440329639" lon="9.94796982329114"><ele>1174.8</ele><time>2026-03-31T10:45:38Z</time></trkpt><trkpt lat="45.73985423697095" lon="9.947908236929665"><ele>1176.4</ele><time>2026-03-31T10:45:40Z</time></trkpt><trkpt lat="45.73992796415338" lon="9.9478184224325"><ele>1178.0</ele><time>2026-03-31T10:45:42Z</time></trkpt><trkpt lat="45.74000638116419" lon="9.94774150849206"><ele>1178.0</ele><time>2026-03-31T10:45:44Z</time></trkpt><trkpt lat="45.74007760323961" lon="9.947655106334215"><ele>1178.0</ele><time>2026-03-31T10:45:46Z</time></trkpt><trkpt lat="45.740159679626004" lon="9.947576364724728"><ele>1178.0</ele><time>2026-03-31T10:45:48Z</time></trkpt><trkpt lat="45.74022414663862" lon="9.947466837585432"><ele>1178.0</ele><time>2026-03-31T10:45:50Z</time></trkpt><trkpt lat="45.74028990931901" lon="9.947369840216847"><ele>1178.0</ele><time>2026-03-31T10:45:52Z</time></trkpt><trkpt lat="45.740358550251926" lon="9.94727397392285"><ele>1179.8</ele><time>2026-03-31T10:45:54Z</time></trkpt><trkpt lat="45.740419668583264" lon="9.947169336549436"><ele>1181.6</ele><time>2026-03-31T10:45:56Z</time></trkpt><trkpt lat="45.74047154425672" lon="9.947040382891064"><ele>1183.4</ele><time>2026-03-31T10:45:58Z</time></trkpt><trkpt lat="45.74051990328861" lon="9.94690629783544"><ele>1185.2</ele><time>2026-03-31T10:46:00Z</time></trkpt><trkpt lat="45.74057534961078" lon="9.946789613372106"><ele>1187.0</ele><time>2026-03-31T10:46:02Z</time></trkpt><trkpt lat="45.740627648376815" lon="9.946672466871611"><ele>1187.0</ele><time>2026-03-31T10:46:04Z</time></trkpt><trkpt lat="45.74067608736522" lon="9.946535842529643"><ele>1187.0</ele><time>2026-03-31T10:46:06Z</time></trkpt><trkpt lat="45.740752138646755" lon="9.946444121872286"><ele>1187.0</ele><time>2026-03-31T10:46:08Z</time></trkpt><trkpt lat="45.74081975291278" lon="9.946339441398267"><ele>1187.0</ele><time>2026-03-31T10:46:10Z</time></trkpt><trkpt lat="45.74088930452209" lon="9.946218790614918"><ele>1187.0</ele><time>2026-03-31T10:46:12Z</time></trkpt><trkpt lat="45.74092896342002" lon="9.946082997279492"><ele>1187.0</ele><time>2026-03-31T10:46:14Z</time></trkpt><trkpt lat="45.74095506750124" lon="9.945946398170507"><ele>1187.0</ele><time>2026-03-31T10:46:16Z</time></trkpt><trkpt lat="45.74098030944028" lon="9.94581423604264"><ele>1187.0</ele><time>2026-03-31T10:46:18Z</time></trkpt><trkpt lat="45.741006359424276" lon="9.945707325879274"><ele>1187.0</ele><time>2026-03-31T10:46:20Z</time></trkpt><trkpt lat="45.741036725499065" lon="9.94557379071291"><ele>1187.0</ele><time>2026-03-31T10:46:22Z</time></trkpt><trkpt lat="45.741076491498234" lon="9.945435692653183"><ele>1192.2</ele><time>2026-03-31T10:46:24Z</time></trkpt><trkpt lat="45.74111097068995" lon="9.945306319028694"><ele>1197.4</ele><time>2026-03-31T10:46:26Z</time></trkpt><trkpt lat="45.74115388755257" lon="9.94519710666434"><ele>1202.6</ele><time>2026-03-31T10:46:28Z</time></trkpt><trkpt lat="45.741186949641516" lon="9.945073795446998"><ele>1207.8</ele><time>2026-03-31T10:46:30Z</time></trkpt><trkpt lat="45.741231646127396" lon="9.944960914434484"><ele>1213.0</ele><time>2026-03-31T10:46:32Z</time></trkpt><trkpt lat="45.7412739520684" lon="9.94484235839337"><ele>1213.0</ele><time>2026-03-31T10:46:34Z</time></trkpt><trkpt lat="45.74131119038985" lon="9.944716822386983"><ele>1213.0</ele><time>2026-03-31T10:46:36Z</time></trkpt><trkpt lat="45.741357832746964" lon="9.944604926448047"><ele>1213.0</ele><time>2026-03-31T10:46:38Z</time></trkpt><trkpt lat="45.74140437984967" lon="9.944503581082914"><ele>1213.0</ele><time>2026-03-31T10:46:40Z</time></trkpt><trkpt lat="45.74144920865086" lon="9.944406346031222"><ele>1213.0</ele><time>2026-03-31T10:46:42Z</time></trkpt><trkpt lat="45.741484886686095" lon="9.944326915937308"><ele>1213.0</ele><time>2026-03-31T10:46:44Z</time></trkpt><trkpt lat="45.7415352386325" lon="9.944226287944783"><ele>1211.6666666666665</ele><time>2026-03-31T10:47:29Z</time></trkpt><trkpt lat="45.74160087012999" lon="9.944124206647079"><ele>1210.3333333333333</ele><time>2026-03-31T10:47:32Z</time></trkpt><trkpt lat="45.7416444139516" lon="9.944046028644236"><ele>1209.0</ele><time>2026-03-31T10:47:34Z</time></trkpt><trkpt lat="45.74171489395722" lon="9.943970337774171"><ele>1207.6666666666667</ele><time>2026-03-31T10:47:37Z</time></trkpt><trkpt lat="45.74179014630506" lon="9.943876424343255"><ele>1206.3333333333335</ele><time>2026-03-31T10:47:40Z</time></trkpt><trkpt lat="45.741861522665246" lon="9.94379904665725"><ele>1205.0</ele><time>2026-03-31T10:47:42Z</time></trkpt><trkpt lat="45.741942535669814" lon="9.943719515870963"><ele>1206.4</ele><time>2026-03-31T10:47:44Z</time></trkpt><trkpt lat="45.74202435883481" lon="9.943627725985257"><ele>1207.8</ele><time>2026-03-31T10:47:46Z</time></trkpt><trkpt lat="45.74209987295534" lon="9.943526842900301"><ele>1209.2</ele><time>2026-03-31T10:47:48Z</time></trkpt><trkpt lat="45.74216497699127" lon="9.943410145441941"><ele>1210.6</ele><time>2026-03-31T10:47:50Z</time></trkpt><trkpt lat="45.7422175491511" lon="9.943290528056343"><ele>1212.0</ele><time>2026-03-31T10:47:52Z</time></trkpt><trkpt lat="45.74225855747338" lon="9.943161177491538"><ele>1212.0</ele><time>2026-03-31T10:47:54Z</time></trkpt><trkpt lat="45.742282671207924" lon="9.943000151365956"><ele>1212.0</ele><time>2026-03-31T10:47:56Z</time></trkpt><trkpt lat="45.74233061765773" lon="9.942878007569956"><ele>1212.0</ele><time>2026-03-31T10:47:58Z</time></trkpt><trkpt lat="45.74240961450941" lon="9.942834713008748"><ele>1212.0</ele><time>2026-03-31T10:48:00Z</time></trkpt><trkpt lat="45.742500404477" lon="9.942790010525863"><ele>1212.0</ele><time>2026-03-31T10:48:03Z</time></trkpt><trkpt lat="45.74255428869892" lon="9.942712491291068"><ele>1212.0</ele><time>2026-03-31T10:48:05Z</time></trkpt><trkpt lat="45.7425776117854" lon="9.942595039405028"><ele>1212.0</ele><time>2026-03-31T10:48:07Z</time></trkpt><trkpt lat="45.74257863456614" lon="9.942469948016324"><ele>1212.0</ele><time>2026-03-31T10:48:09Z</time></trkpt><trkpt lat="45.74259308511426" lon="9.942370965146369"><ele>1212.0</ele><time>2026-03-31T10:48:11Z</time></trkpt><trkpt lat="45.74265645554817" lon="9.942349800014247"><ele>1212.0</ele><time>2026-03-31T10:48:14Z</time></trkpt><trkpt lat="45.74268495948214" lon="9.942459025104604"><ele>1212.0</ele><time>2026-03-31T10:48:17Z</time></trkpt><trkpt lat="45.74263778982135" lon="9.942374710343573"><ele>1211.3333333333333</ele><time>2026-03-31T10:49:23Z</time></trkpt><trkpt lat="45.74259153650444" lon="9.942299925076785"><ele>1210.6666666666667</ele><time>2026-03-31T10:49:25Z</time></trkpt><trkpt lat="45.742544412840374" lon="9.942171993606749"><ele>1210.0</ele><time>2026-03-31T10:49:27Z</time></trkpt><trkpt lat="45.74251300889312" lon="9.942043471046697"><ele>1209.3333333333335</ele><time>2026-03-31T10:49:29Z</time></trkpt><trkpt lat="45.7424796437251" lon="9.941931211258604"><ele>1208.6666666666667</ele><time>2026-03-31T10:49:31Z</time></trkpt><trkpt lat="45.74245977577581" lon="9.941811711365064"><ele>1208.0</ele><time>2026-03-31T10:49:33Z</time></trkpt><trkpt lat="45.7424454784507" lon="9.94165896856276"><ele>1208.0</ele><time>2026-03-31T10:49:35Z</time></trkpt><trkpt lat="45.74242948038959" lon="9.941504125395008"><ele>1208.0</ele><time>2026-03-31T10:49:37Z</time></trkpt><trkpt lat="45.742410586089534" lon="9.941347422408823"><ele>1208.0</ele><time>2026-03-31T10:49:39Z</time></trkpt><trkpt lat="45.74239877873667" lon="9.94119584555362"><ele>1208.0</ele><time>2026-03-31T10:49:41Z</time></trkpt><trkpt lat="45.74239558367296" lon="9.941043932839463"><ele>1208.0</ele><time>2026-03-31T10:49:43Z</time></trkpt><trkpt lat="45.74239591169142" lon="9.940892865006925"><ele>1208.6</ele><time>2026-03-31T10:49:45Z</time></trkpt><trkpt lat="45.7424122963297" lon="9.940734652552143"><ele>1209.1999999999998</ele><time>2026-03-31T10:49:47Z</time></trkpt><trkpt lat="45.74243795723147" lon="9.940569168649198"><ele>1209.8</ele><time>2026-03-31T10:49:49Z</time></trkpt><trkpt lat="45.74246925923468" lon="9.940413884183556"><ele>1210.3999999999999</ele><time>2026-03-31T10:49:51Z</time></trkpt><trkpt lat="45.74249012804822" lon="9.940266974069075"><ele>1211.0</ele><time>2026-03-31T10:49:53Z</time></trkpt><trkpt lat="45.742512078924705" lon="9.940124396722393"><ele>1211.2</ele><time>2026-03-31T10:49:55Z</time></trkpt><trkpt lat="45.742541628853026" lon="9.939978084260849"><ele>1211.3999999999999</ele><time>2026-03-31T10:49:57Z</time></trkpt><trkpt lat="45.74258660068875" lon="9.93984603800421"><ele>1211.6</ele><time>2026-03-31T10:49:59Z</time></trkpt><trkpt lat="45.74262601447828" lon="9.939704803862659"><ele>1211.8</ele><time>2026-03-31T10:50:01Z</time></trkpt><trkpt lat="45.74264553386407" lon="9.939552103935753"><ele>1212.0</ele><time>2026-03-31T10:50:03Z</time></trkpt><trkpt lat="45.74265043282939" lon="9.939394165115623"><ele>1212.0</ele><time>2026-03-31T10:50:05Z</time></trkpt><trkpt lat="45.74266103136826" lon="9.939231407127776"><ele>1212.0</ele><time>2026-03-31T10:50:07Z</time></trkpt><trkpt lat="45.742661942593195" lon="9.939067141742148"><ele>1212.0</ele><time>2026-03-31T10:50:09Z</time></trkpt><trkpt lat="45.742667067070386" lon="9.93890229489895"><ele>1212.0</ele><time>2026-03-31T10:50:11Z</time></trkpt><trkpt lat="45.742665235265875" lon="9.938738736113278"><ele>1212.8</ele><time>2026-03-31T10:50:13Z</time></trkpt><trkpt lat="45.74266288309982" lon="9.938579294594515"><ele>1213.6</ele><time>2026-03-31T10:50:15Z</time></trkpt><trkpt lat="45.74267050733262" lon="9.93842518018143"><ele>1214.3999999999999</ele><time>2026-03-31T10:50:17Z</time></trkpt><trkpt lat="45.74270079588801" lon="9.938273635511235"><ele>1215.2</ele><time>2026-03-31T10:50:19Z</time></trkpt><trkpt lat="45.742736810098215" lon="9.938138383521185"><ele>1216.0</ele><time>2026-03-31T10:50:21Z</time></trkpt><trkpt lat="45.74279087149846" lon="9.938013710340488"><ele>1220.2</ele><time>2026-03-31T10:50:23Z</time></trkpt><trkpt lat="45.742845098460414" lon="9.937883621976017"><ele>1224.3999999999999</ele><time>2026-03-31T10:50:25Z</time></trkpt><trkpt lat="45.742895298653195" lon="9.937747700283838"><ele>1228.6</ele><time>2026-03-31T10:50:27Z</time></trkpt><trkpt lat="45.742935980139265" lon="9.93760028145998"><ele>1232.8</ele><time>2026-03-31T10:50:29Z</time></trkpt><trkpt lat="45.7429763720446" lon="9.937470812520642"><ele>1237.0</ele><time>2026-03-31T10:50:31Z</time></trkpt><trkpt lat="45.743003950909696" lon="9.937346671528969"><ele>1237.3333333333333</ele><time>2026-03-31T10:50:33Z</time></trkpt><trkpt lat="45.74303268545038" lon="9.937230930230628"><ele>1237.6666666666665</ele><time>2026-03-31T10:50:35Z</time></trkpt><trkpt lat="45.7430648209662" lon="9.937134506507272"><ele>1238.0</ele><time>2026-03-31T10:50:37Z</time></trkpt><trkpt lat="45.743097928833805" lon="9.937036372133072"><ele>1238.3333333333333</ele><time>2026-03-31T10:50:39Z</time></trkpt><trkpt lat="45.74312903074631" lon="9.93693900976821"><ele>1238.6666666666667</ele><time>2026-03-31T10:50:41Z</time></trkpt><trkpt lat="45.7431599291186" lon="9.936845969920368"><ele>1239.0</ele><time>2026-03-31T10:50:43Z</time></trkpt><trkpt lat="45.7431981538713" lon="9.93674925402978"><ele>1239.0</ele><time>2026-03-31T10:50:45Z</time></trkpt><trkpt lat="45.74325377578564" lon="9.936694339470055"><ele>1239.0</ele><time>2026-03-31T10:50:47Z</time></trkpt><trkpt lat="45.74331818883445" lon="9.936735741068409"><ele>1239.0</ele><time>2026-03-31T10:50:49Z</time></trkpt><trkpt lat="45.74334449982549" lon="9.936865241769008"><ele>1239.0</ele><time>2026-03-31T10:50:52Z</time></trkpt><trkpt lat="45.74335192341603" lon="9.936963614250034"><ele>1239.0</ele><time>2026-03-31T10:50:54Z</time></trkpt><trkpt lat="45.743354936975486" lon="9.937089592547958"><ele>1239.0</ele><time>2026-03-31T10:50:56Z</time></trkpt><trkpt lat="45.743360443026916" lon="9.937238833821363"><ele>1239.0</ele><time>2026-03-31T10:50:58Z</time></trkpt><trkpt lat="45.74336065797274" lon="9.937392642748451"><ele>1239.0</ele><time>2026-03-31T10:51:00Z</time></trkpt><trkpt lat="45.74336393950198" lon="9.93753574126753"><ele>1239.0</ele><time>2026-03-31T10:51:02Z</time></trkpt><trkpt lat="45.74336672367369" lon="9.937665998651678"><ele>1239.0</ele><time>2026-03-31T10:51:04Z</time></trkpt><trkpt lat="45.74339533022007" lon="9.93774757751575"><ele>1239.0</ele><time>2026-03-31T10:51:06Z</time></trkpt><trkpt lat="45.743411379453434" lon="9.9378424982967"><ele>1239.0</ele><time>2026-03-31T10:51:08Z</time></trkpt><trkpt lat="45.74344384325847" lon="9.93792107511069"><ele>1239.0</ele><time>2026-03-31T10:51:11Z</time></trkpt><trkpt lat="45.74346396694206" lon="9.9380343683145"><ele>1239.0</ele><time>2026-03-31T10:52:41Z</time></trkpt><trkpt lat="45.74345844944516" lon="9.937924821624225"><ele>1239.0</ele><time>2026-03-31T10:53:57Z</time></trkpt><trkpt lat="45.74339383098591" lon="9.937860990877821"><ele>1239.0</ele><time>2026-03-31T10:54:07Z</time></trkpt><trkpt lat="45.74335920029733" lon="9.937776595961257"><ele>1239.0</ele><time>2026-03-31T10:54:09Z</time></trkpt><trkpt lat="45.74333761055026" lon="9.937684926865145"><ele>1239.0</ele><time>2026-03-31T10:54:11Z</time></trkpt><trkpt lat="45.743315437080675" lon="9.937588667051385"><ele>1239.0</ele><time>2026-03-31T10:54:13Z</time></trkpt><trkpt lat="45.74328955218923" lon="9.937498022442329"><ele>1239.0</ele><time>2026-03-31T10:54:15Z</time></trkpt><trkpt lat="45.743247417079466" lon="9.937425055749458"><ele>1239.0</ele><time>2026-03-31T10:54:17Z</time></trkpt><trkpt lat="45.74318412172009" lon="9.937328217970554"><ele>1239.0</ele><time>2026-03-31T10:54:20Z</time></trkpt><trkpt lat="45.74312892127369" lon="9.937278027517229"><ele>1239.0</ele><time>2026-03-31T10:54:23Z</time></trkpt><trkpt lat="45.743076166237486" lon="9.937226761644402"><ele>1239.0</ele><time>2026-03-31T10:54:26Z</time></trkpt><trkpt lat="45.74301911077239" lon="9.937269615963046"><ele>1239.0</ele><time>2026-03-31T10:54:29Z</time></trkpt><trkpt lat="45.743007432113956" lon="9.937391731162181"><ele>1239.0</ele><time>2026-03-31T10:54:31Z</time></trkpt><trkpt lat="45.74296594518701" lon="9.937518937243343"><ele>1238.5</ele><time>2026-03-31T10:54:33Z</time></trkpt><trkpt lat="45.74291762624463" lon="9.93767572600349"><ele>1238.0</ele><time>2026-03-31T10:54:35Z</time></trkpt><trkpt lat="45.74286692190743" lon="9.937835428318454"><ele>1237.5</ele><time>2026-03-31T10:54:37Z</time></trkpt><trkpt lat="45.74281182194061" lon="9.937981456716813"><ele>1237.0</ele><time>2026-03-31T10:54:39Z</time></trkpt><trkpt lat="45.74274699581392" lon="9.93812712042674"><ele>1233.6666666666665</ele><time>2026-03-31T10:54:41Z</time></trkpt><trkpt lat="45.742700358358505" lon="9.93827933226321"><ele>1230.3333333333333</ele><time>2026-03-31T10:54:43Z</time></trkpt><trkpt lat="45.74268643020567" lon="9.938369248743298"><ele>1227.0</ele><time>2026-03-31T10:54:44Z</time></trkpt><trkpt lat="45.74267402939586" lon="9.938469883334037"><ele>1223.6666666666667</ele><time>2026-03-31T10:54:45Z</time></trkpt><trkpt lat="45.74266758278092" lon="9.938575910539639"><ele>1220.3333333333335</ele><time>2026-03-31T10:54:46Z</time></trkpt><trkpt lat="45.74266476391992" lon="9.938677152405619"><ele>1217.0</ele><time>2026-03-31T10:54:47Z</time></trkpt><trkpt lat="45.74266526686576" lon="9.93878082271395"><ele>1216.8333333333335</ele><time>2026-03-31T10:54:48Z</time></trkpt><trkpt lat="45.74266705105974" lon="9.938883404683926"><ele>1216.6666666666667</ele><time>2026-03-31T10:54:49Z</time></trkpt><trkpt lat="45.7426697330147" lon="9.938987003590682"><ele>1216.5</ele><time>2026-03-31T10:54:50Z</time></trkpt><trkpt lat="45.742667633979245" lon="9.939103706324492"><ele>1216.3333333333333</ele><time>2026-03-31T10:54:51Z</time></trkpt><trkpt lat="45.742667401537986" lon="9.939207291982688"><ele>1216.1666666666665</ele><time>2026-03-31T10:54:52Z</time></trkpt><trkpt lat="45.74266400533759" lon="9.939317986229211"><ele>1216.0</ele><time>2026-03-31T10:54:53Z</time></trkpt><trkpt lat="45.74265876452945" lon="9.939425923181565"><ele>1215.3333333333333</ele><time>2026-03-31T10:54:54Z</time></trkpt><trkpt lat="45.742651082887136" lon="9.939530590014227"><ele>1214.6666666666665</ele><time>2026-03-31T10:54:55Z</time></trkpt><trkpt lat="45.74264052282095" lon="9.93963198601895"><ele>1214.0</ele><time>2026-03-31T10:54:56Z</time></trkpt><trkpt lat="45.742626298846375" lon="9.939724351437052"><ele>1213.3333333333333</ele><time>2026-03-31T10:54:57Z</time></trkpt><trkpt lat="45.742588304740934" lon="9.939885421126146"><ele>1212.6666666666667</ele><time>2026-03-31T10:54:59Z</time></trkpt><trkpt lat="45.74253952977608" lon="9.940015224322952"><ele>1212.0</ele><time>2026-03-31T10:55:01Z</time></trkpt><trkpt lat="45.74251026129577" lon="9.940185136095122"><ele>1211.857142857143</ele><time>2026-03-31T10:55:03Z</time></trkpt><trkpt lat="45.742498073602405" lon="9.940280912453925"><ele>1211.7142857142858</ele><time>2026-03-31T10:55:04Z</time></trkpt><trkpt lat="45.74248646516684" lon="9.940377915999893"><ele>1211.5714285714284</ele><time>2026-03-31T10:55:05Z</time></trkpt><trkpt lat="45.74247177735848" lon="9.940479981914788"><ele>1211.4285714285716</ele><time>2026-03-31T10:55:06Z</time></trkpt><trkpt lat="45.74245243585187" lon="9.940590370435274"><ele>1211.2857142857142</ele><time>2026-03-31T10:55:07Z</time></trkpt><trkpt lat="45.742430466754804" lon="9.940700459537606"><ele>1211.142857142857</ele><time>2026-03-31T10:55:08Z</time></trkpt><trkpt lat="45.742415149715534" lon="9.94081210907707"><ele>1211.0</ele><time>2026-03-31T10:55:09Z</time></trkpt><trkpt lat="45.742409188268844" lon="9.940919333297735"><ele>1210.3999999999999</ele><time>2026-03-31T10:55:10Z</time></trkpt><trkpt lat="45.742406660230714" lon="9.941016871082478"><ele>1209.8</ele><time>2026-03-31T10:55:11Z</time></trkpt><trkpt lat="45.74241685693343" lon="9.941183749780283"><ele>1209.1999999999998</ele><time>2026-03-31T10:55:13Z</time></trkpt><trkpt lat="45.742423470291" lon="9.94131998663477"><ele>1208.6</ele><time>2026-03-31T10:55:15Z</time></trkpt><trkpt lat="45.7424165057103" lon="9.941454851726878"><ele>1208.0</ele><time>2026-03-31T10:55:17Z</time></trkpt><trkpt lat="45.74240907473738" lon="9.941599160145369"><ele>1207.6</ele><time>2026-03-31T10:55:19Z</time></trkpt><trkpt lat="45.74240712417523" lon="9.941762563452865"><ele>1207.1999999999998</ele><time>2026-03-31T10:55:21Z</time></trkpt><trkpt lat="45.74240616603388" lon="9.941927275185286"><ele>1206.8</ele><time>2026-03-31T10:55:23Z</time></trkpt><trkpt lat="45.74240059313534" lon="9.942089994876781"><ele>1206.3999999999999</ele><time>2026-03-31T10:55:25Z</time></trkpt><trkpt lat="45.74237478999844" lon="9.942190467193045"><ele>1206.0</ele><time>2026-03-31T10:55:26Z</time></trkpt><trkpt lat="45.74236935304697" lon="9.942289518517509"><ele>1206.0</ele><time>2026-03-31T10:55:27Z</time></trkpt><trkpt lat="45.742356283358106" lon="9.942384356958442"><ele>1206.0</ele><time>2026-03-31T10:55:28Z</time></trkpt><trkpt lat="45.742347719085025" lon="9.942476483943377"><ele>1206.0</ele><time>2026-03-31T10:55:29Z</time></trkpt><trkpt lat="45.742325374533266" lon="9.942633321198798"><ele>1206.0</ele><time>2026-03-31T10:55:31Z</time></trkpt><trkpt lat="45.74231288003629" lon="9.942785981183185"><ele>1206.0</ele><time>2026-03-31T10:55:33Z</time></trkpt><trkpt lat="45.74228493940611" lon="9.942937486175808"><ele>1207.2</ele><time>2026-03-31T10:55:35Z</time></trkpt><trkpt lat="45.74225814195415" lon="9.943093972138914"><ele>1208.3999999999999</ele><time>2026-03-31T10:55:37Z</time></trkpt><trkpt lat="45.7422516547849" lon="9.943254325393147"><ele>1209.6</ele><time>2026-03-31T10:55:39Z</time></trkpt><trkpt lat="45.74222192100869" lon="9.943415120112517"><ele>1210.8</ele><time>2026-03-31T10:55:41Z</time></trkpt><trkpt lat="45.74217495384572" lon="9.943480074730472"><ele>1212.0</ele><time>2026-03-31T10:55:42Z</time></trkpt><trkpt lat="45.74212093960708" lon="9.943538655583884"><ele>1210.8333333333333</ele><time>2026-03-31T10:55:43Z</time></trkpt><trkpt lat="45.742063814928606" lon="9.943603109289638"><ele>1209.6666666666667</ele><time>2026-03-31T10:55:44Z</time></trkpt><trkpt lat="45.74200493468419" lon="9.94367315524509"><ele>1208.5</ele><time>2026-03-31T10:55:45Z</time></trkpt><trkpt lat="45.741948410551224" lon="9.943748712951653"><ele>1207.3333333333335</ele><time>2026-03-31T10:55:46Z</time></trkpt><trkpt lat="45.74189274565691" lon="9.94382284965143"><ele>1206.1666666666667</ele><time>2026-03-31T10:55:47Z</time></trkpt><trkpt lat="45.741830491140576" lon="9.943886224706981"><ele>1205.0</ele><time>2026-03-31T10:55:48Z</time></trkpt><trkpt lat="45.74176325040071" lon="9.943945674028807"><ele>1205.0</ele><time>2026-03-31T10:55:49Z</time></trkpt><trkpt lat="45.741703811951744" lon="9.944017252090632"><ele>1205.0</ele><time>2026-03-31T10:55:50Z</time></trkpt><trkpt lat="45.74164746214654" lon="9.94410570663419"><ele>1205.0</ele><time>2026-03-31T10:55:51Z</time></trkpt><trkpt lat="45.74159342593631" lon="9.944200318826278"><ele>1205.0</ele><time>2026-03-31T10:55:52Z</time></trkpt><trkpt lat="45.74154628220304" lon="9.944306690929286"><ele>1205.0</ele><time>2026-03-31T10:55:53Z</time></trkpt><trkpt lat="45.74148243137588" lon="9.944396774482824"><ele>1205.0</ele><time>2026-03-31T10:55:54Z</time></trkpt><trkpt lat="45.741431891797006" lon="9.944504316518588"><ele>1206.6</ele><time>2026-03-31T10:55:55Z</time></trkpt><trkpt lat="45.7413849835174" lon="9.944622651490237"><ele>1208.2</ele><time>2026-03-31T10:55:56Z</time></trkpt><trkpt lat="45.741334955310755" lon="9.944749690660903"><ele>1209.8</ele><time>2026-03-31T10:55:57Z</time></trkpt><trkpt lat="45.74128424546564" lon="9.944882018998154"><ele>1211.4</ele><time>2026-03-31T10:55:58Z</time></trkpt><trkpt lat="45.741238271396135" lon="9.945017451950772"><ele>1213.0</ele><time>2026-03-31T10:55:59Z</time></trkpt><trkpt lat="45.741193453842044" lon="9.945154194267026"><ele>1213.8</ele><time>2026-03-31T10:56:00Z</time></trkpt><trkpt lat="45.7411495828632" lon="9.945291901409341"><ele>1214.6</ele><time>2026-03-31T10:56:01Z</time></trkpt><trkpt lat="45.74110908839277" lon="9.94541753702878"><ele>1215.4</ele><time>2026-03-31T10:56:02Z</time></trkpt><trkpt lat="45.741070104559135" lon="9.945532901671406"><ele>1216.2</ele><time>2026-03-31T10:56:03Z</time></trkpt><trkpt lat="45.741034559515654" lon="9.945639451719067"><ele>1217.0</ele><time>2026-03-31T10:56:04Z</time></trkpt><trkpt lat="45.74100451662373" lon="9.945741751058355"><ele>1212.0</ele><time>2026-03-31T10:56:05Z</time></trkpt><trkpt lat="45.74098162252418" lon="9.945850522091419"><ele>1207.0</ele><time>2026-03-31T10:56:06Z</time></trkpt><trkpt lat="45.740958418643345" lon="9.945965799421156"><ele>1202.0</ele><time>2026-03-31T10:56:07Z</time></trkpt><trkpt lat="45.740935244418395" lon="9.946079935748202"><ele>1197.0</ele><time>2026-03-31T10:56:08Z</time></trkpt><trkpt lat="45.74090465577552" lon="9.946179496343571"><ele>1192.0</ele><time>2026-03-31T10:56:09Z</time></trkpt><trkpt lat="45.74085736214238" lon="9.946277223626499"><ele>1187.0</ele><time>2026-03-31T10:56:10Z</time></trkpt><trkpt lat="45.74080403092328" lon="9.946362657353998"><ele>1187.0000000000002</ele><time>2026-03-31T10:56:11Z</time></trkpt><trkpt lat="45.74074994263357" lon="9.946431426468829"><ele>1187.0</ele><time>2026-03-31T10:56:12Z</time></trkpt><trkpt lat="45.74070529012612" lon="9.946503524146706"><ele>1187.0</ele><time>2026-03-31T10:56:13Z</time></trkpt><trkpt lat="45.74066225456052" lon="9.946585197130808"><ele>1187.0</ele><time>2026-03-31T10:56:14Z</time></trkpt><trkpt lat="45.740619451802054" lon="9.946681037445202"><ele>1187.0</ele><time>2026-03-31T10:56:15Z</time></trkpt><trkpt lat="45.74057978715027" lon="9.946779199247175"><ele>1187.0000000000002</ele><time>2026-03-31T10:56:16Z</time></trkpt><trkpt lat="45.7405458334318" lon="9.94687642564032"><ele>1187.0</ele><time>2026-03-31T10:56:17Z</time></trkpt><trkpt lat="45.740508814453115" lon="9.946974882934255"><ele>1188.5</ele><time>2026-03-31T10:56:18Z</time></trkpt><trkpt lat="45.74047096567969" lon="9.947077206045154"><ele>1190.0</ele><time>2026-03-31T10:56:19Z</time></trkpt><trkpt lat="45.74043053830431" lon="9.947183671888322"><ele>1191.5</ele><time>2026-03-31T10:56:20Z</time></trkpt><trkpt lat="45.74037780168818" lon="9.947282875103056"><ele>1193.0</ele><time>2026-03-31T10:56:21Z</time></trkpt><trkpt lat="45.740316880000194" lon="9.947373342630256"><ele>1194.5</ele><time>2026-03-31T10:56:22Z</time></trkpt><trkpt lat="45.74025038539097" lon="9.947456694736578"><ele>1196.0</ele><time>2026-03-31T10:56:23Z</time></trkpt><trkpt lat="45.740180347586694" lon="9.947537307835223"><ele>1193.0</ele><time>2026-03-31T10:56:24Z</time></trkpt><trkpt lat="45.740113394123334" lon="9.947624753681783"><ele>1190.0</ele><time>2026-03-31T10:56:25Z</time></trkpt><trkpt lat="45.74005088845974" lon="9.947702245562851"><ele>1187.0</ele><time>2026-03-31T10:56:26Z</time></trkpt><trkpt lat="45.739984644305345" lon="9.947781951043968"><ele>1184.0</ele><time>2026-03-31T10:56:27Z</time></trkpt><trkpt lat="45.739917973267815" lon="9.94785255553072"><ele>1181.0</ele><time>2026-03-31T10:56:28Z</time></trkpt><trkpt lat="45.73985346271433" lon="9.947914466333424"><ele>1178.0</ele><time>2026-03-31T10:56:29Z</time></trkpt><trkpt lat="45.73978804555838" lon="9.94797470362123"><ele>1178.0</ele><time>2026-03-31T10:56:30Z</time></trkpt><trkpt lat="45.73971796021155" lon="9.948035174643774"><ele>1178.0</ele><time>2026-03-31T10:56:31Z</time></trkpt><trkpt lat="45.739637278422116" lon="9.948089485569426"><ele>1178.0</ele><time>2026-03-31T10:56:32Z</time></trkpt><trkpt lat="45.73955186221952" lon="9.94812826452273"><ele>1178.0</ele><time>2026-03-31T10:56:33Z</time></trkpt><trkpt lat="45.73947046303373" lon="9.948173939807855"><ele>1178.0</ele><time>2026-03-31T10:56:34Z</time></trkpt><trkpt lat="45.73939550355995" lon="9.948225777972281"><ele>1178.0</ele><time>2026-03-31T10:56:35Z</time></trkpt><trkpt lat="45.739320480245325" lon="9.948284468584033"><ele>1176.6666666666667</ele><time>2026-03-31T10:56:36Z</time></trkpt><trkpt lat="45.73925110118825" lon="9.948358987717352"><ele>1175.3333333333335</ele><time>2026-03-31T10:56:37Z</time></trkpt><trkpt lat="45.73919120337267" lon="9.948459855166238"><ele>1174.0</ele><time>2026-03-31T10:56:38Z</time></trkpt><trkpt lat="45.73913717246152" lon="9.948575347429575"><ele>1172.6666666666667</ele><time>2026-03-31T10:56:39Z</time></trkpt><trkpt lat="45.73909178502262" lon="9.948680735974554"><ele>1171.3333333333333</ele><time>2026-03-31T10:56:40Z</time></trkpt><trkpt lat="45.739043874074795" lon="9.948758448792923"><ele>1170.0</ele><time>2026-03-31T10:56:41Z</time></trkpt><trkpt lat="45.73898488684559" lon="9.948803608895329"><ele>1170.0</ele><time>2026-03-31T10:56:42Z</time></trkpt><trkpt lat="45.73890039372452" lon="9.948834015119948"><ele>1170.0</ele><time>2026-03-31T10:56:43Z</time></trkpt><trkpt lat="45.738810957385084" lon="9.948842719068164"><ele>1170.0</ele><time>2026-03-31T10:56:44Z</time></trkpt><trkpt lat="45.73871802927455" lon="9.948841170477323"><ele>1170.0</ele><time>2026-03-31T10:56:45Z</time></trkpt><trkpt lat="45.738621706539" lon="9.948838462497537"><ele>1170.0</ele><time>2026-03-31T10:56:46Z</time></trkpt><trkpt lat="45.73852534515513" lon="9.948841270776361"><ele>1166.4</ele><time>2026-03-31T10:56:47Z</time></trkpt><trkpt lat="45.73842950609193" lon="9.948861107267748"><ele>1162.8</ele><time>2026-03-31T10:56:48Z</time></trkpt><trkpt lat="45.73833657573393" lon="9.948890199287172"><ele>1159.2</ele><time>2026-03-31T10:56:49Z</time></trkpt><trkpt lat="45.73825322651151" lon="9.94893055344147"><ele>1155.6</ele><time>2026-03-31T10:56:50Z</time></trkpt><trkpt lat="45.73816949125074" lon="9.94899360021345"><ele>1152.0</ele><time>2026-03-31T10:56:51Z</time></trkpt><trkpt lat="45.738094039927006" lon="9.949082483616197"><ele>1152.0</ele><time>2026-03-31T10:56:52Z</time></trkpt><trkpt lat="45.73802535523585" lon="9.949194432771959"><ele>1152.0</ele><time>2026-03-31T10:56:53Z</time></trkpt><trkpt lat="45.737966841851815" lon="9.949315257135456"><ele>1152.0</ele><time>2026-03-31T10:56:54Z</time></trkpt><trkpt lat="45.73791434389839" lon="9.949429483170482"><ele>1152.0</ele><time>2026-03-31T10:56:55Z</time></trkpt><trkpt lat="45.73785100892653" lon="9.94952899797554"><ele>1152.0</ele><time>2026-03-31T10:56:56Z</time></trkpt><trkpt lat="45.737762923088376" lon="9.94960585261883"><ele>1149.2</ele><time>2026-03-31T10:56:57Z</time></trkpt><trkpt lat="45.73766329390893" lon="9.949662512886889"><ele>1146.4</ele><time>2026-03-31T10:56:58Z</time></trkpt><trkpt lat="45.737570315069384" lon="9.949714804663577"><ele>1143.6</ele><time>2026-03-31T10:56:59Z</time></trkpt><trkpt lat="45.73748623381102" lon="9.949782059927237"><ele>1140.8</ele><time>2026-03-31T10:57:00Z</time></trkpt><trkpt lat="45.737406114038464" lon="9.949866511309795"><ele>1138.0</ele><time>2026-03-31T10:57:01Z</time></trkpt><trkpt lat="45.73733222989259" lon="9.949957566312507"><ele>1140.6</ele><time>2026-03-31T10:57:02Z</time></trkpt><trkpt lat="45.73725796232697" lon="9.950056727199232"><ele>1143.1999999999998</ele><time>2026-03-31T10:57:03Z</time></trkpt><trkpt lat="45.7371855897812" lon="9.950172209360089"><ele>1145.8</ele><time>2026-03-31T10:57:04Z</time></trkpt><trkpt lat="45.737117993210624" lon="9.950310107983155"><ele>1148.3999999999999</ele><time>2026-03-31T10:57:05Z</time></trkpt><trkpt lat="45.73705986251627" lon="9.950461240968984"><ele>1151.0</ele><time>2026-03-31T10:57:06Z</time></trkpt><trkpt lat="45.73700499066406" lon="9.95061199775963"><ele>1151.0</ele><time>2026-03-31T10:57:07Z</time></trkpt><trkpt lat="45.73695018761441" lon="9.950765074043598"><ele>1151.0</ele><time>2026-03-31T10:57:08Z</time></trkpt><trkpt lat="45.73689460553312" lon="9.950906248005243"><ele>1151.0</ele><time>2026-03-31T10:57:09Z</time></trkpt><trkpt lat="45.73683578144622" lon="9.95103906156647"><ele>1151.0</ele><time>2026-03-31T10:57:10Z</time></trkpt><trkpt lat="45.73676816933216" lon="9.951172181931392"><ele>1144.5</ele><time>2026-03-31T10:57:11Z</time></trkpt><trkpt lat="45.73669199955416" lon="9.951308679620066"><ele>1138.0</ele><time>2026-03-31T10:57:12Z</time></trkpt><trkpt lat="45.736616026961954" lon="9.951436612589376"><ele>1131.5</ele><time>2026-03-31T10:57:13Z</time></trkpt><trkpt lat="45.73654073901703" lon="9.95156246423469"><ele>1125.0</ele><time>2026-03-31T10:57:14Z</time></trkpt><trkpt lat="45.736459614836136" lon="9.95168599354111"><ele>1126.5</ele><time>2026-03-31T10:57:15Z</time></trkpt><trkpt lat="45.736369918518555" lon="9.951803795170562"><ele>1128.0</ele><time>2026-03-31T10:57:16Z</time></trkpt><trkpt lat="45.73627519910698" lon="9.951919064953376"><ele>1129.5</ele><time>2026-03-31T10:57:17Z</time></trkpt><trkpt lat="45.736182715944125" lon="9.952027607980252"><ele>1131.0</ele><time>2026-03-31T10:57:18Z</time></trkpt><trkpt lat="45.73609435902844" lon="9.952128999507172"><ele>1128.0</ele><time>2026-03-31T10:57:19Z</time></trkpt><trkpt lat="45.736012776253524" lon="9.95222612035949"><ele>1125.0</ele><time>2026-03-31T10:57:20Z</time></trkpt><trkpt lat="45.73593748771019" lon="9.952330775009923"><ele>1122.0</ele><time>2026-03-31T10:57:21Z</time></trkpt><trkpt lat="45.735868592122294" lon="9.95243292614286"><ele>1119.0</ele><time>2026-03-31T10:57:22Z</time></trkpt><trkpt lat="45.73580139600136" lon="9.95253191057596"><ele>1116.0</ele><time>2026-03-31T10:57:23Z</time></trkpt><trkpt lat="45.73573676216174" lon="9.95263524453089"><ele>1116.0</ele><time>2026-03-31T10:57:24Z</time></trkpt><trkpt lat="45.73567509946256" lon="9.95273322371669"><ele>1116.0</ele><time>2026-03-31T10:57:25Z</time></trkpt><trkpt lat="45.7356169225704" lon="9.95282611348468"><ele>1116.0</ele><time>2026-03-31T10:57:26Z</time></trkpt><trkpt lat="45.73555876898794" lon="9.952900635405795"><ele>1116.0</ele><time>2026-03-31T10:57:27Z</time></trkpt><trkpt lat="45.735484577446336" lon="9.9529656592489"><ele>1116.0</ele><time>2026-03-31T10:57:28Z</time></trkpt><trkpt lat="45.73539869313235" lon="9.953007830938661"><ele>1116.0</ele><time>2026-03-31T10:57:29Z</time></trkpt><trkpt lat="45.735302992253075" lon="9.953031921407344"><ele>1111.8</ele><time>2026-03-31T10:57:30Z</time></trkpt><trkpt lat="45.73520643546749" lon="9.953061415524601"><ele>1107.6</ele><time>2026-03-31T10:57:31Z</time></trkpt><trkpt lat="45.735116417501274" lon="9.953108932730835"><ele>1103.4</ele><time>2026-03-31T10:57:32Z</time></trkpt><trkpt lat="45.735024361035755" lon="9.953177909904348"><ele>1099.2</ele><time>2026-03-31T10:57:33Z</time></trkpt><trkpt lat="45.7349326492065" lon="9.953262425578023"><ele>1095.0</ele><time>2026-03-31T10:57:34Z</time></trkpt><trkpt lat="45.734840631380614" lon="9.953356711631109"><ele>1096.5</ele><time>2026-03-31T10:57:35Z</time></trkpt><trkpt lat="45.73475095971851" lon="9.95346494999373"><ele>1098.0</ele><time>2026-03-31T10:57:36Z</time></trkpt><trkpt lat="45.73466499661493" lon="9.953578587920783"><ele>1099.5</ele><time>2026-03-31T10:57:37Z</time></trkpt><trkpt lat="45.73457965812478" lon="9.953685133263575"><ele>1101.0</ele><time>2026-03-31T10:57:38Z</time></trkpt><trkpt lat="45.7344845385291" lon="9.95377378485675"><ele>1101.0</ele><time>2026-03-31T10:57:39Z</time></trkpt><trkpt lat="45.73439987386422" lon="9.953874230177599"><ele>1101.0</ele><time>2026-03-31T10:57:40Z</time></trkpt><trkpt lat="45.734333894959136" lon="9.953984443833036"><ele>1101.0</ele><time>2026-03-31T10:57:41Z</time></trkpt><trkpt lat="45.734265270127686" lon="9.95409545319806"><ele>1101.0</ele><time>2026-03-31T10:57:42Z</time></trkpt><trkpt lat="45.73419985083066" lon="9.954207594484433"><ele>1101.0</ele><time>2026-03-31T10:57:43Z</time></trkpt><trkpt lat="45.73413114661442" lon="9.954309203096072"><ele>1097.2</ele><time>2026-03-31T10:57:44Z</time></trkpt><trkpt lat="45.734053932219254" lon="9.95440065835929"><ele>1093.3999999999999</ele><time>2026-03-31T10:57:45Z</time></trkpt><trkpt lat="45.73398046875576" lon="9.954476440935956"><ele>1089.6</ele><time>2026-03-31T10:57:46Z</time></trkpt><trkpt lat="45.733903496782425" lon="9.954552334823632"><ele>1085.8</ele><time>2026-03-31T10:57:47Z</time></trkpt><trkpt lat="45.73383103570517" lon="9.954618411106544"><ele>1082.0</ele><time>2026-03-31T10:57:48Z</time></trkpt><trkpt lat="45.73376167203981" lon="9.954682549699363"><ele>1082.0</ele><time>2026-03-31T10:57:49Z</time></trkpt><trkpt lat="45.73368864714308" lon="9.954752032445768"><ele>1082.0</ele><time>2026-03-31T10:57:50Z</time></trkpt><trkpt lat="45.73361507347345" lon="9.954828756767672"><ele>1082.0</ele><time>2026-03-31T10:57:51Z</time></trkpt><trkpt lat="45.73354521887291" lon="9.954900855503857"><ele>1082.0</ele><time>2026-03-31T10:57:52Z</time></trkpt><trkpt lat="45.733484040558416" lon="9.954966008612827"><ele>1082.0</ele><time>2026-03-31T10:57:53Z</time></trkpt><trkpt lat="45.73343270819648" lon="9.955028299964995"><ele>1082.0</ele><time>2026-03-31T10:57:54Z</time></trkpt><trkpt lat="45.73333501981584" lon="9.955141713661916"><ele>1077.6666666666667</ele><time>2026-03-31T10:57:56Z</time></trkpt><trkpt lat="45.733281704286256" lon="9.955190579770882"><ele>1073.3333333333335</ele><time>2026-03-31T10:57:57Z</time></trkpt><trkpt lat="45.733186332461806" lon="9.95526500744728"><ele>1069.0</ele><time>2026-03-31T10:57:59Z</time></trkpt><trkpt lat="45.73309390151908" lon="9.955284048097024"><ele>1064.6666666666667</ele><time>2026-03-31T10:58:01Z</time></trkpt><trkpt lat="45.733019847738454" lon="9.955226538193614"><ele>1060.3333333333333</ele><time>2026-03-31T10:58:03Z</time></trkpt><trkpt lat="45.73295248978771" lon="9.955138056878797"><ele>1056.0</ele><time>2026-03-31T10:58:05Z</time></trkpt><trkpt lat="45.732888776221984" lon="9.955045868770364"><ele>1056.0</ele><time>2026-03-31T10:58:07Z</time></trkpt><trkpt lat="45.73281703274858" lon="9.95507606191493"><ele>1056.0</ele><time>2026-03-31T10:58:09Z</time></trkpt><trkpt lat="45.7327992941921" lon="9.955189792729353"><ele>1056.0</ele><time>2026-03-31T10:58:11Z</time></trkpt><trkpt lat="45.73282266491843" lon="9.955283750316687"><ele>1056.0</ele><time>2026-03-31T10:58:13Z</time></trkpt><trkpt lat="45.73288417655007" lon="9.955383856953379"><ele>1056.0</ele><time>2026-03-31T10:58:16Z</time></trkpt><trkpt lat="45.73290084380963" lon="9.95547764025881"><ele>1056.0</ele><time>2026-03-31T10:58:19Z</time></trkpt><trkpt lat="45.732956996997096" lon="9.955528982549588"><ele>1056.0</ele><time>2026-03-31T10:58:53Z</time></trkpt><trkpt lat="45.733004886721595" lon="9.955594189286401"><ele>1056.0</ele><time>2026-03-31T10:59:30Z</time></trkpt><trkpt lat="45.73295743763858" lon="9.955512553490577"><ele>1056.0</ele><time>2026-03-31T11:00:14Z</time></trkpt><trkpt lat="45.73289635236559" lon="9.955478217911073"><ele>1056.0</ele><time>2026-03-31T11:03:47Z</time></trkpt><trkpt lat="45.73292603409012" lon="9.955316351155226"><ele>1056.0</ele><time>2026-03-31T11:05:57Z</time></trkpt><trkpt lat="45.73285961173956" lon="9.95535008987086"><ele>1056.0</ele><time>2026-03-31T11:08:13Z</time></trkpt><trkpt lat="45.73284374523471" lon="9.955244445929996"><ele>1056.0</ele><time>2026-03-31T11:08:16Z</time></trkpt><trkpt lat="45.73282242858317" lon="9.955142463757761"><ele>1056.0</ele><time>2026-03-31T11:08:31Z</time></trkpt><trkpt lat="45.73285334862101" lon="9.955025848629933"><ele>1056.0</ele><time>2026-03-31T11:08:34Z</time></trkpt><trkpt lat="45.73291762635791" lon="9.954978332964147"><ele>1056.0</ele><time>2026-03-31T11:08:36Z</time></trkpt><trkpt lat="45.73299060425852" lon="9.954887447148419"><ele>1056.0</ele><time>2026-03-31T11:08:38Z</time></trkpt><trkpt lat="45.733038810859085" lon="9.95482078824063"><ele>1056.0</ele><time>2026-03-31T11:08:39Z</time></trkpt><trkpt lat="45.73308733139004" lon="9.95474000156252"><ele>1057.6666666666667</ele><time>2026-03-31T11:08:40Z</time></trkpt><trkpt lat="45.733147245330116" lon="9.954665067495892"><ele>1059.3333333333333</ele><time>2026-03-31T11:08:41Z</time></trkpt><trkpt lat="45.73320473361524" lon="9.954583837157092"><ele>1061.0</ele><time>2026-03-31T11:08:42Z</time></trkpt><trkpt lat="45.73325786844954" lon="9.954498381342043"><ele>1062.6666666666665</ele><time>2026-03-31T11:08:43Z</time></trkpt><trkpt lat="45.73330832276582" lon="9.954410080537784"><ele>1064.3333333333333</ele><time>2026-03-31T11:08:44Z</time></trkpt><trkpt lat="45.73334986356017" lon="9.954313655883432"><ele>1066.0</ele><time>2026-03-31T11:08:45Z</time></trkpt><trkpt lat="45.7333917977084" lon="9.95421274307375"><ele>1064.1666666666665</ele><time>2026-03-31T11:08:46Z</time></trkpt><trkpt lat="45.733433280410765" lon="9.954115529067076"><ele>1062.3333333333333</ele><time>2026-03-31T11:08:47Z</time></trkpt><trkpt lat="45.73347466411315" lon="9.954017087425482"><ele>1060.5</ele><time>2026-03-31T11:08:48Z</time></trkpt><trkpt lat="45.733514242894735" lon="9.95392075864739"><ele>1058.6666666666667</ele><time>2026-03-31T11:08:49Z</time></trkpt><trkpt lat="45.73355706261385" lon="9.953821874372613"><ele>1056.8333333333335</ele><time>2026-03-31T11:08:50Z</time></trkpt><trkpt lat="45.73360082892164" lon="9.953725108600375"><ele>1055.0</ele><time>2026-03-31T11:08:51Z</time></trkpt><trkpt lat="45.73364047121231" lon="9.953640355053189"><ele>1055.0</ele><time>2026-03-31T11:08:52Z</time></trkpt><trkpt lat="45.73367251799608" lon="9.953560472451448"><ele>1055.0</ele><time>2026-03-31T11:08:53Z</time></trkpt><trkpt lat="45.73367147606277" lon="9.953407610423513"><ele>1055.0</ele><time>2026-03-31T11:08:55Z</time></trkpt><trkpt lat="45.73355995837767" lon="9.953341790527707"><ele>1055.0</ele><time>2026-03-31T11:08:57Z</time></trkpt><trkpt lat="45.73348514198461" lon="9.953379315362575"><ele>1055.0</ele><time>2026-03-31T11:08:58Z</time></trkpt><trkpt lat="45.733418332546144" lon="9.953455366803231"><ele>1055.0</ele><time>2026-03-31T11:08:59Z</time></trkpt><trkpt lat="45.73335117578935" lon="9.953542110231245"><ele>1055.0</ele><time>2026-03-31T11:09:00Z</time></trkpt><trkpt lat="45.73327950342426" lon="9.953618203492084"><ele>1055.0</ele><time>2026-03-31T11:09:01Z</time></trkpt><trkpt lat="45.73320821362483" lon="9.953710153371006"><ele>1055.0</ele><time>2026-03-31T11:09:02Z</time></trkpt><trkpt lat="45.73313110757772" lon="9.953808957032626"><ele>1055.0</ele><time>2026-03-31T11:09:03Z</time></trkpt><trkpt lat="45.7330498575968" lon="9.953902789035581"><ele>1055.0</ele><time>2026-03-31T11:09:04Z</time></trkpt><trkpt lat="45.732965472725716" lon="9.954008130867274"><ele>1055.0</ele><time>2026-03-31T11:09:05Z</time></trkpt><trkpt lat="45.7328818072784" lon="9.954112005456702"><ele>1055.0</ele><time>2026-03-31T11:09:06Z</time></trkpt><trkpt lat="45.73279122483997" lon="9.954203692011307"><ele>1055.0</ele><time>2026-03-31T11:09:07Z</time></trkpt><trkpt lat="45.732700926994795" lon="9.95428979555226"><ele>1055.0</ele><time>2026-03-31T11:09:08Z</time></trkpt><trkpt lat="45.73262122673298" lon="9.954360817448482"><ele>1054.3333333333335</ele><time>2026-03-31T11:09:09Z</time></trkpt><trkpt lat="45.73255660085975" lon="9.954421373731343"><ele>1053.6666666666667</ele><time>2026-03-31T11:09:10Z</time></trkpt><trkpt lat="45.73246090306444" lon="9.95447294171727"><ele>1053.0</ele><time>2026-03-31T11:09:12Z</time></trkpt><trkpt lat="45.73239844745878" lon="9.95434557931803"><ele>1052.3333333333333</ele><time>2026-03-31T11:09:14Z</time></trkpt><trkpt lat="45.732432986732206" lon="9.95424520297459"><ele>1051.6666666666665</ele><time>2026-03-31T11:09:15Z</time></trkpt><trkpt lat="45.7325020670129" lon="9.954191862893076"><ele>1051.0</ele><time>2026-03-31T11:09:16Z</time></trkpt><trkpt lat="45.73257373790997" lon="9.954157941254609"><ele>1051.6666666666665</ele><time>2026-03-31T11:09:17Z</time></trkpt><trkpt lat="45.732640061123355" lon="9.954103232719818"><ele>1052.3333333333333</ele><time>2026-03-31T11:09:18Z</time></trkpt><trkpt lat="45.7327053138949" lon="9.954031957786935"><ele>1053.0</ele><time>2026-03-31T11:09:19Z</time></trkpt><trkpt lat="45.73276669603777" lon="9.953943388946875"><ele>1053.6666666666667</ele><time>2026-03-31T11:09:20Z</time></trkpt><trkpt lat="45.732819098065725" lon="9.953844952833618"><ele>1054.3333333333335</ele><time>2026-03-31T11:09:21Z</time></trkpt><trkpt lat="45.73285992274162" lon="9.95372740882352"><ele>1055.0</ele><time>2026-03-31T11:09:22Z</time></trkpt><trkpt lat="45.73288463986868" lon="9.953585979765098"><ele>1055.0</ele><time>2026-03-31T11:09:23Z</time></trkpt><trkpt lat="45.732911117563376" lon="9.953466949947224"><ele>1055.0</ele><time>2026-03-31T11:09:24Z</time></trkpt><trkpt lat="45.732936356920646" lon="9.953348014429935"><ele>1055.0</ele><time>2026-03-31T11:09:25Z</time></trkpt><trkpt lat="45.73297169988768" lon="9.953232360514654"><ele>1055.0</ele><time>2026-03-31T11:09:26Z</time></trkpt><trkpt lat="45.733017199087584" lon="9.953118259077877"><ele>1055.0</ele><time>2026-03-31T11:09:27Z</time></trkpt><trkpt lat="45.73306306861709" lon="9.953018899845343"><ele>1055.0</ele><time>2026-03-31T11:09:28Z</time></trkpt><trkpt lat="45.733047668809746" lon="9.95285577898274"><ele>1053.0</ele><time>2026-03-31T11:09:30Z</time></trkpt><trkpt lat="45.73298228823145" lon="9.952811591007471"><ele>1051.0</ele><time>2026-03-31T11:09:31Z</time></trkpt><trkpt lat="45.73290338362841" lon="9.952838332483882"><ele>1049.0</ele><time>2026-03-31T11:09:32Z</time></trkpt><trkpt lat="45.73283855370847" lon="9.952924969020279"><ele>1047.0</ele><time>2026-03-31T11:09:33Z</time></trkpt><trkpt lat="45.73279813776215" lon="9.953054119676677"><ele>1045.0</ele><time>2026-03-31T11:09:34Z</time></trkpt><trkpt lat="45.732760859983635" lon="9.953174587451441"><ele>1043.0</ele><time>2026-03-31T11:09:35Z</time></trkpt><trkpt lat="45.732724310931175" lon="9.953295912627778"><ele>1041.4</ele><time>2026-03-31T11:09:36Z</time></trkpt><trkpt lat="45.73269143738525" lon="9.953422303403087"><ele>1039.8</ele><time>2026-03-31T11:09:37Z</time></trkpt><trkpt lat="45.7326478267121" lon="9.953532383332856"><ele>1038.2</ele><time>2026-03-31T11:09:38Z</time></trkpt><trkpt lat="45.732573600576785" lon="9.953612974634027"><ele>1036.6</ele><time>2026-03-31T11:09:39Z</time></trkpt><trkpt lat="45.73247548288388" lon="9.953647353020592"><ele>1035.0</ele><time>2026-03-31T11:09:40Z</time></trkpt><trkpt lat="45.73237717956063" lon="9.953627812783237"><ele>1035.0</ele><time>2026-03-31T11:09:41Z</time></trkpt><trkpt lat="45.732271056772476" lon="9.953604517569472"><ele>1035.0</ele><time>2026-03-31T11:09:42Z</time></trkpt><trkpt lat="45.7321791822025" lon="9.953600934772483"><ele>1035.0</ele><time>2026-03-31T11:09:43Z</time></trkpt><trkpt lat="45.73209991031966" lon="9.95362094424245"><ele>1035.0</ele><time>2026-03-31T11:09:44Z</time></trkpt><trkpt lat="45.73203518326618" lon="9.95361281495048"><ele>1035.0</ele><time>2026-03-31T11:09:45Z</time></trkpt><trkpt lat="45.7319768835918" lon="9.953464873548445"><ele>1035.0</ele><time>2026-03-31T11:09:47Z</time></trkpt><trkpt lat="45.732017962722885" lon="9.953385146837409"><ele>1035.0</ele><time>2026-03-31T11:09:48Z</time></trkpt><trkpt lat="45.7320979007631" lon="9.953358187357875"><ele>1035.0</ele><time>2026-03-31T11:09:49Z</time></trkpt><trkpt lat="45.73218166746233" lon="9.953387227767607"><ele>1035.0</ele><time>2026-03-31T11:09:50Z</time></trkpt><trkpt lat="45.732257158728274" lon="9.953415015273814"><ele>1035.0</ele><time>2026-03-31T11:09:51Z</time></trkpt><trkpt lat="45.732335874592955" lon="9.953408822053392"><ele>1035.0</ele><time>2026-03-31T11:09:52Z</time></trkpt><trkpt lat="45.73240857811823" lon="9.953360909494325"><ele>1031.8</ele><time>2026-03-31T11:09:53Z</time></trkpt><trkpt lat="45.73245907838919" lon="9.953263044252198"><ele>1028.6</ele><time>2026-03-31T11:09:54Z</time></trkpt><trkpt lat="45.73246907669834" lon="9.95313199152137"><ele>1025.4</ele><time>2026-03-31T11:09:55Z</time></trkpt><trkpt lat="45.732456385672755" lon="9.953003490322288"><ele>1022.2</ele><time>2026-03-31T11:09:56Z</time></trkpt><trkpt lat="45.73243289512982" lon="9.952871319178943"><ele>1019.0</ele><time>2026-03-31T11:09:57Z</time></trkpt><trkpt lat="45.732415014171565" lon="9.952727248102276"><ele>1019.0</ele><time>2026-03-31T11:09:58Z</time></trkpt><trkpt lat="45.73238932146082" lon="9.952579050784632"><ele>1019.0000000000001</ele><time>2026-03-31T11:09:59Z</time></trkpt><trkpt lat="45.73237747659658" lon="9.952434632768009"><ele>1019.0000000000001</ele><time>2026-03-31T11:10:00Z</time></trkpt><trkpt lat="45.7323954709154" lon="9.952302351643969"><ele>1019.0</ele><time>2026-03-31T11:10:01Z</time></trkpt><trkpt lat="45.73244137451825" lon="9.952186269133147"><ele>1019.0</ele><time>2026-03-31T11:10:02Z</time></trkpt><trkpt lat="45.73247456747326" lon="9.952089348657676"><ele>1016.6666666666667</ele><time>2026-03-31T11:10:03Z</time></trkpt><trkpt lat="45.73246559812124" lon="9.951990951162065"><ele>1014.3333333333334</ele><time>2026-03-31T11:10:04Z</time></trkpt><trkpt lat="45.73242274757949" lon="9.951913710329322"><ele>1012.0</ele><time>2026-03-31T11:10:05Z</time></trkpt><trkpt lat="45.732344941056894" lon="9.951892896849046"><ele>1009.6666666666667</ele><time>2026-03-31T11:10:06Z</time></trkpt><trkpt lat="45.73225217012822" lon="9.951921715019314"><ele>1007.3333333333334</ele><time>2026-03-31T11:10:07Z</time></trkpt><trkpt lat="45.732176180109484" lon="9.951975541188506"><ele>1005.0</ele><time>2026-03-31T11:10:08Z</time></trkpt><trkpt lat="45.732104224214304" lon="9.952047941302386"><ele>1005.0</ele><time>2026-03-31T11:10:09Z</time></trkpt><trkpt lat="45.73206348913641" lon="9.95215662809934"><ele>1005.0</ele><time>2026-03-31T11:10:10Z</time></trkpt><trkpt lat="45.73205259581899" lon="9.952281243516355"><ele>1005.0</ele><time>2026-03-31T11:10:11Z</time></trkpt><trkpt lat="45.732050855480374" lon="9.952396091190968"><ele>1005.0</ele><time>2026-03-31T11:10:12Z</time></trkpt><trkpt lat="45.73203276039034" lon="9.952501106513415"><ele>1005.0</ele><time>2026-03-31T11:10:13Z</time></trkpt><trkpt lat="45.731982131135176" lon="9.95259020320936"><ele>1005.0</ele><time>2026-03-31T11:10:14Z</time></trkpt><trkpt lat="45.73191332402525" lon="9.95264218317212"><ele>1004.3333333333334</ele><time>2026-03-31T11:10:15Z</time></trkpt><trkpt lat="45.73183725031933" lon="9.95267193755917"><ele>1003.6666666666667</ele><time>2026-03-31T11:10:16Z</time></trkpt><trkpt lat="45.73176549313001" lon="9.952702875119282"><ele>1003.0</ele><time>2026-03-31T11:10:17Z</time></trkpt><trkpt lat="45.73169653744893" lon="9.952746557717798"><ele>1002.3333333333334</ele><time>2026-03-31T11:10:18Z</time></trkpt><trkpt lat="45.73163338818944" lon="9.9527938664691"><ele>1001.6666666666667</ele><time>2026-03-31T11:10:19Z</time></trkpt><trkpt lat="45.7315791577887" lon="9.952842568437566"><ele>1001.0</ele><time>2026-03-31T11:10:20Z</time></trkpt><trkpt lat="45.7314927306857" lon="9.95296577550206"><ele>1001.0</ele><time>2026-03-31T11:10:22Z</time></trkpt><trkpt lat="45.73141255890948" lon="9.95309680095858"><ele>1000.9999999999999</ele><time>2026-03-31T11:10:24Z</time></trkpt><trkpt lat="45.73134780629987" lon="9.953241696194793"><ele>1000.9999999999999</ele><time>2026-03-31T11:10:26Z</time></trkpt><trkpt lat="45.731308410288875" lon="9.953381591257767"><ele>1001.0</ele><time>2026-03-31T11:10:28Z</time></trkpt><trkpt lat="45.731286646228085" lon="9.953501453273008"><ele>1001.0</ele><time>2026-03-31T11:10:30Z</time></trkpt><trkpt lat="45.731262690441454" lon="9.953594478137319"><ele>1000.8333333333334</ele><time>2026-03-31T11:10:32Z</time></trkpt><trkpt lat="45.73119346571171" lon="9.953652150619563"><ele>1000.6666666666667</ele><time>2026-03-31T11:10:34Z</time></trkpt><trkpt lat="45.73109816442021" lon="9.953639929986037"><ele>1000.5</ele><time>2026-03-31T11:10:36Z</time></trkpt><trkpt lat="45.73104523354108" lon="9.953589397144409"><ele>1000.3333333333333</ele><time>2026-03-31T11:10:37Z</time></trkpt><trkpt lat="45.73098910880983" lon="9.95353021787248"><ele>1000.1666666666666</ele><time>2026-03-31T11:10:38Z</time></trkpt><trkpt lat="45.73092856683313" lon="9.95347228442436"><ele>1000.0</ele><time>2026-03-31T11:10:39Z</time></trkpt><trkpt lat="45.73083462081898" lon="9.953472730930365"><ele>1000.0</ele><time>2026-03-31T11:10:41Z</time></trkpt><trkpt lat="45.730717150103786" lon="9.953434224422052"><ele>1000.0</ele><time>2026-03-31T11:10:43Z</time></trkpt><trkpt lat="45.730685322341756" lon="9.953298317812164"><ele>1000.0</ele><time>2026-03-31T11:10:45Z</time></trkpt><trkpt lat="45.73074501979713" lon="9.953221974443673"><ele>1000.0</ele><time>2026-03-31T11:10:46Z</time></trkpt><trkpt lat="45.730827898425176" lon="9.953201814029972"><ele>1000.0</ele><time>2026-03-31T11:10:47Z</time></trkpt><trkpt lat="45.73090096468782" lon="9.95317325727669"><ele>997.8</ele><time>2026-03-31T11:10:48Z</time></trkpt><trkpt lat="45.73096061664718" lon="9.953083083358262"><ele>995.6</ele><time>2026-03-31T11:10:49Z</time></trkpt><trkpt lat="45.730989128819274" lon="9.952956697352564"><ele>993.4000000000001</ele><time>2026-03-31T11:10:50Z</time></trkpt><trkpt lat="45.731000965576285" lon="9.952827288403249"><ele>991.2</ele><time>2026-03-31T11:10:51Z</time></trkpt><trkpt lat="45.73101335312957" lon="9.952697798665646"><ele>989.0</ele><time>2026-03-31T11:10:52Z</time></trkpt><trkpt lat="45.73103582826347" lon="9.952571146064662"><ele>988.6666666666667</ele><time>2026-03-31T11:10:53Z</time></trkpt><trkpt lat="45.731076119759535" lon="9.952454709513267"><ele>988.3333333333334</ele><time>2026-03-31T11:10:54Z</time></trkpt><trkpt lat="45.731120939507896" lon="9.95235584222551"><ele>988.0</ele><time>2026-03-31T11:10:55Z</time></trkpt><trkpt lat="45.73117797971631" lon="9.95228071852451"><ele>987.6666666666667</ele><time>2026-03-31T11:10:56Z</time></trkpt><trkpt lat="45.731247905861814" lon="9.952226820013836"><ele>987.3333333333334</ele><time>2026-03-31T11:10:57Z</time></trkpt><trkpt lat="45.73132894856684" lon="9.952209488613262"><ele>987.0</ele><time>2026-03-31T11:10:58Z</time></trkpt><trkpt lat="45.73141069443722" lon="9.952208235874702"><ele>987.0</ele><time>2026-03-31T11:10:59Z</time></trkpt><trkpt lat="45.731485852167324" lon="9.952167321279695"><ele>987.0</ele><time>2026-03-31T11:11:00Z</time></trkpt><trkpt lat="45.73155139175952" lon="9.952087875443974"><ele>987.0</ele><time>2026-03-31T11:11:01Z</time></trkpt><trkpt lat="45.73157544835784" lon="9.951964366658695"><ele>987.0</ele><time>2026-03-31T11:11:02Z</time></trkpt><trkpt lat="45.731563325838444" lon="9.9518423433014"><ele>987.0</ele><time>2026-03-31T11:11:03Z</time></trkpt><trkpt lat="45.7315487964068" lon="9.95172754433643"><ele>987.0</ele><time>2026-03-31T11:11:04Z</time></trkpt><trkpt lat="45.73155079739041" lon="9.95160831990029"><ele>985.8333333333334</ele><time>2026-03-31T11:11:05Z</time></trkpt><trkpt lat="45.73156306821658" lon="9.951486807300238"><ele>984.6666666666667</ele><time>2026-03-31T11:11:06Z</time></trkpt><trkpt lat="45.73158286136051" lon="9.951365737047142"><ele>983.5</ele><time>2026-03-31T11:11:07Z</time></trkpt><trkpt lat="45.73161210077233" lon="9.951243932593469"><ele>982.3333333333334</ele><time>2026-03-31T11:11:08Z</time></trkpt><trkpt lat="45.731660549299434" lon="9.951133631152882"><ele>981.1666666666667</ele><time>2026-03-31T11:11:09Z</time></trkpt><trkpt lat="45.731721192764624" lon="9.95103716192517"><ele>980.0</ele><time>2026-03-31T11:11:10Z</time></trkpt><trkpt lat="45.73179170651537" lon="9.9509510982025"><ele>980.0</ele><time>2026-03-31T11:11:11Z</time></trkpt><trkpt lat="45.73187306453978" lon="9.95088586084229"><ele>980.0</ele><time>2026-03-31T11:11:12Z</time></trkpt><trkpt lat="45.73196277630682" lon="9.950848150001438"><ele>980.0</ele><time>2026-03-31T11:11:13Z</time></trkpt><trkpt lat="45.732055890033536" lon="9.950828134145446"><ele>980.0</ele><time>2026-03-31T11:11:14Z</time></trkpt><trkpt lat="45.73214925645116" lon="9.950833403833037"><ele>980.0</ele><time>2026-03-31T11:11:15Z</time></trkpt><trkpt lat="45.732242787217224" lon="9.950867733492998"><ele>978.8333333333334</ele><time>2026-03-31T11:11:16Z</time></trkpt><trkpt lat="45.732329967872964" lon="9.950919974429588"><ele>977.6666666666667</ele><time>2026-03-31T11:11:17Z</time></trkpt><trkpt lat="45.732414102177614" lon="9.950977117675507"><ele>976.5</ele><time>2026-03-31T11:11:18Z</time></trkpt><trkpt lat="45.73249163008713" lon="9.951026845084648"><ele>975.3333333333333</ele><time>2026-03-31T11:11:19Z</time></trkpt><trkpt lat="45.73256435206499" lon="9.951028034367443"><ele>974.1666666666666</ele><time>2026-03-31T11:11:20Z</time></trkpt><trkpt lat="45.732633367223414" lon="9.950974179588023"><ele>973.0</ele><time>2026-03-31T11:11:21Z</time></trkpt><trkpt lat="45.73267397740324" lon="9.950865827307103"><ele>973.0</ele><time>2026-03-31T11:11:22Z</time></trkpt><trkpt lat="45.73266559742045" lon="9.950740257321312"><ele>973.0</ele><time>2026-03-31T11:11:23Z</time></trkpt><trkpt lat="45.73263657075366" lon="9.950623508781597"><ele>973.0</ele><time>2026-03-31T11:11:24Z</time></trkpt><trkpt lat="45.73261460784704" lon="9.95050163821626"><ele>973.0</ele><time>2026-03-31T11:11:25Z</time></trkpt><trkpt lat="45.732604660570146" lon="9.950366181275356"><ele>973.0</ele><time>2026-03-31T11:11:26Z</time></trkpt><trkpt lat="45.732600906660544" lon="9.950228009196685"><ele>973.0</ele><time>2026-03-31T11:11:27Z</time></trkpt><trkpt lat="45.73260716144" lon="9.950085873421145"><ele>973.0</ele><time>2026-03-31T11:11:28Z</time></trkpt><trkpt lat="45.73262669636621" lon="9.949940277729407"><ele>973.0</ele><time>2026-03-31T11:11:29Z</time></trkpt><trkpt lat="45.732670190029914" lon="9.949801745533781"><ele>973.0</ele><time>2026-03-31T11:11:30Z</time></trkpt><trkpt lat="45.732739965728896" lon="9.949679193681199"><ele>973.0</ele><time>2026-03-31T11:11:31Z</time></trkpt><trkpt lat="45.73282892887754" lon="9.949575064389244"><ele>973.8</ele><time>2026-03-31T11:11:32Z</time></trkpt><trkpt lat="45.732927082567485" lon="9.949490836888"><ele>974.5999999999999</ele><time>2026-03-31T11:11:33Z</time></trkpt><trkpt lat="45.733035484910104" lon="9.94943082686295"><ele>975.4000000000001</ele><time>2026-03-31T11:11:34Z</time></trkpt><trkpt lat="45.73314241214866" lon="9.949393610507755"><ele>976.2</ele><time>2026-03-31T11:11:35Z</time></trkpt><trkpt lat="45.73324072169607" lon="9.949366358960013"><ele>977.0</ele><time>2026-03-31T11:11:36Z</time></trkpt><trkpt lat="45.733326313474926" lon="9.949305772990636"><ele>974.0</ele><time>2026-03-31T11:11:37Z</time></trkpt><trkpt lat="45.73339181642687" lon="9.949206527666615"><ele>971.0</ele><time>2026-03-31T11:11:38Z</time></trkpt><trkpt lat="45.73342458488736" lon="9.949088659397347"><ele>968.0</ele><time>2026-03-31T11:11:39Z</time></trkpt><trkpt lat="45.733424926387826" lon="9.948964892115493"><ele>965.0</ele><time>2026-03-31T11:11:40Z</time></trkpt><trkpt lat="45.73337673556045" lon="9.948839427138816"><ele>962.0</ele><time>2026-03-31T11:11:41Z</time></trkpt><trkpt lat="45.733307800077895" lon="9.948740340857078"><ele>962.0</ele><time>2026-03-31T11:11:42Z</time></trkpt><trkpt lat="45.73323999640618" lon="9.94862705987856"><ele>962.0</ele><time>2026-03-31T11:11:43Z</time></trkpt><trkpt lat="45.73318725891026" lon="9.948489324096998"><ele>962.0</ele><time>2026-03-31T11:11:44Z</time></trkpt><trkpt lat="45.7331548413152" lon="9.948342021196073"><ele>962.0</ele><time>2026-03-31T11:11:45Z</time></trkpt><trkpt lat="45.733144433752365" lon="9.948177865700993"><ele>962.0</ele><time>2026-03-31T11:11:46Z</time></trkpt><trkpt lat="45.733150156104955" lon="9.948016433897934"><ele>960.5</ele><time>2026-03-31T11:11:47Z</time></trkpt><trkpt lat="45.73315989414562" lon="9.947847318949822"><ele>959.0</ele><time>2026-03-31T11:11:48Z</time></trkpt><trkpt lat="45.73316957887336" lon="9.947681850004155"><ele>957.5</ele><time>2026-03-31T11:11:49Z</time></trkpt><trkpt lat="45.73316549056655" lon="9.947515305265021"><ele>956.0</ele><time>2026-03-31T11:11:50Z</time></trkpt><trkpt lat="45.73318080296643" lon="9.947344309790392"><ele>953.75</ele><time>2026-03-31T11:11:51Z</time></trkpt><trkpt lat="45.73319062263773" lon="9.947174237369708"><ele>951.5</ele><time>2026-03-31T11:11:52Z</time></trkpt><trkpt lat="45.733198020197214" lon="9.947010971249355"><ele>949.25</ele><time>2026-03-31T11:11:53Z</time></trkpt><trkpt lat="45.73320661385642" lon="9.946845920674823"><ele>947.0</ele><time>2026-03-31T11:11:54Z</time></trkpt><trkpt lat="45.73322153961508" lon="9.946686821729013"><ele>945.5000000000001</ele><time>2026-03-31T11:11:55Z</time></trkpt><trkpt lat="45.73324510777249" lon="9.946547539761248"><ele>944.0</ele><time>2026-03-31T11:11:56Z</time></trkpt><trkpt lat="45.733259661124904" lon="9.946419075228281"><ele>942.5</ele><time>2026-03-31T11:11:57Z</time></trkpt><trkpt lat="45.73325577018816" lon="9.946317769383857"><ele>941.0</ele><time>2026-03-31T11:11:58Z</time></trkpt><trkpt lat="45.73319072884349" lon="9.94621303291957"><ele>939.5000000000001</ele><time>2026-03-31T11:12:00Z</time></trkpt><trkpt lat="45.733119030307755" lon="9.946237834807313"><ele>938.0</ele><time>2026-03-31T11:12:01Z</time></trkpt><trkpt lat="45.73307427253654" lon="9.94633477054626"><ele>938.0</ele><time>2026-03-31T11:12:02Z</time></trkpt><trkpt lat="45.73305822312844" lon="9.946434205530418"><ele>938.0</ele><time>2026-03-31T11:12:03Z</time></trkpt><trkpt lat="45.73303790275877" lon="9.946527921672272"><ele>938.0</ele><time>2026-03-31T11:12:04Z</time></trkpt><trkpt lat="45.73301783099835" lon="9.946623038837037"><ele>938.0</ele><time>2026-03-31T11:12:05Z</time></trkpt><trkpt lat="45.733003040291074" lon="9.946721028118674"><ele>938.0</ele><time>2026-03-31T11:12:06Z</time></trkpt><trkpt lat="45.73298420859554" lon="9.94681828033508"><ele>938.0</ele><time>2026-03-31T11:12:07Z</time></trkpt><trkpt lat="45.732969385765756" lon="9.946918487679001"><ele>938.0</ele><time>2026-03-31T11:12:08Z</time></trkpt><trkpt lat="45.7329623016502" lon="9.947021473286233"><ele>939.5000000000001</ele><time>2026-03-31T11:12:09Z</time></trkpt><trkpt lat="45.732951503492096" lon="9.94712541538599"><ele>941.0</ele><time>2026-03-31T11:12:10Z</time></trkpt><trkpt lat="45.73293709578423" lon="9.947231322886443"><ele>942.5</ele><time>2026-03-31T11:12:11Z</time></trkpt><trkpt lat="45.732915698714145" lon="9.947325336310275"><ele>944.0</ele><time>2026-03-31T11:12:12Z</time></trkpt><trkpt lat="45.73287845392678" lon="9.947401424993492"><ele>945.5000000000001</ele><time>2026-03-31T11:12:13Z</time></trkpt><trkpt lat="45.732763414842" lon="9.947382771164193"><ele>947.0</ele><time>2026-03-31T11:12:15Z</time></trkpt><trkpt lat="45.73273285202535" lon="9.947269861373414"><ele>947.0000000000001</ele><time>2026-03-31T11:12:16Z</time></trkpt><trkpt lat="45.732730498675046" lon="9.947150601615627"><ele>947.0</ele><time>2026-03-31T11:12:17Z</time></trkpt><trkpt lat="45.73272824175951" lon="9.947036666721207"><ele>947.0</ele><time>2026-03-31T11:12:18Z</time></trkpt><trkpt lat="45.732717843489375" lon="9.946912454335902"><ele>947.0</ele><time>2026-03-31T11:12:19Z</time></trkpt><trkpt lat="45.73270413306679" lon="9.946783948839911"><ele>947.0000000000001</ele><time>2026-03-31T11:12:20Z</time></trkpt><trkpt lat="45.732693449790254" lon="9.946651123645484"><ele>947.0</ele><time>2026-03-31T11:12:21Z</time></trkpt><trkpt lat="45.73268360030079" lon="9.946512876929777"><ele>940.4000000000001</ele><time>2026-03-31T11:12:22Z</time></trkpt><trkpt lat="45.73267379324406" lon="9.946371594675755"><ele>933.8000000000001</ele><time>2026-03-31T11:12:23Z</time></trkpt><trkpt lat="45.73264826053303" lon="9.946223542835712"><ele>927.2</ele><time>2026-03-31T11:12:24Z</time></trkpt><trkpt lat="45.73262224924495" lon="9.946072595301308"><ele>920.6</ele><time>2026-03-31T11:12:25Z</time></trkpt><trkpt lat="45.73259444564663" lon="9.945922960608492"><ele>914.0</ele><time>2026-03-31T11:12:26Z</time></trkpt><trkpt lat="45.73256726685048" lon="9.945768307928162"><ele>912.8333333333334</ele><time>2026-03-31T11:12:27Z</time></trkpt><trkpt lat="45.732542706680164" lon="9.94562019364126"><ele>911.6666666666667</ele><time>2026-03-31T11:12:28Z</time></trkpt><trkpt lat="45.732527473452194" lon="9.945490131145466"><ele>910.5</ele><time>2026-03-31T11:12:29Z</time></trkpt><trkpt lat="45.73252460422646" lon="9.945374229971232"><ele>909.3333333333333</ele><time>2026-03-31T11:12:30Z</time></trkpt><trkpt lat="45.7325452904713" lon="9.945272396294474"><ele>908.1666666666666</ele><time>2026-03-31T11:12:31Z</time></trkpt><trkpt lat="45.732601832817146" lon="9.945198755379176"><ele>907.0</ele><time>2026-03-31T11:12:32Z</time></trkpt><trkpt lat="45.73268078797814" lon="9.945162129989784"><ele>909.9999999999999</ele><time>2026-03-31T11:12:33Z</time></trkpt><trkpt lat="45.7327587318221" lon="9.945173809255657"><ele>913.0</ele><time>2026-03-31T11:12:34Z</time></trkpt><trkpt lat="45.73283763752756" lon="9.945228347876647"><ele>916.0</ele><time>2026-03-31T11:12:35Z</time></trkpt><trkpt lat="45.73291624213166" lon="9.945278512646635"><ele>919.0</ele><time>2026-03-31T11:12:36Z</time></trkpt><trkpt lat="45.732999065150466" lon="9.94532726626224"><ele>921.9999999999999</ele><time>2026-03-31T11:12:37Z</time></trkpt><trkpt lat="45.73308788041363" lon="9.9453703006181"><ele>925.0</ele><time>2026-03-31T11:12:38Z</time></trkpt><trkpt lat="45.73317744361001" lon="9.945402662590915"><ele>924.9999999999999</ele><time>2026-03-31T11:12:39Z</time></trkpt><trkpt lat="45.733254086960336" lon="9.945417752602447"><ele>925.0</ele><time>2026-03-31T11:12:40Z</time></trkpt><trkpt lat="45.7333211403362" lon="9.945374451464973"><ele>925.0</ele><time>2026-03-31T11:12:41Z</time></trkpt><trkpt lat="45.73335801059348" lon="9.94529037312591"><ele>925.0</ele><time>2026-03-31T11:12:42Z</time></trkpt><trkpt lat="45.73334668662614" lon="9.9451870676527"><ele>924.9999999999999</ele><time>2026-03-31T11:12:43Z</time></trkpt><trkpt lat="45.733309122219026" lon="9.945091890957038"><ele>925.0</ele><time>2026-03-31T11:12:44Z</time></trkpt><trkpt lat="45.73327565444199" lon="9.944912357762188"><ele>922.7142857142858</ele><time>2026-03-31T11:12:46Z</time></trkpt><trkpt lat="45.733271052535365" lon="9.944810676012953"><ele>920.4285714285713</ele><time>2026-03-31T11:12:47Z</time></trkpt><trkpt lat="45.73327321062974" lon="9.944707538184133"><ele>918.1428571428571</ele><time>2026-03-31T11:12:48Z</time></trkpt><trkpt lat="45.73328069961275" lon="9.94460514912301"><ele>915.8571428571429</ele><time>2026-03-31T11:12:49Z</time></trkpt><trkpt lat="45.733291225869564" lon="9.944499860735919"><ele>913.5714285714287</ele><time>2026-03-31T11:12:50Z</time></trkpt><trkpt lat="45.733305107831484" lon="9.944392614440996"><ele>911.2857142857142</ele><time>2026-03-31T11:12:51Z</time></trkpt><trkpt lat="45.733326480652146" lon="9.944286197401313"><ele>909.0</ele><time>2026-03-31T11:12:52Z</time></trkpt><trkpt lat="45.73335684786483" lon="9.944181130010605"><ele>907.5</ele><time>2026-03-31T11:12:53Z</time></trkpt><trkpt lat="45.73339526859922" lon="9.94407989926141"><ele>906.0</ele><time>2026-03-31T11:12:54Z</time></trkpt><trkpt lat="45.73343958767421" lon="9.943983160130395"><ele>904.5</ele><time>2026-03-31T11:12:55Z</time></trkpt><trkpt lat="45.73349409331342" lon="9.943908943116377"><ele>903.0</ele><time>2026-03-31T11:12:56Z</time></trkpt><trkpt lat="45.7335645055089" lon="9.943867325167602"><ele>901.5</ele><time>2026-03-31T11:12:57Z</time></trkpt><trkpt lat="45.73365025973735" lon="9.943875919247812"><ele>900.0</ele><time>2026-03-31T11:12:58Z</time></trkpt><trkpt lat="45.733734163799326" lon="9.943898494747035"><ele>902.1666666666666</ele><time>2026-03-31T11:12:59Z</time></trkpt><trkpt lat="45.73380474099088" lon="9.943862837096734"><ele>904.3333333333333</ele><time>2026-03-31T11:13:00Z</time></trkpt><trkpt lat="45.73383518295272" lon="9.943766902079185"><ele>906.5</ele><time>2026-03-31T11:13:01Z</time></trkpt><trkpt lat="45.733817405810434" lon="9.943647626369438"><ele>908.6666666666666</ele><time>2026-03-31T11:13:02Z</time></trkpt><trkpt lat="45.73376267172925" lon="9.943548150307054"><ele>910.8333333333333</ele><time>2026-03-31T11:13:03Z</time></trkpt><trkpt lat="45.73370249568303" lon="9.943460104533857"><ele>913.0</ele><time>2026-03-31T11:13:04Z</time></trkpt><trkpt lat="45.73365165444233" lon="9.943368081887785"><ele>913.0</ele><time>2026-03-31T11:13:05Z</time></trkpt><trkpt lat="45.733611654738866" lon="9.94325099164392"><ele>913.0</ele><time>2026-03-31T11:13:06Z</time></trkpt><trkpt lat="45.733578280585874" lon="9.943136032526656"><ele>913.0</ele><time>2026-03-31T11:13:07Z</time></trkpt><trkpt lat="45.73354764765288" lon="9.943007983119998"><ele>913.0</ele><time>2026-03-31T11:13:08Z</time></trkpt><trkpt lat="45.733526626679584" lon="9.942877178296664"><ele>913.0</ele><time>2026-03-31T11:13:09Z</time></trkpt><trkpt lat="45.733524935065525" lon="9.942737122234458"><ele>912.2</ele><time>2026-03-31T11:13:10Z</time></trkpt><trkpt lat="45.7335444470625" lon="9.942595316599242"><ele>911.4</ele><time>2026-03-31T11:13:11Z</time></trkpt><trkpt lat="45.73357756312646" lon="9.942456966628397"><ele>910.6000000000001</ele><time>2026-03-31T11:13:12Z</time></trkpt><trkpt lat="45.733611356618816" lon="9.942322525194182"><ele>909.8000000000001</ele><time>2026-03-31T11:13:13Z</time></trkpt><trkpt lat="45.73364343657002" lon="9.942197406864986"><ele>909.0</ele><time>2026-03-31T11:13:14Z</time></trkpt><trkpt lat="45.73367438091535" lon="9.942076140632965"><ele>909.0</ele><time>2026-03-31T11:13:15Z</time></trkpt><trkpt lat="45.733703761041106" lon="9.941951235501854"><ele>909.0000000000001</ele><time>2026-03-31T11:13:16Z</time></trkpt><trkpt lat="45.733738313773436" lon="9.94182941081253"><ele>909.0000000000001</ele><time>2026-03-31T11:13:17Z</time></trkpt><trkpt lat="45.73378429907126" lon="9.941708804801499"><ele>909.0</ele><time>2026-03-31T11:13:18Z</time></trkpt><trkpt lat="45.73384036774964" lon="9.941603501150123"><ele>909.0</ele><time>2026-03-31T11:13:19Z</time></trkpt><trkpt lat="45.73389498755838" lon="9.941509678008702"><ele>906.3333333333334</ele><time>2026-03-31T11:13:20Z</time></trkpt><trkpt lat="45.733954510241915" lon="9.94141651010155"><ele>903.6666666666667</ele><time>2026-03-31T11:13:21Z</time></trkpt><trkpt lat="45.734000895018056" lon="9.94132226262014"><ele>901.0</ele><time>2026-03-31T11:13:22Z</time></trkpt><trkpt lat="45.734004611823224" lon="9.941225062930213"><ele>898.3333333333334</ele><time>2026-03-31T11:13:23Z</time></trkpt><trkpt lat="45.73395629620884" lon="9.941148282436462"><ele>895.6666666666667</ele><time>2026-03-31T11:13:24Z</time></trkpt><trkpt lat="45.733875445125996" lon="9.941128704244976"><ele>893.0</ele><time>2026-03-31T11:13:25Z</time></trkpt><trkpt lat="45.73379626909416" lon="9.94118648574022"><ele>893.0000000000001</ele><time>2026-03-31T11:13:26Z</time></trkpt><trkpt lat="45.733740950050034" lon="9.941282056975249"><ele>893.0</ele><time>2026-03-31T11:13:27Z</time></trkpt><trkpt lat="45.7336973090907" lon="9.94137976177889"><ele>893.0</ele><time>2026-03-31T11:13:28Z</time></trkpt><trkpt lat="45.733648913321346" lon="9.941466949518746"><ele>893.0</ele><time>2026-03-31T11:13:29Z</time></trkpt><trkpt lat="45.73359807506088" lon="9.94155528546048"><ele>893.0000000000001</ele><time>2026-03-31T11:13:30Z</time></trkpt><trkpt lat="45.733551039419375" lon="9.941650532518072"><ele>893.0</ele><time>2026-03-31T11:13:31Z</time></trkpt><trkpt lat="45.73351352196163" lon="9.941754579403224"><ele>890.8333333333334</ele><time>2026-03-31T11:13:32Z</time></trkpt><trkpt lat="45.73348419075106" lon="9.94187021247977"><ele>888.6666666666667</ele><time>2026-03-31T11:13:33Z</time></trkpt><trkpt lat="45.73346910389319" lon="9.94198882749101"><ele>886.5</ele><time>2026-03-31T11:13:34Z</time></trkpt><trkpt lat="45.73344891520591" lon="9.942094018737647"><ele>884.3333333333333</ele><time>2026-03-31T11:13:35Z</time></trkpt><trkpt lat="45.73333550793716" lon="9.942172571015995"><ele>882.1666666666666</ele><time>2026-03-31T11:13:37Z</time></trkpt><trkpt lat="45.73327162938288" lon="9.94213793504042"><ele>880.0</ele><time>2026-03-31T11:13:38Z</time></trkpt><trkpt lat="45.73324205028417" lon="9.942032090833727"><ele>879.9999999999999</ele><time>2026-03-31T11:13:39Z</time></trkpt><trkpt lat="45.73324787266455" lon="9.941912855214882"><ele>880.0</ele><time>2026-03-31T11:13:40Z</time></trkpt><trkpt lat="45.73328069991301" lon="9.941800898920304"><ele>880.0</ele><time>2026-03-31T11:13:41Z</time></trkpt><trkpt lat="45.73331104329865" lon="9.941688669971054"><ele>880.0</ele><time>2026-03-31T11:13:42Z</time></trkpt><trkpt lat="45.73332452866555" lon="9.941567140982707"><ele>879.9999999999999</ele><time>2026-03-31T11:13:43Z</time></trkpt><trkpt lat="45.733343401206106" lon="9.941435897819655"><ele>880.0</ele><time>2026-03-31T11:13:44Z</time></trkpt><trkpt lat="45.73336562166547" lon="9.941303556448261"><ele>878.4</ele><time>2026-03-31T11:13:45Z</time></trkpt><trkpt lat="45.73338338490938" lon="9.941165271179306"><ele>876.8</ele><time>2026-03-31T11:13:46Z</time></trkpt><trkpt lat="45.733402532018005" lon="9.941022743779639"><ele>875.2</ele><time>2026-03-31T11:13:47Z</time></trkpt><trkpt lat="45.73343337014158" lon="9.940879269037236"><ele>873.6</ele><time>2026-03-31T11:13:48Z</time></trkpt><trkpt lat="45.73346974615339" lon="9.94074487144951"><ele>872.0</ele><time>2026-03-31T11:13:49Z</time></trkpt><trkpt lat="45.733491083921685" lon="9.940625325926499"><ele>869.6666666666667</ele><time>2026-03-31T11:13:50Z</time></trkpt><trkpt lat="45.73347359700675" lon="9.940523684460025"><ele>867.3333333333334</ele><time>2026-03-31T11:13:51Z</time></trkpt><trkpt lat="45.733412116563144" lon="9.940451211409496"><ele>865.0</ele><time>2026-03-31T11:13:52Z</time></trkpt><trkpt lat="45.733314001999716" lon="9.940436067321148"><ele>862.6666666666667</ele><time>2026-03-31T11:13:53Z</time></trkpt><trkpt lat="45.733246179302114" lon="9.940517545134814"><ele>860.3333333333334</ele><time>2026-03-31T11:13:54Z</time></trkpt><trkpt lat="45.73320374742376" lon="9.940641002255779"><ele>858.0</ele><time>2026-03-31T11:13:55Z</time></trkpt><trkpt lat="45.73320040092474" lon="9.940780064340354"><ele>860.8</ele><time>2026-03-31T11:13:56Z</time></trkpt><trkpt lat="45.73323232764643" lon="9.940919744056782"><ele>863.5999999999999</ele><time>2026-03-31T11:13:57Z</time></trkpt><trkpt lat="45.73322842878753" lon="9.941019157211189"><ele>866.4000000000001</ele><time>2026-03-31T11:13:58Z</time></trkpt><trkpt lat="45.733126732687616" lon="9.941091510934864"><ele>869.2</ele><time>2026-03-31T11:14:00Z</time></trkpt><trkpt lat="45.73305969282197" lon="9.941031027492462"><ele>872.0</ele><time>2026-03-31T11:14:01Z</time></trkpt><trkpt lat="45.73301949544378" lon="9.9409194334786"><ele>869.2</ele><time>2026-03-31T11:14:02Z</time></trkpt><trkpt lat="45.733012124507916" lon="9.94079440850032"><ele>866.4000000000001</ele><time>2026-03-31T11:14:03Z</time></trkpt><trkpt lat="45.73300549294473" lon="9.940670829764318"><ele>863.5999999999999</ele><time>2026-03-31T11:14:04Z</time></trkpt><trkpt lat="45.732991328154505" lon="9.940544269000293"><ele>860.8</ele><time>2026-03-31T11:14:05Z</time></trkpt><trkpt lat="45.732968342269714" lon="9.940411784399183"><ele>858.0</ele><time>2026-03-31T11:14:06Z</time></trkpt><trkpt lat="45.732944866497654" lon="9.940273276510858"><ele>858.0</ele><time>2026-03-31T11:14:07Z</time></trkpt><trkpt lat="45.732922514246454" lon="9.940131097682636"><ele>858.0</ele><time>2026-03-31T11:14:08Z</time></trkpt><trkpt lat="45.732919397458204" lon="9.940001175959342"><ele>858.0</ele><time>2026-03-31T11:14:09Z</time></trkpt><trkpt lat="45.732939286996555" lon="9.939873474500589"><ele>858.0</ele><time>2026-03-31T11:14:10Z</time></trkpt><trkpt lat="45.73297571950129" lon="9.939760977378075"><ele>858.0</ele><time>2026-03-31T11:14:11Z</time></trkpt><trkpt lat="45.73300600205502" lon="9.939663412575682"><ele>858.0</ele><time>2026-03-31T11:14:12Z</time></trkpt><trkpt lat="45.73293657135342" lon="9.939513636614375"><ele>855.1666666666666</ele><time>2026-03-31T11:14:14Z</time></trkpt><trkpt lat="45.732855470625594" lon="9.939504642384167"><ele>852.3333333333333</ele><time>2026-03-31T11:14:15Z</time></trkpt><trkpt lat="45.732788718230005" lon="9.939575144940964"><ele>849.5</ele><time>2026-03-31T11:14:16Z</time></trkpt><trkpt lat="45.7327386874054" lon="9.93968347342191"><ele>846.6666666666666</ele><time>2026-03-31T11:14:17Z</time></trkpt><trkpt lat="45.73269800234399" lon="9.93979783469906"><ele>843.8333333333333</ele><time>2026-03-31T11:14:18Z</time></trkpt><trkpt lat="45.73265658900281" lon="9.93991022299914"><ele>841.0</ele><time>2026-03-31T11:14:19Z</time></trkpt><trkpt lat="45.73262361954349" lon="9.940038176237667"><ele>840.5999999999999</ele><time>2026-03-31T11:14:20Z</time></trkpt><trkpt lat="45.732620471730385" lon="9.94017993354066"><ele>840.2</ele><time>2026-03-31T11:14:21Z</time></trkpt><trkpt lat="45.73263963144472" lon="9.940325296174622"><ele>839.8</ele><time>2026-03-31T11:14:22Z</time></trkpt><trkpt lat="45.73266144242213" lon="9.940469765216376"><ele>839.4000000000001</ele><time>2026-03-31T11:14:23Z</time></trkpt><trkpt lat="45.73268366023776" lon="9.940614946057764"><ele>839.0</ele><time>2026-03-31T11:14:24Z</time></trkpt><trkpt lat="45.73270432136951" lon="9.940761665961551"><ele>841.4000000000001</ele><time>2026-03-31T11:14:25Z</time></trkpt><trkpt lat="45.73272003027466" lon="9.940906085899151"><ele>843.8</ele><time>2026-03-31T11:14:26Z</time></trkpt><trkpt lat="45.73273075444738" lon="9.941026226192486"><ele>846.2</ele><time>2026-03-31T11:14:27Z</time></trkpt><trkpt lat="45.73266950110866" lon="9.941159013432486"><ele>848.5999999999999</ele><time>2026-03-31T11:14:29Z</time></trkpt><trkpt lat="45.73259691726717" lon="9.94115033223261"><ele>851.0</ele><time>2026-03-31T11:14:30Z</time></trkpt><trkpt lat="45.732536567886534" lon="9.941066165859555"><ele>851.0000000000001</ele><time>2026-03-31T11:14:31Z</time></trkpt><trkpt lat="45.73249646135742" lon="9.940971196934148"><ele>851.0</ele><time>2026-03-31T11:14:32Z</time></trkpt><trkpt lat="45.73245250485534" lon="9.940878865832936"><ele>851.0</ele><time>2026-03-31T11:14:33Z</time></trkpt><trkpt lat="45.732401752588025" lon="9.940786548691214"><ele>851.0</ele><time>2026-03-31T11:14:34Z</time></trkpt><trkpt lat="45.73233662183478" lon="9.940702002691182"><ele>851.0000000000001</ele><time>2026-03-31T11:14:35Z</time></trkpt><trkpt lat="45.732267966602144" lon="9.940618947293153"><ele>851.0</ele><time>2026-03-31T11:14:36Z</time></trkpt><trkpt lat="45.732199150987526" lon="9.940530443713829"><ele>848.5999999999999</ele><time>2026-03-31T11:14:37Z</time></trkpt><trkpt lat="45.73212375070573" lon="9.94044715132237"><ele>846.2</ele><time>2026-03-31T11:14:38Z</time></trkpt><trkpt lat="45.73204153105797" lon="9.940364827177866"><ele>843.8</ele><time>2026-03-31T11:14:39Z</time></trkpt><trkpt lat="45.73195438785964" lon="9.940292626616833"><ele>841.4000000000001</ele><time>2026-03-31T11:14:40Z</time></trkpt><trkpt lat="45.731868382205754" lon="9.940225414509"><ele>839.0</ele><time>2026-03-31T11:14:41Z</time></trkpt><trkpt lat="45.731781099776626" lon="9.940185833774908"><ele>835.2</ele><time>2026-03-31T11:14:42Z</time></trkpt><trkpt lat="45.73168631556203" lon="9.940173335599134"><ele>831.4000000000001</ele><time>2026-03-31T11:14:43Z</time></trkpt><trkpt lat="45.73159410736383" lon="9.940192317943922"><ele>827.6</ele><time>2026-03-31T11:14:44Z</time></trkpt><trkpt lat="45.731509431132146" lon="9.940242947955625"><ele>823.8</ele><time>2026-03-31T11:14:45Z</time></trkpt><trkpt lat="45.7314292054165" lon="9.940317699808014"><ele>820.0</ele><time>2026-03-31T11:14:46Z</time></trkpt><trkpt lat="45.73135654652232" lon="9.940408307824697"><ele>820.0</ele><time>2026-03-31T11:14:47Z</time></trkpt><trkpt lat="45.73128998380533" lon="9.940506890098888"><ele>820.0</ele><time>2026-03-31T11:14:48Z</time></trkpt><trkpt lat="45.73122350650379" lon="9.940609056243382"><ele>820.0</ele><time>2026-03-31T11:14:49Z</time></trkpt><trkpt lat="45.73116213805256" lon="9.940720637980863"><ele>820.0</ele><time>2026-03-31T11:14:50Z</time></trkpt><trkpt lat="45.7311114056112" lon="9.940843714011836"><ele>820.0</ele><time>2026-03-31T11:14:51Z</time></trkpt><trkpt lat="45.73106871542098" lon="9.94096428449411"><ele>818.3333333333333</ele><time>2026-03-31T11:14:52Z</time></trkpt><trkpt lat="45.731029707025165" lon="9.941055673171645"><ele>816.6666666666666</ele><time>2026-03-31T11:14:53Z</time></trkpt><trkpt lat="45.73092543305976" lon="9.941111824037304"><ele>815.0</ele><time>2026-03-31T11:14:55Z</time></trkpt><trkpt lat="45.730870899152" lon="9.941040470953864"><ele>813.3333333333333</ele><time>2026-03-31T11:14:56Z</time></trkpt><trkpt lat="45.73085525838288" lon="9.940921448775793"><ele>811.6666666666666</ele><time>2026-03-31T11:14:57Z</time></trkpt><trkpt lat="45.73088176260861" lon="9.940787710329339"><ele>810.0</ele><time>2026-03-31T11:14:58Z</time></trkpt><trkpt lat="45.73090249273056" lon="9.940671461885742"><ele>808.0</ele><time>2026-03-31T11:14:59Z</time></trkpt><trkpt lat="45.730920358946214" lon="9.940541900254395"><ele>806.0</ele><time>2026-03-31T11:15:00Z</time></trkpt><trkpt lat="45.730940563966705" lon="9.940413766202727"><ele>804.0</ele><time>2026-03-31T11:15:01Z</time></trkpt><trkpt lat="45.73096035830122" lon="9.940283274621274"><ele>802.0</ele><time>2026-03-31T11:15:02Z</time></trkpt><trkpt lat="45.73097235185853" lon="9.94014495656197"><ele>800.0</ele><time>2026-03-31T11:15:03Z</time></trkpt><trkpt lat="45.73098253349271" lon="9.939995316714986"><ele>801.4</ele><time>2026-03-31T11:15:04Z</time></trkpt><trkpt lat="45.73099719840239" lon="9.93983650122152"><ele>802.8</ele><time>2026-03-31T11:15:05Z</time></trkpt><trkpt lat="45.731015010063395" lon="9.939683512462498"><ele>804.2</ele><time>2026-03-31T11:15:06Z</time></trkpt><trkpt lat="45.73104183360018" lon="9.939563742477903"><ele>805.6</ele><time>2026-03-31T11:15:07Z</time></trkpt><trkpt lat="45.73108696175854" lon="9.939466945704792"><ele>807.0</ele><time>2026-03-31T11:15:08Z</time></trkpt><trkpt lat="45.7311468976937" lon="9.939393359366127"><ele>807.0</ele><time>2026-03-31T11:15:09Z</time></trkpt><trkpt lat="45.7312343458002" lon="9.939349514011733"><ele>807.0</ele><time>2026-03-31T11:15:10Z</time></trkpt><trkpt lat="45.731330316743424" lon="9.939357902011464"><ele>807.0</ele><time>2026-03-31T11:15:11Z</time></trkpt><trkpt lat="45.73139987573264" lon="9.939339193388589"><ele>807.0</ele><time>2026-03-31T11:15:12Z</time></trkpt><trkpt lat="45.73142995252624" lon="9.93917365065202"><ele>807.0</ele><time>2026-03-31T11:15:14Z</time></trkpt><trkpt lat="45.73138448534091" lon="9.93909960504663"><ele>807.0</ele><time>2026-03-31T11:15:15Z</time></trkpt><trkpt lat="45.731320041246796" lon="9.939061987081608"><ele>805.1666666666666</ele><time>2026-03-31T11:15:16Z</time></trkpt><trkpt lat="45.731247890886806" lon="9.939035853165556"><ele>803.3333333333333</ele><time>2026-03-31T11:15:17Z</time></trkpt><trkpt lat="45.73118688577459" lon="9.938970497920907"><ele>801.5</ele><time>2026-03-31T11:15:18Z</time></trkpt><trkpt lat="45.7311140581843" lon="9.938897398000993"><ele>799.6666666666666</ele><time>2026-03-31T11:15:20Z</time></trkpt><trkpt lat="45.73105832133256" lon="9.938844524622665"><ele>797.8333333333333</ele><time>2026-03-31T11:15:21Z</time></trkpt><trkpt lat="45.7310003820191" lon="9.938787705936932"><ele>796.0</ele><time>2026-03-31T11:15:22Z</time></trkpt><trkpt lat="45.73093882546842" lon="9.938724347859006"><ele>793.8333333333333</ele><time>2026-03-31T11:15:23Z</time></trkpt><trkpt lat="45.730877393211046" lon="9.938661372453556"><ele>791.6666666666666</ele><time>2026-03-31T11:15:24Z</time></trkpt><trkpt lat="45.73081154178864" lon="9.938573486516438"><ele>789.5</ele><time>2026-03-31T11:15:26Z</time></trkpt><trkpt lat="45.730747144698064" lon="9.938596194993723"><ele>787.3333333333333</ele><time>2026-03-31T11:15:59Z</time></trkpt><trkpt lat="45.73065194371932" lon="9.9386169974287"><ele>785.1666666666666</ele><time>2026-03-31T11:16:01Z</time></trkpt><trkpt lat="45.730581353095964" lon="9.938731348646005"><ele>783.0</ele><time>2026-03-31T11:16:03Z</time></trkpt><trkpt lat="45.730538941630094" lon="9.938811461665978"><ele>783.0</ele><time>2026-03-31T11:16:04Z</time></trkpt><trkpt lat="45.73049255812787" lon="9.938884291406405"><ele>783.0</ele><time>2026-03-31T11:16:05Z</time></trkpt><trkpt lat="45.730440802526516" lon="9.938959237491835"><ele>783.0</ele><time>2026-03-31T11:16:06Z</time></trkpt><trkpt lat="45.73042065983683" lon="9.939047992120598"><ele>783.0</ele><time>2026-03-31T11:16:07Z</time></trkpt><trkpt lat="45.730402533198415" lon="9.93914118247457"><ele>783.0</ele><time>2026-03-31T11:16:08Z</time></trkpt><trkpt lat="45.73037826899592" lon="9.939240839941139"><ele>783.0</ele><time>2026-03-31T11:16:09Z</time></trkpt><trkpt lat="45.73035240375206" lon="9.939348985506658"><ele>783.0</ele><time>2026-03-31T11:16:10Z</time></trkpt><trkpt lat="45.73033337430623" lon="9.939450950623257"><ele>782.0</ele><time>2026-03-31T11:16:11Z</time></trkpt><trkpt lat="45.730324553480095" lon="9.939545971841705"><ele>781.0</ele><time>2026-03-31T11:16:12Z</time></trkpt><trkpt lat="45.730314223245095" lon="9.939637408195896"><ele>780.0</ele><time>2026-03-31T11:16:13Z</time></trkpt><trkpt lat="45.73029706382946" lon="9.939814955955558"><ele>779.0</ele><time>2026-03-31T11:16:15Z</time></trkpt><trkpt lat="45.7302853563949" lon="9.93990667629568"><ele>778.0</ele><time>2026-03-31T11:16:16Z</time></trkpt><trkpt lat="45.73023658188943" lon="9.940030781690345"><ele>777.0</ele><time>2026-03-31T11:16:18Z</time></trkpt><trkpt lat="45.73012289772716" lon="9.939969838105807"><ele>777.0</ele><time>2026-03-31T11:16:20Z</time></trkpt><trkpt lat="45.730082140578816" lon="9.939825030436792"><ele>777.0</ele><time>2026-03-31T11:16:22Z</time></trkpt><trkpt lat="45.73003743653839" lon="9.939691607195986"><ele>777.0</ele><time>2026-03-31T11:16:24Z</time></trkpt><trkpt lat="45.729960646942644" lon="9.939603613816052"><ele>777.0</ele><time>2026-03-31T11:16:26Z</time></trkpt><trkpt lat="45.729909682161406" lon="9.939501218445734"><ele>777.0</ele><time>2026-03-31T11:16:28Z</time></trkpt><trkpt lat="45.72983316464956" lon="9.939436217433697"><ele>777.0</ele><time>2026-03-31T11:16:30Z</time></trkpt><trkpt lat="45.72974666542416" lon="9.93937451341174"><ele>777.0</ele><time>2026-03-31T11:16:32Z</time></trkpt><trkpt lat="45.72964780227491" lon="9.939311373693036"><ele>777.0</ele><time>2026-03-31T11:16:34Z</time></trkpt><trkpt lat="45.729545117527685" lon="9.939226989832948"><ele>777.0</ele><time>2026-03-31T11:16:36Z</time></trkpt><trkpt lat="45.72947919053811" lon="9.939094108081738"><ele>777.0</ele><time>2026-03-31T11:16:38Z</time></trkpt><trkpt lat="45.72948647634654" lon="9.938926607123676"><ele>775.4000000000001</ele><time>2026-03-31T11:16:40Z</time></trkpt><trkpt lat="45.729501078445416" lon="9.938777330895524"><ele>773.8000000000001</ele><time>2026-03-31T11:16:42Z</time></trkpt><trkpt lat="45.72951166040077" lon="9.938669410176786"><ele>772.2</ele><time>2026-03-31T11:16:44Z</time></trkpt><trkpt lat="45.729479514925906" lon="9.938537093128103"><ele>770.6</ele><time>2026-03-31T11:17:00Z</time></trkpt><trkpt lat="45.7294357173546" lon="9.938382817183276"><ele>769.0</ele><time>2026-03-31T11:17:02Z</time></trkpt><trkpt lat="45.72939410000132" lon="9.938205963904169"><ele>768.8333333333333</ele><time>2026-03-31T11:17:04Z</time></trkpt><trkpt lat="45.72936923592478" lon="9.93810895118856"><ele>768.6666666666666</ele><time>2026-03-31T11:17:05Z</time></trkpt><trkpt lat="45.729340001835624" lon="9.938006171725371"><ele>768.5</ele><time>2026-03-31T11:17:06Z</time></trkpt><trkpt lat="45.72931148194084" lon="9.937897232832139"><ele>768.3333333333333</ele><time>2026-03-31T11:17:07Z</time></trkpt><trkpt lat="45.72927835932959" lon="9.9377813172771"><ele>768.1666666666666</ele><time>2026-03-31T11:17:08Z</time></trkpt><trkpt lat="45.7292504225866" lon="9.937678883842878"><ele>768.0</ele><time>2026-03-31T11:17:09Z</time></trkpt><trkpt lat="45.7292252249444" lon="9.937581917387556"><ele>766.1666666666666</ele><time>2026-03-31T11:17:10Z</time></trkpt><trkpt lat="45.729200298484486" lon="9.9374785557481"><ele>764.3333333333334</ele><time>2026-03-31T11:17:11Z</time></trkpt><trkpt lat="45.729175806168" lon="9.93738057219942"><ele>762.5</ele><time>2026-03-31T11:17:12Z</time></trkpt><trkpt lat="45.72913904780225" lon="9.937236266406678"><ele>760.6666666666667</ele><time>2026-03-31T11:17:14Z</time></trkpt><trkpt lat="45.729120321763915" lon="9.937100053967974"><ele>758.8333333333334</ele><time>2026-03-31T11:17:16Z</time></trkpt><trkpt lat="45.72910764226148" lon="9.936963583364912"><ele>757.0</ele><time>2026-03-31T11:17:18Z</time></trkpt><trkpt lat="45.72909507842292" lon="9.936822741591104"><ele>754.4000000000001</ele><time>2026-03-31T11:17:20Z</time></trkpt><trkpt lat="45.72909642451791" lon="9.936674096374077"><ele>751.8000000000001</ele><time>2026-03-31T11:17:22Z</time></trkpt><trkpt lat="45.729109110866474" lon="9.936483791716991"><ele>749.2</ele><time>2026-03-31T11:17:24Z</time></trkpt><trkpt lat="45.72911721791117" lon="9.9363759495668"><ele>746.6</ele><time>2026-03-31T11:17:25Z</time></trkpt><trkpt lat="45.729124154886065" lon="9.936258968162578"><ele>744.0</ele><time>2026-03-31T11:17:26Z</time></trkpt><trkpt lat="45.72911871747501" lon="9.936135822939388"><ele>744.0</ele><time>2026-03-31T11:17:27Z</time></trkpt><trkpt lat="45.72911611631303" lon="9.936001973903112"><ele>744.0</ele><time>2026-03-31T11:17:28Z</time></trkpt><trkpt lat="45.729107153068945" lon="9.935869162818317"><ele>744.0</ele><time>2026-03-31T11:17:29Z</time></trkpt><trkpt lat="45.729091178360434" lon="9.935725387959817"><ele>744.0</ele><time>2026-03-31T11:17:30Z</time></trkpt><trkpt lat="45.72907687144678" lon="9.9355773233856"><ele>744.0</ele><time>2026-03-31T11:17:31Z</time></trkpt><trkpt lat="45.72905804425809" lon="9.935425820946238"><ele>742.8000000000001</ele><time>2026-03-31T11:17:32Z</time></trkpt><trkpt lat="45.72904295096921" lon="9.93527268618037"><ele>741.6</ele><time>2026-03-31T11:17:33Z</time></trkpt><trkpt lat="45.72903942514661" lon="9.935116200769434"><ele>740.4</ele><time>2026-03-31T11:17:34Z</time></trkpt><trkpt lat="45.72904542246901" lon="9.934963428922583"><ele>739.2</ele><time>2026-03-31T11:17:35Z</time></trkpt><trkpt lat="45.729059843180266" lon="9.934809030179188"><ele>738.0</ele><time>2026-03-31T11:17:36Z</time></trkpt><trkpt lat="45.72907528324875" lon="9.934660799613745"><ele>737.2</ele><time>2026-03-31T11:17:37Z</time></trkpt><trkpt lat="45.72909227721793" lon="9.934514648962537"><ele>736.4</ele><time>2026-03-31T11:17:38Z</time></trkpt><trkpt lat="45.729110297994815" lon="9.934362377712807"><ele>735.6</ele><time>2026-03-31T11:17:39Z</time></trkpt><trkpt lat="45.72912790643594" lon="9.9342095137374"><ele>734.8000000000001</ele><time>2026-03-31T11:17:40Z</time></trkpt><trkpt lat="45.7291454230481" lon="9.934049519419789"><ele>734.0</ele><time>2026-03-31T11:17:41Z</time></trkpt><trkpt lat="45.72916255324407" lon="9.933889149561539"><ele>733.6</ele><time>2026-03-31T11:17:42Z</time></trkpt><trkpt lat="45.72917591826054" lon="9.933738432230646"><ele>733.2</ele><time>2026-03-31T11:17:43Z</time></trkpt><trkpt lat="45.72918913520478" lon="9.933599446467069"><ele>732.8000000000001</ele><time>2026-03-31T11:17:44Z</time></trkpt><trkpt lat="45.729195985187395" lon="9.93346376649999"><ele>732.4000000000001</ele><time>2026-03-31T11:17:45Z</time></trkpt><trkpt lat="45.72919281997357" lon="9.933332975717162"><ele>732.0</ele><time>2026-03-31T11:17:46Z</time></trkpt><trkpt lat="45.72915688379923" lon="9.93322714067974"><ele>730.3333333333334</ele><time>2026-03-31T11:17:47Z</time></trkpt><trkpt lat="45.72910165526997" lon="9.933122562462344"><ele>728.6666666666666</ele><time>2026-03-31T11:17:48Z</time></trkpt><trkpt lat="45.72903977817904" lon="9.93304166187831"><ele>727.0</ele><time>2026-03-31T11:17:49Z</time></trkpt><trkpt lat="45.728986909539664" lon="9.932973240081683"><ele>725.3333333333333</ele><time>2026-03-31T11:17:50Z</time></trkpt><trkpt lat="45.72893783718257" lon="9.932908612049095"><ele>723.6666666666666</ele><time>2026-03-31T11:17:51Z</time></trkpt><trkpt lat="45.728914938776455" lon="9.932819770222636"><ele>722.0</ele><time>2026-03-31T11:17:52Z</time></trkpt><trkpt lat="45.72891698806135" lon="9.932684185366794"><ele>722.0</ele><time>2026-03-31T11:17:53Z</time></trkpt><trkpt lat="45.72896084252924" lon="9.93256837219004"><ele>722.0</ele><time>2026-03-31T11:17:54Z</time></trkpt><trkpt lat="45.72899769928249" lon="9.932434979446555"><ele>722.0</ele><time>2026-03-31T11:17:55Z</time></trkpt><trkpt lat="45.72904173554373" lon="9.93228111824695"><ele>722.0</ele><time>2026-03-31T11:17:56Z</time></trkpt><trkpt lat="45.72908366953736" lon="9.932129038402769"><ele>722.0</ele><time>2026-03-31T11:17:57Z</time></trkpt><trkpt lat="45.7291255937126" lon="9.931985066715209"><ele>719.0</ele><time>2026-03-31T11:17:58Z</time></trkpt><trkpt lat="45.72915047814364" lon="9.931848426989857"><ele>716.0</ele><time>2026-03-31T11:17:59Z</time></trkpt><trkpt lat="45.729141787805766" lon="9.931720127504393"><ele>713.0</ele><time>2026-03-31T11:18:00Z</time></trkpt><trkpt lat="45.7290868883301" lon="9.931593957720168"><ele>710.0</ele><time>2026-03-31T11:18:01Z</time></trkpt><trkpt lat="45.7289974057369" lon="9.93148287220507"><ele>707.0</ele><time>2026-03-31T11:18:02Z</time></trkpt><trkpt lat="45.728901128890804" lon="9.93137786855938"><ele>704.75</ele><time>2026-03-31T11:18:03Z</time></trkpt><trkpt lat="45.72880098332106" lon="9.931266530892167"><ele>702.5</ele><time>2026-03-31T11:18:04Z</time></trkpt><trkpt lat="45.72870658052531" lon="9.931140767244647"><ele>700.25</ele><time>2026-03-31T11:18:05Z</time></trkpt><trkpt lat="45.72860911934759" lon="9.931008018523357"><ele>698.0</ele><time>2026-03-31T11:18:06Z</time></trkpt><trkpt lat="45.72850081916562" lon="9.930889480156088"><ele>695.75</ele><time>2026-03-31T11:18:07Z</time></trkpt><trkpt lat="45.728375101469325" lon="9.930795574463321"><ele>693.5</ele><time>2026-03-31T11:18:08Z</time></trkpt><trkpt lat="45.72824032831435" lon="9.930714387600183"><ele>691.25</ele><time>2026-03-31T11:18:09Z</time></trkpt><trkpt lat="45.72810800041586" lon="9.930631820249628"><ele>689.0</ele><time>2026-03-31T11:18:10Z</time></trkpt><trkpt lat="45.727981811792525" lon="9.93054598230395"><ele>689.0</ele><time>2026-03-31T11:18:11Z</time></trkpt><trkpt lat="45.7278566278844" lon="9.930463375399555"><ele>689.0</ele><time>2026-03-31T11:18:12Z</time></trkpt><trkpt lat="45.72773079836777" lon="9.930381543206096"><ele>689.0</ele><time>2026-03-31T11:18:13Z</time></trkpt><trkpt lat="45.727606944831834" lon="9.930300102131302"><ele>689.0</ele><time>2026-03-31T11:18:14Z</time></trkpt><trkpt lat="45.72749076903449" lon="9.930223109006658"><ele>686.25</ele><time>2026-03-31T11:18:15Z</time></trkpt><trkpt lat="45.72737874123356" lon="9.930145143440207"><ele>683.5</ele><time>2026-03-31T11:18:16Z</time></trkpt><trkpt lat="45.72725878655346" lon="9.930053844195676"><ele>680.75</ele><time>2026-03-31T11:18:17Z</time></trkpt><trkpt lat="45.72715226210852" lon="9.929961611386556"><ele>678.0</ele><time>2026-03-31T11:18:18Z</time></trkpt><trkpt lat="45.727050737190304" lon="9.929863251280855"><ele>678.0</ele><time>2026-03-31T11:18:19Z</time></trkpt><trkpt lat="45.7269617873034" lon="9.929770265159767"><ele>678.0</ele><time>2026-03-31T11:18:20Z</time></trkpt><trkpt lat="45.72687729777208" lon="9.929669895056717"><ele>678.0</ele><time>2026-03-31T11:18:21Z</time></trkpt><trkpt lat="45.72679917613602" lon="9.92954826108265"><ele>678.0</ele><time>2026-03-31T11:18:22Z</time></trkpt><trkpt lat="45.72672031736078" lon="9.929389537675696"><ele>672.75</ele><time>2026-03-31T11:18:23Z</time></trkpt><trkpt lat="45.726666324696986" lon="9.929213075902455"><ele>667.5</ele><time>2026-03-31T11:18:24Z</time></trkpt><trkpt lat="45.72660175504847" lon="9.929037226338584"><ele>662.25</ele><time>2026-03-31T11:18:25Z</time></trkpt><trkpt lat="45.72652352100898" lon="9.928877543368875"><ele>657.0</ele><time>2026-03-31T11:18:26Z</time></trkpt><trkpt lat="45.726462457050985" lon="9.928750714274518"><ele>657.0</ele><time>2026-03-31T11:18:27Z</time></trkpt><trkpt lat="45.72640941738031" lon="9.928627901628394"><ele>657.0</ele><time>2026-03-31T11:18:28Z</time></trkpt><trkpt lat="45.726360224600626" lon="9.928498419694433"><ele>657.0</ele><time>2026-03-31T11:18:29Z</time></trkpt><trkpt lat="45.72633686207565" lon="9.928368248097183"><ele>657.0</ele><time>2026-03-31T11:18:30Z</time></trkpt><trkpt lat="45.7263462291147" lon="9.928230918197857"><ele>657.0</ele><time>2026-03-31T11:18:31Z</time></trkpt><trkpt lat="45.72634915024608" lon="9.928111122633652"><ele>657.0</ele><time>2026-03-31T11:18:32Z</time></trkpt><trkpt lat="45.726319721316564" lon="9.928030874597047"><ele>657.0</ele><time>2026-03-31T11:18:33Z</time></trkpt><trkpt lat="45.72619904130222" lon="9.92809060691208"><ele>657.0</ele><time>2026-03-31T11:18:35Z</time></trkpt><trkpt lat="45.72616849665708" lon="9.928206669259978"><ele>657.0</ele><time>2026-03-31T11:18:36Z</time></trkpt><trkpt lat="45.7261560331046" lon="9.92832376206649"><ele>657.0</ele><time>2026-03-31T11:18:37Z</time></trkpt><trkpt lat="45.726137102607204" lon="9.928434072685995"><ele>657.0</ele><time>2026-03-31T11:18:38Z</time></trkpt><trkpt lat="45.726111910401514" lon="9.928547013279019"><ele>657.0</ele><time>2026-03-31T11:18:39Z</time></trkpt><trkpt lat="45.72608641720808" lon="9.928662846358373"><ele>657.0</ele><time>2026-03-31T11:18:40Z</time></trkpt><trkpt lat="45.72605574650664" lon="9.928787167545753"><ele>657.0</ele><time>2026-03-31T11:18:41Z</time></trkpt><trkpt lat="45.726020977137395" lon="9.92891075526881"><ele>657.0</ele><time>2026-03-31T11:18:42Z</time></trkpt><trkpt lat="45.72597806735733" lon="9.929043201367824"><ele>657.0</ele><time>2026-03-31T11:18:43Z</time></trkpt><trkpt lat="45.725940568193415" lon="9.929160228409732"><ele>656.0</ele><time>2026-03-31T11:18:44Z</time></trkpt><trkpt lat="45.72588173267106" lon="9.929253988451698"><ele>655.0</ele><time>2026-03-31T11:18:45Z</time></trkpt><trkpt lat="45.72580725015783" lon="9.929295492836006"><ele>654.0</ele><time>2026-03-31T11:18:46Z</time></trkpt><trkpt lat="45.725728854731365" lon="9.929326734147397"><ele>653.0</ele><time>2026-03-31T11:18:47Z</time></trkpt><trkpt lat="45.725651883759326" lon="9.929345289758997"><ele>652.0</ele><time>2026-03-31T11:18:48Z</time></trkpt><trkpt lat="45.72556301579589" lon="9.929272293212877"><ele>651.0</ele><time>2026-03-31T11:18:49Z</time></trkpt><trkpt lat="45.725493885144616" lon="9.929161082303759"><ele>648.4</ele><time>2026-03-31T11:18:50Z</time></trkpt><trkpt lat="45.72543847729772" lon="9.929032875266724"><ele>645.8</ele><time>2026-03-31T11:18:51Z</time></trkpt><trkpt lat="45.72538304799038" lon="9.92890229619896"><ele>643.1999999999999</ele><time>2026-03-31T11:18:52Z</time></trkpt><trkpt lat="45.725330391876405" lon="9.92876786624431"><ele>640.5999999999999</ele><time>2026-03-31T11:18:53Z</time></trkpt><trkpt lat="45.725286446343524" lon="9.92862200006036"><ele>638.0</ele><time>2026-03-31T11:18:54Z</time></trkpt><trkpt lat="45.72524251736882" lon="9.92847358506323"><ele>637.0</ele><time>2026-03-31T11:18:55Z</time></trkpt><trkpt lat="45.7251872891992" lon="9.928325343405879"><ele>636.0</ele><time>2026-03-31T11:18:56Z</time></trkpt><trkpt lat="45.72511210454931" lon="9.92818124556939"><ele>635.0</ele><time>2026-03-31T11:18:57Z</time></trkpt><trkpt lat="45.72502084045282" lon="9.928046415962875"><ele>634.0</ele><time>2026-03-31T11:18:58Z</time></trkpt><trkpt lat="45.7249169112264" lon="9.927924291212397"><ele>634.0</ele><time>2026-03-31T11:18:59Z</time></trkpt><trkpt lat="45.72480519185029" lon="9.927804405048581"><ele>634.0</ele><time>2026-03-31T11:19:00Z</time></trkpt><trkpt lat="45.724696703370114" lon="9.927671709847283"><ele>634.0</ele><time>2026-03-31T11:19:01Z</time></trkpt><trkpt lat="45.72458352580383" lon="9.92753205589903"><ele>634.0</ele><time>2026-03-31T11:19:02Z</time></trkpt><trkpt lat="45.724470336340744" lon="9.927395761723712"><ele>633.0</ele><time>2026-03-31T11:19:03Z</time></trkpt><trkpt lat="45.724367483698245" lon="9.927268346408876"><ele>632.0</ele><time>2026-03-31T11:19:04Z</time></trkpt><trkpt lat="45.72427208921226" lon="9.9271336258547"><ele>631.0</ele><time>2026-03-31T11:19:05Z</time></trkpt><trkpt lat="45.72417995175739" lon="9.926981763450954"><ele>630.0</ele><time>2026-03-31T11:19:06Z</time></trkpt><trkpt lat="45.72408673656972" lon="9.926826828002977"><ele>623.75</ele><time>2026-03-31T11:19:07Z</time></trkpt><trkpt lat="45.723989801070296" lon="9.926676483509521"><ele>617.5</ele><time>2026-03-31T11:19:08Z</time></trkpt><trkpt lat="45.72388545080107" lon="9.926538307735598"><ele>611.25</ele><time>2026-03-31T11:19:09Z</time></trkpt><trkpt lat="45.72378045246928" lon="9.92642388461809"><ele>605.0</ele><time>2026-03-31T11:19:10Z</time></trkpt><trkpt lat="45.7236899725431" lon="9.92630968350353"><ele>605.0</ele><time>2026-03-31T11:19:11Z</time></trkpt><trkpt lat="45.723612677744505" lon="9.926181520349298"><ele>605.0</ele><time>2026-03-31T11:19:12Z</time></trkpt><trkpt lat="45.72354626214012" lon="9.926032925316271"><ele>605.0</ele><time>2026-03-31T11:19:13Z</time></trkpt><trkpt lat="45.72349535248513" lon="9.925877712112445"><ele>605.0</ele><time>2026-03-31T11:19:14Z</time></trkpt><trkpt lat="45.72345167796751" lon="9.925719176920234"><ele>605.25</ele><time>2026-03-31T11:19:15Z</time></trkpt><trkpt lat="45.723411997348656" lon="9.92557365366796"><ele>605.5</ele><time>2026-03-31T11:19:16Z</time></trkpt><trkpt lat="45.723385106423486" lon="9.925420859236457"><ele>605.75</ele><time>2026-03-31T11:19:17Z</time></trkpt><trkpt lat="45.72337542880747" lon="9.925257542462361"><ele>606.0</ele><time>2026-03-31T11:19:18Z</time></trkpt><trkpt lat="45.72338870685489" lon="9.925080643352246"><ele>602.25</ele><time>2026-03-31T11:19:19Z</time></trkpt><trkpt lat="45.72341379429037" lon="9.924901850770087"><ele>598.5</ele><time>2026-03-31T11:19:20Z</time></trkpt><trkpt lat="45.72343664283167" lon="9.924728447967366"><ele>594.75</ele><time>2026-03-31T11:19:21Z</time></trkpt><trkpt lat="45.723463772821596" lon="9.924560938590808"><ele>591.0</ele><time>2026-03-31T11:19:22Z</time></trkpt><trkpt lat="45.72348077199926" lon="9.924382179550353"><ele>589.75</ele><time>2026-03-31T11:19:23Z</time></trkpt><trkpt lat="45.723482581738146" lon="9.924202458842426"><ele>588.5</ele><time>2026-03-31T11:19:24Z</time></trkpt><trkpt lat="45.72347129405532" lon="9.924019793486131"><ele>587.25</ele><time>2026-03-31T11:19:25Z</time></trkpt><trkpt lat="45.723453492486136" lon="9.923837106618912"><ele>586.0</ele><time>2026-03-31T11:19:26Z</time></trkpt><trkpt lat="45.723429834231816" lon="9.92367175944611"><ele>586.0</ele><time>2026-03-31T11:19:27Z</time></trkpt><trkpt lat="45.72341156396972" lon="9.923520457583628"><ele>586.0</ele><time>2026-03-31T11:19:28Z</time></trkpt><trkpt lat="45.72341451906926" lon="9.923362773408712"><ele>586.0</ele><time>2026-03-31T11:19:29Z</time></trkpt><trkpt lat="45.72342325772777" lon="9.923219695030602"><ele>586.0</ele><time>2026-03-31T11:19:30Z</time></trkpt><trkpt lat="45.72340603626624" lon="9.92308117112284"><ele>586.0</ele><time>2026-03-31T11:19:31Z</time></trkpt><trkpt lat="45.723346452931764" lon="9.922940202582662"><ele>584.0</ele><time>2026-03-31T11:19:32Z</time></trkpt><trkpt lat="45.72326509029985" lon="9.922812504268359"><ele>582.0</ele><time>2026-03-31T11:19:33Z</time></trkpt><trkpt lat="45.72320202366182" lon="9.92269227776811"><ele>580.0</ele><time>2026-03-31T11:19:34Z</time></trkpt><trkpt lat="45.72317520234487" lon="9.922561871865641"><ele>578.0</ele><time>2026-03-31T11:19:35Z</time></trkpt><trkpt lat="45.72317499796057" lon="9.922405273156386"><ele>576.0</ele><time>2026-03-31T11:19:36Z</time></trkpt><trkpt lat="45.723195829205004" lon="9.922235408807152"><ele>572.2</ele><time>2026-03-31T11:19:37Z</time></trkpt><trkpt lat="45.72323476407211" lon="9.922069780148442"><ele>568.4000000000001</ele><time>2026-03-31T11:19:38Z</time></trkpt><trkpt lat="45.72326356177773" lon="9.921917196294737"><ele>564.6</ele><time>2026-03-31T11:19:39Z</time></trkpt><trkpt lat="45.72328218867022" lon="9.921777566714058"><ele>560.8000000000001</ele><time>2026-03-31T11:19:40Z</time></trkpt><trkpt lat="45.72327689940157" lon="9.921640787440555"><ele>557.0</ele><time>2026-03-31T11:19:41Z</time></trkpt><trkpt lat="45.72325402892973" lon="9.921509510914253"><ele>552.6</ele><time>2026-03-31T11:19:42Z</time></trkpt><trkpt lat="45.72321662042021" lon="9.921382146566076"><ele>548.2</ele><time>2026-03-31T11:19:43Z</time></trkpt><trkpt lat="45.72316025260252" lon="9.92128818378116"><ele>543.8</ele><time>2026-03-31T11:19:44Z</time></trkpt><trkpt lat="45.72308658090783" lon="9.921221547873694"><ele>539.4</ele><time>2026-03-31T11:19:45Z</time></trkpt><trkpt lat="45.72299172838531" lon="9.921220317920026"><ele>535.0</ele><time>2026-03-31T11:19:46Z</time></trkpt><trkpt lat="45.72290039634338" lon="9.921221117611472"><ele>535.0</ele><time>2026-03-31T11:19:47Z</time></trkpt><trkpt lat="45.72282706809234" lon="9.921163444314487"><ele>535.0</ele><time>2026-03-31T11:19:48Z</time></trkpt><trkpt lat="45.722778541994515" lon="9.921057392192493"><ele>535.0</ele><time>2026-03-31T11:19:49Z</time></trkpt><trkpt lat="45.722781537425476" lon="9.920907819567397"><ele>535.0</ele><time>2026-03-31T11:19:50Z</time></trkpt><trkpt lat="45.72279182840705" lon="9.920757926084645"><ele>535.0</ele><time>2026-03-31T11:19:51Z</time></trkpt><trkpt lat="45.722802958413446" lon="9.920603776765056"><ele>530.75</ele><time>2026-03-31T11:19:52Z</time></trkpt><trkpt lat="45.722830580030696" lon="9.920448234086296"><ele>526.5</ele><time>2026-03-31T11:19:53Z</time></trkpt><trkpt lat="45.7228765466767" lon="9.920291456468595"><ele>522.25</ele><time>2026-03-31T11:19:54Z</time></trkpt><trkpt lat="45.72293606280004" lon="9.920138764156356"><ele>518.0</ele><time>2026-03-31T11:19:55Z</time></trkpt><trkpt lat="45.72300268661904" lon="9.91999167145937"><ele>514.6</ele><time>2026-03-31T11:19:56Z</time></trkpt><trkpt lat="45.723065338596044" lon="9.919863904579868"><ele>511.19999999999993</ele><time>2026-03-31T11:19:57Z</time></trkpt><trkpt lat="45.72310863122402" lon="9.919734124816568"><ele>507.8</ele><time>2026-03-31T11:19:58Z</time></trkpt><trkpt lat="45.72312342586327" lon="9.919579551355518"><ele>504.4</ele><time>2026-03-31T11:19:59Z</time></trkpt><trkpt lat="45.72311503607933" lon="9.919396339314845"><ele>501.0</ele><time>2026-03-31T11:20:00Z</time></trkpt><trkpt lat="45.723097545798375" lon="9.919203979553672"><ele>499.20000000000005</ele><time>2026-03-31T11:20:01Z</time></trkpt><trkpt lat="45.723086796176865" lon="9.919021839562928"><ele>497.40000000000003</ele><time>2026-03-31T11:20:02Z</time></trkpt><trkpt lat="45.72307570010136" lon="9.918868160386046"><ele>495.6</ele><time>2026-03-31T11:20:03Z</time></trkpt><trkpt lat="45.72306638821608" lon="9.918744312245575"><ele>493.8</ele><time>2026-03-31T11:20:04Z</time></trkpt><trkpt lat="45.723056178043336" lon="9.918638339665348"><ele>492.0</ele><time>2026-03-31T11:20:05Z</time></trkpt><trkpt lat="45.72310577462999" lon="9.91851626085811"><ele>492.0</ele><time>2026-03-31T11:20:07Z</time></trkpt><trkpt lat="45.72321298507721" lon="9.918612922586986"><ele>492.0</ele><time>2026-03-31T11:20:09Z</time></trkpt><trkpt lat="45.72322231393801" lon="9.918720654973846"><ele>492.0</ele><time>2026-03-31T11:20:10Z</time></trkpt><trkpt lat="45.723249332851076" lon="9.91880884121363"><ele>492.0</ele><time>2026-03-31T11:20:11Z</time></trkpt><trkpt lat="45.72327779229038" lon="9.918907823497612"><ele>492.0</ele><time>2026-03-31T11:20:12Z</time></trkpt><trkpt lat="45.72331456968987" lon="9.919008978286943"><ele>492.0</ele><time>2026-03-31T11:20:13Z</time></trkpt><trkpt lat="45.72334730815284" lon="9.919113473360287"><ele>492.0</ele><time>2026-03-31T11:20:14Z</time></trkpt><trkpt lat="45.7233621359083" lon="9.919232339339338"><ele>492.00000000000006</ele><time>2026-03-31T11:20:15Z</time></trkpt><trkpt lat="45.72335261132746" lon="9.91936074627767"><ele>492.00000000000006</ele><time>2026-03-31T11:20:16Z</time></trkpt><trkpt lat="45.723355995421564" lon="9.919459163566223"><ele>492.0</ele><time>2026-03-31T11:20:17Z</time></trkpt><trkpt lat="45.72343899423212" lon="9.919517769133492"><ele>492.0</ele><time>2026-03-31T11:20:19Z</time></trkpt><trkpt lat="45.72351208239616" lon="9.91937545271138"><ele>492.0</ele><time>2026-03-31T11:20:21Z</time></trkpt><trkpt lat="45.72349496702575" lon="9.919272490816699"><ele>492.0</ele><time>2026-03-31T11:20:22Z</time></trkpt><trkpt lat="45.72348360181165" lon="9.919163701600619"><ele>492.0</ele><time>2026-03-31T11:20:23Z</time></trkpt><trkpt lat="45.723481067155824" lon="9.919049841800371"><ele>492.0</ele><time>2026-03-31T11:20:24Z</time></trkpt><trkpt lat="45.723478768469704" lon="9.918920630471371"><ele>492.0</ele><time>2026-03-31T11:20:25Z</time></trkpt><trkpt lat="45.72346463940926" lon="9.918783003878806"><ele>492.0</ele><time>2026-03-31T11:20:26Z</time></trkpt><trkpt lat="45.72344272626744" lon="9.91863707957169"><ele>492.0</ele><time>2026-03-31T11:20:27Z</time></trkpt><trkpt lat="45.72340265112901" lon="9.918513830397835"><ele>492.0</ele><time>2026-03-31T11:20:28Z</time></trkpt><trkpt lat="45.72337397096374" lon="9.918428578174233"><ele>492.0</ele><time>2026-03-31T11:20:29Z</time></trkpt><trkpt lat="45.723428288132695" lon="9.918347407794993"><ele>492.0</ele><time>2026-03-31T11:20:31Z</time></trkpt><trkpt lat="45.72349312576292" lon="9.918378475157311"><ele>492.0</ele><time>2026-03-31T11:20:32Z</time></trkpt><trkpt lat="45.723535879992625" lon="9.918464714553416"><ele>492.0</ele><time>2026-03-31T11:20:33Z</time></trkpt><trkpt lat="45.72355625232759" lon="9.918569039448982"><ele>487.5</ele><time>2026-03-31T11:20:34Z</time></trkpt><trkpt lat="45.72358647336638" lon="9.918669394418709"><ele>483.0</ele><time>2026-03-31T11:20:35Z</time></trkpt><trkpt lat="45.72361452258948" lon="9.918783845790461"><ele>478.5</ele><time>2026-03-31T11:20:36Z</time></trkpt><trkpt lat="45.72364522405958" lon="9.918909274621685"><ele>474.0</ele><time>2026-03-31T11:20:37Z</time></trkpt><trkpt lat="45.723681694828805" lon="9.919039844749742"><ele>469.5</ele><time>2026-03-31T11:20:38Z</time></trkpt><trkpt lat="45.72370321040091" lon="9.91917087091284"><ele>465.0</ele><time>2026-03-31T11:20:39Z</time></trkpt><trkpt lat="45.72370159954753" lon="9.919298804744857"><ele>465.0</ele><time>2026-03-31T11:20:40Z</time></trkpt><trkpt lat="45.72369472895833" lon="9.919404518707982"><ele>465.0</ele><time>2026-03-31T11:20:41Z</time></trkpt><trkpt lat="45.72374014190837" lon="9.919513388699501"><ele>465.0</ele><time>2026-03-31T11:20:43Z</time></trkpt><trkpt lat="45.72380215866021" lon="9.919492994703578"><ele>465.0</ele><time>2026-03-31T11:20:44Z</time></trkpt><trkpt lat="45.7238345625282" lon="9.919408912132539"><ele>465.0</ele><time>2026-03-31T11:20:45Z</time></trkpt><trkpt lat="45.72384055475828" lon="9.919298866076574"><ele>465.0</ele><time>2026-03-31T11:20:46Z</time></trkpt><trkpt lat="45.723844537051676" lon="9.919184190188805"><ele>462.8333333333333</ele><time>2026-03-31T11:20:47Z</time></trkpt><trkpt lat="45.72385346797574" lon="9.91906726989505"><ele>460.66666666666663</ele><time>2026-03-31T11:20:48Z</time></trkpt><trkpt lat="45.72385965893297" lon="9.918933426122411"><ele>458.5</ele><time>2026-03-31T11:20:49Z</time></trkpt><trkpt lat="45.72385770254406" lon="9.91879641586083"><ele>456.3333333333333</ele><time>2026-03-31T11:20:50Z</time></trkpt><trkpt lat="45.723845884445794" lon="9.918670661315854"><ele>454.16666666666663</ele><time>2026-03-31T11:20:51Z</time></trkpt><trkpt lat="45.72381901733774" lon="9.918564678208028"><ele>452.0</ele><time>2026-03-31T11:20:52Z</time></trkpt><trkpt lat="45.723813737699025" lon="9.918420726604708"><ele>451.99999999999994</ele><time>2026-03-31T11:20:54Z</time></trkpt><trkpt lat="45.72390339872921" lon="9.918468207687946"><ele>452.0</ele><time>2026-03-31T11:20:56Z</time></trkpt><trkpt lat="45.72392612343264" lon="9.9185616116272"><ele>452.0</ele><time>2026-03-31T11:20:57Z</time></trkpt><trkpt lat="45.72395813570533" lon="9.918665577639329"><ele>452.0</ele><time>2026-03-31T11:20:58Z</time></trkpt><trkpt lat="45.723999576313695" lon="9.918775822447168"><ele>451.99999999999994</ele><time>2026-03-31T11:20:59Z</time></trkpt><trkpt lat="45.72403634438347" lon="9.918896323646676"><ele>452.0</ele><time>2026-03-31T11:21:00Z</time></trkpt><trkpt lat="45.72404387621044" lon="9.919013691679988"><ele>451.99999999999994</ele><time>2026-03-31T11:21:01Z</time></trkpt><trkpt lat="45.724089794697115" lon="9.919139861256166"><ele>452.0</ele><time>2026-03-31T11:21:03Z</time></trkpt><trkpt lat="45.724150211856625" lon="9.919112858278893"><ele>452.0</ele><time>2026-03-31T11:21:04Z</time></trkpt><trkpt lat="45.72417959369571" lon="9.919017934669707"><ele>452.0</ele><time>2026-03-31T11:21:05Z</time></trkpt><trkpt lat="45.72419334019543" lon="9.918900627270412"><ele>451.99999999999994</ele><time>2026-03-31T11:21:06Z</time></trkpt><trkpt lat="45.7242060953058" lon="9.918777650279619"><ele>452.0</ele><time>2026-03-31T11:21:07Z</time></trkpt><trkpt lat="45.72421107693726" lon="9.918645103463557"><ele>451.99999999999994</ele><time>2026-03-31T11:21:08Z</time></trkpt><trkpt lat="45.72419460025445" lon="9.918511766377101"><ele>452.0</ele><time>2026-03-31T11:21:09Z</time></trkpt><trkpt lat="45.724155030972824" lon="9.91840057684969"><ele>452.0</ele><time>2026-03-31T11:21:10Z</time></trkpt><trkpt lat="45.72412305415875" lon="9.918316840714033"><ele>452.0</ele><time>2026-03-31T11:21:11Z</time></trkpt><trkpt lat="45.72417881576852" lon="9.918203792372795"><ele>451.99999999999994</ele><time>2026-03-31T11:21:13Z</time></trkpt><trkpt lat="45.72425204984009" lon="9.918229406130813"><ele>452.0</ele><time>2026-03-31T11:21:14Z</time></trkpt><trkpt lat="45.72430406472556" lon="9.918320597481355"><ele>451.99999999999994</ele><time>2026-03-31T11:21:15Z</time></trkpt><trkpt lat="45.724338578902106" lon="9.91843841000266"><ele>452.0</ele><time>2026-03-31T11:21:16Z</time></trkpt><trkpt lat="45.72436324224769" lon="9.918564146468807"><ele>452.0</ele><time>2026-03-31T11:21:17Z</time></trkpt><trkpt lat="45.72439033357727" lon="9.918677980939147"><ele>452.0</ele><time>2026-03-31T11:21:18Z</time></trkpt><trkpt lat="45.724473847686795" lon="9.918746308452851"><ele>451.99999999999994</ele><time>2026-03-31T11:21:20Z</time></trkpt><trkpt lat="45.72452037679445" lon="9.918685240755316"><ele>452.0</ele><time>2026-03-31T11:21:21Z</time></trkpt><trkpt lat="45.7245299014541" lon="9.918585982032361"><ele>451.6</ele><time>2026-03-31T11:21:22Z</time></trkpt><trkpt lat="45.72450791298215" lon="9.918473593055646"><ele>451.20000000000005</ele><time>2026-03-31T11:21:23Z</time></trkpt><trkpt lat="45.7244855213275" lon="9.918357329925366"><ele>450.8</ele><time>2026-03-31T11:21:24Z</time></trkpt><trkpt lat="45.72447833573807" lon="9.918232225912138"><ele>450.4</ele><time>2026-03-31T11:21:25Z</time></trkpt><trkpt lat="45.72448542678932" lon="9.91808902138879"><ele>450.0</ele><time>2026-03-31T11:21:26Z</time></trkpt><trkpt lat="45.72447745260786" lon="9.917938961038372"><ele>449.5</ele><time>2026-03-31T11:21:27Z</time></trkpt><trkpt lat="45.72445166202608" lon="9.917773319171738"><ele>449.0</ele><time>2026-03-31T11:21:28Z</time></trkpt><trkpt lat="45.72441941790836" lon="9.917605521507769"><ele>448.5</ele><time>2026-03-31T11:21:29Z</time></trkpt><trkpt lat="45.72437363709291" lon="9.91744241439639"><ele>448.0</ele><time>2026-03-31T11:21:30Z</time></trkpt><trkpt lat="45.72430789295036" lon="9.917288947038811"><ele>442.25</ele><time>2026-03-31T11:21:31Z</time></trkpt><trkpt lat="45.724232464615504" lon="9.917145275599514"><ele>436.5</ele><time>2026-03-31T11:21:32Z</time></trkpt><trkpt lat="45.72416351990655" lon="9.916997008933528"><ele>430.75</ele><time>2026-03-31T11:21:33Z</time></trkpt><trkpt lat="45.72411074081575" lon="9.916844758438621"><ele>425.0</ele><time>2026-03-31T11:21:34Z</time></trkpt><trkpt lat="45.724062001803446" lon="9.916703422364142"><ele>423.49999999999994</ele><time>2026-03-31T11:21:35Z</time></trkpt><trkpt lat="45.724012340779815" lon="9.916574559733442"><ele>422.0</ele><time>2026-03-31T11:21:36Z</time></trkpt><trkpt lat="45.72396323282764" lon="9.916453733729037"><ele>420.5</ele><time>2026-03-31T11:21:37Z</time></trkpt><trkpt lat="45.72392091514326" lon="9.916346334124729"><ele>419.0</ele><time>2026-03-31T11:21:38Z</time></trkpt><trkpt lat="45.72389511223728" lon="9.916244651158461"><ele>417.49999999999994</ele><time>2026-03-31T11:21:39Z</time></trkpt><trkpt lat="45.72389800605059" lon="9.916139537632187"><ele>416.0</ele><time>2026-03-31T11:21:40Z</time></trkpt><trkpt lat="45.72394079007258" lon="9.916027859144544"><ele>416.0</ele><time>2026-03-31T11:21:41Z</time></trkpt><trkpt lat="45.72402040186993" lon="9.91593915172404"><ele>416.0</ele><time>2026-03-31T11:21:42Z</time></trkpt><trkpt lat="45.72409925260647" lon="9.915876161356495"><ele>416.0</ele><time>2026-03-31T11:21:43Z</time></trkpt><trkpt lat="45.72416775999901" lon="9.915798765972477"><ele>416.0</ele><time>2026-03-31T11:21:44Z</time></trkpt><trkpt lat="45.72422649353949" lon="9.915707126812055"><ele>416.0</ele><time>2026-03-31T11:21:45Z</time></trkpt><trkpt lat="45.72428421283071" lon="9.9156141853391"><ele>416.66666666666663</ele><time>2026-03-31T11:21:46Z</time></trkpt><trkpt lat="45.724341001499624" lon="9.915523078705125"><ele>417.3333333333333</ele><time>2026-03-31T11:21:47Z</time></trkpt><trkpt lat="45.724398143631745" lon="9.915431000892744"><ele>418.0</ele><time>2026-03-31T11:21:48Z</time></trkpt><trkpt lat="45.724446917468" lon="9.915342596200373"><ele>418.66666666666663</ele><time>2026-03-31T11:21:49Z</time></trkpt><trkpt lat="45.72448590375384" lon="9.915251357754265"><ele>419.3333333333333</ele><time>2026-03-31T11:21:50Z</time></trkpt><trkpt lat="45.7245208070669" lon="9.915156684309755"><ele>420.0</ele><time>2026-03-31T11:21:51Z</time></trkpt><trkpt lat="45.72455844237315" lon="9.915064041843234"><ele>420.0</ele><time>2026-03-31T11:21:52Z</time></trkpt><trkpt lat="45.72459165052956" lon="9.914967091980945"><ele>420.0</ele><time>2026-03-31T11:21:53Z</time></trkpt><trkpt lat="45.724624340834055" lon="9.91486136800827"><ele>420.0</ele><time>2026-03-31T11:21:54Z</time></trkpt><trkpt lat="45.724658090575055" lon="9.91477099257377"><ele>420.0</ele><time>2026-03-31T11:21:55Z</time></trkpt><trkpt lat="45.724695111541145" lon="9.914666021850916"><ele>420.0</ele><time>2026-03-31T11:21:56Z</time></trkpt><trkpt lat="45.72473962514551" lon="9.914566628571759"><ele>420.0</ele><time>2026-03-31T11:21:57Z</time></trkpt><trkpt lat="45.72478429694338" lon="9.914470453605158"><ele>420.0</ele><time>2026-03-31T11:21:58Z</time></trkpt><trkpt lat="45.72483091676739" lon="9.914377436517475"><ele>420.0</ele><time>2026-03-31T11:21:59Z</time></trkpt><trkpt lat="45.72487799218158" lon="9.914287800775348"><ele>420.0</ele><time>2026-03-31T11:22:00Z</time></trkpt><trkpt lat="45.72492301189319" lon="9.914200255362353"><ele>420.0</ele><time>2026-03-31T11:22:01Z</time></trkpt><trkpt lat="45.724966702755204" lon="9.914113790186581"><ele>420.0</ele><time>2026-03-31T11:22:02Z</time></trkpt><trkpt lat="45.7250075268941" lon="9.914028828296999"><ele>420.0</ele><time>2026-03-31T11:22:03Z</time></trkpt><trkpt lat="45.72504304963087" lon="9.913944100625507"><ele>417.2857142857143</ele><time>2026-03-31T11:22:04Z</time></trkpt><trkpt lat="45.725072717521655" lon="9.913852213525303"><ele>414.57142857142856</ele><time>2026-03-31T11:22:05Z</time></trkpt><trkpt lat="45.72509584774743" lon="9.913760841219496"><ele>411.8571428571429</ele><time>2026-03-31T11:22:06Z</time></trkpt><trkpt lat="45.72511493864804" lon="9.913669906153578"><ele>409.1428571428571</ele><time>2026-03-31T11:22:07Z</time></trkpt><trkpt lat="45.7251391969043" lon="9.913573140717455"><ele>406.42857142857144</ele><time>2026-03-31T11:22:08Z</time></trkpt><trkpt lat="45.72516570084959" lon="9.913480932358949"><ele>403.7142857142857</ele><time>2026-03-31T11:22:09Z</time></trkpt><trkpt lat="45.72519254244395" lon="9.91338234086451"><ele>401.0</ele><time>2026-03-31T11:22:10Z</time></trkpt><trkpt lat="45.72521932980281" lon="9.913288749087874"><ele>402.99999999999994</ele><time>2026-03-31T11:22:11Z</time></trkpt><trkpt lat="45.725245942408" lon="9.9131864966929"><ele>405.0</ele><time>2026-03-31T11:22:12Z</time></trkpt><trkpt lat="45.725278402604225" lon="9.913090571184645"><ele>407.0</ele><time>2026-03-31T11:22:13Z</time></trkpt><trkpt lat="45.725318011079274" lon="9.913000645044217"><ele>409.0</ele><time>2026-03-31T11:22:14Z</time></trkpt><trkpt lat="45.725359054024715" lon="9.912904513821001"><ele>410.99999999999994</ele><time>2026-03-31T11:22:15Z</time></trkpt><trkpt lat="45.72540182687148" lon="9.912803256117066"><ele>413.0</ele><time>2026-03-31T11:22:16Z</time></trkpt><trkpt lat="45.72544501865939" lon="9.912699739582372"><ele>413.0</ele><time>2026-03-31T11:22:17Z</time></trkpt><trkpt lat="45.725489795709436" lon="9.912590712176048"><ele>413.0</ele><time>2026-03-31T11:22:18Z</time></trkpt><trkpt lat="45.7255383242617" lon="9.912483025068473"><ele>413.0</ele><time>2026-03-31T11:22:19Z</time></trkpt><trkpt lat="45.725591157863306" lon="9.912364207191827"><ele>413.0</ele><time>2026-03-31T11:22:20Z</time></trkpt><trkpt lat="45.72565350521532" lon="9.912264837561262"><ele>413.0</ele><time>2026-03-31T11:22:21Z</time></trkpt><trkpt lat="45.72573176974936" lon="9.912189139480105"><ele>409.59999999999997</ele><time>2026-03-31T11:22:22Z</time></trkpt><trkpt lat="45.72582060743121" lon="9.91213757656023"><ele>406.2</ele><time>2026-03-31T11:22:23Z</time></trkpt><trkpt lat="45.72591343380223" lon="9.912099202402644"><ele>402.8</ele><time>2026-03-31T11:22:24Z</time></trkpt><trkpt lat="45.7260079783048" lon="9.912072758282108"><ele>399.4</ele><time>2026-03-31T11:22:25Z</time></trkpt><trkpt lat="45.726108489092276" lon="9.91206274742018"><ele>396.0</ele><time>2026-03-31T11:22:26Z</time></trkpt><trkpt lat="45.72620456376402" lon="9.912048021292994"><ele>396.0</ele><time>2026-03-31T11:22:27Z</time></trkpt><trkpt lat="45.726301299650196" lon="9.912027848400378"><ele>396.0</ele><time>2026-03-31T11:22:28Z</time></trkpt><trkpt lat="45.72639979542509" lon="9.912013171081231"><ele>396.0</ele><time>2026-03-31T11:22:29Z</time></trkpt><trkpt lat="45.72649628728372" lon="9.912004900868222"><ele>396.0</ele><time>2026-03-31T11:22:30Z</time></trkpt><trkpt lat="45.72658942342302" lon="9.911994283417549"><ele>396.0</ele><time>2026-03-31T11:22:31Z</time></trkpt><trkpt lat="45.72666969734427" lon="9.911976956853335"><ele>396.0</ele><time>2026-03-31T11:22:32Z</time></trkpt><trkpt lat="45.72674276219287" lon="9.911942277167972"><ele>396.0</ele><time>2026-03-31T11:22:33Z</time></trkpt><trkpt lat="45.7268073040048" lon="9.911898446778165"><ele>396.0</ele><time>2026-03-31T11:22:34Z</time></trkpt><trkpt lat="45.726863655238134" lon="9.911836870519158"><ele>396.0</ele><time>2026-03-31T11:22:35Z</time></trkpt><trkpt lat="45.72690240081767" lon="9.911758439910216"><ele>396.0</ele><time>2026-03-31T11:22:36Z</time></trkpt><trkpt lat="45.72693056575833" lon="9.91167624361992"><ele>396.0</ele><time>2026-03-31T11:22:37Z</time></trkpt><trkpt lat="45.7269798744201" lon="9.911514794655522"><ele>394.6</ele><time>2026-03-31T11:22:39Z</time></trkpt><trkpt lat="45.72700702116219" lon="9.911432629809585"><ele>393.20000000000005</ele><time>2026-03-31T11:22:40Z</time></trkpt><trkpt lat="45.727055043169244" lon="9.91128022294442"><ele>391.79999999999995</ele><time>2026-03-31T11:22:42Z</time></trkpt><trkpt lat="45.727120241599394" lon="9.911145470636361"><ele>390.4</ele><time>2026-03-31T11:22:44Z</time></trkpt><trkpt lat="45.72717685249445" lon="9.911020935117445"><ele>389.0</ele><time>2026-03-31T11:22:46Z</time></trkpt><trkpt lat="45.72722581613901" lon="9.910905525683724"><ele>388.2</ele><time>2026-03-31T11:22:48Z</time></trkpt><trkpt lat="45.72726615062088" lon="9.910809305298118"><ele>387.4</ele><time>2026-03-31T11:22:50Z</time></trkpt><trkpt lat="45.72732374672188" lon="9.910706231350417"><ele>386.6</ele><time>2026-03-31T11:22:52Z</time></trkpt><trkpt lat="45.727401267328" lon="9.910605515465745"><ele>385.8</ele><time>2026-03-31T11:22:54Z</time></trkpt><trkpt lat="45.72749764242066" lon="9.91052725911785"><ele>385.0</ele><time>2026-03-31T11:22:56Z</time></trkpt><trkpt lat="45.727603262730746" lon="9.910534328739667"><ele>385.0</ele><time>2026-03-31T11:22:58Z</time></trkpt><trkpt lat="45.727695358811964" lon="9.910645448010582"><ele>385.0</ele><time>2026-03-31T11:23:00Z</time></trkpt><trkpt lat="45.72777560436999" lon="9.910748126327322"><ele>385.0</ele><time>2026-03-31T11:23:02Z</time></trkpt><trkpt lat="45.727869327893366" lon="9.910845939979758"><ele>385.0</ele><time>2026-03-31T11:23:04Z</time></trkpt><trkpt lat="45.72791876235465" lon="9.91090294546591"><ele>385.0</ele><time>2026-03-31T11:23:05Z</time></trkpt><trkpt lat="45.727972346169715" lon="9.9109608391968"><ele>385.14285714285717</ele><time>2026-03-31T11:23:06Z</time></trkpt><trkpt lat="45.72802579984116" lon="9.911019087387736"><ele>385.2857142857143</ele><time>2026-03-31T11:23:07Z</time></trkpt><trkpt lat="45.72808507778426" lon="9.911073263471362"><ele>385.42857142857144</ele><time>2026-03-31T11:23:08Z</time></trkpt><trkpt lat="45.72814911466308" lon="9.911126576557319"><ele>385.57142857142856</ele><time>2026-03-31T11:23:09Z</time></trkpt><trkpt lat="45.72821270288772" lon="9.91118895684682"><ele>385.7142857142857</ele><time>2026-03-31T11:23:10Z</time></trkpt><trkpt lat="45.72827060394228" lon="9.911249926164825"><ele>385.8571428571429</ele><time>2026-03-31T11:23:11Z</time></trkpt><trkpt lat="45.72834113847991" lon="9.911317490551484"><ele>386.0</ele><time>2026-03-31T11:23:12Z</time></trkpt><trkpt lat="45.72841335856662" lon="9.911394816039612"><ele>385.99999999999994</ele><time>2026-03-31T11:23:13Z</time></trkpt><trkpt lat="45.728474271788635" lon="9.911475874445374"><ele>386.0</ele><time>2026-03-31T11:23:14Z</time></trkpt><trkpt lat="45.728540906150606" lon="9.91154547642156"><ele>386.0</ele><time>2026-03-31T11:23:15Z</time></trkpt><trkpt lat="45.72860308347713" lon="9.911567315828398"><ele>386.0</ele><time>2026-03-31T11:23:16Z</time></trkpt><trkpt lat="45.728687278775276" lon="9.911484487563602"><ele>385.99999999999994</ele><time>2026-03-31T11:23:18Z</time></trkpt><trkpt lat="45.728678003853965" lon="9.911388062530733"><ele>386.0</ele><time>2026-03-31T11:23:19Z</time></trkpt><trkpt lat="45.728620957236394" lon="9.911306125068391"><ele>385.99999999999994</ele><time>2026-03-31T11:23:20Z</time></trkpt><trkpt lat="45.72854483198441" lon="9.91125402028065"><ele>386.0</ele><time>2026-03-31T11:23:21Z</time></trkpt><trkpt lat="45.728477304393316" lon="9.911192331844479"><ele>386.0</ele><time>2026-03-31T11:23:22Z</time></trkpt><trkpt lat="45.728408113634224" lon="9.911119078274968"><ele>386.0</ele><time>2026-03-31T11:23:23Z</time></trkpt><trkpt lat="45.72834926502207" lon="9.911021645806732"><ele>385.99999999999994</ele><time>2026-03-31T11:23:24Z</time></trkpt><trkpt lat="45.72829560064897" lon="9.910908851182953"><ele>386.0</ele><time>2026-03-31T11:23:25Z</time></trkpt><trkpt lat="45.72824404379678" lon="9.910782173706963"><ele>382.20000000000005</ele><time>2026-03-31T11:23:26Z</time></trkpt><trkpt lat="45.728197011784005" lon="9.910647178692033"><ele>378.40000000000003</ele><time>2026-03-31T11:23:27Z</time></trkpt><trkpt lat="45.728157140867445" lon="9.910503829139609"><ele>374.6</ele><time>2026-03-31T11:23:28Z</time></trkpt><trkpt lat="45.728108313704716" lon="9.910363106594907"><ele>370.8</ele><time>2026-03-31T11:23:29Z</time></trkpt><trkpt lat="45.72805624482681" lon="9.910219752127306"><ele>367.0</ele><time>2026-03-31T11:23:30Z</time></trkpt><trkpt lat="45.72799896324675" lon="9.910075794741273"><ele>368.75</ele><time>2026-03-31T11:23:31Z</time></trkpt><trkpt lat="45.727936655964264" lon="9.909932029146225"><ele>370.5</ele><time>2026-03-31T11:23:32Z</time></trkpt><trkpt lat="45.72786436074114" lon="9.909786754406824"><ele>372.25</ele><time>2026-03-31T11:23:33Z</time></trkpt><trkpt lat="45.72778865247063" lon="9.909635870658454"><ele>374.0</ele><time>2026-03-31T11:23:34Z</time></trkpt><trkpt lat="45.72770985423206" lon="9.909487373471409"><ele>374.0</ele><time>2026-03-31T11:23:35Z</time></trkpt><trkpt lat="45.72763236799842" lon="9.909348699754675"><ele>374.0</ele><time>2026-03-31T11:23:36Z</time></trkpt><trkpt lat="45.727558519069184" lon="9.909226555158883"><ele>374.0</ele><time>2026-03-31T11:23:37Z</time></trkpt><trkpt lat="45.72748697914149" lon="9.909100920029577"><ele>374.0</ele><time>2026-03-31T11:23:38Z</time></trkpt><trkpt lat="45.72742320197903" lon="9.908988373605244"><ele>370.5</ele><time>2026-03-31T11:23:39Z</time></trkpt><trkpt lat="45.72736600363012" lon="9.908890700777961"><ele>367.0</ele><time>2026-03-31T11:23:40Z</time></trkpt><trkpt lat="45.72731856572642" lon="9.908806810749866"><ele>363.5</ele><time>2026-03-31T11:23:41Z</time></trkpt><trkpt lat="45.727277583886426" lon="9.908712676533751"><ele>360.0</ele><time>2026-03-31T11:23:42Z</time></trkpt><trkpt lat="45.7272306743" lon="9.90860412219172"><ele>356.5</ele><time>2026-03-31T11:23:43Z</time></trkpt><trkpt lat="45.727192952421724" lon="9.908483080057978"><ele>353.0</ele><time>2026-03-31T11:23:44Z</time></trkpt><trkpt lat="45.727176371262416" lon="9.908348019084041"><ele>350.4</ele><time>2026-03-31T11:23:45Z</time></trkpt><trkpt lat="45.72718129863155" lon="9.908207858056942"><ele>347.79999999999995</ele><time>2026-03-31T11:23:46Z</time></trkpt><trkpt lat="45.72719851239687" lon="9.908060897928666"><ele>345.2</ele><time>2026-03-31T11:23:47Z</time></trkpt><trkpt lat="45.727209593703854" lon="9.907917861271672"><ele>342.6</ele><time>2026-03-31T11:23:48Z</time></trkpt><trkpt lat="45.72719569996273" lon="9.907778207764853"><ele>340.0</ele><time>2026-03-31T11:23:49Z</time></trkpt><trkpt lat="45.72715670158667" lon="9.90764130334386"><ele>338.5</ele><time>2026-03-31T11:23:50Z</time></trkpt><trkpt lat="45.727101752408906" lon="9.90750497946339"><ele>337.0</ele><time>2026-03-31T11:23:51Z</time></trkpt><trkpt lat="45.72704007339418" lon="9.907370808889727"><ele>335.5</ele><time>2026-03-31T11:23:52Z</time></trkpt><trkpt lat="45.7269777598176" lon="9.907237780236256"><ele>334.0</ele><time>2026-03-31T11:23:53Z</time></trkpt><trkpt lat="45.72690353938313" lon="9.907107895340523"><ele>333.5</ele><time>2026-03-31T11:23:54Z</time></trkpt><trkpt lat="45.72683010762467" lon="9.90700725606309"><ele>333.0</ele><time>2026-03-31T11:23:55Z</time></trkpt><trkpt lat="45.726759573886056" lon="9.906937258290727"><ele>332.5</ele><time>2026-03-31T11:23:56Z</time></trkpt><trkpt lat="45.726690087650454" lon="9.906893929063612"><ele>332.0</ele><time>2026-03-31T11:23:57Z</time></trkpt><trkpt lat="45.72662828374739" lon="9.906791659511315"><ele>331.5</ele><time>2026-03-31T11:23:59Z</time></trkpt><trkpt lat="45.7266695102" lon="9.906717145340311"><ele>331.0</ele><time>2026-03-31T11:24:00Z</time></trkpt><trkpt lat="45.72674572460342" lon="9.906678896997901"><ele>331.0</ele><time>2026-03-31T11:24:01Z</time></trkpt><trkpt lat="45.72682498749327" lon="9.90665482838528"><ele>331.0</ele><time>2026-03-31T11:24:02Z</time></trkpt><trkpt lat="45.72690156538309" lon="9.906599715159059"><ele>331.0</ele><time>2026-03-31T11:24:03Z</time></trkpt><trkpt lat="45.72696321910625" lon="9.906510815549877"><ele>331.0</ele><time>2026-03-31T11:24:04Z</time></trkpt><trkpt lat="45.72702556874271" lon="9.906406577138034"><ele>331.0</ele><time>2026-03-31T11:24:05Z</time></trkpt><trkpt lat="45.72709228133017" lon="9.906305093773852"><ele>331.0</ele><time>2026-03-31T11:24:06Z</time></trkpt><trkpt lat="45.72715566468021" lon="9.906194199979868"><ele>330.20000000000005</ele><time>2026-03-31T11:24:07Z</time></trkpt><trkpt lat="45.72720680763345" lon="9.906063056243699"><ele>329.40000000000003</ele><time>2026-03-31T11:24:08Z</time></trkpt><trkpt lat="45.72724776804164" lon="9.905918944604554"><ele>328.6</ele><time>2026-03-31T11:24:09Z</time></trkpt><trkpt lat="45.72729067278877" lon="9.905773266433487"><ele>327.8</ele><time>2026-03-31T11:24:10Z</time></trkpt><trkpt lat="45.72733707838982" lon="9.905624926371205"><ele>327.0</ele><time>2026-03-31T11:24:11Z</time></trkpt><trkpt lat="45.7273787146415" lon="9.905471899914785"><ele>325.6</ele><time>2026-03-31T11:24:12Z</time></trkpt><trkpt lat="45.72740281113842" lon="9.905316775647236"><ele>324.20000000000005</ele><time>2026-03-31T11:24:13Z</time></trkpt><trkpt lat="45.72740213378256" lon="9.905173113791065"><ele>322.8</ele><time>2026-03-31T11:24:14Z</time></trkpt><trkpt lat="45.7273768181314" lon="9.905052948754687"><ele>321.4</ele><time>2026-03-31T11:24:15Z</time></trkpt><trkpt lat="45.72733026402465" lon="9.904950192692299"><ele>320.0</ele><time>2026-03-31T11:24:16Z</time></trkpt><trkpt lat="45.72725598459825" lon="9.90487122970497"><ele>319.83333333333337</ele><time>2026-03-31T11:24:17Z</time></trkpt><trkpt lat="45.72717300235222" lon="9.90482074670117"><ele>319.6666666666667</ele><time>2026-03-31T11:24:18Z</time></trkpt><trkpt lat="45.72709555701876" lon="9.90477359658347"><ele>319.5</ele><time>2026-03-31T11:24:19Z</time></trkpt><trkpt lat="45.72702770368833" lon="9.90471242724767"><ele>319.3333333333333</ele><time>2026-03-31T11:24:20Z</time></trkpt><trkpt lat="45.726961201470985" lon="9.904650004910222"><ele>319.16666666666663</ele><time>2026-03-31T11:24:21Z</time></trkpt><trkpt lat="45.7268970705888" lon="9.904582737796604"><ele>319.0</ele><time>2026-03-31T11:24:22Z</time></trkpt><trkpt lat="45.72683513540343" lon="9.904514437406212"><ele>319.0</ele><time>2026-03-31T11:24:23Z</time></trkpt><trkpt lat="45.72677132384877" lon="9.904444425309483"><ele>319.0</ele><time>2026-03-31T11:24:24Z</time></trkpt><trkpt lat="45.72671298001033" lon="9.904369058389456"><ele>319.0</ele><time>2026-03-31T11:24:25Z</time></trkpt><trkpt lat="45.72666039969396" lon="9.904285255059776"><ele>319.0</ele><time>2026-03-31T11:24:26Z</time></trkpt><trkpt lat="45.726621469459" lon="9.904185474980423"><ele>319.0</ele><time>2026-03-31T11:24:27Z</time></trkpt><trkpt lat="45.7265949766821" lon="9.904075802838829"><ele>319.0</ele><time>2026-03-31T11:24:28Z</time></trkpt><trkpt lat="45.726571269641376" lon="9.903964435663628"><ele>318.5</ele><time>2026-03-31T11:24:29Z</time></trkpt><trkpt lat="45.72654127377272" lon="9.903855780318008"><ele>318.0</ele><time>2026-03-31T11:24:30Z</time></trkpt><trkpt lat="45.72650131471692" lon="9.903749340602161"><ele>317.5</ele><time>2026-03-31T11:24:31Z</time></trkpt><trkpt lat="45.72645648639371" lon="9.903640495057983"><ele>317.0</ele><time>2026-03-31T11:24:32Z</time></trkpt><trkpt lat="45.726405505105426" lon="9.903535573772116"><ele>316.5</ele><time>2026-03-31T11:24:33Z</time></trkpt><trkpt lat="45.726348755760164" lon="9.903434574218357"><ele>316.0</ele><time>2026-03-31T11:24:34Z</time></trkpt><trkpt lat="45.7262933237748" lon="9.90332859410827"><ele>316.16666666666663</ele><time>2026-03-31T11:24:35Z</time></trkpt><trkpt lat="45.7262389572883" lon="9.903225873402722"><ele>316.3333333333333</ele><time>2026-03-31T11:24:36Z</time></trkpt><trkpt lat="45.72618315197575" lon="9.903128560970492"><ele>316.5</ele><time>2026-03-31T11:24:37Z</time></trkpt><trkpt lat="45.72612693837488" lon="9.90303046962589"><ele>316.6666666666667</ele><time>2026-03-31T11:24:38Z</time></trkpt><trkpt lat="45.72606927348664" lon="9.902931157181571"><ele>316.83333333333337</ele><time>2026-03-31T11:24:39Z</time></trkpt><trkpt lat="45.72601109347026" lon="9.902835706513553"><ele>317.0</ele><time>2026-03-31T11:24:40Z</time></trkpt><trkpt lat="45.725953776514956" lon="9.902737437255821"><ele>317.0</ele><time>2026-03-31T11:24:41Z</time></trkpt><trkpt lat="45.725896170498324" lon="9.902636137010404"><ele>317.0</ele><time>2026-03-31T11:24:42Z</time></trkpt><trkpt lat="45.72583392387033" lon="9.902538120238058"><ele>317.0</ele><time>2026-03-31T11:24:43Z</time></trkpt><trkpt lat="45.72576823222134" lon="9.902438653325685"><ele>317.0</ele><time>2026-03-31T11:24:44Z</time></trkpt><trkpt lat="45.7256975052623" lon="9.9023400923923"><ele>317.0</ele><time>2026-03-31T11:24:45Z</time></trkpt><trkpt lat="45.725622645193546" lon="9.902243529472795"><ele>315.4</ele><time>2026-03-31T11:24:46Z</time></trkpt><trkpt lat="45.72554813979946" lon="9.902139583648651"><ele>313.79999999999995</ele><time>2026-03-31T11:24:47Z</time></trkpt><trkpt lat="45.72547615149673" lon="9.902032397618555"><ele>312.2</ele><time>2026-03-31T11:24:48Z</time></trkpt><trkpt lat="45.725410100846375" lon="9.901926204986282"><ele>310.59999999999997</ele><time>2026-03-31T11:24:49Z</time></trkpt><trkpt lat="45.72534867534804" lon="9.901826411475332"><ele>309.0</ele><time>2026-03-31T11:24:50Z</time></trkpt><trkpt lat="45.725288935968365" lon="9.901744414033011"><ele>309.0</ele><time>2026-03-31T11:24:51Z</time></trkpt><trkpt lat="45.72524196415885" lon="9.901670039399512"><ele>309.0</ele><time>2026-03-31T11:24:52Z</time></trkpt><trkpt lat="45.725174778328864" lon="9.901558319636205"><ele>309.0</ele><time>2026-03-31T11:24:54Z</time></trkpt><trkpt lat="45.72508628918105" lon="9.901512097354024"><ele>309.0</ele><time>2026-03-31T11:24:56Z</time></trkpt><trkpt lat="45.724955202139355" lon="9.901534823980553"><ele>309.0</ele><time>2026-03-31T11:24:58Z</time></trkpt><trkpt lat="45.72488099872226" lon="9.9015125948572"><ele>308.3333333333333</ele><time>2026-03-31T11:24:59Z</time></trkpt><trkpt lat="45.7248049741666" lon="9.901475333849003"><ele>307.6666666666667</ele><time>2026-03-31T11:25:00Z</time></trkpt><trkpt lat="45.72473100764636" lon="9.901425382271453"><ele>307.0</ele><time>2026-03-31T11:25:01Z</time></trkpt><trkpt lat="45.72465935649812" lon="9.901366271258347"><ele>306.33333333333337</ele><time>2026-03-31T11:25:02Z</time></trkpt><trkpt lat="45.72458731421343" lon="9.90130951441408"><ele>305.6666666666667</ele><time>2026-03-31T11:25:03Z</time></trkpt><trkpt lat="45.72451563458427" lon="9.901251729600355"><ele>305.0</ele><time>2026-03-31T11:25:04Z</time></trkpt><trkpt lat="45.72444593320155" lon="9.901188857867954"><ele>305.33333333333337</ele><time>2026-03-31T11:25:05Z</time></trkpt><trkpt lat="45.72438405262206" lon="9.901111518515759"><ele>305.6666666666667</ele><time>2026-03-31T11:25:06Z</time></trkpt><trkpt lat="45.7243313642195" lon="9.901020134116857"><ele>306.0</ele><time>2026-03-31T11:25:07Z</time></trkpt><trkpt lat="45.724288213373576" lon="9.900923577854218"><ele>306.3333333333333</ele><time>2026-03-31T11:25:08Z</time></trkpt><trkpt lat="45.72424664171513" lon="9.900827449239122"><ele>306.66666666666663</ele><time>2026-03-31T11:25:09Z</time></trkpt><trkpt lat="45.72420348160871" lon="9.900740643224646"><ele>307.0</ele><time>2026-03-31T11:25:10Z</time></trkpt><trkpt lat="45.7241591914229" lon="9.900657074217396"><ele>306.16666666666663</ele><time>2026-03-31T11:25:11Z</time></trkpt><trkpt lat="45.724106291286525" lon="9.900574404191257"><ele>305.3333333333333</ele><time>2026-03-31T11:25:12Z</time></trkpt><trkpt lat="45.72404702757638" lon="9.900503848831644"><ele>304.5</ele><time>2026-03-31T11:25:13Z</time></trkpt><trkpt lat="45.72398161138123" lon="9.900443914418021"><ele>303.6666666666667</ele><time>2026-03-31T11:25:14Z</time></trkpt><trkpt lat="45.723906432263085" lon="9.900407665196044"><ele>302.83333333333337</ele><time>2026-03-31T11:25:15Z</time></trkpt><trkpt lat="45.7238323108619" lon="9.900384345017187"><ele>302.0</ele><time>2026-03-31T11:25:16Z</time></trkpt><trkpt lat="45.72377079144151" lon="9.900362922007522"><ele>302.0</ele><time>2026-03-31T11:25:17Z</time></trkpt><trkpt lat="45.72375362592974" lon="9.90026956550872"><ele>302.0</ele><time>2026-03-31T11:25:20Z</time></trkpt><trkpt lat="45.723815457075084" lon="9.900187368079147"><ele>302.0</ele><time>2026-03-31T11:25:22Z</time></trkpt><trkpt lat="45.72376621110271" lon="9.900113316107502"><ele>302.0</ele><time>2026-03-31T11:25:24Z</time></trkpt><trkpt lat="45.7236447351645" lon="9.900082881467734"><ele>302.0</ele><time>2026-03-31T11:25:26Z</time></trkpt><trkpt lat="45.72354909523581" lon="9.9000265322551"><ele>302.0</ele><time>2026-03-31T11:25:28Z</time></trkpt><trkpt lat="45.7235206248114" lon="9.89987675592459"><ele>302.0</ele><time>2026-03-31T11:25:30Z</time></trkpt><trkpt lat="45.72348313056189" lon="9.899798872070452"><ele>302.0</ele><time>2026-03-31T11:25:31Z</time></trkpt><trkpt lat="45.72340383411911" lon="9.899663508975689"><ele>302.0</ele><time>2026-03-31T11:25:33Z</time></trkpt><trkpt lat="45.723285555140166" lon="9.899616316520603"><ele>302.0</ele><time>2026-03-31T11:25:35Z</time></trkpt><trkpt lat="45.72322500497875" lon="9.899586645853612"><ele>302.0</ele><time>2026-03-31T11:25:36Z</time></trkpt><trkpt lat="45.72316623794148" lon="9.899542547895418"><ele>302.0</ele><time>2026-03-31T11:25:37Z</time></trkpt><trkpt lat="45.72311189595527" lon="9.89948848599254"><ele>302.0</ele><time>2026-03-31T11:25:38Z</time></trkpt><trkpt lat="45.723067359267645" lon="9.899419217968095"><ele>302.0</ele><time>2026-03-31T11:25:39Z</time></trkpt><trkpt lat="45.723029473405546" lon="9.8993452386447"><ele>302.0</ele><time>2026-03-31T11:25:40Z</time></trkpt><trkpt lat="45.722958298493786" lon="9.899192758281629"><ele>302.0</ele><time>2026-03-31T11:25:42Z</time></trkpt><trkpt lat="45.72291921386189" lon="9.899121753849725"><ele>302.0</ele><time>2026-03-31T11:25:43Z</time></trkpt><trkpt lat="45.72287777057005" lon="9.899051959872413"><ele>302.0</ele><time>2026-03-31T11:25:44Z</time></trkpt><trkpt lat="45.722792413659526" lon="9.898916458702493"><ele>302.0</ele><time>2026-03-31T11:25:46Z</time></trkpt><trkpt lat="45.72273389369896" lon="9.898875125798071"><ele>302.0</ele><time>2026-03-31T11:25:47Z</time></trkpt><trkpt lat="45.72267351849227" lon="9.898833410476119"><ele>302.0</ele><time>2026-03-31T11:25:48Z</time></trkpt><trkpt lat="45.7226154019804" lon="9.898779664403612"><ele>302.0</ele><time>2026-03-31T11:25:49Z</time></trkpt><trkpt lat="45.72255247497758" lon="9.898722156779831"><ele>302.00000000000006</ele><time>2026-03-31T11:25:50Z</time></trkpt><trkpt lat="45.722487395586455" lon="9.898659888633569"><ele>302.0</ele><time>2026-03-31T11:25:51Z</time></trkpt><trkpt lat="45.72242363591325" lon="9.898604062129497"><ele>302.0</ele><time>2026-03-31T11:25:52Z</time></trkpt><trkpt lat="45.72236098230771" lon="9.898548219864852"><ele>302.0</ele><time>2026-03-31T11:25:53Z</time></trkpt><trkpt lat="45.72230072739922" lon="9.89849212602654"><ele>302.0</ele><time>2026-03-31T11:25:54Z</time></trkpt><trkpt lat="45.722241538896434" lon="9.89842658632431"><ele>302.00000000000006</ele><time>2026-03-31T11:25:55Z</time></trkpt><trkpt lat="45.722188061286424" lon="9.898355841171949"><ele>302.0</ele><time>2026-03-31T11:25:56Z</time></trkpt><trkpt lat="45.72213079288979" lon="9.898287238903436"><ele>302.0</ele><time>2026-03-31T11:25:57Z</time></trkpt><trkpt lat="45.72207610123338" lon="9.898218108535302"><ele>302.0</ele><time>2026-03-31T11:25:58Z</time></trkpt><trkpt lat="45.72202062138531" lon="9.89814737520917"><ele>302.0</ele><time>2026-03-31T11:25:59Z</time></trkpt><trkpt lat="45.72196589483597" lon="9.89807825053965"><ele>302.0</ele><time>2026-03-31T11:26:00Z</time></trkpt><trkpt lat="45.72191363985577" lon="9.898004550423275"><ele>302.0</ele><time>2026-03-31T11:26:01Z</time></trkpt><trkpt lat="45.721864415941035" lon="9.897937922111781"><ele>302.0</ele><time>2026-03-31T11:26:02Z</time></trkpt><trkpt lat="45.72179426747113" lon="9.897806372328581"><ele>302.42857142857144</ele><time>2026-03-31T11:26:04Z</time></trkpt><trkpt lat="45.72175824209856" lon="9.897724679719225"><ele>302.8571428571429</ele><time>2026-03-31T11:26:05Z</time></trkpt><trkpt lat="45.721717628046356" lon="9.897636134351568"><ele>303.28571428571433</ele><time>2026-03-31T11:26:06Z</time></trkpt><trkpt lat="45.72167848926737" lon="9.897552309981444"><ele>303.7142857142857</ele><time>2026-03-31T11:26:07Z</time></trkpt><trkpt lat="45.721642221853976" lon="9.897473252363824"><ele>304.1428571428571</ele><time>2026-03-31T11:26:08Z</time></trkpt><trkpt lat="45.72160533679648" lon="9.897392836935252"><ele>304.5714285714286</ele><time>2026-03-31T11:26:09Z</time></trkpt><trkpt lat="45.72156989599563" lon="9.897309206492702"><ele>305.0</ele><time>2026-03-31T11:26:10Z</time></trkpt><trkpt lat="45.72153490599279" lon="9.89722918739198"><ele>305.0</ele><time>2026-03-31T11:26:11Z</time></trkpt><trkpt lat="45.72147481582422" lon="9.897077084463424"><ele>305.0</ele><time>2026-03-31T11:26:13Z</time></trkpt><trkpt lat="45.72142780804509" lon="9.89691908665027"><ele>305.0</ele><time>2026-03-31T11:26:15Z</time></trkpt><trkpt lat="45.72140387616093" lon="9.8968329410558"><ele>305.0</ele><time>2026-03-31T11:26:16Z</time></trkpt><trkpt lat="45.721361525365964" lon="9.89667485710089"><ele>305.0</ele><time>2026-03-31T11:26:18Z</time></trkpt><trkpt lat="45.721366203575684" lon="9.896516292977024"><ele>304.4</ele><time>2026-03-31T11:26:20Z</time></trkpt><trkpt lat="45.721303822557054" lon="9.896421757493833"><ele>303.8</ele><time>2026-03-31T11:26:21Z</time></trkpt><trkpt lat="45.72128088601862" lon="9.896330609205249"><ele>303.2</ele><time>2026-03-31T11:26:22Z</time></trkpt><trkpt lat="45.72123999727054" lon="9.896173314505825"><ele>302.6</ele><time>2026-03-31T11:26:24Z</time></trkpt><trkpt lat="45.72115320471114" lon="9.896067741268931"><ele>302.0</ele><time>2026-03-31T11:26:26Z</time></trkpt><trkpt lat="45.72110312357344" lon="9.89591844734258"><ele>302.0</ele><time>2026-03-31T11:26:28Z</time></trkpt><trkpt lat="45.72108970380356" lon="9.895826896904673"><ele>302.0</ele><time>2026-03-31T11:26:29Z</time></trkpt><trkpt lat="45.72105262281345" lon="9.895674798439176"><ele>302.0</ele><time>2026-03-31T11:26:31Z</time></trkpt><trkpt lat="45.72102695540022" lon="9.895566082809218"><ele>302.0</ele><time>2026-03-31T11:26:33Z</time></trkpt><trkpt lat="45.72101765060114" lon="9.895406809470188"><ele>302.0</ele><time>2026-03-31T11:26:35Z</time></trkpt><trkpt lat="45.72101229904591" lon="9.895241628256562"><ele>301.83333333333337</ele><time>2026-03-31T11:26:37Z</time></trkpt><trkpt lat="45.72101009816862" lon="9.895125997785684"><ele>301.6666666666667</ele><time>2026-03-31T11:26:39Z</time></trkpt><trkpt lat="45.720998950710545" lon="9.89503470798508"><ele>301.5</ele><time>2026-03-31T11:26:42Z</time></trkpt><trkpt lat="45.720938718445" lon="9.895002441396043"><ele>301.3333333333333</ele><time>2026-03-31T11:27:14Z</time></trkpt><trkpt lat="45.72098241320499" lon="9.894927732143968"><ele>301.16666666666663</ele><time>2026-03-31T11:27:24Z</time></trkpt><trkpt lat="45.72099116683614" lon="9.894831040004215"><ele>301.0</ele><time>2026-03-31T11:27:26Z</time></trkpt><trkpt lat="45.720967489934615" lon="9.894640832582587"><ele>301.0</ele><time>2026-03-31T11:27:28Z</time></trkpt><trkpt lat="45.72095110048148" lon="9.894551982321042"><ele>301.0</ele><time>2026-03-31T11:27:29Z</time></trkpt><trkpt lat="45.720925099861496" lon="9.894465044411795"><ele>301.0</ele><time>2026-03-31T11:27:30Z</time></trkpt><trkpt lat="45.72089222161656" lon="9.894382419354992"><ele>301.0</ele><time>2026-03-31T11:27:31Z</time></trkpt><trkpt lat="45.72085673749104" lon="9.894299760011334"><ele>301.0</ele><time>2026-03-31T11:27:32Z</time></trkpt><trkpt lat="45.72082038545848" lon="9.894220790275577"><ele>301.0</ele><time>2026-03-31T11:27:33Z</time></trkpt><trkpt lat="45.72078198002646" lon="9.894141436374396"><ele>301.0</ele><time>2026-03-31T11:27:34Z</time></trkpt><trkpt lat="45.72073660972702" lon="9.894069053656331"><ele>300.57142857142856</ele><time>2026-03-31T11:27:35Z</time></trkpt><trkpt lat="45.72068504705554" lon="9.894003244105422"><ele>300.1428571428571</ele><time>2026-03-31T11:27:36Z</time></trkpt><trkpt lat="45.72063286590755" lon="9.8939454181654"><ele>299.7142857142857</ele><time>2026-03-31T11:27:37Z</time></trkpt><trkpt lat="45.72057134203447" lon="9.893892188212861"><ele>299.2857142857143</ele><time>2026-03-31T11:27:38Z</time></trkpt><trkpt lat="45.720506714573496" lon="9.893839310428449"><ele>298.85714285714283</ele><time>2026-03-31T11:27:39Z</time></trkpt><trkpt lat="45.72043894738366" lon="9.893787737536178"><ele>298.42857142857144</ele><time>2026-03-31T11:27:40Z</time></trkpt><trkpt lat="45.72036908624868" lon="9.893736697988013"><ele>298.0</ele><time>2026-03-31T11:27:41Z</time></trkpt><trkpt lat="45.72029691610156" lon="9.893686421603197"><ele>298.16666666666663</ele><time>2026-03-31T11:27:42Z</time></trkpt><trkpt lat="45.72022831497568" lon="9.893632599960542"><ele>298.3333333333333</ele><time>2026-03-31T11:27:43Z</time></trkpt><trkpt lat="45.720152933838015" lon="9.893584527431756"><ele>298.5</ele><time>2026-03-31T11:27:44Z</time></trkpt><trkpt lat="45.72007768435174" lon="9.893527532517219"><ele>298.6666666666667</ele><time>2026-03-31T11:27:45Z</time></trkpt><trkpt lat="45.72000859701795" lon="9.893465030796245"><ele>298.83333333333337</ele><time>2026-03-31T11:27:46Z</time></trkpt><trkpt lat="45.719944929731206" lon="9.89339540590219"><ele>299.0</ele><time>2026-03-31T11:27:47Z</time></trkpt><trkpt lat="45.71988184522976" lon="9.89331941619613"><ele>298.0</ele><time>2026-03-31T11:27:48Z</time></trkpt><trkpt lat="45.719821802775584" lon="9.893245842879828"><ele>297.0</ele><time>2026-03-31T11:27:49Z</time></trkpt><trkpt lat="45.71976163931851" lon="9.893174515294747"><ele>296.0</ele><time>2026-03-31T11:27:50Z</time></trkpt><trkpt lat="45.71970170711216" lon="9.893104224577566"><ele>295.0</ele><time>2026-03-31T11:27:51Z</time></trkpt><trkpt lat="45.719643807533515" lon="9.893032951092218"><ele>294.0</ele><time>2026-03-31T11:27:52Z</time></trkpt><trkpt lat="45.7195865689996" lon="9.892958985431974"><ele>293.0</ele><time>2026-03-31T11:27:53Z</time></trkpt><trkpt lat="45.71953208353144" lon="9.892888896466156"><ele>292.99999999999994</ele><time>2026-03-31T11:27:54Z</time></trkpt><trkpt lat="45.719472923140835" lon="9.892824043914706"><ele>293.0</ele><time>2026-03-31T11:27:55Z</time></trkpt><trkpt lat="45.719415794028706" lon="9.892763583121374"><ele>293.0</ele><time>2026-03-31T11:27:56Z</time></trkpt><trkpt lat="45.71936072698948" lon="9.892704316597408"><ele>293.0</ele><time>2026-03-31T11:27:57Z</time></trkpt><trkpt lat="45.719302084968966" lon="9.89264891177823"><ele>293.0</ele><time>2026-03-31T11:27:58Z</time></trkpt><trkpt lat="45.71924697661345" lon="9.892594732928972"><ele>292.99999999999994</ele><time>2026-03-31T11:27:59Z</time></trkpt><trkpt lat="45.7191918215832" lon="9.892543289513934"><ele>293.0</ele><time>2026-03-31T11:28:00Z</time></trkpt><trkpt lat="45.71909145196742" lon="9.89242873419778"><ele>292.5</ele><time>2026-03-31T11:28:02Z</time></trkpt><trkpt lat="45.71901260657687" lon="9.892316960901187"><ele>292.0</ele><time>2026-03-31T11:28:04Z</time></trkpt><trkpt lat="45.718965768863384" lon="9.892255185877847"><ele>291.5</ele><time>2026-03-31T11:28:05Z</time></trkpt><trkpt lat="45.718881866367276" lon="9.892145555583294"><ele>291.0</ele><time>2026-03-31T11:28:07Z</time></trkpt><trkpt lat="45.71884037108787" lon="9.892077358577147"><ele>290.5</ele><time>2026-03-31T11:28:08Z</time></trkpt><trkpt lat="45.71879377637947" lon="9.892009464202939"><ele>290.0</ele><time>2026-03-31T11:28:09Z</time></trkpt><trkpt lat="45.71874528812471" lon="9.891943082781498"><ele>290.0</ele><time>2026-03-31T11:28:10Z</time></trkpt><trkpt lat="45.7187022506669" lon="9.891869760358102"><ele>290.0</ele><time>2026-03-31T11:28:11Z</time></trkpt><trkpt lat="45.718660092178496" lon="9.891796965756818"><ele>290.0</ele><time>2026-03-31T11:28:12Z</time></trkpt><trkpt lat="45.718619059596286" lon="9.891726878807269"><ele>290.0</ele><time>2026-03-31T11:28:13Z</time></trkpt><trkpt lat="45.71857781821277" lon="9.891654677908148"><ele>290.0</ele><time>2026-03-31T11:28:14Z</time></trkpt><trkpt lat="45.718535148700724" lon="9.89158269858896"><ele>290.0</ele><time>2026-03-31T11:28:15Z</time></trkpt><trkpt lat="45.71846119035868" lon="9.891435411521798"><ele>290.4</ele><time>2026-03-31T11:28:17Z</time></trkpt><trkpt lat="45.718385736728834" lon="9.891299071674299"><ele>290.8</ele><time>2026-03-31T11:28:19Z</time></trkpt><trkpt lat="45.7183233411463" lon="9.891169096047019"><ele>291.2</ele><time>2026-03-31T11:28:21Z</time></trkpt><trkpt lat="45.718218120476344" lon="9.891135338817111"><ele>291.6</ele><time>2026-03-31T11:28:23Z</time></trkpt><trkpt lat="45.71815671199946" lon="9.89116547973898"><ele>292.0</ele><time>2026-03-31T11:28:24Z</time></trkpt><trkpt lat="45.718102527334196" lon="9.891223176781311"><ele>292.0</ele><time>2026-03-31T11:28:25Z</time></trkpt><trkpt lat="45.71805588069211" lon="9.891285475565155"><ele>292.0</ele><time>2026-03-31T11:28:26Z</time></trkpt><trkpt lat="45.718006529974225" lon="9.891343999240911"><ele>292.0</ele><time>2026-03-31T11:28:27Z</time></trkpt><trkpt lat="45.71790616599789" lon="9.891445079467545"><ele>292.0</ele><time>2026-03-31T11:28:29Z</time></trkpt><trkpt lat="45.71780560587222" lon="9.891539738728952"><ele>292.0</ele><time>2026-03-31T11:28:31Z</time></trkpt><trkpt lat="45.717717488524826" lon="9.891644502880823"><ele>293.0</ele><time>2026-03-31T11:28:33Z</time></trkpt><trkpt lat="45.71762476147671" lon="9.891721187932657"><ele>294.0</ele><time>2026-03-31T11:28:35Z</time></trkpt><trkpt lat="45.71752405033659" lon="9.891715886492035"><ele>295.0</ele><time>2026-03-31T11:28:37Z</time></trkpt><trkpt lat="45.717445590229154" lon="9.891649619668307"><ele>296.0</ele><time>2026-03-31T11:28:39Z</time></trkpt><trkpt lat="45.717383606169435" lon="9.891562611787485"><ele>297.0</ele><time>2026-03-31T11:28:41Z</time></trkpt><trkpt lat="45.71732917682453" lon="9.891484816521144"><ele>297.0</ele><time>2026-03-31T11:28:43Z</time></trkpt><trkpt lat="45.71728129207499" lon="9.891407495670986"><ele>297.0</ele><time>2026-03-31T11:28:45Z</time></trkpt><trkpt lat="45.71722723126409" lon="9.89134995180394"><ele>297.0</ele><time>2026-03-31T11:28:47Z</time></trkpt><trkpt lat="45.717160208183024" lon="9.891315698172862"><ele>297.0</ele><time>2026-03-31T11:28:49Z</time></trkpt><trkpt lat="45.71708997323252" lon="9.891300914293327"><ele>297.0</ele><time>2026-03-31T11:28:51Z</time></trkpt><trkpt lat="45.71701792574076" lon="9.891303544714205"><ele>297.0</ele><time>2026-03-31T11:28:53Z</time></trkpt><trkpt lat="45.71693994730476" lon="9.891314556572604"><ele>297.0</ele><time>2026-03-31T11:28:55Z</time></trkpt><trkpt lat="45.71686717451595" lon="9.891315180807716"><ele>298.42857142857144</ele><time>2026-03-31T11:28:57Z</time></trkpt><trkpt lat="45.716799151396174" lon="9.89130390461733"><ele>299.8571428571429</ele><time>2026-03-31T11:28:59Z</time></trkpt><trkpt lat="45.71673301754507" lon="9.891261317584148"><ele>301.2857142857143</ele><time>2026-03-31T11:29:01Z</time></trkpt><trkpt lat="45.716682551416056" lon="9.89118089072304"><ele>302.7142857142857</ele><time>2026-03-31T11:29:03Z</time></trkpt><trkpt lat="45.71664982245027" lon="9.891086602241876"><ele>304.1428571428571</ele><time>2026-03-31T11:29:05Z</time></trkpt><trkpt lat="45.716624209263635" lon="9.890996252239308"><ele>305.57142857142856</ele><time>2026-03-31T11:29:07Z</time></trkpt><trkpt lat="45.71659246046429" lon="9.890913086870825"><ele>307.0</ele><time>2026-03-31T11:29:09Z</time></trkpt><trkpt lat="45.71655552246015" lon="9.890835290921359"><ele>306.99999999999994</ele><time>2026-03-31T11:29:11Z</time></trkpt><trkpt lat="45.71652807086831" lon="9.89075159247513"><ele>307.0</ele><time>2026-03-31T11:29:13Z</time></trkpt><trkpt lat="45.716474900851814" lon="9.890646623935835"><ele>307.0</ele><time>2026-03-31T11:29:16Z</time></trkpt><trkpt lat="45.71641349580634" lon="9.890591077041053"><ele>307.0</ele><time>2026-03-31T11:29:18Z</time></trkpt><trkpt lat="45.716346817923295" lon="9.890584978591978"><ele>307.0</ele><time>2026-03-31T11:29:20Z</time></trkpt><trkpt lat="45.71627421780458" lon="9.89058522735365"><ele>306.99999999999994</ele><time>2026-03-31T11:29:22Z</time></trkpt><trkpt lat="45.71620367603473" lon="9.890580670053092"><ele>307.0</ele><time>2026-03-31T11:29:24Z</time></trkpt><trkpt lat="45.71613445541707" lon="9.890583376965386"><ele>309.71428571428567</ele><time>2026-03-31T11:29:26Z</time></trkpt><trkpt lat="45.71606566359035" lon="9.890592390278014"><ele>312.42857142857144</ele><time>2026-03-31T11:29:28Z</time></trkpt><trkpt lat="45.71599680509953" lon="9.890595957224278"><ele>315.1428571428571</ele><time>2026-03-31T11:29:30Z</time></trkpt><trkpt lat="45.715928023488885" lon="9.890599187454361"><ele>317.85714285714283</ele><time>2026-03-31T11:29:32Z</time></trkpt><trkpt lat="45.715861397575416" lon="9.890597495522234"><ele>320.57142857142856</ele><time>2026-03-31T11:29:34Z</time></trkpt><trkpt lat="45.7157937325499" lon="9.89058065487636"><ele>323.2857142857143</ele><time>2026-03-31T11:29:36Z</time></trkpt><trkpt lat="45.71572750455504" lon="9.890568103386718"><ele>326.0</ele><time>2026-03-31T11:29:38Z</time></trkpt><trkpt lat="45.71565856996214" lon="9.890566367434293"><ele>326.0</ele><time>2026-03-31T11:29:40Z</time></trkpt><trkpt lat="45.71558761397104" lon="9.890551079250782"><ele>326.0</ele><time>2026-03-31T11:29:42Z</time></trkpt><trkpt lat="45.71552005042058" lon="9.890553436545122"><ele>326.0</ele><time>2026-03-31T11:29:44Z</time></trkpt><trkpt lat="45.71545781206418" lon="9.89053943148449"><ele>326.0</ele><time>2026-03-31T11:29:46Z</time></trkpt><trkpt lat="45.7153939899364" lon="9.89052428103232"><ele>326.0</ele><time>2026-03-31T11:29:48Z</time></trkpt><trkpt lat="45.71532777577449" lon="9.890510634837723"><ele>326.0</ele><time>2026-03-31T11:29:50Z</time></trkpt><trkpt lat="45.715263431387726" lon="9.89049472657953"><ele>326.0</ele><time>2026-03-31T11:29:52Z</time></trkpt><trkpt lat="45.715179190007426" lon="9.89045545584028"><ele>329.0</ele><time>2026-03-31T11:29:55Z</time></trkpt><trkpt lat="45.715104238694565" lon="9.89039387176911"><ele>332.0</ele><time>2026-03-31T11:29:58Z</time></trkpt><trkpt lat="45.71502418455872" lon="9.890342352157926"><ele>335.0</ele><time>2026-03-31T11:30:01Z</time></trkpt><trkpt lat="45.71496025820588" lon="9.890353650413395"><ele>338.0</ele><time>2026-03-31T11:30:03Z</time></trkpt><trkpt lat="45.714877327810406" lon="9.890384893152001"><ele>341.0</ele><time>2026-03-31T11:30:06Z</time></trkpt><trkpt lat="45.71480122386121" lon="9.890441331766056"><ele>344.0</ele><time>2026-03-31T11:30:09Z</time></trkpt><trkpt lat="45.714756697680166" lon="9.890532164301602"><ele>344.00000000000006</ele><time>2026-03-31T11:30:12Z</time></trkpt><trkpt lat="45.71480270250653" lon="9.890631877447722"><ele>344.0</ele><time>2026-03-31T11:30:15Z</time></trkpt><trkpt lat="45.71485804824783" lon="9.890695337662141"><ele>344.0</ele><time>2026-03-31T11:30:18Z</time></trkpt><trkpt lat="45.7149230497016" lon="9.890713255956257"><ele>344.0</ele><time>2026-03-31T11:30:21Z</time></trkpt><trkpt lat="45.714957943962716" lon="9.890794630283313"><ele>344.0</ele><time>2026-03-31T11:30:39Z</time></trkpt><trkpt lat="45.714934002059856" lon="9.890706449035333"><ele>344.00000000000006</ele><time>2026-03-31T11:30:45Z</time></trkpt><trkpt lat="45.714979005705615" lon="9.890786791511333"><ele>344.0</ele><time>2026-03-31T11:30:53Z</time></trkpt><trkpt lat="45.71500220399053" lon="9.89046586947849"><ele>344.0</ele><time>2026-03-31T11:31:48Z</time></trkpt><trkpt lat="45.71496998844516" lon="9.890563278354488"><ele>344.0</ele><time>2026-03-31T11:33:20Z</time></trkpt><trkpt lat="45.71504592917928" lon="9.890716934810827"><ele>344.0</ele><time>2026-03-31T11:35:28.543Z</time></trkpt><trkpt lat="45.71496620144651" lon="9.89061117637548"><ele>344.0</ele><time>2026-03-31T11:35:47Z</time></trkpt><trkpt lat="45.715027187727344" lon="9.890637476588001"><ele>344.0</ele><time>2026-03-31T11:36:17Z</time></trkpt><trkpt lat="45.715028148543084" lon="9.890728891275515"><ele>344.0</ele><time>2026-03-31T11:45:44Z</time></trkpt><trkpt lat="45.71493939521549" lon="9.890595547203025"><ele>344.0</ele><time>2026-03-31T11:46:38Z</time></trkpt><trkpt lat="45.71497281886505" lon="9.890672328945339"><ele>344.0</ele><time>2026-03-31T11:51:13Z</time></trkpt><trkpt lat="45.71501203671437" lon="9.890771452053297"><ele>344.0</ele><time>2026-03-31T11:51:52Z</time></trkpt><trkpt lat="45.71496312574963" lon="9.890699821481158"><ele>344.0</ele><time>2026-03-31T11:52:24Z</time></trkpt><trkpt lat="45.71494823098224" lon="9.890581654543778"><ele>344.0</ele><time>2026-03-31T11:54:39Z</time></trkpt><trkpt lat="45.715026467688745" lon="9.890803026675217"><ele>344.0</ele><time>2026-03-31T11:56:16.026Z</time></trkpt><trkpt lat="45.71499538475231" lon="9.890719355596469"><ele>344.0</ele><time>2026-03-31T11:57:49Z</time></trkpt><trkpt lat="45.71493220344243" lon="9.890623707845842"><ele>344.0</ele><time>2026-03-31T11:58:04Z</time></trkpt><trkpt lat="45.71499707099841" lon="9.890728262562284"><ele>344.0</ele><time>2026-03-31T11:59:56Z</time></trkpt><trkpt lat="45.71497414247062" lon="9.89086971701466"><ele>344.0</ele><time>2026-03-31T12:00:03Z</time></trkpt><trkpt lat="45.714974386921746" lon="9.890998796266691"><ele>344.0</ele><time>2026-03-31T12:00:05Z</time></trkpt><trkpt lat="45.714989340229295" lon="9.891129613050529"><ele>344.0</ele><time>2026-03-31T12:00:07Z</time></trkpt><trkpt lat="45.714992003268755" lon="9.890875869808209"><ele>344.0</ele><time>2026-03-31T12:00:20Z</time></trkpt><trkpt lat="45.71499118212096" lon="9.890754888558511"><ele>344.0</ele><time>2026-03-31T12:00:25Z</time></trkpt><trkpt lat="45.714992422461606" lon="9.89065731430012"><ele>344.0</ele><time>2026-03-31T12:00:40Z</time></trkpt><trkpt lat="45.71504547149447" lon="9.891098513371125"><ele>344.0</ele><time>2026-03-31T12:01:33.326Z</time></trkpt><trkpt lat="45.71496548699296" lon="9.891015250532128"><ele>344.0</ele><time>2026-03-31T12:01:39.027Z</time></trkpt><trkpt lat="45.71485721056122" lon="9.890783573831154"><ele>344.0</ele><time>2026-03-31T12:01:47.025Z</time></trkpt><trkpt lat="45.71482655161544" lon="9.890541391489023"><ele>344.0</ele><time>2026-03-31T12:01:53.025Z</time></trkpt><trkpt lat="45.71504783" lon="9.890712730000002"><ele>344.0</ele><time>2026-03-31T12:02:19.543Z</time></trkpt><trkpt lat="45.71490989224289" lon="9.89060665974637"><ele>344.0</ele><time>2026-03-31T12:02:40.975Z</time></trkpt><trkpt lat="45.71500551749086" lon="9.891182393809649"><ele>344.0</ele><time>2026-03-31T12:02:54.2Z</time></trkpt><trkpt lat="45.71497670029972" lon="9.891064364958273"><ele>344.0</ele><time>2026-03-31T12:02:55.15Z</time></trkpt><trkpt lat="45.71494149629161" lon="9.890831337455818"><ele>344.0</ele><time>2026-03-31T12:02:57.05Z</time></trkpt><trkpt lat="45.71495619030046" lon="9.890712188187393"><ele>344.0</ele><time>2026-03-31T12:03:00Z</time></trkpt><trkpt lat="45.71488264785218" lon="9.890656151388898"><ele>344.0</ele><time>2026-03-31T12:03:06Z</time></trkpt><trkpt lat="45.714809486172946" lon="9.890656757338482"><ele>344.0</ele><time>2026-03-31T12:03:10Z</time></trkpt><trkpt lat="45.71476439088117" lon="9.890581349770077"><ele>344.0</ele><time>2026-03-31T12:03:13Z</time></trkpt><trkpt lat="45.71475643319263" lon="9.890469254592004"><ele>344.0</ele><time>2026-03-31T12:03:35Z</time></trkpt><trkpt lat="45.71480782058014" lon="9.890409660732448"><ele>344.0</ele><time>2026-03-31T12:03:37Z</time></trkpt><trkpt lat="45.7148750127504" lon="9.890369814112994"><ele>344.0</ele><time>2026-03-31T12:03:39Z</time></trkpt><trkpt lat="45.7149587108985" lon="9.890358355097613"><ele>344.0</ele><time>2026-03-31T12:03:41Z</time></trkpt><trkpt lat="45.71506484945468" lon="9.890351432016475"><ele>344.0</ele><time>2026-03-31T12:03:43Z</time></trkpt><trkpt lat="45.71512413660779" lon="9.890398104919651"><ele>344.0</ele><time>2026-03-31T12:03:44Z</time></trkpt><trkpt lat="45.7151891338304" lon="9.890450640524188"><ele>344.0</ele><time>2026-03-31T12:03:45Z</time></trkpt><trkpt lat="45.7153003613257" lon="9.89051910953582"><ele>344.0</ele><time>2026-03-31T12:03:47Z</time></trkpt><trkpt lat="45.71537809710335" lon="9.890545925635019"><ele>344.0</ele><time>2026-03-31T12:03:48Z</time></trkpt><trkpt lat="45.715460116829384" lon="9.890564807165706"><ele>344.0</ele><time>2026-03-31T12:03:49Z</time></trkpt><trkpt lat="45.71554509195857" lon="9.890566157154101"><ele>341.0</ele><time>2026-03-31T12:03:50Z</time></trkpt><trkpt lat="45.71563199716266" lon="9.890566461808413"><ele>338.0</ele><time>2026-03-31T12:03:51Z</time></trkpt><trkpt lat="45.71571251159395" lon="9.89057562149783"><ele>335.0</ele><time>2026-03-31T12:03:52Z</time></trkpt><trkpt lat="45.715788182092915" lon="9.890587628036347"><ele>332.0</ele><time>2026-03-31T12:03:53Z</time></trkpt><trkpt lat="45.715859010873956" lon="9.890598746102713"><ele>329.0</ele><time>2026-03-31T12:03:54Z</time></trkpt><trkpt lat="45.715925798719994" lon="9.890605194562644"><ele>326.0</ele><time>2026-03-31T12:03:55Z</time></trkpt><trkpt lat="45.71600102167272" lon="9.890603881561503"><ele>322.83333333333337</ele><time>2026-03-31T12:03:56Z</time></trkpt><trkpt lat="45.7160794286134" lon="9.890601037117358"><ele>319.6666666666667</ele><time>2026-03-31T12:03:57Z</time></trkpt><trkpt lat="45.716158941462375" lon="9.890602249816578"><ele>316.5</ele><time>2026-03-31T12:03:58Z</time></trkpt><trkpt lat="45.71623369209206" lon="9.890607291730955"><ele>313.3333333333333</ele><time>2026-03-31T12:03:59Z</time></trkpt><trkpt lat="45.716301224178345" lon="9.890607884085117"><ele>310.16666666666663</ele><time>2026-03-31T12:04:00Z</time></trkpt><trkpt lat="45.71636735222239" lon="9.890613012795194"><ele>307.0</ele><time>2026-03-31T12:04:01Z</time></trkpt><trkpt lat="45.71647431446561" lon="9.890648346930059"><ele>307.0</ele><time>2026-03-31T12:04:03Z</time></trkpt><trkpt lat="45.716545630556325" lon="9.890777396207591"><ele>307.0</ele><time>2026-03-31T12:04:05Z</time></trkpt><trkpt lat="45.7165789679864" lon="9.890868368992308"><ele>307.0</ele><time>2026-03-31T12:04:06Z</time></trkpt><trkpt lat="45.716607428848846" lon="9.890973384839944"><ele>307.0</ele><time>2026-03-31T12:04:07Z</time></trkpt><trkpt lat="45.716637670333455" lon="9.891083499776503"><ele>307.0</ele><time>2026-03-31T12:04:08Z</time></trkpt><trkpt lat="45.716679464992446" lon="9.891181855494986"><ele>307.0</ele><time>2026-03-31T12:04:09Z</time></trkpt><trkpt lat="45.71672287121134" lon="9.891263060690436"><ele>305.57142857142856</ele><time>2026-03-31T12:04:10Z</time></trkpt><trkpt lat="45.716778578626965" lon="9.891326463700358"><ele>304.1428571428571</ele><time>2026-03-31T12:04:11Z</time></trkpt><trkpt lat="45.71684820551969" lon="9.89134861984491"><ele>302.7142857142857</ele><time>2026-03-31T12:04:12Z</time></trkpt><trkpt lat="45.716924140120305" lon="9.891340249357107"><ele>301.2857142857143</ele><time>2026-03-31T12:04:13Z</time></trkpt><trkpt lat="45.71699847106174" lon="9.891323639472867"><ele>299.8571428571429</ele><time>2026-03-31T12:04:14Z</time></trkpt><trkpt lat="45.717067995890964" lon="9.891317810332252"><ele>298.42857142857144</ele><time>2026-03-31T12:04:15Z</time></trkpt><trkpt lat="45.717135076930376" lon="9.891316237527377"><ele>297.0</ele><time>2026-03-31T12:04:16Z</time></trkpt><trkpt lat="45.7171977063349" lon="9.891331417529933"><ele>297.0</ele><time>2026-03-31T12:04:17Z</time></trkpt><trkpt lat="45.717314304877426" lon="9.891438839911698"><ele>297.0</ele><time>2026-03-31T12:04:19Z</time></trkpt><trkpt lat="45.717368816662244" lon="9.891532695885937"><ele>297.0</ele><time>2026-03-31T12:04:20Z</time></trkpt><trkpt lat="45.71742096579589" lon="9.891611481130074"><ele>297.0</ele><time>2026-03-31T12:04:21Z</time></trkpt><trkpt lat="45.71750336538215" lon="9.891714473472982"><ele>297.0</ele><time>2026-03-31T12:04:23Z</time></trkpt><trkpt lat="45.717611209336326" lon="9.891732388615537"><ele>297.0</ele><time>2026-03-31T12:04:25Z</time></trkpt><trkpt lat="45.7176860118393" lon="9.891695680041677"><ele>297.0</ele><time>2026-03-31T12:04:26Z</time></trkpt><trkpt lat="45.71776094593273" lon="9.891634971778148"><ele>297.0</ele><time>2026-03-31T12:04:27Z</time></trkpt><trkpt lat="45.717828913782235" lon="9.891549792764833"><ele>297.0</ele><time>2026-03-31T12:04:28Z</time></trkpt><trkpt lat="45.717894805739675" lon="9.891460593845272"><ele>297.0</ele><time>2026-03-31T12:04:29Z</time></trkpt><trkpt lat="45.71796048464674" lon="9.891385183507968"><ele>297.0</ele><time>2026-03-31T12:04:30Z</time></trkpt><trkpt lat="45.71801867839358" lon="9.891319315837194"><ele>296.1666666666667</ele><time>2026-03-31T12:04:31Z</time></trkpt><trkpt lat="45.71807670033268" lon="9.891269166407552"><ele>295.3333333333333</ele><time>2026-03-31T12:04:32Z</time></trkpt><trkpt lat="45.71813800549491" lon="9.891224066425728"><ele>294.5</ele><time>2026-03-31T12:04:33Z</time></trkpt><trkpt lat="45.71822896034294" lon="9.89113048574366"><ele>293.66666666666663</ele><time>2026-03-31T12:04:35Z</time></trkpt><trkpt lat="45.718239961511514" lon="9.890976566156867"><ele>292.8333333333333</ele><time>2026-03-31T12:04:37Z</time></trkpt><trkpt lat="45.71822715066898" lon="9.890885853435295"><ele>292.0</ele><time>2026-03-31T12:04:38Z</time></trkpt><trkpt lat="45.71821412479989" lon="9.8907881218402"><ele>291.66666666666663</ele><time>2026-03-31T12:04:39Z</time></trkpt><trkpt lat="45.71820844911241" lon="9.890689031691252"><ele>291.3333333333333</ele><time>2026-03-31T12:04:40Z</time></trkpt><trkpt lat="45.718218543093954" lon="9.890588307580483"><ele>291.0</ele><time>2026-03-31T12:04:41Z</time></trkpt><trkpt lat="45.7182466855467" lon="9.89050276513099"><ele>290.6666666666667</ele><time>2026-03-31T12:04:42Z</time></trkpt><trkpt lat="45.718297700603024" lon="9.89034064755539"><ele>290.33333333333337</ele><time>2026-03-31T12:04:44Z</time></trkpt><trkpt lat="45.718320305056345" lon="9.89025546884683"><ele>290.0</ele><time>2026-03-31T12:04:45Z</time></trkpt><trkpt lat="45.71832284135226" lon="9.890165266330582"><ele>289.33333333333337</ele><time>2026-03-31T12:04:46Z</time></trkpt><trkpt lat="45.7182581106695" lon="9.890006341566437"><ele>288.6666666666667</ele><time>2026-03-31T12:04:48Z</time></trkpt><trkpt lat="45.71820497898007" lon="9.889932944764528"><ele>288.0</ele><time>2026-03-31T12:04:49Z</time></trkpt><trkpt lat="45.71814502798902" lon="9.889864889473257"><ele>287.3333333333333</ele><time>2026-03-31T12:04:50Z</time></trkpt><trkpt lat="45.7180787408249" lon="9.889797231964598"><ele>286.66666666666663</ele><time>2026-03-31T12:04:51Z</time></trkpt><trkpt lat="45.71800991499122" lon="9.889741497245394"><ele>286.0</ele><time>2026-03-31T12:04:52Z</time></trkpt><trkpt lat="45.717930268361926" lon="9.889702953119691"><ele>286.0</ele><time>2026-03-31T12:04:53Z</time></trkpt><trkpt lat="45.71785450699407" lon="9.889673134597205"><ele>286.0</ele><time>2026-03-31T12:04:54Z</time></trkpt><trkpt lat="45.717778711581445" lon="9.889641144861487"><ele>286.0</ele><time>2026-03-31T12:04:55Z</time></trkpt><trkpt lat="45.71770500610134" lon="9.889602737214105"><ele>286.0</ele><time>2026-03-31T12:04:56Z</time></trkpt><trkpt lat="45.71763012957193" lon="9.88956268069833"><ele>286.0</ele><time>2026-03-31T12:04:57Z</time></trkpt><trkpt lat="45.717554775935575" lon="9.889525036825102"><ele>286.0</ele><time>2026-03-31T12:04:58Z</time></trkpt><trkpt lat="45.71748093528921" lon="9.889489558517404"><ele>286.0</ele><time>2026-03-31T12:04:59Z</time></trkpt><trkpt lat="45.717408558697336" lon="9.889454941361931"><ele>286.0</ele><time>2026-03-31T12:05:00Z</time></trkpt><trkpt lat="45.71733756622156" lon="9.889406857647229"><ele>286.0</ele><time>2026-03-31T12:05:01Z</time></trkpt><trkpt lat="45.71727071975028" lon="9.889349031440615"><ele>286.0</ele><time>2026-03-31T12:05:02Z</time></trkpt><trkpt lat="45.717204918694875" lon="9.88928636267939"><ele>286.0</ele><time>2026-03-31T12:05:03Z</time></trkpt><trkpt lat="45.7171468294546" lon="9.88921662271"><ele>286.0</ele><time>2026-03-31T12:05:04Z</time></trkpt><trkpt lat="45.71709084579579" lon="9.889144976251602"><ele>285.99999999999994</ele><time>2026-03-31T12:05:05Z</time></trkpt><trkpt lat="45.71703720385811" lon="9.889069879452453"><ele>286.0</ele><time>2026-03-31T12:05:06Z</time></trkpt><trkpt lat="45.716988384161944" lon="9.888992803466774"><ele>286.0</ele><time>2026-03-31T12:05:07Z</time></trkpt><trkpt lat="45.71693859684564" lon="9.888911431357567"><ele>286.0</ele><time>2026-03-31T12:05:08Z</time></trkpt><trkpt lat="45.71688202485077" lon="9.888837921953803"><ele>286.0</ele><time>2026-03-31T12:05:09Z</time></trkpt><trkpt lat="45.71682559153875" lon="9.888768818223562"><ele>285.99999999999994</ele><time>2026-03-31T12:05:10Z</time></trkpt><trkpt lat="45.71676221152768" lon="9.888711076454591"><ele>286.0</ele><time>2026-03-31T12:05:11Z</time></trkpt><trkpt lat="45.71669628346838" lon="9.888662512388983"><ele>286.1428571428571</ele><time>2026-03-31T12:05:12Z</time></trkpt><trkpt lat="45.716629200417835" lon="9.888623072465629"><ele>286.2857142857143</ele><time>2026-03-31T12:05:13Z</time></trkpt><trkpt lat="45.71655970164488" lon="9.888597208537465"><ele>286.42857142857144</ele><time>2026-03-31T12:05:14Z</time></trkpt><trkpt lat="45.716490729660116" lon="9.888557729391918"><ele>286.57142857142856</ele><time>2026-03-31T12:05:15Z</time></trkpt><trkpt lat="45.716425371834006" lon="9.888517302057895"><ele>286.7142857142857</ele><time>2026-03-31T12:05:16Z</time></trkpt><trkpt lat="45.71635535946353" lon="9.888470948039712"><ele>286.85714285714283</ele><time>2026-03-31T12:05:17Z</time></trkpt><trkpt lat="45.716287720776634" lon="9.88843265302534"><ele>287.0</ele><time>2026-03-31T12:05:18Z</time></trkpt><trkpt lat="45.71621630965917" lon="9.888383550880647"><ele>287.0</ele><time>2026-03-31T12:05:19Z</time></trkpt><trkpt lat="45.71615265666274" lon="9.888333227906836"><ele>287.0</ele><time>2026-03-31T12:05:20Z</time></trkpt><trkpt lat="45.71609027521048" lon="9.888273299693266"><ele>287.0</ele><time>2026-03-31T12:05:21Z</time></trkpt><trkpt lat="45.7160298148624" lon="9.888212287836659"><ele>287.0</ele><time>2026-03-31T12:05:22Z</time></trkpt><trkpt lat="45.715971310367884" lon="9.888150202065962"><ele>287.0</ele><time>2026-03-31T12:05:23Z</time></trkpt><trkpt lat="45.715912017349744" lon="9.888088008147337"><ele>287.0</ele><time>2026-03-31T12:05:24Z</time></trkpt><trkpt lat="45.71585424584301" lon="9.888028865384822"><ele>287.0</ele><time>2026-03-31T12:05:25Z</time></trkpt><trkpt lat="45.71579706954917" lon="9.887971067973258"><ele>286.85714285714283</ele><time>2026-03-31T12:05:26Z</time></trkpt><trkpt lat="45.71574199534674" lon="9.887909936238652"><ele>286.7142857142857</ele><time>2026-03-31T12:05:27Z</time></trkpt><trkpt lat="45.7156880033828" lon="9.887848271565641"><ele>286.57142857142856</ele><time>2026-03-31T12:05:28Z</time></trkpt><trkpt lat="45.715638382472804" lon="9.887780425927502"><ele>286.42857142857144</ele><time>2026-03-31T12:05:29Z</time></trkpt><trkpt lat="45.715591276000296" lon="9.88770972283596"><ele>286.2857142857143</ele><time>2026-03-31T12:05:30Z</time></trkpt><trkpt lat="45.715548080223186" lon="9.88763717292469"><ele>286.1428571428571</ele><time>2026-03-31T12:05:31Z</time></trkpt><trkpt lat="45.71550093899471" lon="9.887559166195722"><ele>286.0</ele><time>2026-03-31T12:05:32Z</time></trkpt><trkpt lat="45.715459047112645" lon="9.887485241445539"><ele>285.85714285714283</ele><time>2026-03-31T12:05:33Z</time></trkpt><trkpt lat="45.715416585022304" lon="9.887406240078917"><ele>285.7142857142857</ele><time>2026-03-31T12:05:34Z</time></trkpt><trkpt lat="45.715372642087395" lon="9.887332473632886"><ele>285.57142857142856</ele><time>2026-03-31T12:05:35Z</time></trkpt><trkpt lat="45.715323002176525" lon="9.88726784335387"><ele>285.42857142857144</ele><time>2026-03-31T12:05:36Z</time></trkpt><trkpt lat="45.715272263793935" lon="9.88720610485059"><ele>285.2857142857143</ele><time>2026-03-31T12:05:37Z</time></trkpt><trkpt lat="45.71522053774895" lon="9.88714987683307"><ele>285.1428571428571</ele><time>2026-03-31T12:05:38Z</time></trkpt><trkpt lat="45.71517027592025" lon="9.887089959698296"><ele>285.0</ele><time>2026-03-31T12:05:39Z</time></trkpt><trkpt lat="45.715069634269874" lon="9.886976886576644"><ele>285.0</ele><time>2026-03-31T12:05:41Z</time></trkpt><trkpt lat="45.7150179347055" lon="9.886924661647308"><ele>285.0</ele><time>2026-03-31T12:05:42Z</time></trkpt><trkpt lat="45.71496343998475" lon="9.886873389599069"><ele>285.0</ele><time>2026-03-31T12:05:43Z</time></trkpt><trkpt lat="45.714856933545235" lon="9.886786645767433"><ele>285.0</ele><time>2026-03-31T12:05:45Z</time></trkpt><trkpt lat="45.714753790178214" lon="9.886739992840281"><ele>285.0</ele><time>2026-03-31T12:05:47Z</time></trkpt><trkpt lat="45.71467346151044" lon="9.886716669668752"><ele>285.0</ele><time>2026-03-31T12:05:49Z</time></trkpt><trkpt lat="45.714576379738865" lon="9.88663401293495"><ele>284.8</ele><time>2026-03-31T12:05:51Z</time></trkpt><trkpt lat="45.714481128603985" lon="9.886511866808204"><ele>284.6</ele><time>2026-03-31T12:05:53Z</time></trkpt><trkpt lat="45.71443096247205" lon="9.886446572191726"><ele>284.4</ele><time>2026-03-31T12:05:54Z</time></trkpt><trkpt lat="45.7143903320498" lon="9.886373109610975"><ele>284.2</ele><time>2026-03-31T12:05:55Z</time></trkpt><trkpt lat="45.71431317298266" lon="9.886260278902776"><ele>284.0</ele><time>2026-03-31T12:07:08Z</time></trkpt><trkpt lat="45.71425964182049" lon="9.886166427416338"><ele>284.5</ele><time>2026-03-31T12:07:10Z</time></trkpt><trkpt lat="45.71421153985147" lon="9.886068886356425"><ele>285.0</ele><time>2026-03-31T12:07:12Z</time></trkpt><trkpt lat="45.71416903787716" lon="9.88597286881098"><ele>285.5</ele><time>2026-03-31T12:07:14Z</time></trkpt><trkpt lat="45.71411971888917" lon="9.885892097430796"><ele>286.0</ele><time>2026-03-31T12:07:16Z</time></trkpt><trkpt lat="45.71406809525587" lon="9.885783421264998"><ele>286.5</ele><time>2026-03-31T12:07:18Z</time></trkpt><trkpt lat="45.71399771165525" lon="9.885667304949013"><ele>287.0</ele><time>2026-03-31T12:07:20Z</time></trkpt><trkpt lat="45.713940733702024" lon="9.885509131964234"><ele>287.0</ele><time>2026-03-31T12:07:22Z</time></trkpt><trkpt lat="45.71389599789594" lon="9.885342523814009"><ele>287.0</ele><time>2026-03-31T12:07:24Z</time></trkpt><trkpt lat="45.713847776042606" lon="9.885182364095469"><ele>287.0</ele><time>2026-03-31T12:07:26Z</time></trkpt><trkpt lat="45.71381482596918" lon="9.88510509367994"><ele>287.0</ele><time>2026-03-31T12:07:27Z</time></trkpt><trkpt lat="45.71374947970957" lon="9.884943727984652"><ele>287.0</ele><time>2026-03-31T12:07:29Z</time></trkpt><trkpt lat="45.71372030438956" lon="9.884857677357465"><ele>287.1666666666667</ele><time>2026-03-31T12:07:30Z</time></trkpt><trkpt lat="45.71369190734296" lon="9.884769755435986"><ele>287.33333333333337</ele><time>2026-03-31T12:07:31Z</time></trkpt><trkpt lat="45.71366242627171" lon="9.884662461384318"><ele>287.5</ele><time>2026-03-31T12:07:32Z</time></trkpt><trkpt lat="45.713636296892226" lon="9.884551933659731"><ele>287.6666666666667</ele><time>2026-03-31T12:07:33Z</time></trkpt><trkpt lat="45.71361032426854" lon="9.88441906442976"><ele>287.8333333333333</ele><time>2026-03-31T12:07:34Z</time></trkpt><trkpt lat="45.71358972202411" lon="9.884309852697374"><ele>288.0</ele><time>2026-03-31T12:07:35Z</time></trkpt><trkpt lat="45.713567131239856" lon="9.884194544669636"><ele>288.0</ele><time>2026-03-31T12:07:36Z</time></trkpt><trkpt lat="45.71353794862815" lon="9.884090750358522"><ele>288.0</ele><time>2026-03-31T12:07:37Z</time></trkpt><trkpt lat="45.71351050592727" lon="9.883986038463782"><ele>288.0</ele><time>2026-03-31T12:07:38Z</time></trkpt><trkpt lat="45.71347730992692" lon="9.883886749918384"><ele>288.0</ele><time>2026-03-31T12:07:39Z</time></trkpt><trkpt lat="45.71343672760548" lon="9.883791974879143"><ele>288.0</ele><time>2026-03-31T12:07:40Z</time></trkpt><trkpt lat="45.71338271954827" lon="9.883714298276342"><ele>288.0</ele><time>2026-03-31T12:07:41Z</time></trkpt><trkpt lat="45.71332072979956" lon="9.883652644000028"><ele>288.0</ele><time>2026-03-31T12:07:42Z</time></trkpt><trkpt lat="45.71326481919931" lon="9.88359309284809"><ele>288.0</ele><time>2026-03-31T12:07:43Z</time></trkpt><trkpt lat="45.71320545410081" lon="9.883539800624279"><ele>288.0</ele><time>2026-03-31T12:07:45Z</time></trkpt><trkpt lat="45.71314752547286" lon="9.883476589549552"><ele>288.0</ele><time>2026-03-31T12:07:48Z</time></trkpt><trkpt lat="45.71309946704163" lon="9.8833814144939"><ele>288.0</ele><time>2026-03-31T12:07:50Z</time></trkpt><trkpt lat="45.71307045550771" lon="9.883271015333342"><ele>288.0</ele><time>2026-03-31T12:07:52Z</time></trkpt><trkpt lat="45.71305336009769" lon="9.883145421973259"><ele>287.0</ele><time>2026-03-31T12:07:54Z</time></trkpt><trkpt lat="45.71303411378496" lon="9.88300344275286"><ele>286.0</ele><time>2026-03-31T12:07:56Z</time></trkpt><trkpt lat="45.7130313028737" lon="9.882860300063799"><ele>285.0</ele><time>2026-03-31T12:07:58Z</time></trkpt><trkpt lat="45.713031803265" lon="9.882712572444424"><ele>284.0</ele><time>2026-03-31T12:08:00Z</time></trkpt><trkpt lat="45.71303921870281" lon="9.882565252580852"><ele>283.0</ele><time>2026-03-31T12:08:02Z</time></trkpt><trkpt lat="45.713042105629555" lon="9.882425034153627"><ele>283.0</ele><time>2026-03-31T12:08:04Z</time></trkpt><trkpt lat="45.71303803844621" lon="9.882293577333586"><ele>283.0</ele><time>2026-03-31T12:08:06Z</time></trkpt><trkpt lat="45.713038543800856" lon="9.882157595206369"><ele>283.0</ele><time>2026-03-31T12:08:08Z</time></trkpt><trkpt lat="45.7130486188251" lon="9.882005433876826"><ele>283.0</ele><time>2026-03-31T12:08:10Z</time></trkpt><trkpt lat="45.7130565801493" lon="9.881857907271154"><ele>283.0</ele><time>2026-03-31T12:08:12Z</time></trkpt><trkpt lat="45.71306591905968" lon="9.881704986899448"><ele>282.8</ele><time>2026-03-31T12:08:14Z</time></trkpt><trkpt lat="45.71305537100233" lon="9.881552387705405"><ele>282.6</ele><time>2026-03-31T12:08:16Z</time></trkpt><trkpt lat="45.71303150377232" lon="9.881400646767998"><ele>282.4</ele><time>2026-03-31T12:08:18Z</time></trkpt><trkpt lat="45.71298945341816" lon="9.881258339295817"><ele>282.2</ele><time>2026-03-31T12:08:20Z</time></trkpt><trkpt lat="45.71292588023473" lon="9.881130444069587"><ele>282.0</ele><time>2026-03-31T12:08:22Z</time></trkpt><trkpt lat="45.71284171890873" lon="9.88103320914494"><ele>281.5</ele><time>2026-03-31T12:08:24Z</time></trkpt><trkpt lat="45.71272396438393" lon="9.880977651486347"><ele>281.0</ele><time>2026-03-31T12:08:26Z</time></trkpt><trkpt lat="45.71260503625628" lon="9.880974677997845"><ele>280.5</ele><time>2026-03-31T12:08:28Z</time></trkpt><trkpt lat="45.712489733356605" lon="9.880962640150848"><ele>280.0</ele><time>2026-03-31T12:08:30Z</time></trkpt><trkpt lat="45.71236927733849" lon="9.880952185154095"><ele>280.0</ele><time>2026-03-31T12:08:32Z</time></trkpt><trkpt lat="45.71225017993446" lon="9.880956009121187"><ele>280.0</ele><time>2026-03-31T12:08:34Z</time></trkpt><trkpt lat="45.71213295954802" lon="9.880953839111895"><ele>280.0</ele><time>2026-03-31T12:08:36Z</time></trkpt><trkpt lat="45.712017613397464" lon="9.880936345509564"><ele>280.0</ele><time>2026-03-31T12:08:38Z</time></trkpt><trkpt lat="45.711903251362585" lon="9.880908351045662"><ele>281.25</ele><time>2026-03-31T12:08:40Z</time></trkpt><trkpt lat="45.71179439343198" lon="9.880855954663245"><ele>282.5</ele><time>2026-03-31T12:08:42Z</time></trkpt><trkpt lat="45.71169996655027" lon="9.880761708338229"><ele>283.75</ele><time>2026-03-31T12:08:44Z</time></trkpt><trkpt lat="45.711618896828874" lon="9.880652353970923"><ele>285.0</ele><time>2026-03-31T12:08:46Z</time></trkpt><trkpt lat="45.71156661748896" lon="9.880504097289897"><ele>285.0</ele><time>2026-03-31T12:08:48Z</time></trkpt><trkpt lat="45.71151734944881" lon="9.88036578334374"><ele>285.0</ele><time>2026-03-31T12:08:50Z</time></trkpt><trkpt lat="45.71147228297757" lon="9.880224672202406"><ele>285.0</ele><time>2026-03-31T12:08:52Z</time></trkpt><trkpt lat="45.71143940480104" lon="9.880066791357526"><ele>285.0</ele><time>2026-03-31T12:08:54Z</time></trkpt><trkpt lat="45.71140414464979" lon="9.879929462342169"><ele>285.0</ele><time>2026-03-31T12:08:56Z</time></trkpt><trkpt lat="45.711369575232865" lon="9.879792478146836"><ele>284.1666666666667</ele><time>2026-03-31T12:08:58Z</time></trkpt><trkpt lat="45.71133558921451" lon="9.879702146749535"><ele>283.3333333333333</ele><time>2026-03-31T12:09:00Z</time></trkpt><trkpt lat="45.71129745613875" lon="9.879584408240854"><ele>282.5</ele><time>2026-03-31T12:10:07Z</time></trkpt><trkpt lat="45.71125207906309" lon="9.879484788035498"><ele>281.66666666666663</ele><time>2026-03-31T12:10:09Z</time></trkpt><trkpt lat="45.7112112019937" lon="9.879386609155608"><ele>280.8333333333333</ele><time>2026-03-31T12:10:11Z</time></trkpt><trkpt lat="45.71114748999417" lon="9.879358798198755"><ele>280.0</ele><time>2026-03-31T12:10:13Z</time></trkpt><trkpt lat="45.71106111314419" lon="9.879347742419544"><ele>280.0</ele><time>2026-03-31T12:10:15Z</time></trkpt><trkpt lat="45.7109879380828" lon="9.879294035182053"><ele>280.0</ele><time>2026-03-31T12:10:17Z</time></trkpt><trkpt lat="45.71092606863608" lon="9.879206057656502"><ele>280.0</ele><time>2026-03-31T12:10:19Z</time></trkpt><trkpt lat="45.71086631698303" lon="9.879122078576202"><ele>280.0</ele><time>2026-03-31T12:10:21Z</time></trkpt><trkpt lat="45.710814048818996" lon="9.879030502820187"><ele>280.0</ele><time>2026-03-31T12:10:23Z</time></trkpt><trkpt lat="45.71075404444258" lon="9.878939079792556"><ele>280.0</ele><time>2026-03-31T12:10:25Z</time></trkpt><trkpt lat="45.71069631542197" lon="9.878841018575102"><ele>280.0</ele><time>2026-03-31T12:10:27Z</time></trkpt><trkpt lat="45.7106387671369" lon="9.87873738311267"><ele>280.0</ele><time>2026-03-31T12:10:29Z</time></trkpt><trkpt lat="45.71057609960799" lon="9.878603262683658"><ele>280.0</ele><time>2026-03-31T12:10:31Z</time></trkpt><trkpt lat="45.71053145263793" lon="9.878537104269515"><ele>280.0</ele><time>2026-03-31T12:10:32Z</time></trkpt><trkpt lat="45.7104788828206" lon="9.878484467031972"><ele>280.0</ele><time>2026-03-31T12:10:33Z</time></trkpt><trkpt lat="45.71042147948089" lon="9.878427549105472"><ele>280.0</ele><time>2026-03-31T12:10:34Z</time></trkpt><trkpt lat="45.710361247280645" lon="9.878392512450256"><ele>279.6</ele><time>2026-03-31T12:10:35Z</time></trkpt><trkpt lat="45.71030092469813" lon="9.878359167505293"><ele>279.2</ele><time>2026-03-31T12:10:36Z</time></trkpt><trkpt lat="45.71019030383863" lon="9.878275778700834"><ele>278.8</ele><time>2026-03-31T12:10:38Z</time></trkpt><trkpt lat="45.7101381149392" lon="9.87822520035969"><ele>278.4</ele><time>2026-03-31T12:10:39Z</time></trkpt><trkpt lat="45.71004069247301" lon="9.878105988900831"><ele>278.0</ele><time>2026-03-31T12:10:41Z</time></trkpt><trkpt lat="45.709951424994856" lon="9.877980620972078"><ele>277.6666666666667</ele><time>2026-03-31T12:10:43Z</time></trkpt><trkpt lat="45.70990591410018" lon="9.877915942660012"><ele>277.33333333333337</ele><time>2026-03-31T12:10:44Z</time></trkpt><trkpt lat="45.709861750091456" lon="9.877850210706864"><ele>277.0</ele><time>2026-03-31T12:10:45Z</time></trkpt><trkpt lat="45.709815754344206" lon="9.87778837749671"><ele>276.6666666666667</ele><time>2026-03-31T12:10:46Z</time></trkpt><trkpt lat="45.70970867982474" lon="9.87770058670827"><ele>276.3333333333333</ele><time>2026-03-31T12:10:48Z</time></trkpt><trkpt lat="45.70959632438147" lon="9.877601892285496"><ele>276.0</ele><time>2026-03-31T12:10:50Z</time></trkpt><trkpt lat="45.70953533323534" lon="9.87755056358082"><ele>276.0</ele><time>2026-03-31T12:10:51Z</time></trkpt><trkpt lat="45.70947521008788" lon="9.877500950398623"><ele>276.0</ele><time>2026-03-31T12:10:52Z</time></trkpt><trkpt lat="45.70941397401959" lon="9.877447409296062"><ele>276.0</ele><time>2026-03-31T12:10:53Z</time></trkpt><trkpt lat="45.70935213888172" lon="9.877390852163215"><ele>276.0</ele><time>2026-03-31T12:10:54Z</time></trkpt><trkpt lat="45.70928766729856" lon="9.877332631296218"><ele>276.0</ele><time>2026-03-31T12:10:55Z</time></trkpt><trkpt lat="45.7092198611968" lon="9.877274333802047"><ele>276.0</ele><time>2026-03-31T12:10:56Z</time></trkpt><trkpt lat="45.7091604035417" lon="9.877211593894417"><ele>276.0</ele><time>2026-03-31T12:10:57Z</time></trkpt><trkpt lat="45.70909897024827" lon="9.877156090764933"><ele>277.14285714285717</ele><time>2026-03-31T12:10:58Z</time></trkpt><trkpt lat="45.70903873103212" lon="9.87709846350631"><ele>278.28571428571433</ele><time>2026-03-31T12:10:59Z</time></trkpt><trkpt lat="45.7089796247599" lon="9.877045329494495"><ele>279.42857142857144</ele><time>2026-03-31T12:11:00Z</time></trkpt><trkpt lat="45.708923317033864" lon="9.876991898733184"><ele>280.57142857142856</ele><time>2026-03-31T12:11:01Z</time></trkpt><trkpt lat="45.70886492105691" lon="9.876936093253825"><ele>281.71428571428567</ele><time>2026-03-31T12:11:02Z</time></trkpt><trkpt lat="45.70880969447639" lon="9.876880858432113"><ele>282.85714285714283</ele><time>2026-03-31T12:11:03Z</time></trkpt><trkpt lat="45.70875283289202" lon="9.876831072350877"><ele>284.0</ele><time>2026-03-31T12:11:04Z</time></trkpt><trkpt lat="45.70869653245006" lon="9.876787802721264"><ele>283.1666666666667</ele><time>2026-03-31T12:11:05Z</time></trkpt><trkpt lat="45.708639122476676" lon="9.876746106910508"><ele>282.33333333333337</ele><time>2026-03-31T12:11:06Z</time></trkpt><trkpt lat="45.708581596779176" lon="9.876704344264658"><ele>281.5</ele><time>2026-03-31T12:11:07Z</time></trkpt><trkpt lat="45.70852435028746" lon="9.876663264654436"><ele>280.6666666666667</ele><time>2026-03-31T12:11:08Z</time></trkpt><trkpt lat="45.70841610959124" lon="9.876578074962332"><ele>279.8333333333333</ele><time>2026-03-31T12:11:10Z</time></trkpt><trkpt lat="45.70836189798689" lon="9.876531185680646"><ele>279.0</ele><time>2026-03-31T12:11:11Z</time></trkpt><trkpt lat="45.70825511031371" lon="9.876449903173397"><ele>279.0</ele><time>2026-03-31T12:11:13Z</time></trkpt><trkpt lat="45.70816351580017" lon="9.876378730261669"><ele>279.0</ele><time>2026-03-31T12:11:15Z</time></trkpt><trkpt lat="45.70806337017347" lon="9.87630190605004"><ele>279.0</ele><time>2026-03-31T12:11:17Z</time></trkpt><trkpt lat="45.707959774800884" lon="9.876211926329425"><ele>279.0</ele><time>2026-03-31T12:11:19Z</time></trkpt><trkpt lat="45.707905502718496" lon="9.876161351455895"><ele>279.0</ele><time>2026-03-31T12:11:20Z</time></trkpt><trkpt lat="45.70781425611365" lon="9.876063790010463"><ele>279.0</ele><time>2026-03-31T12:11:22Z</time></trkpt><trkpt lat="45.70773505565485" lon="9.87595508736153"><ele>279.0</ele><time>2026-03-31T12:11:24Z</time></trkpt><trkpt lat="45.70766589900519" lon="9.875847583675213"><ele>279.0</ele><time>2026-03-31T12:11:26Z</time></trkpt><trkpt lat="45.7075861030217" lon="9.875715940906366"><ele>279.0</ele><time>2026-03-31T12:11:28Z</time></trkpt><trkpt lat="45.707544575100684" lon="9.875647700802995"><ele>279.0</ele><time>2026-03-31T12:11:29Z</time></trkpt><trkpt lat="45.70749987039315" lon="9.875582621904218"><ele>278.2</ele><time>2026-03-31T12:11:30Z</time></trkpt><trkpt lat="45.70741264227087" lon="9.875449414408854"><ele>277.4</ele><time>2026-03-31T12:11:32Z</time></trkpt><trkpt lat="45.70737050984769" lon="9.875379759699152"><ele>276.6</ele><time>2026-03-31T12:11:33Z</time></trkpt><trkpt lat="45.707323231011486" lon="9.875246889078761"><ele>275.8</ele><time>2026-03-31T12:11:35Z</time></trkpt><trkpt lat="45.70725533871171" lon="9.875091337426767"><ele>275.0</ele><time>2026-03-31T12:11:37Z</time></trkpt><trkpt lat="45.707223160768024" lon="9.875004740707793"><ele>274.8571428571429</ele><time>2026-03-31T12:11:38Z</time></trkpt><trkpt lat="45.70719389520962" lon="9.874922920196905"><ele>274.7142857142857</ele><time>2026-03-31T12:11:39Z</time></trkpt><trkpt lat="45.7071644410485" lon="9.87483169273883"><ele>274.57142857142856</ele><time>2026-03-31T12:11:40Z</time></trkpt><trkpt lat="45.70713078118097" lon="9.874740279423667"><ele>274.42857142857144</ele><time>2026-03-31T12:11:41Z</time></trkpt><trkpt lat="45.70709873803109" lon="9.874651273084375"><ele>274.2857142857143</ele><time>2026-03-31T12:11:42Z</time></trkpt><trkpt lat="45.70706046833166" lon="9.87456496172647"><ele>274.14285714285717</ele><time>2026-03-31T12:11:43Z</time></trkpt><trkpt lat="45.70702664312751" lon="9.874476579242138"><ele>274.0</ele><time>2026-03-31T12:11:44Z</time></trkpt><trkpt lat="45.70698965777114" lon="9.874389467492533"><ele>274.00000000000006</ele><time>2026-03-31T12:11:45Z</time></trkpt><trkpt lat="45.7069545830063" lon="9.874300250952437"><ele>274.0</ele><time>2026-03-31T12:11:46Z</time></trkpt><trkpt lat="45.70692312917895" lon="9.874208357900887"><ele>274.0</ele><time>2026-03-31T12:11:47Z</time></trkpt><trkpt lat="45.70689373363114" lon="9.874116125593908"><ele>274.0</ele><time>2026-03-31T12:11:48Z</time></trkpt><trkpt lat="45.70686174504248" lon="9.874022039728768"><ele>274.0</ele><time>2026-03-31T12:11:49Z</time></trkpt><trkpt lat="45.70682739839137" lon="9.873931220676758"><ele>274.00000000000006</ele><time>2026-03-31T12:11:50Z</time></trkpt><trkpt lat="45.70679229408488" lon="9.873842280074618"><ele>274.0</ele><time>2026-03-31T12:11:51Z</time></trkpt><trkpt lat="45.70675769266995" lon="9.873754697634352"><ele>274.14285714285717</ele><time>2026-03-31T12:11:52Z</time></trkpt><trkpt lat="45.706721976352256" lon="9.873668207440012"><ele>274.2857142857143</ele><time>2026-03-31T12:11:53Z</time></trkpt><trkpt lat="45.70668848804087" lon="9.873584302780936"><ele>274.42857142857144</ele><time>2026-03-31T12:11:54Z</time></trkpt><trkpt lat="45.70665986354748" lon="9.873495503708824"><ele>274.57142857142856</ele><time>2026-03-31T12:11:55Z</time></trkpt><trkpt lat="45.70662960679034" lon="9.873409835428484"><ele>274.7142857142857</ele><time>2026-03-31T12:11:56Z</time></trkpt><trkpt lat="45.70660020977631" lon="9.87332372081402"><ele>274.8571428571429</ele><time>2026-03-31T12:11:57Z</time></trkpt><trkpt lat="45.70656920888386" lon="9.873239700657123"><ele>275.0</ele><time>2026-03-31T12:11:58Z</time></trkpt><trkpt lat="45.70653798809488" lon="9.873158984932388"><ele>274.33333333333337</ele><time>2026-03-31T12:11:59Z</time></trkpt><trkpt lat="45.70650799891699" lon="9.873072279053417"><ele>273.6666666666667</ele><time>2026-03-31T12:12:00Z</time></trkpt><trkpt lat="45.70644554002923" lon="9.872909936927998"><ele>273.0</ele><time>2026-03-31T12:12:02Z</time></trkpt><trkpt lat="45.706407488401666" lon="9.87282976507152"><ele>272.3333333333333</ele><time>2026-03-31T12:12:03Z</time></trkpt><trkpt lat="45.70637050484809" lon="9.872752311079607"><ele>271.66666666666663</ele><time>2026-03-31T12:12:04Z</time></trkpt><trkpt lat="45.70634149373279" lon="9.872671123621322"><ele>271.0</ele><time>2026-03-31T12:12:05Z</time></trkpt><trkpt lat="45.70631092856794" lon="9.87259041798693"><ele>270.85714285714283</ele><time>2026-03-31T12:12:06Z</time></trkpt><trkpt lat="45.70628112082809" lon="9.872509750295485"><ele>270.7142857142857</ele><time>2026-03-31T12:12:07Z</time></trkpt><trkpt lat="45.70625087947151" lon="9.872424650412635"><ele>270.57142857142856</ele><time>2026-03-31T12:12:08Z</time></trkpt><trkpt lat="45.706223709815205" lon="9.872343208548969"><ele>270.42857142857144</ele><time>2026-03-31T12:12:09Z</time></trkpt><trkpt lat="45.70619386311363" lon="9.872260991884287"><ele>270.2857142857143</ele><time>2026-03-31T12:12:10Z</time></trkpt><trkpt lat="45.7061663412827" lon="9.872177984337773"><ele>270.1428571428571</ele><time>2026-03-31T12:12:11Z</time></trkpt><trkpt lat="45.706137431102135" lon="9.872095077144094"><ele>270.0</ele><time>2026-03-31T12:12:12Z</time></trkpt><trkpt lat="45.70610964297454" lon="9.872011789503544"><ele>270.0</ele><time>2026-03-31T12:12:13Z</time></trkpt><trkpt lat="45.70607953824787" lon="9.871927160798169"><ele>270.0</ele><time>2026-03-31T12:12:14Z</time></trkpt><trkpt lat="45.70604885421148" lon="9.871847868960028"><ele>270.0</ele><time>2026-03-31T12:12:15Z</time></trkpt><trkpt lat="45.70602065662729" lon="9.871764195042383"><ele>270.0</ele><time>2026-03-31T12:12:16Z</time></trkpt><trkpt lat="45.70599001974766" lon="9.871680815246801"><ele>270.0</ele><time>2026-03-31T12:12:17Z</time></trkpt><trkpt lat="45.70595835991276" lon="9.871599936513018"><ele>270.0</ele><time>2026-03-31T12:12:18Z</time></trkpt><trkpt lat="45.70590550888979" lon="9.87143373652895"><ele>270.0</ele><time>2026-03-31T12:12:20Z</time></trkpt><trkpt lat="45.70587567878245" lon="9.871354009262943"><ele>270.0</ele><time>2026-03-31T12:12:21Z</time></trkpt><trkpt lat="45.7058410090941" lon="9.87127461323115"><ele>270.0</ele><time>2026-03-31T12:12:22Z</time></trkpt><trkpt lat="45.70580827036028" lon="9.871195917033731"><ele>270.0</ele><time>2026-03-31T12:12:23Z</time></trkpt><trkpt lat="45.705775553116666" lon="9.871114661108967"><ele>270.0</ele><time>2026-03-31T12:12:24Z</time></trkpt><trkpt lat="45.70574589052638" lon="9.871032577008148"><ele>270.0</ele><time>2026-03-31T12:12:25Z</time></trkpt><trkpt lat="45.705720812248636" lon="9.87094909074485"><ele>270.0</ele><time>2026-03-31T12:12:26Z</time></trkpt><trkpt lat="45.70569517773593" lon="9.870865982614875"><ele>270.0</ele><time>2026-03-31T12:12:27Z</time></trkpt><trkpt lat="45.7056670001446" lon="9.870780684749993"><ele>270.0</ele><time>2026-03-31T12:12:28Z</time></trkpt><trkpt lat="45.705641479472405" lon="9.870696961270408"><ele>270.0</ele><time>2026-03-31T12:12:29Z</time></trkpt><trkpt lat="45.705611989023495" lon="9.870613456945625"><ele>270.0</ele><time>2026-03-31T12:12:30Z</time></trkpt><trkpt lat="45.70559166788963" lon="9.870526117449483"><ele>270.0</ele><time>2026-03-31T12:12:31Z</time></trkpt><trkpt lat="45.70557292197985" lon="9.87043749712947"><ele>270.0</ele><time>2026-03-31T12:12:32Z</time></trkpt><trkpt lat="45.70553210625985" lon="9.870268342962797"><ele>270.0</ele><time>2026-03-31T12:12:34Z</time></trkpt><trkpt lat="45.70551580191107" lon="9.870178038369234"><ele>270.0</ele><time>2026-03-31T12:12:35Z</time></trkpt><trkpt lat="45.70548084045586" lon="9.87000705421423"><ele>269.85714285714283</ele><time>2026-03-31T12:12:37Z</time></trkpt><trkpt lat="45.70546219827349" lon="9.86991779077063"><ele>269.71428571428567</ele><time>2026-03-31T12:12:38Z</time></trkpt><trkpt lat="45.705443528039964" lon="9.86982104911487"><ele>269.57142857142856</ele><time>2026-03-31T12:12:39Z</time></trkpt><trkpt lat="45.70542566786273" lon="9.869728142441202"><ele>269.42857142857144</ele><time>2026-03-31T12:12:40Z</time></trkpt><trkpt lat="45.705406766662264" lon="9.869640578456595"><ele>269.28571428571433</ele><time>2026-03-31T12:12:41Z</time></trkpt><trkpt lat="45.70538750260016" lon="9.869550350301441"><ele>269.14285714285717</ele><time>2026-03-31T12:12:42Z</time></trkpt><trkpt lat="45.70536885078979" lon="9.869463398342823"><ele>269.0</ele><time>2026-03-31T12:12:43Z</time></trkpt><trkpt lat="45.705352034229456" lon="9.869375275273354"><ele>269.0</ele><time>2026-03-31T12:12:44Z</time></trkpt><trkpt lat="45.70533243604435" lon="9.869286330022815"><ele>269.0</ele><time>2026-03-31T12:12:45Z</time></trkpt><trkpt lat="45.70531370841422" lon="9.869194539127188"><ele>269.0</ele><time>2026-03-31T12:12:46Z</time></trkpt><trkpt lat="45.70529325079674" lon="9.869101410687838"><ele>269.0</ele><time>2026-03-31T12:12:47Z</time></trkpt><trkpt lat="45.70527330562826" lon="9.869009096364833"><ele>269.0</ele><time>2026-03-31T12:12:48Z</time></trkpt><trkpt lat="45.70525499539887" lon="9.868915342443133"><ele>269.0</ele><time>2026-03-31T12:12:49Z</time></trkpt><trkpt lat="45.70524611870987" lon="9.868818435874944"><ele>269.0</ele><time>2026-03-31T12:12:50Z</time></trkpt><trkpt lat="45.70525283537154" lon="9.868721205328749"><ele>269.0</ele><time>2026-03-31T12:12:51Z</time></trkpt><trkpt lat="45.70526052357474" lon="9.868623586797948"><ele>269.0</ele><time>2026-03-31T12:12:52Z</time></trkpt><trkpt lat="45.70524349327639" lon="9.868530329139094"><ele>269.0</ele><time>2026-03-31T12:12:53Z</time></trkpt><trkpt lat="45.705199826652624" lon="9.868449730454854"><ele>269.0</ele><time>2026-03-31T12:12:54Z</time></trkpt><trkpt lat="45.70515250941029" lon="9.868381489536127"><ele>269.0</ele><time>2026-03-31T12:12:55Z</time></trkpt><trkpt lat="45.70511283224036" lon="9.868306514224734"><ele>269.0</ele><time>2026-03-31T12:12:56Z</time></trkpt><trkpt lat="45.705086839780364" lon="9.868217967295577"><ele>269.0</ele><time>2026-03-31T12:12:57Z</time></trkpt><trkpt lat="45.70507450454805" lon="9.868118060568962"><ele>269.0</ele><time>2026-03-31T12:12:58Z</time></trkpt><trkpt lat="45.70506912177648" lon="9.868017055195061"><ele>269.0</ele><time>2026-03-31T12:12:59Z</time></trkpt><trkpt lat="45.70506287378561" lon="9.867919004022362"><ele>269.0</ele><time>2026-03-31T12:13:00Z</time></trkpt><trkpt lat="45.7050614642362" lon="9.867819737445283"><ele>269.0</ele><time>2026-03-31T12:13:01Z</time></trkpt><trkpt lat="45.70504760631393" lon="9.86772424616397"><ele>269.0</ele><time>2026-03-31T12:13:02Z</time></trkpt><trkpt lat="45.705046827899956" lon="9.867629174740474"><ele>269.0</ele><time>2026-03-31T12:13:03Z</time></trkpt><trkpt lat="45.705040986992756" lon="9.867529092375067"><ele>269.0</ele><time>2026-03-31T12:13:04Z</time></trkpt><trkpt lat="45.70503470179685" lon="9.867431175166464"><ele>268.8571428571429</ele><time>2026-03-31T12:13:05Z</time></trkpt><trkpt lat="45.70502775144326" lon="9.867333876186763"><ele>268.7142857142857</ele><time>2026-03-31T12:13:06Z</time></trkpt><trkpt lat="45.705019060091445" lon="9.867237602682813"><ele>268.57142857142856</ele><time>2026-03-31T12:13:07Z</time></trkpt><trkpt lat="45.70500940636816" lon="9.867141939365398"><ele>268.42857142857144</ele><time>2026-03-31T12:13:08Z</time></trkpt><trkpt lat="45.70500314027693" lon="9.867046255557142"><ele>268.2857142857143</ele><time>2026-03-31T12:13:09Z</time></trkpt><trkpt lat="45.70499449803943" lon="9.866951010930464"><ele>268.14285714285717</ele><time>2026-03-31T12:13:10Z</time></trkpt><trkpt lat="45.70498765872378" lon="9.866860292408653"><ele>268.0</ele><time>2026-03-31T12:13:11Z</time></trkpt><trkpt lat="45.704976525527734" lon="9.866760144712773"><ele>268.0</ele><time>2026-03-31T12:13:12Z</time></trkpt><trkpt lat="45.704965891728676" lon="9.866668015142892"><ele>268.0</ele><time>2026-03-31T12:13:13Z</time></trkpt><trkpt lat="45.70495864352088" lon="9.866574119482426"><ele>268.0</ele><time>2026-03-31T12:13:14Z</time></trkpt><trkpt lat="45.70494991386953" lon="9.866480518726958"><ele>268.0</ele><time>2026-03-31T12:13:15Z</time></trkpt><trkpt lat="45.704942789606605" lon="9.866383886370611"><ele>268.0</ele><time>2026-03-31T12:13:16Z</time></trkpt><trkpt lat="45.704936179145086" lon="9.866288371082403"><ele>268.0</ele><time>2026-03-31T12:13:17Z</time></trkpt><trkpt lat="45.70492912358511" lon="9.8661939097558"><ele>268.0</ele><time>2026-03-31T12:13:18Z</time></trkpt><trkpt lat="45.70491995644803" lon="9.866100270166664"><ele>268.0</ele><time>2026-03-31T12:13:19Z</time></trkpt><trkpt lat="45.70490703736375" lon="9.866005720189492"><ele>268.0</ele><time>2026-03-31T12:13:20Z</time></trkpt><trkpt lat="45.704892536176835" lon="9.865826610039553"><ele>268.0</ele><time>2026-03-31T12:13:22Z</time></trkpt><trkpt lat="45.70488873293682" lon="9.865733988261493"><ele>268.0</ele><time>2026-03-31T12:13:23Z</time></trkpt><trkpt lat="45.70487681978752" lon="9.865557842561492"><ele>268.0</ele><time>2026-03-31T12:13:25Z</time></trkpt><trkpt lat="45.70487059623486" lon="9.865466417251936"><ele>268.0</ele><time>2026-03-31T12:13:26Z</time></trkpt><trkpt lat="45.704858176584565" lon="9.865370541988591"><ele>267.66666666666663</ele><time>2026-03-31T12:13:27Z</time></trkpt><trkpt lat="45.7048390637673" lon="9.865284107751176"><ele>267.3333333333333</ele><time>2026-03-31T12:13:28Z</time></trkpt><trkpt lat="45.704825880880406" lon="9.865192309137619"><ele>267.0</ele><time>2026-03-31T12:13:29Z</time></trkpt><trkpt lat="45.704797886739804" lon="9.865011240350965"><ele>266.6666666666667</ele><time>2026-03-31T12:13:31Z</time></trkpt><trkpt lat="45.70478186329565" lon="9.86492372706688"><ele>266.33333333333337</ele><time>2026-03-31T12:13:32Z</time></trkpt><trkpt lat="45.704762238716434" lon="9.864829386012909"><ele>266.0</ele><time>2026-03-31T12:13:33Z</time></trkpt><trkpt lat="45.70475122938565" lon="9.864737272347572"><ele>266.0</ele><time>2026-03-31T12:13:34Z</time></trkpt><trkpt lat="45.70473379495645" lon="9.864643162183965"><ele>266.0</ele><time>2026-03-31T12:13:35Z</time></trkpt><trkpt lat="45.70471345103149" lon="9.86455334642004"><ele>266.0</ele><time>2026-03-31T12:13:36Z</time></trkpt><trkpt lat="45.704694842478396" lon="9.864462297492013"><ele>266.0</ele><time>2026-03-31T12:13:37Z</time></trkpt><trkpt lat="45.704675366389075" lon="9.864370407189725"><ele>266.0</ele><time>2026-03-31T12:13:38Z</time></trkpt><trkpt lat="45.70465661284548" lon="9.864280888607398"><ele>266.0</ele><time>2026-03-31T12:13:39Z</time></trkpt><trkpt lat="45.704634987894146" lon="9.864192008577064"><ele>266.0</ele><time>2026-03-31T12:13:40Z</time></trkpt><trkpt lat="45.704601004325085" lon="9.86401322071636"><ele>266.0</ele><time>2026-03-31T12:13:42Z</time></trkpt><trkpt lat="45.70455799975507" lon="9.863843465044168"><ele>266.0</ele><time>2026-03-31T12:13:44Z</time></trkpt><trkpt lat="45.704534852837405" lon="9.863755095189038"><ele>266.0</ele><time>2026-03-31T12:13:45Z</time></trkpt><trkpt lat="45.704509879230436" lon="9.863671034226943"><ele>266.0</ele><time>2026-03-31T12:13:46Z</time></trkpt><trkpt lat="45.70448170398776" lon="9.863589363074707"><ele>266.0</ele><time>2026-03-31T12:13:47Z</time></trkpt><trkpt lat="45.70446554553132" lon="9.86349203328242"><ele>266.0</ele><time>2026-03-31T12:13:48Z</time></trkpt><trkpt lat="45.704398352762226" lon="9.863348200164648"><ele>266.5</ele><time>2026-03-31T12:13:50Z</time></trkpt><trkpt lat="45.70436622356376" lon="9.863154435874732"><ele>267.0</ele><time>2026-03-31T12:13:52Z</time></trkpt><trkpt lat="45.70431755128249" lon="9.862986462733875"><ele>267.5</ele><time>2026-03-31T12:13:54Z</time></trkpt><trkpt lat="45.70429595208998" lon="9.86290022017686"><ele>268.0</ele><time>2026-03-31T12:13:55Z</time></trkpt><trkpt lat="45.704254464254305" lon="9.862729531755702"><ele>267.4</ele><time>2026-03-31T12:13:57Z</time></trkpt><trkpt lat="45.70421177081045" lon="9.862561237947512"><ele>266.8</ele><time>2026-03-31T12:13:59Z</time></trkpt><trkpt lat="45.7041886680419" lon="9.862477115428275"><ele>266.2</ele><time>2026-03-31T12:14:00Z</time></trkpt><trkpt lat="45.70416637920275" lon="9.862388473380154"><ele>265.6</ele><time>2026-03-31T12:14:01Z</time></trkpt><trkpt lat="45.704130277383314" lon="9.862211584891975"><ele>265.0</ele><time>2026-03-31T12:14:03Z</time></trkpt><trkpt lat="45.704141177966385" lon="9.862022309685148"><ele>264.99999999999994</ele><time>2026-03-31T12:14:05Z</time></trkpt><trkpt lat="45.70416709638783" lon="9.861938729211644"><ele>265.0</ele><time>2026-03-31T12:14:06Z</time></trkpt><trkpt lat="45.70421791454298" lon="9.86186897043543"><ele>265.0</ele><time>2026-03-31T12:14:07Z</time></trkpt><trkpt lat="45.704273189555785" lon="9.86180688125285"><ele>265.0</ele><time>2026-03-31T12:14:08Z</time></trkpt><trkpt lat="45.70432866489426" lon="9.861754518574108"><ele>265.0</ele><time>2026-03-31T12:14:09Z</time></trkpt><trkpt lat="45.70437793998904" lon="9.861689654871206"><ele>264.99999999999994</ele><time>2026-03-31T12:14:10Z</time></trkpt><trkpt lat="45.70442711624261" lon="9.861624665726183"><ele>265.0</ele><time>2026-03-31T12:14:11Z</time></trkpt><trkpt lat="45.70447334571843" lon="9.861558446758854"><ele>264.85714285714283</ele><time>2026-03-31T12:14:12Z</time></trkpt><trkpt lat="45.70452050099805" lon="9.86149244581371"><ele>264.7142857142857</ele><time>2026-03-31T12:14:13Z</time></trkpt><trkpt lat="45.7045646760287" lon="9.861427673339014"><ele>264.57142857142856</ele><time>2026-03-31T12:14:14Z</time></trkpt><trkpt lat="45.70459481755823" lon="9.861344715016724"><ele>264.42857142857144</ele><time>2026-03-31T12:14:15Z</time></trkpt><trkpt lat="45.704604089057725" lon="9.861252333667494"><ele>264.2857142857143</ele><time>2026-03-31T12:14:16Z</time></trkpt><trkpt lat="45.70459602191729" lon="9.861160004430198"><ele>264.1428571428571</ele><time>2026-03-31T12:14:17Z</time></trkpt><trkpt lat="45.70457564146575" lon="9.861068617635068"><ele>264.0</ele><time>2026-03-31T12:14:18Z</time></trkpt><trkpt lat="45.7045440083425" lon="9.860984725582417"><ele>264.0</ele><time>2026-03-31T12:14:19Z</time></trkpt><trkpt lat="45.70450007704978" lon="9.860914794452354"><ele>264.0</ele><time>2026-03-31T12:14:20Z</time></trkpt><trkpt lat="45.70445146478692" lon="9.860853351672246"><ele>264.0</ele><time>2026-03-31T12:14:21Z</time></trkpt><trkpt lat="45.704411206690224" lon="9.860781053447537"><ele>264.0</ele><time>2026-03-31T12:14:22Z</time></trkpt><trkpt lat="45.70437110694156" lon="9.860704528056349"><ele>264.0</ele><time>2026-03-31T12:14:23Z</time></trkpt><trkpt lat="45.70429365832343" lon="9.86056202979061"><ele>264.0</ele><time>2026-03-31T12:14:25Z</time></trkpt><trkpt lat="45.704253808175984" lon="9.860490118251304"><ele>264.0</ele><time>2026-03-31T12:14:26Z</time></trkpt><trkpt lat="45.704210685673786" lon="9.860423305588053"><ele>264.0</ele><time>2026-03-31T12:14:27Z</time></trkpt><trkpt lat="45.70413477407706" lon="9.860280525839226"><ele>264.0</ele><time>2026-03-31T12:14:29Z</time></trkpt><trkpt lat="45.70405642844064" lon="9.860144057367394"><ele>264.0</ele><time>2026-03-31T12:14:31Z</time></trkpt><trkpt lat="45.703979302281574" lon="9.860003742395394"><ele>264.0</ele><time>2026-03-31T12:14:33Z</time></trkpt><trkpt lat="45.70390296831997" lon="9.859866416545412"><ele>263.75</ele><time>2026-03-31T12:14:35Z</time></trkpt><trkpt lat="45.70382402112314" lon="9.85973552194923"><ele>263.5</ele><time>2026-03-31T12:14:37Z</time></trkpt><trkpt lat="45.70374996419845" lon="9.859606111278795"><ele>263.25</ele><time>2026-03-31T12:14:39Z</time></trkpt><trkpt lat="45.70367037185825" lon="9.85949036450384"><ele>263.0</ele><time>2026-03-31T12:14:41Z</time></trkpt><trkpt lat="45.70358176145968" lon="9.859402024493475"><ele>262.4</ele><time>2026-03-31T12:14:43Z</time></trkpt><trkpt lat="45.70349640331568" lon="9.859323307763137"><ele>261.8</ele><time>2026-03-31T12:14:45Z</time></trkpt><trkpt lat="45.70345469344581" lon="9.859196141806482"><ele>261.2</ele><time>2026-03-31T12:14:47Z</time></trkpt><trkpt lat="45.70347240815781" lon="9.85905171310924"><ele>260.6</ele><time>2026-03-31T12:14:49Z</time></trkpt><trkpt lat="45.7035090807667" lon="9.858913239998321"><ele>260.0</ele><time>2026-03-31T12:14:51Z</time></trkpt><trkpt lat="45.70354055239893" lon="9.85877461016248"><ele>260.0</ele><time>2026-03-31T12:14:53Z</time></trkpt><trkpt lat="45.70356795224206" lon="9.858647667882218"><ele>260.0</ele><time>2026-03-31T12:14:55Z</time></trkpt><trkpt lat="45.70359418010461" lon="9.85856448608742"><ele>260.0</ele><time>2026-03-31T12:14:57Z</time></trkpt><trkpt lat="45.70355676494186" lon="9.858468375236875"><ele>260.0</ele><time>2026-03-31T12:15:00Z</time></trkpt><trkpt lat="45.703461744535396" lon="9.85846619433556"><ele>260.0</ele><time>2026-03-31T12:15:02Z</time></trkpt><trkpt lat="45.703398295140666" lon="9.858494327361399"><ele>260.0</ele><time>2026-03-31T12:15:04Z</time></trkpt><trkpt lat="45.70339803309458" lon="9.858641820261859"><ele>260.0</ele><time>2026-03-31T12:15:06Z</time></trkpt><trkpt lat="45.70337006648866" lon="9.858490178768253"><ele>260.0</ele><time>2026-03-31T12:15:11Z</time></trkpt><trkpt lat="45.703398201036194" lon="9.858335915731425"><ele>260.0</ele><time>2026-03-31T12:15:13Z</time></trkpt><trkpt lat="45.70340218294046" lon="9.858222937924376"><ele>260.0</ele><time>2026-03-31T12:15:15Z</time></trkpt><trkpt lat="45.70335458203998" lon="9.858148675133021"><ele>260.0</ele><time>2026-03-31T12:15:17Z</time></trkpt><trkpt lat="45.703285225117384" lon="9.858173645070162"><ele>260.0</ele><time>2026-03-31T12:15:19Z</time></trkpt><trkpt lat="45.70320129999041" lon="9.858183542095365"><ele>260.8</ele><time>2026-03-31T12:15:21Z</time></trkpt><trkpt lat="45.70311371462131" lon="9.858181063886478"><ele>261.6</ele><time>2026-03-31T12:15:23Z</time></trkpt><trkpt lat="45.70301932316376" lon="9.858161768899745"><ele>262.4</ele><time>2026-03-31T12:15:25Z</time></trkpt><trkpt lat="45.70292112670348" lon="9.858149557934155"><ele>263.2</ele><time>2026-03-31T12:15:27Z</time></trkpt><trkpt lat="45.70281304483403" lon="9.858165599536823"><ele>264.0</ele><time>2026-03-31T12:15:29Z</time></trkpt><trkpt lat="45.70270054913471" lon="9.85820249236554"><ele>264.0</ele><time>2026-03-31T12:15:31Z</time></trkpt><trkpt lat="45.702576040822784" lon="9.858213097516181"><ele>264.0</ele><time>2026-03-31T12:15:33Z</time></trkpt><trkpt lat="45.702512789183785" lon="9.858194716584777"><ele>264.0</ele><time>2026-03-31T12:15:34Z</time></trkpt><trkpt lat="45.702452596778365" lon="9.858164228446167"><ele>264.0</ele><time>2026-03-31T12:15:35Z</time></trkpt><trkpt lat="45.7023942020025" lon="9.85812543382811"><ele>264.0</ele><time>2026-03-31T12:15:36Z</time></trkpt><trkpt lat="45.70227797983156" lon="9.858053817778556"><ele>264.0</ele><time>2026-03-31T12:15:38Z</time></trkpt><trkpt lat="45.70221786174987" lon="9.858015736371435"><ele>264.0</ele><time>2026-03-31T12:15:39Z</time></trkpt><trkpt lat="45.70210553699391" lon="9.857931625122553"><ele>264.0</ele><time>2026-03-31T12:15:41Z</time></trkpt><trkpt lat="45.7020489628751" lon="9.857888445832481"><ele>264.0</ele><time>2026-03-31T12:15:42Z</time></trkpt><trkpt lat="45.701988723322565" lon="9.85784721386715"><ele>264.0</ele><time>2026-03-31T12:15:43Z</time></trkpt><trkpt lat="45.70193064481529" lon="9.85780942887564"><ele>264.0</ele><time>2026-03-31T12:15:44Z</time></trkpt><trkpt lat="45.701875207875695" lon="9.857765629218704"><ele>264.0</ele><time>2026-03-31T12:15:45Z</time></trkpt><trkpt lat="45.701818268138815" lon="9.85772692674375"><ele>264.0</ele><time>2026-03-31T12:15:46Z</time></trkpt><trkpt lat="45.701709720145764" lon="9.857639840568911"><ele>264.4</ele><time>2026-03-31T12:15:48Z</time></trkpt><trkpt lat="45.70160063577586" lon="9.85754420225498"><ele>264.79999999999995</ele><time>2026-03-31T12:15:50Z</time></trkpt><trkpt lat="45.7014994396175" lon="9.857437012767846"><ele>265.20000000000005</ele><time>2026-03-31T12:15:52Z</time></trkpt><trkpt lat="45.701447443998205" lon="9.857385158079033"><ele>265.6</ele><time>2026-03-31T12:15:53Z</time></trkpt><trkpt lat="45.70135403883554" lon="9.857268380761509"><ele>266.0</ele><time>2026-03-31T12:15:55Z</time></trkpt><trkpt lat="45.70126238076949" lon="9.857148937910285"><ele>266.0</ele><time>2026-03-31T12:15:57Z</time></trkpt><trkpt lat="45.70117617333842" lon="9.857023445736177"><ele>266.0</ele><time>2026-03-31T12:15:59Z</time></trkpt><trkpt lat="45.701094512844776" lon="9.856895851536768"><ele>266.0</ele><time>2026-03-31T12:16:01Z</time></trkpt><trkpt lat="45.701020062050965" lon="9.85675296877305"><ele>266.0</ele><time>2026-03-31T12:16:03Z</time></trkpt><trkpt lat="45.70095062131062" lon="9.856616262620488"><ele>266.75</ele><time>2026-03-31T12:16:05Z</time></trkpt><trkpt lat="45.700880738447125" lon="9.856472141184101"><ele>267.5</ele><time>2026-03-31T12:16:07Z</time></trkpt><trkpt lat="45.70081659270388" lon="9.856321333701114"><ele>268.25</ele><time>2026-03-31T12:16:09Z</time></trkpt><trkpt lat="45.70075134873241" lon="9.856172471452284"><ele>269.0</ele><time>2026-03-31T12:16:11Z</time></trkpt><trkpt lat="45.700687952222495" lon="9.856022901479525"><ele>273.5</ele><time>2026-03-31T12:16:13Z</time></trkpt><trkpt lat="45.70062093377266" lon="9.85588064708116"><ele>278.0</ele><time>2026-03-31T12:16:15Z</time></trkpt><trkpt lat="45.70055350094239" lon="9.855731783405325"><ele>282.5</ele><time>2026-03-31T12:16:17Z</time></trkpt><trkpt lat="45.70049409507241" lon="9.85557977106806"><ele>287.0</ele><time>2026-03-31T12:16:19Z</time></trkpt><trkpt lat="45.70042813454332" lon="9.85543489759389"><ele>287.0</ele><time>2026-03-31T12:16:21Z</time></trkpt><trkpt lat="45.700365166603774" lon="9.855286568278673"><ele>287.0</ele><time>2026-03-31T12:16:23Z</time></trkpt><trkpt lat="45.70030168370485" lon="9.855142400777119"><ele>287.0</ele><time>2026-03-31T12:16:25Z</time></trkpt><trkpt lat="45.70024175620591" lon="9.854993991700704"><ele>287.0</ele><time>2026-03-31T12:16:27Z</time></trkpt><trkpt lat="45.70017449697404" lon="9.854850514302841"><ele>287.25</ele><time>2026-03-31T12:16:29Z</time></trkpt><trkpt lat="45.70010780991978" lon="9.854707712944544"><ele>287.5</ele><time>2026-03-31T12:16:31Z</time></trkpt><trkpt lat="45.7000469946967" lon="9.854561286847145"><ele>287.75</ele><time>2026-03-31T12:16:33Z</time></trkpt><trkpt lat="45.69998332773492" lon="9.854416460735452"><ele>288.0</ele><time>2026-03-31T12:16:35Z</time></trkpt><trkpt lat="45.699919622314084" lon="9.854269930942474"><ele>288.0</ele><time>2026-03-31T12:16:37Z</time></trkpt><trkpt lat="45.69985393141083" lon="9.854124033087418"><ele>288.0</ele><time>2026-03-31T12:16:39Z</time></trkpt><trkpt lat="45.69978846026668" lon="9.853974746977043"><ele>288.0</ele><time>2026-03-31T12:16:41Z</time></trkpt><trkpt lat="45.69972276358909" lon="9.853821408600965"><ele>288.0</ele><time>2026-03-31T12:16:43Z</time></trkpt><trkpt lat="45.69965692869376" lon="9.85367444453094"><ele>288.0</ele><time>2026-03-31T12:16:45Z</time></trkpt><trkpt lat="45.69959051722139" lon="9.853527509359735"><ele>288.0</ele><time>2026-03-31T12:16:47Z</time></trkpt><trkpt lat="45.69952999487181" lon="9.853373004140446"><ele>288.0</ele><time>2026-03-31T12:16:49Z</time></trkpt><trkpt lat="45.69946482359335" lon="9.853226398897052"><ele>288.0</ele><time>2026-03-31T12:16:51Z</time></trkpt><trkpt lat="45.699397386189595" lon="9.853078438860425"><ele>286.6</ele><time>2026-03-31T12:16:53Z</time></trkpt><trkpt lat="45.699329690460125" lon="9.852928094578942"><ele>285.20000000000005</ele><time>2026-03-31T12:16:55Z</time></trkpt><trkpt lat="45.699260694675665" lon="9.852775907336534"><ele>283.8</ele><time>2026-03-31T12:16:57Z</time></trkpt><trkpt lat="45.69919536211642" lon="9.852630404145428"><ele>282.40000000000003</ele><time>2026-03-31T12:16:59Z</time></trkpt><trkpt lat="45.69915445489992" lon="9.852555643495785"><ele>281.0</ele><time>2026-03-31T12:17:00Z</time></trkpt><trkpt lat="45.699087546452354" lon="9.852411668461654"><ele>281.0</ele><time>2026-03-31T12:17:02Z</time></trkpt><trkpt lat="45.69899766351914" lon="9.852268161697094"><ele>281.0</ele><time>2026-03-31T12:17:04Z</time></trkpt><trkpt lat="45.69891894026111" lon="9.852134464260523"><ele>281.0</ele><time>2026-03-31T12:17:06Z</time></trkpt><trkpt lat="45.69887532961316" lon="9.85206148226806"><ele>281.0</ele><time>2026-03-31T12:17:07Z</time></trkpt><trkpt lat="45.69879233048624" lon="9.85193194567796"><ele>281.0</ele><time>2026-03-31T12:17:09Z</time></trkpt><trkpt lat="45.69871155335716" lon="9.851802708616196"><ele>278.83333333333337</ele><time>2026-03-31T12:17:11Z</time></trkpt><trkpt lat="45.698615641357264" lon="9.85169024770207"><ele>276.6666666666667</ele><time>2026-03-31T12:17:13Z</time></trkpt><trkpt lat="45.698586187471214" lon="9.85160617756829"><ele>274.5</ele><time>2026-03-31T12:17:14Z</time></trkpt><trkpt lat="45.69854834341151" lon="9.851533008120049"><ele>272.3333333333333</ele><time>2026-03-31T12:17:15Z</time></trkpt><trkpt lat="45.69850289662847" lon="9.851467058213725"><ele>270.16666666666663</ele><time>2026-03-31T12:17:16Z</time></trkpt><trkpt lat="45.69842148721614" lon="9.851332160104246"><ele>268.0</ele><time>2026-03-31T12:17:18Z</time></trkpt><trkpt lat="45.69833834805445" lon="9.851202352582881"><ele>268.0</ele><time>2026-03-31T12:17:20Z</time></trkpt><trkpt lat="45.69826172224281" lon="9.851065531210349"><ele>268.0</ele><time>2026-03-31T12:17:22Z</time></trkpt><trkpt lat="45.69817945410113" lon="9.850932689125802"><ele>268.0</ele><time>2026-03-31T12:17:24Z</time></trkpt><trkpt lat="45.698102220478034" lon="9.850791071039996"><ele>268.0</ele><time>2026-03-31T12:17:26Z</time></trkpt><trkpt lat="45.69802821247698" lon="9.850649038234188"><ele>273.0</ele><time>2026-03-31T12:17:28Z</time></trkpt><trkpt lat="45.69796163323217" lon="9.850500160931935"><ele>278.0</ele><time>2026-03-31T12:17:30Z</time></trkpt><trkpt lat="45.697899830548096" lon="9.85034966324277"><ele>283.0</ele><time>2026-03-31T12:17:32Z</time></trkpt><trkpt lat="45.69783986865569" lon="9.850197459967017"><ele>288.0</ele><time>2026-03-31T12:17:34Z</time></trkpt><trkpt lat="45.6977851920169" lon="9.850044013281098"><ele>284.4</ele><time>2026-03-31T12:17:36Z</time></trkpt><trkpt lat="45.69772703209699" lon="9.849892146024569"><ele>280.8</ele><time>2026-03-31T12:17:38Z</time></trkpt><trkpt lat="45.69769503824869" lon="9.849812311365914"><ele>277.2</ele><time>2026-03-31T12:17:39Z</time></trkpt><trkpt lat="45.697641024288764" lon="9.849659982158292"><ele>273.6</ele><time>2026-03-31T12:17:41Z</time></trkpt><trkpt lat="45.69758667983198" lon="9.849506177156071"><ele>270.0</ele><time>2026-03-31T12:17:43Z</time></trkpt><trkpt lat="45.69753333262215" lon="9.849351073833947"><ele>270.75</ele><time>2026-03-31T12:17:45Z</time></trkpt><trkpt lat="45.697486061971766" lon="9.849198472429894"><ele>271.5</ele><time>2026-03-31T12:17:47Z</time></trkpt><trkpt lat="45.697446827861874" lon="9.849040765694896"><ele>272.25</ele><time>2026-03-31T12:17:49Z</time></trkpt><trkpt lat="45.69741938926892" lon="9.848878469007222"><ele>273.0</ele><time>2026-03-31T12:17:51Z</time></trkpt><trkpt lat="45.6973942435603" lon="9.848712694648459"><ele>273.0</ele><time>2026-03-31T12:17:53Z</time></trkpt><trkpt lat="45.69737778842161" lon="9.848549854944563"><ele>273.0</ele><time>2026-03-31T12:17:55Z</time></trkpt><trkpt lat="45.6973625848163" lon="9.848381598448606"><ele>273.0</ele><time>2026-03-31T12:17:57Z</time></trkpt><trkpt lat="45.69735735557628" lon="9.848217602903263"><ele>273.0</ele><time>2026-03-31T12:17:59Z</time></trkpt><trkpt lat="45.69734818791843" lon="9.848054480206448"><ele>274.0</ele><time>2026-03-31T12:18:01Z</time></trkpt><trkpt lat="45.697336234961185" lon="9.84788362468237"><ele>275.0</ele><time>2026-03-31T12:18:03Z</time></trkpt><trkpt lat="45.6973337407452" lon="9.847714605094863"><ele>276.0</ele><time>2026-03-31T12:18:05Z</time></trkpt><trkpt lat="45.69733174683429" lon="9.847544329353012"><ele>277.0</ele><time>2026-03-31T12:18:07Z</time></trkpt><trkpt lat="45.69732432069024" lon="9.847372427926949"><ele>277.0</ele><time>2026-03-31T12:18:09Z</time></trkpt><trkpt lat="45.6973186413388" lon="9.84719886809943"><ele>277.0</ele><time>2026-03-31T12:18:11Z</time></trkpt><trkpt lat="45.697310956953324" lon="9.84702732200424"><ele>277.0</ele><time>2026-03-31T12:18:13Z</time></trkpt><trkpt lat="45.69730341491624" lon="9.846856831223704"><ele>277.0</ele><time>2026-03-31T12:18:15Z</time></trkpt><trkpt lat="45.69729302034615" lon="9.846692105782509"><ele>277.0</ele><time>2026-03-31T12:18:17Z</time></trkpt><trkpt lat="45.6972863226207" lon="9.846528185672469"><ele>277.0</ele><time>2026-03-31T12:18:19Z</time></trkpt><trkpt lat="45.69727541752448" lon="9.846403111470938"><ele>277.0</ele><time>2026-03-31T12:18:21Z</time></trkpt><trkpt lat="45.697273157317234" lon="9.846295468098505"><ele>277.0</ele><time>2026-03-31T12:18:23Z</time></trkpt><trkpt lat="45.69737479987952" lon="9.846263218129154"><ele>277.0</ele><time>2026-03-31T12:18:25Z</time></trkpt><trkpt lat="45.69748247496076" lon="9.846356955799788"><ele>277.0</ele><time>2026-03-31T12:18:27Z</time></trkpt><trkpt lat="45.697586298773764" lon="9.846445442363498"><ele>277.0</ele><time>2026-03-31T12:18:29Z</time></trkpt><trkpt lat="45.69769909344993" lon="9.846493803601309"><ele>277.0</ele><time>2026-03-31T12:18:31Z</time></trkpt><trkpt lat="45.69781472654091" lon="9.846502782454092"><ele>277.0</ele><time>2026-03-31T12:18:33Z</time></trkpt><trkpt lat="45.69791920898949" lon="9.846450466051166"><ele>278.5</ele><time>2026-03-31T12:18:35Z</time></trkpt><trkpt lat="45.69799162184356" lon="9.846318995891648"><ele>280.0</ele><time>2026-03-31T12:18:37Z</time></trkpt><trkpt lat="45.69803548735337" lon="9.846162418817052"><ele>281.5</ele><time>2026-03-31T12:18:39Z</time></trkpt><trkpt lat="45.698072595140474" lon="9.845999163977902"><ele>283.0</ele><time>2026-03-31T12:18:41Z</time></trkpt><trkpt lat="45.69810418161593" lon="9.845835670201488"><ele>283.25</ele><time>2026-03-31T12:18:43Z</time></trkpt><trkpt lat="45.69813765585304" lon="9.84567549806915"><ele>283.5</ele><time>2026-03-31T12:18:45Z</time></trkpt><trkpt lat="45.69817556699134" lon="9.845507917220417"><ele>283.75</ele><time>2026-03-31T12:18:47Z</time></trkpt><trkpt lat="45.69820831457683" lon="9.8453393907161"><ele>284.0</ele><time>2026-03-31T12:18:49Z</time></trkpt><trkpt lat="45.698240959025604" lon="9.845174729839073"><ele>284.25</ele><time>2026-03-31T12:18:51Z</time></trkpt><trkpt lat="45.69827499962266" lon="9.845009952442767"><ele>284.5</ele><time>2026-03-31T12:18:53Z</time></trkpt><trkpt lat="45.69830742722269" lon="9.844841403506662"><ele>284.75</ele><time>2026-03-31T12:18:55Z</time></trkpt><trkpt lat="45.69833880382829" lon="9.844670954902682"><ele>285.0</ele><time>2026-03-31T12:18:57Z</time></trkpt><trkpt lat="45.6983670219209" lon="9.844502381245395"><ele>285.0</ele><time>2026-03-31T12:18:59Z</time></trkpt><trkpt lat="45.698397178118114" lon="9.844335615125347"><ele>285.0</ele><time>2026-03-31T12:19:01Z</time></trkpt><trkpt lat="45.69842901171654" lon="9.844169931744144"><ele>285.0</ele><time>2026-03-31T12:19:03Z</time></trkpt><trkpt lat="45.69846144925155" lon="9.844004899903574"><ele>285.0</ele><time>2026-03-31T12:19:05Z</time></trkpt><trkpt lat="45.69849092683604" lon="9.843841309776204"><ele>284.25</ele><time>2026-03-31T12:19:07Z</time></trkpt><trkpt lat="45.698521396857736" lon="9.84367530121411"><ele>283.5</ele><time>2026-03-31T12:19:09Z</time></trkpt><trkpt lat="45.69855019848338" lon="9.843508623266231"><ele>282.75</ele><time>2026-03-31T12:19:11Z</time></trkpt><trkpt lat="45.698587446021435" lon="9.843348466579013"><ele>282.0</ele><time>2026-03-31T12:19:13Z</time></trkpt><trkpt lat="45.6986171187017" lon="9.84318556548798"><ele>283.5</ele><time>2026-03-31T12:19:15Z</time></trkpt><trkpt lat="45.69864721558936" lon="9.84302086591758"><ele>285.0</ele><time>2026-03-31T12:19:17Z</time></trkpt><trkpt lat="45.69868504421621" lon="9.842858994421395"><ele>286.5</ele><time>2026-03-31T12:19:19Z</time></trkpt><trkpt lat="45.69873262391258" lon="9.84270030161276"><ele>288.0</ele><time>2026-03-31T12:19:21Z</time></trkpt><trkpt lat="45.69878164337295" lon="9.842551148365496"><ele>288.0</ele><time>2026-03-31T12:19:23Z</time></trkpt><trkpt lat="45.698838196218034" lon="9.84240656657393"><ele>288.0</ele><time>2026-03-31T12:19:25Z</time></trkpt><trkpt lat="45.69889673481487" lon="9.84225380906476"><ele>288.0</ele><time>2026-03-31T12:19:27Z</time></trkpt><trkpt lat="45.69895993236036" lon="9.842108565351998"><ele>288.0</ele><time>2026-03-31T12:19:29Z</time></trkpt><trkpt lat="45.69902037790243" lon="9.841962823345208"><ele>288.0</ele><time>2026-03-31T12:19:31Z</time></trkpt><trkpt lat="45.699071767628666" lon="9.841809639578951"><ele>288.0</ele><time>2026-03-31T12:19:33Z</time></trkpt><trkpt lat="45.69910468281042" lon="9.84165109832779"><ele>288.0</ele><time>2026-03-31T12:19:35Z</time></trkpt><trkpt lat="45.69911426224927" lon="9.841481642147658"><ele>288.0</ele><time>2026-03-31T12:19:37Z</time></trkpt><trkpt lat="45.699129324891985" lon="9.841309600743012"><ele>287.0</ele><time>2026-03-31T12:19:39Z</time></trkpt><trkpt lat="45.699184254287744" lon="9.841150005400564"><ele>286.0</ele><time>2026-03-31T12:19:41Z</time></trkpt><trkpt lat="45.69924581981117" lon="9.841001361545059"><ele>285.0</ele><time>2026-03-31T12:19:43Z</time></trkpt><trkpt lat="45.699309136091735" lon="9.84085349824876"><ele>284.0</ele><time>2026-03-31T12:19:45Z</time></trkpt><trkpt lat="45.699371779229104" lon="9.84070492775853"><ele>283.75</ele><time>2026-03-31T12:19:47Z</time></trkpt><trkpt lat="45.69943292092739" lon="9.840557860757555"><ele>283.5</ele><time>2026-03-31T12:19:49Z</time></trkpt><trkpt lat="45.699491317382424" lon="9.840408540469545"><ele>283.25</ele><time>2026-03-31T12:19:51Z</time></trkpt><trkpt lat="45.699547897453044" lon="9.840258088399738"><ele>283.0</ele><time>2026-03-31T12:19:53Z</time></trkpt><trkpt lat="45.69960991783789" lon="9.840116714033298"><ele>283.0</ele><time>2026-03-31T12:19:55Z</time></trkpt><trkpt lat="45.6996671515731" lon="9.839973025509197"><ele>283.0</ele><time>2026-03-31T12:19:57Z</time></trkpt><trkpt lat="45.69973237397668" lon="9.839827268917855"><ele>283.0</ele><time>2026-03-31T12:19:59Z</time></trkpt><trkpt lat="45.699798743542416" lon="9.839678391961261"><ele>283.0</ele><time>2026-03-31T12:20:01Z</time></trkpt><trkpt lat="45.699842704825166" lon="9.839613847965664"><ele>283.0</ele><time>2026-03-31T12:20:02Z</time></trkpt><trkpt lat="45.69995941543232" lon="9.839557822717182"><ele>283.0</ele><time>2026-03-31T12:20:04Z</time></trkpt><trkpt lat="45.70002342415515" lon="9.839561319173168"><ele>283.0</ele><time>2026-03-31T12:20:05Z</time></trkpt><trkpt lat="45.70014416013832" lon="9.839573917390243"><ele>283.0</ele><time>2026-03-31T12:20:07Z</time></trkpt><trkpt lat="45.700259037241814" lon="9.839581504040313"><ele>283.0</ele><time>2026-03-31T12:20:09Z</time></trkpt><trkpt lat="45.70037613111534" lon="9.839581882099406"><ele>283.0</ele><time>2026-03-31T12:20:11Z</time></trkpt><trkpt lat="45.70049169440503" lon="9.83959221022022"><ele>283.25</ele><time>2026-03-31T12:20:13Z</time></trkpt><trkpt lat="45.70060408768067" lon="9.839596312656104"><ele>283.5</ele><time>2026-03-31T12:20:15Z</time></trkpt><trkpt lat="45.700720285458026" lon="9.839601434529905"><ele>283.75</ele><time>2026-03-31T12:20:17Z</time></trkpt><trkpt lat="45.70084072932221" lon="9.83960951226502"><ele>284.0</ele><time>2026-03-31T12:20:19Z</time></trkpt><trkpt lat="45.70096210260438" lon="9.839623567356313"><ele>284.0</ele><time>2026-03-31T12:20:21Z</time></trkpt><trkpt lat="45.701083884285" lon="9.839624096671708"><ele>284.0</ele><time>2026-03-31T12:20:23Z</time></trkpt><trkpt lat="45.701203453220316" lon="9.839632105475665"><ele>284.0</ele><time>2026-03-31T12:20:25Z</time></trkpt><trkpt lat="45.701324660633304" lon="9.839638198983257"><ele>284.0</ele><time>2026-03-31T12:20:27Z</time></trkpt><trkpt lat="45.701445780191605" lon="9.839635335195103"><ele>284.0</ele><time>2026-03-31T12:20:29Z</time></trkpt><trkpt lat="45.701566428565066" lon="9.839650361108424"><ele>284.0</ele><time>2026-03-31T12:20:31Z</time></trkpt><trkpt lat="45.7016910961631" lon="9.83965739852617"><ele>284.0</ele><time>2026-03-31T12:20:33Z</time></trkpt><trkpt lat="45.70181561849102" lon="9.83964204947243"><ele>284.0</ele><time>2026-03-31T12:20:35Z</time></trkpt><trkpt lat="45.70193173288507" lon="9.839594106764865"><ele>283.5</ele><time>2026-03-31T12:20:37Z</time></trkpt><trkpt lat="45.70203692499712" lon="9.839499553622755"><ele>283.0</ele><time>2026-03-31T12:20:39Z</time></trkpt><trkpt lat="45.70213174792752" lon="9.839392152595433"><ele>282.5</ele><time>2026-03-31T12:20:41Z</time></trkpt><trkpt lat="45.70221785386288" lon="9.83926684682608"><ele>282.0</ele><time>2026-03-31T12:20:43Z</time></trkpt><trkpt lat="45.702299175332904" lon="9.839143647759004"><ele>282.0</ele><time>2026-03-31T12:20:45Z</time></trkpt><trkpt lat="45.7023376635492" lon="9.839072049807987"><ele>282.0</ele><time>2026-03-31T12:20:46Z</time></trkpt><trkpt lat="45.7024049707544" lon="9.838929932714988"><ele>282.0</ele><time>2026-03-31T12:20:48Z</time></trkpt><trkpt lat="45.70246603590444" lon="9.838782859406953"><ele>282.0</ele><time>2026-03-31T12:20:50Z</time></trkpt><trkpt lat="45.702523426763065" lon="9.838632600014735"><ele>282.0</ele><time>2026-03-31T12:20:52Z</time></trkpt><trkpt lat="45.702579860497984" lon="9.838483030956247"><ele>282.25</ele><time>2026-03-31T12:20:54Z</time></trkpt><trkpt lat="45.70263758296602" lon="9.838334391680448"><ele>282.5</ele><time>2026-03-31T12:20:56Z</time></trkpt><trkpt lat="45.702694604698046" lon="9.838186115792514"><ele>282.75</ele><time>2026-03-31T12:20:58Z</time></trkpt><trkpt lat="45.702752199930615" lon="9.838037063312917"><ele>283.0</ele><time>2026-03-31T12:21:00Z</time></trkpt><trkpt lat="45.702809220290916" lon="9.837886942123593"><ele>283.75</ele><time>2026-03-31T12:21:02Z</time></trkpt><trkpt lat="45.70286717577567" lon="9.837742589386592"><ele>284.5</ele><time>2026-03-31T12:21:04Z</time></trkpt><trkpt lat="45.702922819208574" lon="9.837594493337928"><ele>285.25</ele><time>2026-03-31T12:21:06Z</time></trkpt><trkpt lat="45.70297903617959" lon="9.837447848509404"><ele>286.0</ele><time>2026-03-31T12:21:08Z</time></trkpt><trkpt lat="45.70303540873311" lon="9.837300142684503"><ele>286.0</ele><time>2026-03-31T12:21:10Z</time></trkpt><trkpt lat="45.70309288506817" lon="9.83715533748757"><ele>286.0</ele><time>2026-03-31T12:21:12Z</time></trkpt><trkpt lat="45.70314738371285" lon="9.837009410483692"><ele>286.0</ele><time>2026-03-31T12:21:14Z</time></trkpt><trkpt lat="45.70320199563044" lon="9.836865553050858"><ele>286.0</ele><time>2026-03-31T12:21:16Z</time></trkpt><trkpt lat="45.703260148468324" lon="9.836725060835164"><ele>286.25</ele><time>2026-03-31T12:21:18Z</time></trkpt><trkpt lat="45.70331924315171" lon="9.836582263782324"><ele>286.5</ele><time>2026-03-31T12:21:20Z</time></trkpt><trkpt lat="45.703373183183075" lon="9.836429913048987"><ele>286.75</ele><time>2026-03-31T12:21:22Z</time></trkpt><trkpt lat="45.703428937454596" lon="9.836285061668267"><ele>287.0</ele><time>2026-03-31T12:21:24Z</time></trkpt><trkpt lat="45.703484747184056" lon="9.836136519991905"><ele>287.0</ele><time>2026-03-31T12:21:26Z</time></trkpt><trkpt lat="45.703538489844725" lon="9.83599168027079"><ele>287.0</ele><time>2026-03-31T12:21:28Z</time></trkpt><trkpt lat="45.70359454069915" lon="9.835849325950326"><ele>287.0</ele><time>2026-03-31T12:21:30Z</time></trkpt><trkpt lat="45.70364978410476" lon="9.835703884592178"><ele>287.0</ele><time>2026-03-31T12:21:32Z</time></trkpt><trkpt lat="45.70370617206337" lon="9.835558536990742"><ele>287.25</ele><time>2026-03-31T12:21:34Z</time></trkpt><trkpt lat="45.70376767587951" lon="9.83541488928902"><ele>287.5</ele><time>2026-03-31T12:21:36Z</time></trkpt><trkpt lat="45.70382639471155" lon="9.83527394327067"><ele>287.75</ele><time>2026-03-31T12:21:38Z</time></trkpt><trkpt lat="45.70387866550269" lon="9.835129932032066"><ele>288.0</ele><time>2026-03-31T12:21:40Z</time></trkpt><trkpt lat="45.70393191331858" lon="9.834984141936939"><ele>288.0</ele><time>2026-03-31T12:21:42Z</time></trkpt><trkpt lat="45.70399077211046" lon="9.834845955432156"><ele>288.0</ele><time>2026-03-31T12:21:44Z</time></trkpt><trkpt lat="45.704045291163254" lon="9.834709183044197"><ele>288.0</ele><time>2026-03-31T12:21:46Z</time></trkpt><trkpt lat="45.7041005087738" lon="9.834572844055954"><ele>288.0</ele><time>2026-03-31T12:21:48Z</time></trkpt><trkpt lat="45.70414989305149" lon="9.834429942777323"><ele>288.0</ele><time>2026-03-31T12:21:50Z</time></trkpt><trkpt lat="45.704204582201015" lon="9.834286425931767"><ele>288.5</ele><time>2026-03-31T12:21:52Z</time></trkpt><trkpt lat="45.7042618765213" lon="9.834149325435963"><ele>289.0</ele><time>2026-03-31T12:21:54Z</time></trkpt><trkpt lat="45.70431803408605" lon="9.834008265536335"><ele>289.5</ele><time>2026-03-31T12:21:56Z</time></trkpt><trkpt lat="45.704371284570485" lon="9.833867267750271"><ele>290.0</ele><time>2026-03-31T12:21:58Z</time></trkpt><trkpt lat="45.704427036307386" lon="9.83372586607668"><ele>290.5</ele><time>2026-03-31T12:22:00Z</time></trkpt><trkpt lat="45.70448305272424" lon="9.83358042281181"><ele>291.0</ele><time>2026-03-31T12:22:02Z</time></trkpt><trkpt lat="45.70454212396997" lon="9.833437005363484"><ele>291.5</ele><time>2026-03-31T12:22:04Z</time></trkpt><trkpt lat="45.7045957163287" lon="9.833291115547713"><ele>292.0</ele><time>2026-03-31T12:22:06Z</time></trkpt><trkpt lat="45.70465339255416" lon="9.833145112291481"><ele>292.25</ele><time>2026-03-31T12:22:08Z</time></trkpt><trkpt lat="45.70470968365136" lon="9.833005483888119"><ele>292.5</ele><time>2026-03-31T12:22:10Z</time></trkpt><trkpt lat="45.70476448862654" lon="9.832864153510238"><ele>292.75</ele><time>2026-03-31T12:22:12Z</time></trkpt><trkpt lat="45.70482062698685" lon="9.832719018051751"><ele>293.0</ele><time>2026-03-31T12:22:14Z</time></trkpt><trkpt lat="45.704876021423246" lon="9.832574072192639"><ele>293.25</ele><time>2026-03-31T12:22:16Z</time></trkpt><trkpt lat="45.70493247945038" lon="9.832426834461497"><ele>293.5</ele><time>2026-03-31T12:22:18Z</time></trkpt><trkpt lat="45.70498734343062" lon="9.832277048150024"><ele>293.75</ele><time>2026-03-31T12:22:20Z</time></trkpt><trkpt lat="45.705042175174874" lon="9.832125035014196"><ele>294.0</ele><time>2026-03-31T12:22:22Z</time></trkpt><trkpt lat="45.705086246003454" lon="9.83196831390562"><ele>294.1666666666667</ele><time>2026-03-31T12:22:24Z</time></trkpt><trkpt lat="45.70513375765235" lon="9.831804979542426"><ele>294.3333333333333</ele><time>2026-03-31T12:22:26Z</time></trkpt><trkpt lat="45.70515798084772" lon="9.83172016997673"><ele>294.5</ele><time>2026-03-31T12:22:27Z</time></trkpt><trkpt lat="45.70518186398856" lon="9.831636286757199"><ele>294.66666666666663</ele><time>2026-03-31T12:22:28Z</time></trkpt><trkpt lat="45.7052042960961" lon="9.83154938198273"><ele>294.8333333333333</ele><time>2026-03-31T12:22:29Z</time></trkpt><trkpt lat="45.70524421114315" lon="9.831377097229357"><ele>295.0</ele><time>2026-03-31T12:22:31Z</time></trkpt><trkpt lat="45.705267654051" lon="9.831290814238741"><ele>295.00000000000006</ele><time>2026-03-31T12:22:32Z</time></trkpt><trkpt lat="45.70528996503922" lon="9.831204239006297"><ele>295.0</ele><time>2026-03-31T12:22:33Z</time></trkpt><trkpt lat="45.70531297906236" lon="9.831114853008124"><ele>295.0</ele><time>2026-03-31T12:22:34Z</time></trkpt><trkpt lat="45.70534026808592" lon="9.831029875223274"><ele>295.0</ele><time>2026-03-31T12:22:35Z</time></trkpt><trkpt lat="45.705366110446654" lon="9.830941513487879"><ele>295.0</ele><time>2026-03-31T12:22:36Z</time></trkpt><trkpt lat="45.70539593053322" lon="9.830856104672987"><ele>295.00000000000006</ele><time>2026-03-31T12:22:37Z</time></trkpt><trkpt lat="45.70542014015683" lon="9.830768059463551"><ele>295.0</ele><time>2026-03-31T12:22:38Z</time></trkpt><trkpt lat="45.70544960608317" lon="9.830684341998706"><ele>294.8571428571429</ele><time>2026-03-31T12:22:39Z</time></trkpt><trkpt lat="45.705479382363" lon="9.830601429214317"><ele>294.7142857142857</ele><time>2026-03-31T12:22:40Z</time></trkpt><trkpt lat="45.70550914427043" lon="9.830518406932272"><ele>294.57142857142856</ele><time>2026-03-31T12:22:41Z</time></trkpt><trkpt lat="45.705540973459925" lon="9.830438796921129"><ele>294.42857142857144</ele><time>2026-03-31T12:22:42Z</time></trkpt><trkpt lat="45.70557294642109" lon="9.830358895103243"><ele>294.2857142857143</ele><time>2026-03-31T12:22:43Z</time></trkpt><trkpt lat="45.705613863478966" lon="9.83028995834126"><ele>294.14285714285717</ele><time>2026-03-31T12:22:44Z</time></trkpt><trkpt lat="45.705661828195716" lon="9.830223627711765"><ele>294.0</ele><time>2026-03-31T12:22:45Z</time></trkpt><trkpt lat="45.70575796594603" lon="9.830115995420648"><ele>293.75</ele><time>2026-03-31T12:22:47Z</time></trkpt><trkpt lat="45.70585677011803" lon="9.830012226765014"><ele>293.5</ele><time>2026-03-31T12:22:49Z</time></trkpt><trkpt lat="45.70595390534374" lon="9.829917294213809"><ele>293.25</ele><time>2026-03-31T12:22:51Z</time></trkpt><trkpt lat="45.70604891480901" lon="9.829825378105634"><ele>293.0</ele><time>2026-03-31T12:22:53Z</time></trkpt><trkpt lat="45.706145058455775" lon="9.82973374806285"><ele>293.8</ele><time>2026-03-31T12:22:55Z</time></trkpt><trkpt lat="45.706239827038054" lon="9.829637160960182"><ele>294.6</ele><time>2026-03-31T12:22:57Z</time></trkpt><trkpt lat="45.7063336476998" lon="9.829552186345383"><ele>295.4</ele><time>2026-03-31T12:22:59Z</time></trkpt><trkpt lat="45.70642349774574" lon="9.829465604588618"><ele>296.2</ele><time>2026-03-31T12:23:01Z</time></trkpt><trkpt lat="45.706509925735794" lon="9.829383139634036"><ele>297.0</ele><time>2026-03-31T12:23:03Z</time></trkpt><trkpt lat="45.706594299655634" lon="9.829297662111824"><ele>297.4</ele><time>2026-03-31T12:23:05Z</time></trkpt><trkpt lat="45.706680230188894" lon="9.829213052041053"><ele>297.79999999999995</ele><time>2026-03-31T12:23:07Z</time></trkpt><trkpt lat="45.706766105154244" lon="9.829124038341252"><ele>298.2</ele><time>2026-03-31T12:23:09Z</time></trkpt><trkpt lat="45.70685416237964" lon="9.82903491887418"><ele>298.59999999999997</ele><time>2026-03-31T12:23:11Z</time></trkpt><trkpt lat="45.70694207196237" lon="9.828949326411331"><ele>299.0</ele><time>2026-03-31T12:23:13Z</time></trkpt><trkpt lat="45.70702641419508" lon="9.82886226341405"><ele>299.59999999999997</ele><time>2026-03-31T12:23:15Z</time></trkpt><trkpt lat="45.70711711939058" lon="9.828789482198076"><ele>300.2</ele><time>2026-03-31T12:23:17Z</time></trkpt><trkpt lat="45.707205791556284" lon="9.828698196907464"><ele>300.79999999999995</ele><time>2026-03-31T12:23:19Z</time></trkpt><trkpt lat="45.70729095982119" lon="9.828603743678123"><ele>301.4</ele><time>2026-03-31T12:23:21Z</time></trkpt><trkpt lat="45.70737665485124" lon="9.828511850361801"><ele>302.0</ele><time>2026-03-31T12:23:23Z</time></trkpt><trkpt lat="45.707460973354785" lon="9.828424709791554"><ele>302.2</ele><time>2026-03-31T12:23:25Z</time></trkpt><trkpt lat="45.70754964530775" lon="9.828346370807887"><ele>302.4</ele><time>2026-03-31T12:23:27Z</time></trkpt><trkpt lat="45.70763747561393" lon="9.828266201284778"><ele>302.6</ele><time>2026-03-31T12:23:29Z</time></trkpt><trkpt lat="45.70772413689643" lon="9.828184013518001"><ele>302.8</ele><time>2026-03-31T12:23:31Z</time></trkpt><trkpt lat="45.707805990234554" lon="9.828098251933932"><ele>303.0</ele><time>2026-03-31T12:23:33Z</time></trkpt><trkpt lat="45.70788865008123" lon="9.82800792938786"><ele>303.0</ele><time>2026-03-31T12:23:35Z</time></trkpt><trkpt lat="45.70797589268466" lon="9.827924193115042"><ele>303.0</ele><time>2026-03-31T12:23:37Z</time></trkpt><trkpt lat="45.70806251280434" lon="9.827835245091492"><ele>303.0</ele><time>2026-03-31T12:23:39Z</time></trkpt><trkpt lat="45.70814064399067" lon="9.827728010348025"><ele>303.0</ele><time>2026-03-31T12:23:41Z</time></trkpt><trkpt lat="45.7082158149677" lon="9.827624822791671"><ele>303.0</ele><time>2026-03-31T12:23:43Z</time></trkpt><trkpt lat="45.708284477886366" lon="9.82752452124755"><ele>303.4</ele><time>2026-03-31T12:23:45Z</time></trkpt><trkpt lat="45.70834582240468" lon="9.827414521874756"><ele>303.8</ele><time>2026-03-31T12:23:47Z</time></trkpt><trkpt lat="45.708403967456896" lon="9.827298837861488"><ele>304.2</ele><time>2026-03-31T12:23:49Z</time></trkpt><trkpt lat="45.70846861560751" lon="9.827189246283073"><ele>304.6</ele><time>2026-03-31T12:23:51Z</time></trkpt><trkpt lat="45.7085329903884" lon="9.82707511968044"><ele>305.0</ele><time>2026-03-31T12:23:53Z</time></trkpt><trkpt lat="45.70859952228921" lon="9.826954990328252"><ele>305.0</ele><time>2026-03-31T12:23:55Z</time></trkpt><trkpt lat="45.708669738975665" lon="9.826836609185323"><ele>305.0</ele><time>2026-03-31T12:23:57Z</time></trkpt><trkpt lat="45.708733628962705" lon="9.826710120321708"><ele>305.0</ele><time>2026-03-31T12:23:59Z</time></trkpt><trkpt lat="45.70880494644706" lon="9.826588275455913"><ele>305.0</ele><time>2026-03-31T12:24:01Z</time></trkpt><trkpt lat="45.70887515960505" lon="9.826465712600232"><ele>305.0</ele><time>2026-03-31T12:24:03Z</time></trkpt><trkpt lat="45.7089416329017" lon="9.826338766326154"><ele>306.4</ele><time>2026-03-31T12:24:05Z</time></trkpt><trkpt lat="45.70900905205204" lon="9.826216770714533"><ele>307.8</ele><time>2026-03-31T12:24:07Z</time></trkpt><trkpt lat="45.70907576720232" lon="9.826090766541444"><ele>309.2</ele><time>2026-03-31T12:24:09Z</time></trkpt><trkpt lat="45.70914329881246" lon="9.825969360631495"><ele>310.6</ele><time>2026-03-31T12:24:11Z</time></trkpt><trkpt lat="45.70920722644018" lon="9.825848701898597"><ele>312.0</ele><time>2026-03-31T12:24:13Z</time></trkpt><trkpt lat="45.709270498678116" lon="9.825718087149491"><ele>312.6</ele><time>2026-03-31T12:24:15Z</time></trkpt><trkpt lat="45.7093255155228" lon="9.825588286605738"><ele>313.2</ele><time>2026-03-31T12:24:17Z</time></trkpt><trkpt lat="45.70937611519886" lon="9.825455503549797"><ele>313.8</ele><time>2026-03-31T12:24:19Z</time></trkpt><trkpt lat="45.70942280570378" lon="9.825327089339856"><ele>314.4</ele><time>2026-03-31T12:24:21Z</time></trkpt><trkpt lat="45.709472806711375" lon="9.825197013868978"><ele>315.0</ele><time>2026-03-31T12:24:23Z</time></trkpt><trkpt lat="45.70952436742232" lon="9.82506780273319"><ele>316.0</ele><time>2026-03-31T12:24:25Z</time></trkpt><trkpt lat="45.709569918576776" lon="9.82493252762742"><ele>317.0</ele><time>2026-03-31T12:24:27Z</time></trkpt><trkpt lat="45.709621899528244" lon="9.824812718540173"><ele>318.0</ele><time>2026-03-31T12:24:29Z</time></trkpt><trkpt lat="45.70967004662874" lon="9.82467806736612"><ele>319.0</ele><time>2026-03-31T12:24:31Z</time></trkpt><trkpt lat="45.709718405779924" lon="9.824540569826913"><ele>320.0</ele><time>2026-03-31T12:24:33Z</time></trkpt><trkpt lat="45.70976622258303" lon="9.824415623339574"><ele>320.2</ele><time>2026-03-31T12:24:35Z</time></trkpt><trkpt lat="45.70982841302994" lon="9.824306872890372"><ele>320.4</ele><time>2026-03-31T12:24:37Z</time></trkpt><trkpt lat="45.70989754755363" lon="9.824209817360043"><ele>320.6</ele><time>2026-03-31T12:24:39Z</time></trkpt><trkpt lat="45.70993883201003" lon="9.82407291992828"><ele>320.8</ele><time>2026-03-31T12:24:41Z</time></trkpt><trkpt lat="45.7099693469401" lon="9.823936063906908"><ele>321.0</ele><time>2026-03-31T12:24:43Z</time></trkpt><trkpt lat="45.709993362001924" lon="9.82376718981497"><ele>321.0</ele><time>2026-03-31T12:24:45Z</time></trkpt><trkpt lat="45.7100127576178" lon="9.823600493399184"><ele>321.0</ele><time>2026-03-31T12:24:47Z</time></trkpt><trkpt lat="45.71002315182756" lon="9.82342904258655"><ele>321.0</ele><time>2026-03-31T12:24:49Z</time></trkpt><trkpt lat="45.7100296504033" lon="9.823255977074178"><ele>321.0</ele><time>2026-03-31T12:24:51Z</time></trkpt><trkpt lat="45.71005217892456" lon="9.823087066109325"><ele>321.25</ele><time>2026-03-31T12:24:53Z</time></trkpt><trkpt lat="45.71007379796055" lon="9.822915930739262"><ele>321.5</ele><time>2026-03-31T12:24:55Z</time></trkpt><trkpt lat="45.71009925429665" lon="9.822749144227139"><ele>321.75</ele><time>2026-03-31T12:24:57Z</time></trkpt><trkpt lat="45.71012543838459" lon="9.82258189962557"><ele>322.0</ele><time>2026-03-31T12:24:59Z</time></trkpt><trkpt lat="45.71014254784409" lon="9.822430910647475"><ele>322.0</ele><time>2026-03-31T12:25:01Z</time></trkpt><trkpt lat="45.71016206689807" lon="9.822286750986413"><ele>322.0</ele><time>2026-03-31T12:25:03Z</time></trkpt><trkpt lat="45.710188048374874" lon="9.822154857286868"><ele>322.0</ele><time>2026-03-31T12:25:05Z</time></trkpt><trkpt lat="45.710207441262" lon="9.822024837411677"><ele>322.0</ele><time>2026-03-31T12:25:07Z</time></trkpt><trkpt lat="45.710228147997185" lon="9.821899220144047"><ele>322.0</ele><time>2026-03-31T12:25:09Z</time></trkpt><trkpt lat="45.710239665966114" lon="9.821769465491021"><ele>322.25</ele><time>2026-03-31T12:25:11Z</time></trkpt><trkpt lat="45.71025792066003" lon="9.821616794990986"><ele>322.5</ele><time>2026-03-31T12:25:13Z</time></trkpt><trkpt lat="45.710270839671665" lon="9.821450132092005"><ele>322.75</ele><time>2026-03-31T12:25:15Z</time></trkpt><trkpt lat="45.71028656135926" lon="9.821285191733423"><ele>323.0</ele><time>2026-03-31T12:25:17Z</time></trkpt><trkpt lat="45.71028479681851" lon="9.821106704570386"><ele>323.00000000000006</ele><time>2026-03-31T12:25:19Z</time></trkpt><trkpt lat="45.7102844093011" lon="9.821012398590625"><ele>323.0</ele><time>2026-03-31T12:25:20Z</time></trkpt><trkpt lat="45.71028338916928" lon="9.820916803348103"><ele>323.0</ele><time>2026-03-31T12:25:21Z</time></trkpt><trkpt lat="45.71028360868175" lon="9.820819358404552"><ele>323.0</ele><time>2026-03-31T12:25:22Z</time></trkpt><trkpt lat="45.71028260362548" lon="9.820720135147052"><ele>323.0</ele><time>2026-03-31T12:25:23Z</time></trkpt><trkpt lat="45.71028214801629" lon="9.82061868746693"><ele>323.00000000000006</ele><time>2026-03-31T12:25:24Z</time></trkpt><trkpt lat="45.71027610008693" lon="9.820516206663482"><ele>323.0</ele><time>2026-03-31T12:25:25Z</time></trkpt><trkpt lat="45.710270368974385" lon="9.820410767992051"><ele>322.83333333333337</ele><time>2026-03-31T12:25:26Z</time></trkpt><trkpt lat="45.71026669929701" lon="9.82030447375667"><ele>322.6666666666667</ele><time>2026-03-31T12:25:27Z</time></trkpt><trkpt lat="45.710264718516754" lon="9.82019663986637"><ele>322.5</ele><time>2026-03-31T12:25:28Z</time></trkpt><trkpt lat="45.71026251556237" lon="9.820088046836212"><ele>322.3333333333333</ele><time>2026-03-31T12:25:29Z</time></trkpt><trkpt lat="45.7102595043268" lon="9.819977529370766"><ele>322.16666666666663</ele><time>2026-03-31T12:25:30Z</time></trkpt><trkpt lat="45.7102542134011" lon="9.819865744040053"><ele>322.0</ele><time>2026-03-31T12:25:31Z</time></trkpt><trkpt lat="45.71024881364073" lon="9.819754716154513"><ele>321.8333333333333</ele><time>2026-03-31T12:25:32Z</time></trkpt><trkpt lat="45.710245240919065" lon="9.819643492475413"><ele>321.66666666666663</ele><time>2026-03-31T12:25:33Z</time></trkpt><trkpt lat="45.71024123912938" lon="9.819531217933262"><ele>321.5</ele><time>2026-03-31T12:25:34Z</time></trkpt><trkpt lat="45.71023973402401" lon="9.819417341540799"><ele>321.3333333333333</ele><time>2026-03-31T12:25:35Z</time></trkpt><trkpt lat="45.71023853427583" lon="9.819301094484425"><ele>321.1666666666667</ele><time>2026-03-31T12:25:36Z</time></trkpt><trkpt lat="45.71023615788622" lon="9.819183812063798"><ele>321.0</ele><time>2026-03-31T12:25:37Z</time></trkpt><trkpt lat="45.71023342250581" lon="9.8190669618852"><ele>319.6666666666667</ele><time>2026-03-31T12:25:38Z</time></trkpt><trkpt lat="45.71023263098934" lon="9.818948886767398"><ele>318.3333333333333</ele><time>2026-03-31T12:25:39Z</time></trkpt><trkpt lat="45.71022997088436" lon="9.818831269887118"><ele>317.0</ele><time>2026-03-31T12:25:40Z</time></trkpt><trkpt lat="45.71022430088869" lon="9.818714429337323"><ele>315.66666666666663</ele><time>2026-03-31T12:25:41Z</time></trkpt><trkpt lat="45.710220634742974" lon="9.818598384281497"><ele>314.3333333333333</ele><time>2026-03-31T12:25:42Z</time></trkpt><trkpt lat="45.710218366053645" lon="9.818482451984893"><ele>313.0</ele><time>2026-03-31T12:25:43Z</time></trkpt><trkpt lat="45.71021724643271" lon="9.818367234646008"><ele>313.0</ele><time>2026-03-31T12:25:44Z</time></trkpt><trkpt lat="45.71021467063868" lon="9.818257945689448"><ele>313.0</ele><time>2026-03-31T12:25:45Z</time></trkpt><trkpt lat="45.71021232146" lon="9.818152972884556"><ele>313.0</ele><time>2026-03-31T12:25:46Z</time></trkpt><trkpt lat="45.71020803330738" lon="9.818052485008607"><ele>313.0</ele><time>2026-03-31T12:25:47Z</time></trkpt><trkpt lat="45.71020563231569" lon="9.817955144734267"><ele>313.0</ele><time>2026-03-31T12:25:48Z</time></trkpt><trkpt lat="45.710206622702664" lon="9.817862791661819"><ele>313.0</ele><time>2026-03-31T12:25:49Z</time></trkpt><trkpt lat="45.710205603352186" lon="9.817771621962603"><ele>313.0</ele><time>2026-03-31T12:25:50Z</time></trkpt><trkpt lat="45.710200060460586" lon="9.817594148527737"><ele>313.0</ele><time>2026-03-31T12:25:52Z</time></trkpt><trkpt lat="45.71019465660142" lon="9.81741551837227"><ele>313.0</ele><time>2026-03-31T12:25:54Z</time></trkpt><trkpt lat="45.71018714731053" lon="9.817238031348307"><ele>313.0</ele><time>2026-03-31T12:25:56Z</time></trkpt><trkpt lat="45.71018266497482" lon="9.817059746888729"><ele>313.0</ele><time>2026-03-31T12:25:58Z</time></trkpt><trkpt lat="45.710180552918274" lon="9.816883668780472"><ele>313.0</ele><time>2026-03-31T12:26:00Z</time></trkpt><trkpt lat="45.710176058297314" lon="9.816704516285919"><ele>313.0</ele><time>2026-03-31T12:26:02Z</time></trkpt><trkpt lat="45.71017388567724" lon="9.816530616989567"><ele>313.0</ele><time>2026-03-31T12:26:04Z</time></trkpt><trkpt lat="45.710180497581966" lon="9.816355408658584"><ele>313.0</ele><time>2026-03-31T12:26:06Z</time></trkpt><trkpt lat="45.71019443097275" lon="9.816179992551044"><ele>313.0</ele><time>2026-03-31T12:26:08Z</time></trkpt><trkpt lat="45.710214726944216" lon="9.816008543460354"><ele>313.0</ele><time>2026-03-31T12:26:10Z</time></trkpt><trkpt lat="45.710240709827886" lon="9.815839578935705"><ele>313.0</ele><time>2026-03-31T12:26:12Z</time></trkpt><trkpt lat="45.71026467355497" lon="9.815674694671943"><ele>313.0</ele><time>2026-03-31T12:26:14Z</time></trkpt><trkpt lat="45.710292968167295" lon="9.815515551080692"><ele>314.0</ele><time>2026-03-31T12:26:16Z</time></trkpt><trkpt lat="45.710324385389065" lon="9.81535864380761"><ele>315.0</ele><time>2026-03-31T12:26:18Z</time></trkpt><trkpt lat="45.71034783112144" lon="9.81520234715194"><ele>316.0</ele><time>2026-03-31T12:26:20Z</time></trkpt><trkpt lat="45.7103740462275" lon="9.81504823153278"><ele>317.0</ele><time>2026-03-31T12:26:22Z</time></trkpt><trkpt lat="45.71040571035205" lon="9.814895005471316"><ele>318.0</ele><time>2026-03-31T12:26:24Z</time></trkpt><trkpt lat="45.7104442774637" lon="9.814745739419362"><ele>318.0</ele><time>2026-03-31T12:26:26Z</time></trkpt><trkpt lat="45.710494340180745" lon="9.814601408832534"><ele>318.0</ele><time>2026-03-31T12:26:28Z</time></trkpt><trkpt lat="45.7105443727001" lon="9.814457020072169"><ele>318.0</ele><time>2026-03-31T12:26:30Z</time></trkpt><trkpt lat="45.71059989935983" lon="9.814314569134323"><ele>318.0</ele><time>2026-03-31T12:26:32Z</time></trkpt><trkpt lat="45.710659312245866" lon="9.814175410562944"><ele>318.0</ele><time>2026-03-31T12:26:34Z</time></trkpt><trkpt lat="45.71072043419832" lon="9.814036525918251"><ele>318.0</ele><time>2026-03-31T12:26:36Z</time></trkpt><trkpt lat="45.71078254289681" lon="9.81389926949298"><ele>318.0</ele><time>2026-03-31T12:26:38Z</time></trkpt><trkpt lat="45.71084320084845" lon="9.813757396799412"><ele>318.0</ele><time>2026-03-31T12:26:40Z</time></trkpt><trkpt lat="45.710903201675976" lon="9.81361965883654"><ele>318.25</ele><time>2026-03-31T12:26:42Z</time></trkpt><trkpt lat="45.71096398871381" lon="9.813477755161767"><ele>318.5</ele><time>2026-03-31T12:26:44Z</time></trkpt><trkpt lat="45.71102376508751" lon="9.813336722509016"><ele>318.75</ele><time>2026-03-31T12:26:46Z</time></trkpt><trkpt lat="45.71108706109788" lon="9.813198537557703"><ele>319.0</ele><time>2026-03-31T12:26:48Z</time></trkpt><trkpt lat="45.71114809747974" lon="9.813049840720828"><ele>319.79999999999995</ele><time>2026-03-31T12:26:50Z</time></trkpt><trkpt lat="45.71120768877258" lon="9.812915815840933"><ele>320.59999999999997</ele><time>2026-03-31T12:26:52Z</time></trkpt><trkpt lat="45.71126353905528" lon="9.812781012091175"><ele>321.4</ele><time>2026-03-31T12:26:54Z</time></trkpt><trkpt lat="45.71131872393538" lon="9.812646136444027"><ele>322.2</ele><time>2026-03-31T12:26:56Z</time></trkpt><trkpt lat="45.711375114993274" lon="9.812517598230713"><ele>323.0</ele><time>2026-03-31T12:26:58Z</time></trkpt><trkpt lat="45.71144146057583" lon="9.812382712251713"><ele>323.0</ele><time>2026-03-31T12:27:00Z</time></trkpt><trkpt lat="45.71150335775594" lon="9.812258492904856"><ele>323.0</ele><time>2026-03-31T12:27:02Z</time></trkpt><trkpt lat="45.711572249434006" lon="9.812132581789784"><ele>323.0</ele><time>2026-03-31T12:27:04Z</time></trkpt><trkpt lat="45.71164042451451" lon="9.812010807929674"><ele>323.0</ele><time>2026-03-31T12:27:06Z</time></trkpt><trkpt lat="45.711710856090036" lon="9.811892772103095"><ele>323.0</ele><time>2026-03-31T12:27:08Z</time></trkpt><trkpt lat="45.71178649196103" lon="9.81177888113225"><ele>323.59999999999997</ele><time>2026-03-31T12:27:10Z</time></trkpt><trkpt lat="45.7118630741799" lon="9.811663834812284"><ele>324.2</ele><time>2026-03-31T12:27:12Z</time></trkpt><trkpt lat="45.71194008577224" lon="9.811546667977487"><ele>324.8</ele><time>2026-03-31T12:27:14Z</time></trkpt><trkpt lat="45.71201499613107" lon="9.811430518259098"><ele>325.4</ele><time>2026-03-31T12:27:16Z</time></trkpt><trkpt lat="45.71209853072912" lon="9.811318324305038"><ele>326.0</ele><time>2026-03-31T12:27:18Z</time></trkpt><trkpt lat="45.71217610182049" lon="9.81120517837813"><ele>326.20000000000005</ele><time>2026-03-31T12:27:20Z</time></trkpt><trkpt lat="45.71225292835921" lon="9.81108931685672"><ele>326.40000000000003</ele><time>2026-03-31T12:27:22Z</time></trkpt><trkpt lat="45.71233384016763" lon="9.810976984060737"><ele>326.6</ele><time>2026-03-31T12:27:24Z</time></trkpt><trkpt lat="45.712412651289235" lon="9.810863467579642"><ele>326.8</ele><time>2026-03-31T12:27:26Z</time></trkpt><trkpt lat="45.71248948595779" lon="9.810752868000892"><ele>327.0</ele><time>2026-03-31T12:27:28Z</time></trkpt><trkpt lat="45.71256741634423" lon="9.810635677185983"><ele>327.0</ele><time>2026-03-31T12:27:30Z</time></trkpt><trkpt lat="45.71264651938911" lon="9.810520255578933"><ele>327.0</ele><time>2026-03-31T12:27:32Z</time></trkpt><trkpt lat="45.71272704777084" lon="9.810412312876057"><ele>327.0</ele><time>2026-03-31T12:27:34Z</time></trkpt><trkpt lat="45.712801232134574" lon="9.810294567157014"><ele>327.0</ele><time>2026-03-31T12:27:36Z</time></trkpt><trkpt lat="45.712880693186726" lon="9.810180045841976"><ele>327.0</ele><time>2026-03-31T12:27:38Z</time></trkpt><trkpt lat="45.7129516148332" lon="9.810059346648684"><ele>327.75</ele><time>2026-03-31T12:27:40Z</time></trkpt><trkpt lat="45.71301402646081" lon="9.80992650455901"><ele>328.5</ele><time>2026-03-31T12:27:42Z</time></trkpt><trkpt lat="45.71306164739403" lon="9.809782698425208"><ele>329.25</ele><time>2026-03-31T12:27:44Z</time></trkpt><trkpt lat="45.71309396522811" lon="9.809627313279375"><ele>330.0</ele><time>2026-03-31T12:27:46Z</time></trkpt><trkpt lat="45.71310180304703" lon="9.809462646216707"><ele>330.2</ele><time>2026-03-31T12:27:48Z</time></trkpt><trkpt lat="45.713105171785436" lon="9.80930167922302"><ele>330.4</ele><time>2026-03-31T12:27:50Z</time></trkpt><trkpt lat="45.71309602293501" lon="9.809142092396733"><ele>330.6</ele><time>2026-03-31T12:27:52Z</time></trkpt><trkpt lat="45.713089073403346" lon="9.808984447485692"><ele>330.8</ele><time>2026-03-31T12:27:54Z</time></trkpt><trkpt lat="45.713076431318186" lon="9.808823918597415"><ele>331.0</ele><time>2026-03-31T12:27:56Z</time></trkpt><trkpt lat="45.71306900108647" lon="9.808666822428936"><ele>331.0</ele><time>2026-03-31T12:27:58Z</time></trkpt><trkpt lat="45.713062176739754" lon="9.80850782145202"><ele>331.0</ele><time>2026-03-31T12:28:00Z</time></trkpt><trkpt lat="45.7130526450977" lon="9.808351590850265"><ele>331.0</ele><time>2026-03-31T12:28:02Z</time></trkpt><trkpt lat="45.71304296887695" lon="9.808197242780606"><ele>331.0</ele><time>2026-03-31T12:28:04Z</time></trkpt><trkpt lat="45.71303158744829" lon="9.808040652670106"><ele>331.0</ele><time>2026-03-31T12:28:06Z</time></trkpt><trkpt lat="45.713024481713816" lon="9.807885438353418"><ele>331.8</ele><time>2026-03-31T12:28:08Z</time></trkpt><trkpt lat="45.71301143782109" lon="9.807734086185365"><ele>332.6</ele><time>2026-03-31T12:28:10Z</time></trkpt><trkpt lat="45.7130023156249" lon="9.807580653160828"><ele>333.4</ele><time>2026-03-31T12:28:12Z</time></trkpt><trkpt lat="45.71299274361716" lon="9.8074278069207"><ele>334.2</ele><time>2026-03-31T12:28:14Z</time></trkpt><trkpt lat="45.71298262067611" lon="9.807271274689372"><ele>335.0</ele><time>2026-03-31T12:28:16Z</time></trkpt><trkpt lat="45.712974204234214" lon="9.807120778116506"><ele>335.2</ele><time>2026-03-31T12:28:18Z</time></trkpt><trkpt lat="45.71296317391495" lon="9.806967059447889"><ele>335.4</ele><time>2026-03-31T12:28:20Z</time></trkpt><trkpt lat="45.71295183132045" lon="9.806812481486523"><ele>335.6</ele><time>2026-03-31T12:28:22Z</time></trkpt><trkpt lat="45.71294017279415" lon="9.80665916289438"><ele>335.8</ele><time>2026-03-31T12:28:24Z</time></trkpt><trkpt lat="45.71293512508489" lon="9.806499012620085"><ele>336.0</ele><time>2026-03-31T12:28:26Z</time></trkpt><trkpt lat="45.712924425059754" lon="9.806345814666441"><ele>336.0</ele><time>2026-03-31T12:28:28Z</time></trkpt><trkpt lat="45.71291414990279" lon="9.806195641154636"><ele>336.0</ele><time>2026-03-31T12:28:30Z</time></trkpt><trkpt lat="45.712910020761726" lon="9.80603632188909"><ele>336.0</ele><time>2026-03-31T12:28:32Z</time></trkpt><trkpt lat="45.71289819263926" lon="9.805869585520535"><ele>336.0</ele><time>2026-03-31T12:28:34Z</time></trkpt><trkpt lat="45.71289334358344" lon="9.805698148184685"><ele>336.20000000000005</ele><time>2026-03-31T12:28:36Z</time></trkpt><trkpt lat="45.71289275349285" lon="9.80553343422979"><ele>336.40000000000003</ele><time>2026-03-31T12:28:38Z</time></trkpt><trkpt lat="45.712887907207914" lon="9.80536432461944"><ele>336.6</ele><time>2026-03-31T12:28:40Z</time></trkpt><trkpt lat="45.712885006708206" lon="9.805211474272618"><ele>336.8</ele><time>2026-03-31T12:28:42Z</time></trkpt><trkpt lat="45.71287561661072" lon="9.805071145569306"><ele>337.0</ele><time>2026-03-31T12:28:44Z</time></trkpt><trkpt lat="45.7128716814682" lon="9.8049304343042"><ele>337.6</ele><time>2026-03-31T12:28:46Z</time></trkpt><trkpt lat="45.712867023545634" lon="9.804795814006145"><ele>338.20000000000005</ele><time>2026-03-31T12:28:48Z</time></trkpt><trkpt lat="45.71285609248796" lon="9.80467303541982"><ele>338.8</ele><time>2026-03-31T12:28:50Z</time></trkpt><trkpt lat="45.71285220400357" lon="9.80453910035064"><ele>339.4</ele><time>2026-03-31T12:28:52Z</time></trkpt><trkpt lat="45.712842228221916" lon="9.804404549750114"><ele>340.0</ele><time>2026-03-31T12:28:54Z</time></trkpt><trkpt lat="45.71282918503617" lon="9.804271101446975"><ele>340.8</ele><time>2026-03-31T12:28:56Z</time></trkpt><trkpt lat="45.712814171046666" lon="9.804143422596855"><ele>341.6</ele><time>2026-03-31T12:28:58Z</time></trkpt><trkpt lat="45.71280828502411" lon="9.804007884657343"><ele>342.4</ele><time>2026-03-31T12:29:00Z</time></trkpt><trkpt lat="45.71279421142919" lon="9.803878809851268"><ele>343.2</ele><time>2026-03-31T12:29:02Z</time></trkpt><trkpt lat="45.71278629153135" lon="9.803744930723001"><ele>344.0</ele><time>2026-03-31T12:29:04Z</time></trkpt><trkpt lat="45.71277075252612" lon="9.803618480400477"><ele>344.83333333333337</ele><time>2026-03-31T12:29:06Z</time></trkpt><trkpt lat="45.71276213587134" lon="9.803489745716378"><ele>345.6666666666667</ele><time>2026-03-31T12:29:08Z</time></trkpt><trkpt lat="45.71275474720215" lon="9.80336650594854"><ele>346.5</ele><time>2026-03-31T12:29:10Z</time></trkpt><trkpt lat="45.71273923774117" lon="9.803245088794055"><ele>347.3333333333333</ele><time>2026-03-31T12:29:12Z</time></trkpt><trkpt lat="45.71271222115525" lon="9.803124796824093"><ele>348.16666666666663</ele><time>2026-03-31T12:29:14Z</time></trkpt><trkpt lat="45.71267583199614" lon="9.803014771656827"><ele>349.0</ele><time>2026-03-31T12:29:16Z</time></trkpt><trkpt lat="45.71263070517311" lon="9.802921446845609"><ele>351.5</ele><time>2026-03-31T12:29:18Z</time></trkpt><trkpt lat="45.71257646233543" lon="9.802840852678242"><ele>354.0</ele><time>2026-03-31T12:29:20Z</time></trkpt><trkpt lat="45.7125184971028" lon="9.802764458856553"><ele>356.5</ele><time>2026-03-31T12:29:22Z</time></trkpt><trkpt lat="45.71244364846329" lon="9.802716326455814"><ele>359.0</ele><time>2026-03-31T12:29:24Z</time></trkpt><trkpt lat="45.7123660984597" lon="9.802747158777969"><ele>361.5</ele><time>2026-03-31T12:29:26Z</time></trkpt><trkpt lat="45.71231965213087" lon="9.802872679641515"><ele>364.0</ele><time>2026-03-31T12:29:28Z</time></trkpt><trkpt lat="45.71235501495098" lon="9.803012160050535"><ele>364.0</ele><time>2026-03-31T12:29:30Z</time></trkpt><trkpt lat="45.71240793995052" lon="9.803122492900425"><ele>364.0</ele><time>2026-03-31T12:29:32Z</time></trkpt><trkpt lat="45.712434727747876" lon="9.803234264543931"><ele>364.0</ele><time>2026-03-31T12:29:34Z</time></trkpt><trkpt lat="45.71244609144973" lon="9.803331418180415"><ele>364.0</ele><time>2026-03-31T12:29:36Z</time></trkpt><trkpt lat="45.71239312229572" lon="9.80339791412709"><ele>364.0</ele><time>2026-03-31T12:29:38Z</time></trkpt><trkpt lat="45.71230286250678" lon="9.8033847152845"><ele>364.0</ele><time>2026-03-31T12:29:41Z</time></trkpt><trkpt lat="45.71226105434152" lon="9.80330389347139"><ele>364.0</ele><time>2026-03-31T12:29:43Z</time></trkpt><trkpt lat="45.71224431910684" lon="9.803178060505347"><ele>364.0</ele><time>2026-03-31T12:29:46Z</time></trkpt><trkpt lat="45.7122360376989" lon="9.803087046254868"><ele>364.0</ele><time>2026-03-31T12:29:48Z</time></trkpt><trkpt lat="45.71220381211488" lon="9.802959814812908"><ele>364.0</ele><time>2026-03-31T12:29:51Z</time></trkpt><trkpt lat="45.71216151553983" lon="9.802842223150744"><ele>364.0</ele><time>2026-03-31T12:29:54Z</time></trkpt><trkpt lat="45.71211546319569" lon="9.80273060327911"><ele>364.0</ele><time>2026-03-31T12:29:57Z</time></trkpt><trkpt lat="45.71206913760631" lon="9.802620125810895"><ele>363.66666666666663</ele><time>2026-03-31T12:30:00Z</time></trkpt><trkpt lat="45.71202420156224" lon="9.802511471986918"><ele>363.3333333333333</ele><time>2026-03-31T12:30:03Z</time></trkpt><trkpt lat="45.71197993348521" lon="9.802399279267703"><ele>363.0</ele><time>2026-03-31T12:30:06Z</time></trkpt><trkpt lat="45.711933660735625" lon="9.802298567286195"><ele>362.6666666666667</ele><time>2026-03-31T12:30:09Z</time></trkpt><trkpt lat="45.71188936888287" lon="9.802191011058126"><ele>362.33333333333337</ele><time>2026-03-31T12:30:12Z</time></trkpt><trkpt lat="45.71183734941399" lon="9.802086548716142"><ele>362.0</ele><time>2026-03-31T12:30:15Z</time></trkpt><trkpt lat="45.71178362114408" lon="9.80198677202734"><ele>365.1666666666667</ele><time>2026-03-31T12:30:18Z</time></trkpt><trkpt lat="45.711722683128265" lon="9.80189523104371"><ele>368.33333333333337</ele><time>2026-03-31T12:30:21Z</time></trkpt><trkpt lat="45.7116537160532" lon="9.801815125002971"><ele>371.5</ele><time>2026-03-31T12:30:24Z</time></trkpt><trkpt lat="45.711579876384896" lon="9.80174771316035"><ele>374.6666666666667</ele><time>2026-03-31T12:30:27Z</time></trkpt><trkpt lat="45.71150607673258" lon="9.801675580947942"><ele>377.8333333333333</ele><time>2026-03-31T12:30:30Z</time></trkpt><trkpt lat="45.71142817800198" lon="9.801599438838844"><ele>381.0</ele><time>2026-03-31T12:30:33Z</time></trkpt><trkpt lat="45.71135032591088" lon="9.801535776230482"><ele>381.0</ele><time>2026-03-31T12:30:36Z</time></trkpt><trkpt lat="45.71127426632052" lon="9.80147908596468"><ele>381.0</ele><time>2026-03-31T12:30:39Z</time></trkpt><trkpt lat="45.71120448582306" lon="9.801414324933672"><ele>381.0</ele><time>2026-03-31T12:30:42Z</time></trkpt><trkpt lat="45.71113399350693" lon="9.80134174959756"><ele>381.0</ele><time>2026-03-31T12:30:45Z</time></trkpt><trkpt lat="45.71106237906453" lon="9.801262665391501"><ele>381.0</ele><time>2026-03-31T12:30:48Z</time></trkpt><trkpt lat="45.71100585724956" lon="9.801162338691034"><ele>381.0</ele><time>2026-03-31T12:30:51Z</time></trkpt><trkpt lat="45.710958724480754" lon="9.80105342238036"><ele>383.3333333333333</ele><time>2026-03-31T12:30:54Z</time></trkpt><trkpt lat="45.71093109264135" lon="9.800942446137443"><ele>385.66666666666663</ele><time>2026-03-31T12:30:57Z</time></trkpt><trkpt lat="45.71090484142549" lon="9.800833642967092"><ele>388.0</ele><time>2026-03-31T12:31:00Z</time></trkpt><trkpt lat="45.71089084415425" lon="9.800725960201039"><ele>390.3333333333333</ele><time>2026-03-31T12:31:03Z</time></trkpt><trkpt lat="45.710892610341475" lon="9.8006122595502"><ele>392.66666666666663</ele><time>2026-03-31T12:31:06Z</time></trkpt><trkpt lat="45.710901708817204" lon="9.80048798552637"><ele>395.0</ele><time>2026-03-31T12:31:09Z</time></trkpt><trkpt lat="45.71090857255659" lon="9.80039650511746"><ele>394.99999999999994</ele><time>2026-03-31T12:31:11Z</time></trkpt><trkpt lat="45.71093306050157" lon="9.80029832552278"><ele>395.0</ele><time>2026-03-31T12:31:13Z</time></trkpt><trkpt lat="45.71095893183583" lon="9.800190778040298"><ele>395.0</ele><time>2026-03-31T12:31:15Z</time></trkpt><trkpt lat="45.71098920546574" lon="9.800082464596976"><ele>395.0</ele><time>2026-03-31T12:31:17Z</time></trkpt><trkpt lat="45.71101090001164" lon="9.799961407867212"><ele>394.99999999999994</ele><time>2026-03-31T12:31:19Z</time></trkpt><trkpt lat="45.711026330472144" lon="9.799834421280378"><ele>395.0</ele><time>2026-03-31T12:31:21Z</time></trkpt><trkpt lat="45.71103408702052" lon="9.79970257938168"><ele>396.2</ele><time>2026-03-31T12:31:23Z</time></trkpt><trkpt lat="45.71101971477537" lon="9.799558991673939"><ele>397.4</ele><time>2026-03-31T12:31:25Z</time></trkpt><trkpt lat="45.710995075768096" lon="9.799421635145325"><ele>398.6</ele><time>2026-03-31T12:31:27Z</time></trkpt><trkpt lat="45.71096723025878" lon="9.799285732668029"><ele>399.8</ele><time>2026-03-31T12:31:29Z</time></trkpt><trkpt lat="45.7109436463816" lon="9.799140588512548"><ele>401.0</ele><time>2026-03-31T12:31:31Z</time></trkpt><trkpt lat="45.71094353235352" lon="9.79899059522445"><ele>400.6</ele><time>2026-03-31T12:31:33Z</time></trkpt><trkpt lat="45.710959396531734" lon="9.798848280888583"><ele>400.20000000000005</ele><time>2026-03-31T12:31:35Z</time></trkpt><trkpt lat="45.71098428356016" lon="9.798710857736"><ele>399.79999999999995</ele><time>2026-03-31T12:31:37Z</time></trkpt><trkpt lat="45.711023503314486" lon="9.798591282065011"><ele>399.4</ele><time>2026-03-31T12:31:39Z</time></trkpt><trkpt lat="45.71107677214781" lon="9.79848271372696"><ele>399.0</ele><time>2026-03-31T12:31:41Z</time></trkpt><trkpt lat="45.71114498800564" lon="9.798383052340936"><ele>399.0</ele><time>2026-03-31T12:31:43Z</time></trkpt><trkpt lat="45.71121914400991" lon="9.798289516701082"><ele>399.0</ele><time>2026-03-31T12:31:45Z</time></trkpt><trkpt lat="45.711291028809605" lon="9.798194918185395"><ele>399.0</ele><time>2026-03-31T12:31:47Z</time></trkpt><trkpt lat="45.71135474606128" lon="9.7980791350551"><ele>399.0</ele><time>2026-03-31T12:31:49Z</time></trkpt><trkpt lat="45.71141216116585" lon="9.797952039165459"><ele>399.0</ele><time>2026-03-31T12:31:51Z</time></trkpt><trkpt lat="45.71146437482277" lon="9.797821690660896"><ele>399.0</ele><time>2026-03-31T12:31:53Z</time></trkpt><trkpt lat="45.711513442749705" lon="9.797689685123352"><ele>399.0</ele><time>2026-03-31T12:31:55Z</time></trkpt><trkpt lat="45.711552072307946" lon="9.797552436973998"><ele>399.0</ele><time>2026-03-31T12:31:57Z</time></trkpt><trkpt lat="45.711591182762035" lon="9.797429233655066"><ele>399.0</ele><time>2026-03-31T12:31:59Z</time></trkpt><trkpt lat="45.71163572169549" lon="9.797296154454427"><ele>399.0</ele><time>2026-03-31T12:32:01Z</time></trkpt><trkpt lat="45.71168534310425" lon="9.797174673938049"><ele>400.0</ele><time>2026-03-31T12:32:03Z</time></trkpt><trkpt lat="45.71174304177718" lon="9.79706531757764"><ele>401.0</ele><time>2026-03-31T12:32:05Z</time></trkpt><trkpt lat="45.71179688205495" lon="9.796980427199008"><ele>402.0</ele><time>2026-03-31T12:32:07Z</time></trkpt><trkpt lat="45.711854583449245" lon="9.796903151531867"><ele>403.0</ele><time>2026-03-31T12:32:09Z</time></trkpt><trkpt lat="45.71191135389271" lon="9.796850567076161"><ele>404.0</ele><time>2026-03-31T12:32:11Z</time></trkpt><trkpt lat="45.71196354656592" lon="9.796798215025971"><ele>405.0</ele><time>2026-03-31T12:32:13Z</time></trkpt><trkpt lat="45.71203008897245" lon="9.796708853624216"><ele>406.4285714285714</ele><time>2026-03-31T12:32:16Z</time></trkpt><trkpt lat="45.712076604675026" lon="9.796646547814863"><ele>407.85714285714283</ele><time>2026-03-31T12:32:18Z</time></trkpt><trkpt lat="45.71212167850004" lon="9.79658264967369"><ele>409.2857142857143</ele><time>2026-03-31T12:32:20Z</time></trkpt><trkpt lat="45.71216557426043" lon="9.796512410316534"><ele>410.71428571428567</ele><time>2026-03-31T12:32:22Z</time></trkpt><trkpt lat="45.712209844059295" lon="9.796391584974883"><ele>412.14285714285717</ele><time>2026-03-31T12:32:25Z</time></trkpt><trkpt lat="45.71223814188577" lon="9.796310543142463"><ele>413.57142857142856</ele><time>2026-03-31T12:32:27Z</time></trkpt><trkpt lat="45.71226678855639" lon="9.79622405742972"><ele>415.0</ele><time>2026-03-31T12:32:29Z</time></trkpt><trkpt lat="45.712295009083874" lon="9.79612045402706"><ele>415.4</ele><time>2026-03-31T12:32:31Z</time></trkpt><trkpt lat="45.71232809662866" lon="9.79600054540797"><ele>415.8</ele><time>2026-03-31T12:32:33Z</time></trkpt><trkpt lat="45.712361494553996" lon="9.795874617013226"><ele>416.20000000000005</ele><time>2026-03-31T12:32:35Z</time></trkpt><trkpt lat="45.71240169879556" lon="9.795735020288017"><ele>416.6</ele><time>2026-03-31T12:32:37Z</time></trkpt><trkpt lat="45.71241934184917" lon="9.795561835637272"><ele>417.0</ele><time>2026-03-31T12:32:39Z</time></trkpt><trkpt lat="45.71241596437854" lon="9.795463846033533"><ele>417.0</ele><time>2026-03-31T12:32:40Z</time></trkpt><trkpt lat="45.7123943597493" lon="9.795358750879602"><ele>417.0</ele><time>2026-03-31T12:32:41Z</time></trkpt><trkpt lat="45.71235572277477" lon="9.795255389503376"><ele>417.0</ele><time>2026-03-31T12:32:42Z</time></trkpt><trkpt lat="45.712307630160794" lon="9.795148511849797"><ele>417.0</ele><time>2026-03-31T12:32:43Z</time></trkpt><trkpt lat="45.712244642765015" lon="9.795067838060065"><ele>417.0</ele><time>2026-03-31T12:32:44Z</time></trkpt><trkpt lat="45.71215718785069" lon="9.795004808293783"><ele>417.0</ele><time>2026-03-31T12:32:45Z</time></trkpt><trkpt lat="45.712074242747846" lon="9.794966814734554"><ele>416.8333333333333</ele><time>2026-03-31T12:32:46Z</time></trkpt><trkpt lat="45.71198516781122" lon="9.794934587077961"><ele>416.66666666666663</ele><time>2026-03-31T12:32:47Z</time></trkpt><trkpt lat="45.71189688569841" lon="9.794913509494721"><ele>416.5</ele><time>2026-03-31T12:32:48Z</time></trkpt><trkpt lat="45.71180901749588" lon="9.794891122771118"><ele>416.3333333333333</ele><time>2026-03-31T12:32:49Z</time></trkpt><trkpt lat="45.71172560911186" lon="9.794855219833975"><ele>416.16666666666663</ele><time>2026-03-31T12:32:50Z</time></trkpt><trkpt lat="45.711645473136784" lon="9.794806990526006"><ele>416.0</ele><time>2026-03-31T12:32:51Z</time></trkpt><trkpt lat="45.71157070607218" lon="9.794751952336743"><ele>415.99999999999994</ele><time>2026-03-31T12:32:52Z</time></trkpt><trkpt lat="45.711507027372726" lon="9.794677289028678"><ele>416.0</ele><time>2026-03-31T12:32:53Z</time></trkpt><trkpt lat="45.71145813788188" lon="9.794596600796918"><ele>416.0</ele><time>2026-03-31T12:32:54Z</time></trkpt><trkpt lat="45.711422798460745" lon="9.794507809169462"><ele>416.0</ele><time>2026-03-31T12:32:55Z</time></trkpt><trkpt lat="45.71138965066701" lon="9.794428615486776"><ele>415.99999999999994</ele><time>2026-03-31T12:32:56Z</time></trkpt><trkpt lat="45.71132450548594" lon="9.794283875918401"><ele>416.0</ele><time>2026-03-31T12:32:58Z</time></trkpt><trkpt lat="45.711258009624224" lon="9.794148456039613"><ele>413.6</ele><time>2026-03-31T12:33:00Z</time></trkpt><trkpt lat="45.71121110742449" lon="9.794016413507533"><ele>411.20000000000005</ele><time>2026-03-31T12:33:02Z</time></trkpt><trkpt lat="45.7111819617031" lon="9.793859999807626"><ele>408.79999999999995</ele><time>2026-03-31T12:33:04Z</time></trkpt><trkpt lat="45.71116714062121" lon="9.793709094502052"><ele>406.4</ele><time>2026-03-31T12:33:06Z</time></trkpt><trkpt lat="45.71116137278765" lon="9.79354823035311"><ele>404.0</ele><time>2026-03-31T12:33:08Z</time></trkpt><trkpt lat="45.711166286742944" lon="9.79340071744831"><ele>403.4</ele><time>2026-03-31T12:33:10Z</time></trkpt><trkpt lat="45.71117135479635" lon="9.793247659455625"><ele>402.79999999999995</ele><time>2026-03-31T12:33:12Z</time></trkpt><trkpt lat="45.71118028852625" lon="9.793096910959362"><ele>402.20000000000005</ele><time>2026-03-31T12:33:14Z</time></trkpt><trkpt lat="45.71120167179941" lon="9.792940991723421"><ele>401.6</ele><time>2026-03-31T12:33:16Z</time></trkpt><trkpt lat="45.71123662798943" lon="9.792787417121732"><ele>401.0</ele><time>2026-03-31T12:33:18Z</time></trkpt><trkpt lat="45.71128104174598" lon="9.792625475741339"><ele>401.0</ele><time>2026-03-31T12:33:20Z</time></trkpt><trkpt lat="45.71133363435248" lon="9.792477518608818"><ele>401.0</ele><time>2026-03-31T12:33:22Z</time></trkpt><trkpt lat="45.71139819133515" lon="9.792321196582956"><ele>401.0</ele><time>2026-03-31T12:33:24Z</time></trkpt><trkpt lat="45.71143547994575" lon="9.792235509491727"><ele>401.0</ele><time>2026-03-31T12:33:25Z</time></trkpt><trkpt lat="45.71147419640934" lon="9.79214709244009"><ele>401.0</ele><time>2026-03-31T12:33:26Z</time></trkpt><trkpt lat="45.711515069003134" lon="9.792055601953544"><ele>400.99999999999994</ele><time>2026-03-31T12:33:27Z</time></trkpt><trkpt lat="45.71155558149632" lon="9.791958992063256"><ele>401.0</ele><time>2026-03-31T12:33:28Z</time></trkpt><trkpt lat="45.71158982007325" lon="9.791845671019619"><ele>401.0</ele><time>2026-03-31T12:33:29Z</time></trkpt><trkpt lat="45.71162035587222" lon="9.791725737120911"><ele>401.0</ele><time>2026-03-31T12:33:30Z</time></trkpt><trkpt lat="45.711650452175604" lon="9.791603884212343"><ele>400.99999999999994</ele><time>2026-03-31T12:33:31Z</time></trkpt><trkpt lat="45.711682983789906" lon="9.791478603259808"><ele>401.0</ele><time>2026-03-31T12:33:32Z</time></trkpt><trkpt lat="45.71172311630531" lon="9.791352748943337"><ele>400.8</ele><time>2026-03-31T12:33:33Z</time></trkpt><trkpt lat="45.71177401589449" lon="9.791229234632652"><ele>400.6</ele><time>2026-03-31T12:33:34Z</time></trkpt><trkpt lat="45.71183296398397" lon="9.79111195704106"><ele>400.4</ele><time>2026-03-31T12:33:35Z</time></trkpt><trkpt lat="45.71189969213957" lon="9.790997729778969"><ele>400.2</ele><time>2026-03-31T12:33:36Z</time></trkpt><trkpt lat="45.711967168605675" lon="9.790884122133246"><ele>400.0</ele><time>2026-03-31T12:33:37Z</time></trkpt><trkpt lat="45.712040325782105" lon="9.790772721853214"><ele>397.4</ele><time>2026-03-31T12:33:38Z</time></trkpt><trkpt lat="45.712114767885495" lon="9.790663873196745"><ele>394.8</ele><time>2026-03-31T12:33:39Z</time></trkpt><trkpt lat="45.71219239700345" lon="9.790560994402437"><ele>392.20000000000005</ele><time>2026-03-31T12:33:40Z</time></trkpt><trkpt lat="45.712263360782536" lon="9.790453288009244"><ele>389.6</ele><time>2026-03-31T12:33:41Z</time></trkpt><trkpt lat="45.712338391005744" lon="9.790346479035257"><ele>387.0</ele><time>2026-03-31T12:33:42Z</time></trkpt><trkpt lat="45.7124140606507" lon="9.79024324542504"><ele>387.40000000000003</ele><time>2026-03-31T12:33:43Z</time></trkpt><trkpt lat="45.71249011667821" lon="9.790141571818607"><ele>387.8</ele><time>2026-03-31T12:33:44Z</time></trkpt><trkpt lat="45.71256709645645" lon="9.790038245644295"><ele>388.2</ele><time>2026-03-31T12:33:45Z</time></trkpt><trkpt lat="45.71263275344924" lon="9.789939678541677"><ele>388.6</ele><time>2026-03-31T12:33:46Z</time></trkpt><trkpt lat="45.7127068559847" lon="9.789842115892565"><ele>389.0</ele><time>2026-03-31T12:33:47Z</time></trkpt><trkpt lat="45.71277996020719" lon="9.789750658908343"><ele>388.0</ele><time>2026-03-31T12:33:48Z</time></trkpt><trkpt lat="45.71286456547452" lon="9.789687882666469"><ele>387.0</ele><time>2026-03-31T12:33:49Z</time></trkpt><trkpt lat="45.71295996283746" lon="9.789636223769785"><ele>386.0</ele><time>2026-03-31T12:33:50Z</time></trkpt><trkpt lat="45.713046844738045" lon="9.789610209091359"><ele>385.0</ele><time>2026-03-31T12:33:51Z</time></trkpt><trkpt lat="45.7131358512227" lon="9.789583150119817"><ele>384.0</ele><time>2026-03-31T12:33:52Z</time></trkpt><trkpt lat="45.713219950794105" lon="9.789549327222579"><ele>384.0</ele><time>2026-03-31T12:33:53Z</time></trkpt><trkpt lat="45.713296751405295" lon="9.789496109523764"><ele>384.0</ele><time>2026-03-31T12:33:54Z</time></trkpt><trkpt lat="45.71336782533913" lon="9.789429402110555"><ele>384.0</ele><time>2026-03-31T12:33:55Z</time></trkpt><trkpt lat="45.71343382713591" lon="9.789362858263484"><ele>384.0</ele><time>2026-03-31T12:33:56Z</time></trkpt><trkpt lat="45.713490992197556" lon="9.789282070989872"><ele>384.0</ele><time>2026-03-31T12:33:57Z</time></trkpt><trkpt lat="45.71353947425271" lon="9.789191783656717"><ele>384.0</ele><time>2026-03-31T12:33:58Z</time></trkpt><trkpt lat="45.713581959571144" lon="9.789101088241074"><ele>383.85714285714283</ele><time>2026-03-31T12:33:59Z</time></trkpt><trkpt lat="45.7136203625166" lon="9.789010541029642"><ele>383.7142857142857</ele><time>2026-03-31T12:34:00Z</time></trkpt><trkpt lat="45.71366072077506" lon="9.788920894330507"><ele>383.57142857142856</ele><time>2026-03-31T12:34:01Z</time></trkpt><trkpt lat="45.71369999694989" lon="9.788835766381414"><ele>383.42857142857144</ele><time>2026-03-31T12:34:02Z</time></trkpt><trkpt lat="45.71373604509032" lon="9.78874696357607"><ele>383.2857142857143</ele><time>2026-03-31T12:34:03Z</time></trkpt><trkpt lat="45.71377036693727" lon="9.78865523705494"><ele>383.1428571428571</ele><time>2026-03-31T12:34:04Z</time></trkpt><trkpt lat="45.713809624805926" lon="9.78857033310832"><ele>383.0</ele><time>2026-03-31T12:34:05Z</time></trkpt><trkpt lat="45.71384503651491" lon="9.788482615964186"><ele>383.0</ele><time>2026-03-31T12:34:06Z</time></trkpt><trkpt lat="45.713877028154705" lon="9.788390295798116"><ele>383.0</ele><time>2026-03-31T12:34:07Z</time></trkpt><trkpt lat="45.713902352352584" lon="9.788300560058168"><ele>383.0</ele><time>2026-03-31T12:34:08Z</time></trkpt><trkpt lat="45.71391949478716" lon="9.788198890700215"><ele>383.0</ele><time>2026-03-31T12:34:09Z</time></trkpt><trkpt lat="45.71393219009752" lon="9.788104197983406"><ele>383.0</ele><time>2026-03-31T12:34:10Z</time></trkpt><trkpt lat="45.71394078049863" lon="9.788008966077829"><ele>383.0</ele><time>2026-03-31T12:34:11Z</time></trkpt><trkpt lat="45.713936797278436" lon="9.787910448495701"><ele>383.0</ele><time>2026-03-31T12:34:12Z</time></trkpt><trkpt lat="45.71392592407294" lon="9.787817834069202"><ele>383.0</ele><time>2026-03-31T12:34:13Z</time></trkpt><trkpt lat="45.713901826392835" lon="9.787725066980448"><ele>383.0</ele><time>2026-03-31T12:34:14Z</time></trkpt><trkpt lat="45.71387440406101" lon="9.787637688418025"><ele>383.0</ele><time>2026-03-31T12:34:15Z</time></trkpt><trkpt lat="45.713839549560895" lon="9.787554904214488"><ele>383.0</ele><time>2026-03-31T12:34:16Z</time></trkpt><trkpt lat="45.71380749547205" lon="9.787471505817454"><ele>383.0</ele><time>2026-03-31T12:34:17Z</time></trkpt><trkpt lat="45.713775529897134" lon="9.787386945439218"><ele>383.0</ele><time>2026-03-31T12:34:18Z</time></trkpt><trkpt lat="45.713751141943014" lon="9.787299611119051"><ele>383.0</ele><time>2026-03-31T12:34:19Z</time></trkpt><trkpt lat="45.71370933693203" lon="9.787132249722958"><ele>382.4</ele><time>2026-03-31T12:34:21Z</time></trkpt><trkpt lat="45.7136883834642" lon="9.787042568214938"><ele>381.79999999999995</ele><time>2026-03-31T12:34:22Z</time></trkpt><trkpt lat="45.71366637702861" lon="9.786867819670922"><ele>381.2</ele><time>2026-03-31T12:34:24Z</time></trkpt><trkpt lat="45.713675415077994" lon="9.786697043698856"><ele>380.6</ele><time>2026-03-31T12:34:26Z</time></trkpt><trkpt lat="45.71368239723299" lon="9.786540643988639"><ele>380.0</ele><time>2026-03-31T12:34:28Z</time></trkpt><trkpt lat="45.71370085078169" lon="9.78637694752195"><ele>379.33333333333337</ele><time>2026-03-31T12:34:30Z</time></trkpt><trkpt lat="45.7137254788085" lon="9.786202010594621"><ele>378.6666666666667</ele><time>2026-03-31T12:34:32Z</time></trkpt><trkpt lat="45.71373820894398" lon="9.786109665707892"><ele>378.0</ele><time>2026-03-31T12:34:33Z</time></trkpt><trkpt lat="45.713756023122016" lon="9.786013100293925"><ele>377.3333333333333</ele><time>2026-03-31T12:34:34Z</time></trkpt><trkpt lat="45.71376992549193" lon="9.785912086445233"><ele>376.66666666666663</ele><time>2026-03-31T12:34:35Z</time></trkpt><trkpt lat="45.71378119790322" lon="9.785809980120419"><ele>376.0</ele><time>2026-03-31T12:34:36Z</time></trkpt><trkpt lat="45.71379314790389" lon="9.785699977434444"><ele>375.66666666666663</ele><time>2026-03-31T12:34:37Z</time></trkpt><trkpt lat="45.71380479251285" lon="9.785590149950686"><ele>375.3333333333333</ele><time>2026-03-31T12:34:38Z</time></trkpt><trkpt lat="45.71381891182348" lon="9.785475815367603"><ele>375.0</ele><time>2026-03-31T12:34:39Z</time></trkpt><trkpt lat="45.71383235447596" lon="9.78535716472553"><ele>374.6666666666667</ele><time>2026-03-31T12:34:40Z</time></trkpt><trkpt lat="45.71385018426058" lon="9.785235608730428"><ele>374.33333333333337</ele><time>2026-03-31T12:34:41Z</time></trkpt><trkpt lat="45.71386318709486" lon="9.78510455052623"><ele>374.0</ele><time>2026-03-31T12:34:42Z</time></trkpt><trkpt lat="45.713871640478374" lon="9.784968219051635"><ele>373.2</ele><time>2026-03-31T12:34:43Z</time></trkpt><trkpt lat="45.71387981666867" lon="9.784828381412758"><ele>372.4</ele><time>2026-03-31T12:34:44Z</time></trkpt><trkpt lat="45.713890920297644" lon="9.784683157156147"><ele>371.6</ele><time>2026-03-31T12:34:45Z</time></trkpt><trkpt lat="45.71389734474937" lon="9.78452702054834"><ele>370.8</ele><time>2026-03-31T12:34:46Z</time></trkpt><trkpt lat="45.71390946891124" lon="9.784380706480963"><ele>370.0</ele><time>2026-03-31T12:34:47Z</time></trkpt><trkpt lat="45.713914919181015" lon="9.784228356656081"><ele>368.8</ele><time>2026-03-31T12:34:48Z</time></trkpt><trkpt lat="45.713914130461404" lon="9.78407922852315"><ele>367.6</ele><time>2026-03-31T12:34:49Z</time></trkpt><trkpt lat="45.71391274708347" lon="9.783929630096878"><ele>366.4</ele><time>2026-03-31T12:34:50Z</time></trkpt><trkpt lat="45.71390942808913" lon="9.783788677851105"><ele>365.2</ele><time>2026-03-31T12:34:51Z</time></trkpt><trkpt lat="45.71390893267909" lon="9.783647746474253"><ele>364.0</ele><time>2026-03-31T12:34:52Z</time></trkpt><trkpt lat="45.71390616730989" lon="9.783512764761277"><ele>363.5</ele><time>2026-03-31T12:34:53Z</time></trkpt><trkpt lat="45.71390064658749" lon="9.783385065586108"><ele>363.0</ele><time>2026-03-31T12:34:54Z</time></trkpt><trkpt lat="45.713885247908834" lon="9.783252416031816"><ele>362.5</ele><time>2026-03-31T12:34:55Z</time></trkpt><trkpt lat="45.713878596953045" lon="9.78312942375431"><ele>362.0</ele><time>2026-03-31T12:34:56Z</time></trkpt><trkpt lat="45.71387297727521" lon="9.783011531416792"><ele>361.5</ele><time>2026-03-31T12:34:57Z</time></trkpt><trkpt lat="45.71387183737677" lon="9.782891917271376"><ele>361.0</ele><time>2026-03-31T12:34:58Z</time></trkpt><trkpt lat="45.71387294891798" lon="9.782780194382728"><ele>361.16666666666663</ele><time>2026-03-31T12:34:59Z</time></trkpt><trkpt lat="45.713874670628336" lon="9.782679422646417"><ele>361.3333333333333</ele><time>2026-03-31T12:35:00Z</time></trkpt><trkpt lat="45.71389387708726" lon="9.782566166408547"><ele>361.5</ele><time>2026-03-31T12:35:01Z</time></trkpt><trkpt lat="45.71390389883808" lon="9.782467814175371"><ele>361.6666666666667</ele><time>2026-03-31T12:35:02Z</time></trkpt><trkpt lat="45.71393413011578" lon="9.782373295411851"><ele>361.83333333333337</ele><time>2026-03-31T12:35:03Z</time></trkpt><trkpt lat="45.713979495970705" lon="9.78224425120121"><ele>362.0</ele><time>2026-03-31T12:35:05Z</time></trkpt><trkpt lat="45.714007529231715" lon="9.78212112620148"><ele>362.0</ele><time>2026-03-31T12:35:06Z</time></trkpt><trkpt lat="45.71403423951865" lon="9.782038405578389"><ele>362.0</ele><time>2026-03-31T12:35:07Z</time></trkpt><trkpt lat="45.714081085042665" lon="9.781879001922968"><ele>362.0</ele><time>2026-03-31T12:35:09Z</time></trkpt><trkpt lat="45.71412214258231" lon="9.781713324013559"><ele>362.0</ele><time>2026-03-31T12:35:11Z</time></trkpt><trkpt lat="45.71412781393613" lon="9.781617882462662"><ele>362.0</ele><time>2026-03-31T12:35:12Z</time></trkpt><trkpt lat="45.71413086080946" lon="9.78151577631699"><ele>362.0</ele><time>2026-03-31T12:35:13Z</time></trkpt><trkpt lat="45.714136945359414" lon="9.781406463206466"><ele>362.6</ele><time>2026-03-31T12:35:14Z</time></trkpt><trkpt lat="45.714144247257835" lon="9.781290011855516"><ele>363.20000000000005</ele><time>2026-03-31T12:35:15Z</time></trkpt><trkpt lat="45.714155555015374" lon="9.781164436421891"><ele>363.8</ele><time>2026-03-31T12:35:16Z</time></trkpt><trkpt lat="45.71416213092556" lon="9.781027741463147"><ele>364.4</ele><time>2026-03-31T12:35:17Z</time></trkpt><trkpt lat="45.71417095288229" lon="9.780883705381497"><ele>365.0</ele><time>2026-03-31T12:35:18Z</time></trkpt><trkpt lat="45.71418773968338" lon="9.780735204902104"><ele>363.8</ele><time>2026-03-31T12:35:19Z</time></trkpt><trkpt lat="45.71420798901938" lon="9.78058261387266"><ele>362.6</ele><time>2026-03-31T12:35:20Z</time></trkpt><trkpt lat="45.71423005791381" lon="9.780429979530222"><ele>361.4</ele><time>2026-03-31T12:35:21Z</time></trkpt><trkpt lat="45.714258230805356" lon="9.780282376653382"><ele>360.2</ele><time>2026-03-31T12:35:22Z</time></trkpt><trkpt lat="45.71429696812863" lon="9.780142793574822"><ele>359.0</ele><time>2026-03-31T12:35:23Z</time></trkpt><trkpt lat="45.71434806541153" lon="9.78001683126848"><ele>356.6666666666667</ele><time>2026-03-31T12:35:24Z</time></trkpt><trkpt lat="45.714407802106884" lon="9.779910832961269"><ele>354.33333333333337</ele><time>2026-03-31T12:35:25Z</time></trkpt><trkpt lat="45.71447543298289" lon="9.779827321357095"><ele>352.0</ele><time>2026-03-31T12:35:26Z</time></trkpt><trkpt lat="45.714551055648016" lon="9.779761778679992"><ele>349.6666666666667</ele><time>2026-03-31T12:35:27Z</time></trkpt><trkpt lat="45.7146205570745" lon="9.779694890026125"><ele>347.3333333333333</ele><time>2026-03-31T12:35:28Z</time></trkpt><trkpt lat="45.714684155551936" lon="9.77962248023606"><ele>345.0</ele><time>2026-03-31T12:35:29Z</time></trkpt><trkpt lat="45.71474207623772" lon="9.779544407635209"><ele>345.0</ele><time>2026-03-31T12:35:30Z</time></trkpt><trkpt lat="45.71479440636859" lon="9.779459027411702"><ele>345.0</ele><time>2026-03-31T12:35:31Z</time></trkpt><trkpt lat="45.714837934632165" lon="9.779365378194104"><ele>345.0</ele><time>2026-03-31T12:35:32Z</time></trkpt><trkpt lat="45.71487494782154" lon="9.779259366269583"><ele>345.0</ele><time>2026-03-31T12:35:33Z</time></trkpt><trkpt lat="45.7149146248452" lon="9.779154268480532"><ele>345.0</ele><time>2026-03-31T12:35:34Z</time></trkpt><trkpt lat="45.71494732512834" lon="9.77904081530352"><ele>345.0</ele><time>2026-03-31T12:35:35Z</time></trkpt><trkpt lat="45.71497649376723" lon="9.778928027462516"><ele>346.3333333333333</ele><time>2026-03-31T12:35:36Z</time></trkpt><trkpt lat="45.714990003407614" lon="9.778805581716885"><ele>347.6666666666667</ele><time>2026-03-31T12:35:37Z</time></trkpt><trkpt lat="45.71499552137203" lon="9.7786876404085"><ele>349.0</ele><time>2026-03-31T12:35:38Z</time></trkpt><trkpt lat="45.71499006505689" lon="9.778558767149681"><ele>350.33333333333337</ele><time>2026-03-31T12:35:39Z</time></trkpt><trkpt lat="45.71498308269711" lon="9.778432547908162"><ele>351.6666666666667</ele><time>2026-03-31T12:35:40Z</time></trkpt><trkpt lat="45.71498099831252" lon="9.77830327672102"><ele>353.0</ele><time>2026-03-31T12:35:41Z</time></trkpt><trkpt lat="45.71497928276656" lon="9.778170339614674"><ele>353.0</ele><time>2026-03-31T12:35:42Z</time></trkpt><trkpt lat="45.714976404635564" lon="9.778040015269461"><ele>353.0</ele><time>2026-03-31T12:35:43Z</time></trkpt><trkpt lat="45.71497191104423" lon="9.777906990006029"><ele>353.0</ele><time>2026-03-31T12:35:44Z</time></trkpt><trkpt lat="45.71496358687343" lon="9.777775317231255"><ele>353.0</ele><time>2026-03-31T12:35:45Z</time></trkpt><trkpt lat="45.71494917559235" lon="9.77764360708042"><ele>353.0</ele><time>2026-03-31T12:35:46Z</time></trkpt><trkpt lat="45.71492219487867" lon="9.777515526838371"><ele>352.2</ele><time>2026-03-31T12:35:47Z</time></trkpt><trkpt lat="45.714874268076784" lon="9.777398691025754"><ele>351.4</ele><time>2026-03-31T12:35:48Z</time></trkpt><trkpt lat="45.71481766110947" lon="9.777291212349152"><ele>350.59999999999997</ele><time>2026-03-31T12:35:49Z</time></trkpt><trkpt lat="45.71475542431256" lon="9.777191231539781"><ele>349.79999999999995</ele><time>2026-03-31T12:35:50Z</time></trkpt><trkpt lat="45.71469106425936" lon="9.777096671785843"><ele>349.0</ele><time>2026-03-31T12:35:51Z</time></trkpt><trkpt lat="45.7146299802612" lon="9.776995622238852"><ele>349.0</ele><time>2026-03-31T12:35:52Z</time></trkpt><trkpt lat="45.71457941771232" lon="9.776888556554441"><ele>349.0</ele><time>2026-03-31T12:35:53Z</time></trkpt><trkpt lat="45.714536017939764" lon="9.776770391382819"><ele>349.0</ele><time>2026-03-31T12:35:54Z</time></trkpt><trkpt lat="45.71450984689492" lon="9.776640555024665"><ele>349.0</ele><time>2026-03-31T12:35:55Z</time></trkpt><trkpt lat="45.71450120102612" lon="9.776506791940491"><ele>349.0</ele><time>2026-03-31T12:35:56Z</time></trkpt><trkpt lat="45.71451031050355" lon="9.776377697865952"><ele>348.16666666666663</ele><time>2026-03-31T12:35:57Z</time></trkpt><trkpt lat="45.71452611573946" lon="9.776245429730686"><ele>347.3333333333333</ele><time>2026-03-31T12:35:58Z</time></trkpt><trkpt lat="45.7145415260256" lon="9.776116553200476"><ele>346.5</ele><time>2026-03-31T12:35:59Z</time></trkpt><trkpt lat="45.71456280547876" lon="9.775990058378264"><ele>345.6666666666667</ele><time>2026-03-31T12:36:00Z</time></trkpt><trkpt lat="45.71460057084198" lon="9.775876365233355"><ele>344.83333333333337</ele><time>2026-03-31T12:36:01Z</time></trkpt><trkpt lat="45.714652089444165" lon="9.775778631347947"><ele>344.0</ele><time>2026-03-31T12:36:02Z</time></trkpt><trkpt lat="45.71470989519435" lon="9.775692874756453"><ele>343.83333333333337</ele><time>2026-03-31T12:36:03Z</time></trkpt><trkpt lat="45.71477457156752" lon="9.775623063661468"><ele>343.6666666666667</ele><time>2026-03-31T12:36:04Z</time></trkpt><trkpt lat="45.71484170859645" lon="9.77555808238844"><ele>343.5</ele><time>2026-03-31T12:36:05Z</time></trkpt><trkpt lat="45.7149079832468" lon="9.775497388444178"><ele>343.3333333333333</ele><time>2026-03-31T12:36:06Z</time></trkpt><trkpt lat="45.714969911594785" lon="9.775429996780144"><ele>343.16666666666663</ele><time>2026-03-31T12:36:07Z</time></trkpt><trkpt lat="45.715023229565375" lon="9.775345284214813"><ele>343.0</ele><time>2026-03-31T12:36:08Z</time></trkpt><trkpt lat="45.715064398763424" lon="9.775240118452025"><ele>342.79999999999995</ele><time>2026-03-31T12:36:09Z</time></trkpt><trkpt lat="45.71509857580318" lon="9.775126728101071"><ele>342.6</ele><time>2026-03-31T12:36:10Z</time></trkpt><trkpt lat="45.71512613379316" lon="9.774999760536442"><ele>342.4</ele><time>2026-03-31T12:36:11Z</time></trkpt><trkpt lat="45.715145812591146" lon="9.774865367289706"><ele>342.20000000000005</ele><time>2026-03-31T12:36:12Z</time></trkpt><trkpt lat="45.715163214011525" lon="9.774722646688636"><ele>342.0</ele><time>2026-03-31T12:36:13Z</time></trkpt><trkpt lat="45.71518473673382" lon="9.774579331210415"><ele>342.0</ele><time>2026-03-31T12:36:14Z</time></trkpt><trkpt lat="45.715194199981184" lon="9.774428950352434"><ele>342.0</ele><time>2026-03-31T12:36:15Z</time></trkpt><trkpt lat="45.715189073320786" lon="9.77427347718205"><ele>342.0</ele><time>2026-03-31T12:36:16Z</time></trkpt><trkpt lat="45.715177438984675" lon="9.774125124615512"><ele>342.0</ele><time>2026-03-31T12:36:17Z</time></trkpt><trkpt lat="45.71516685348015" lon="9.773986120718124"><ele>342.0</ele><time>2026-03-31T12:36:18Z</time></trkpt><trkpt lat="45.71516408720388" lon="9.773863123548558"><ele>340.6</ele><time>2026-03-31T12:36:19Z</time></trkpt><trkpt lat="45.71516410053334" lon="9.773741755228697"><ele>339.20000000000005</ele><time>2026-03-31T12:36:20Z</time></trkpt><trkpt lat="45.71517253006701" lon="9.773612102728485"><ele>337.8</ele><time>2026-03-31T12:36:21Z</time></trkpt><trkpt lat="45.715199943344594" lon="9.773482545662787"><ele>336.4</ele><time>2026-03-31T12:36:22Z</time></trkpt><trkpt lat="45.71524091554517" lon="9.773357871981625"><ele>335.0</ele><time>2026-03-31T12:36:23Z</time></trkpt><trkpt lat="45.71529539861521" lon="9.773240930525422"><ele>334.0</ele><time>2026-03-31T12:36:24Z</time></trkpt><trkpt lat="45.715357907060806" lon="9.773138361969664"><ele>333.0</ele><time>2026-03-31T12:36:25Z</time></trkpt><trkpt lat="45.71542852130458" lon="9.773048605343796"><ele>332.0</ele><time>2026-03-31T12:36:26Z</time></trkpt><trkpt lat="45.715499595324246" lon="9.772960998760933"><ele>331.0</ele><time>2026-03-31T12:36:27Z</time></trkpt><trkpt lat="45.71557513155673" lon="9.772874677036869"><ele>330.0</ele><time>2026-03-31T12:36:28Z</time></trkpt><trkpt lat="45.715651305585716" lon="9.772776374623122"><ele>330.4</ele><time>2026-03-31T12:36:29Z</time></trkpt><trkpt lat="45.715729289812835" lon="9.7726737707837"><ele>330.8</ele><time>2026-03-31T12:36:30Z</time></trkpt><trkpt lat="45.71581176902867" lon="9.772569302087273"><ele>331.20000000000005</ele><time>2026-03-31T12:36:31Z</time></trkpt><trkpt lat="45.71589676585365" lon="9.772461559071447"><ele>331.6</ele><time>2026-03-31T12:36:32Z</time></trkpt><trkpt lat="45.71598290834099" lon="9.772349205285247"><ele>332.0</ele><time>2026-03-31T12:36:33Z</time></trkpt><trkpt lat="45.716071889497854" lon="9.772237184518847"><ele>330.25</ele><time>2026-03-31T12:36:34Z</time></trkpt><trkpt lat="45.71615964475413" lon="9.772122896928494"><ele>328.5</ele><time>2026-03-31T12:36:35Z</time></trkpt><trkpt lat="45.71624689573856" lon="9.77200919474902"><ele>326.75</ele><time>2026-03-31T12:36:36Z</time></trkpt><trkpt lat="45.7163314263738" lon="9.771896262543434"><ele>325.0</ele><time>2026-03-31T12:36:37Z</time></trkpt><trkpt lat="45.71641562870545" lon="9.771788177782827"><ele>325.0</ele><time>2026-03-31T12:36:38Z</time></trkpt><trkpt lat="45.7164953403155" lon="9.771683002289976"><ele>325.0</ele><time>2026-03-31T12:36:39Z</time></trkpt><trkpt lat="45.71657543914072" lon="9.771585054963301"><ele>325.0</ele><time>2026-03-31T12:36:40Z</time></trkpt><trkpt lat="45.71664671942664" lon="9.77148285085551"><ele>325.0</ele><time>2026-03-31T12:36:41Z</time></trkpt><trkpt lat="45.71671985680704" lon="9.771398196820519"><ele>325.0</ele><time>2026-03-31T12:36:42Z</time></trkpt><trkpt lat="45.71679864547319" lon="9.771320443353485"><ele>325.0</ele><time>2026-03-31T12:36:43Z</time></trkpt><trkpt lat="45.71689188719616" lon="9.771311337509731"><ele>325.0</ele><time>2026-03-31T12:36:44Z</time></trkpt><trkpt lat="45.7169796724722" lon="9.771328473630863"><ele>325.0</ele><time>2026-03-31T12:36:45Z</time></trkpt><trkpt lat="45.71705320461971" lon="9.771366447449036"><ele>325.0</ele><time>2026-03-31T12:36:46Z</time></trkpt><trkpt lat="45.71711773869275" lon="9.77139837927836"><ele>325.0</ele><time>2026-03-31T12:36:47Z</time></trkpt><trkpt lat="45.71722815170026" lon="9.771436232042001"><ele>325.0</ele><time>2026-03-31T12:36:49Z</time></trkpt><trkpt lat="45.71732738049063" lon="9.77146151649815"><ele>325.16666666666663</ele><time>2026-03-31T12:36:51Z</time></trkpt><trkpt lat="45.71741355028777" lon="9.771483115516428"><ele>325.3333333333333</ele><time>2026-03-31T12:36:53Z</time></trkpt><trkpt lat="45.7174893049586" lon="9.771450511712025"><ele>325.5</ele><time>2026-03-31T12:36:55Z</time></trkpt><trkpt lat="45.71751584451566" lon="9.771342526321954"><ele>325.6666666666667</ele><time>2026-03-31T12:36:57Z</time></trkpt><trkpt lat="45.717542198629275" lon="9.771222882065887"><ele>325.83333333333337</ele><time>2026-03-31T12:36:59Z</time></trkpt><trkpt lat="45.71757695211135" lon="9.771102007780952"><ele>326.0</ele><time>2026-03-31T12:37:01Z</time></trkpt><trkpt lat="45.717628709843055" lon="9.770985856186597"><ele>326.0</ele><time>2026-03-31T12:37:03Z</time></trkpt><trkpt lat="45.717695723376494" lon="9.770874146835261"><ele>326.0</ele><time>2026-03-31T12:37:05Z</time></trkpt><trkpt lat="45.71776670287058" lon="9.77077089531309"><ele>326.0</ele><time>2026-03-31T12:37:07Z</time></trkpt><trkpt lat="45.71782539326917" lon="9.770663949077251"><ele>326.0</ele><time>2026-03-31T12:37:09Z</time></trkpt><trkpt lat="45.71789656695708" lon="9.770582827964546"><ele>326.0</ele><time>2026-03-31T12:37:11Z</time></trkpt><trkpt lat="45.71798808263142" lon="9.770611781813022"><ele>327.1666666666667</ele><time>2026-03-31T12:37:13Z</time></trkpt><trkpt lat="45.718055172970935" lon="9.770670169605571"><ele>328.33333333333337</ele><time>2026-03-31T12:37:15Z</time></trkpt><trkpt lat="45.71812998040577" lon="9.770721154690705"><ele>329.5</ele><time>2026-03-31T12:37:18Z</time></trkpt><trkpt lat="45.71820575039483" lon="9.770767226949536"><ele>330.6666666666667</ele><time>2026-03-31T12:37:22Z</time></trkpt><trkpt lat="45.71827409350219" lon="9.770798024360424"><ele>331.8333333333333</ele><time>2026-03-31T12:37:26Z</time></trkpt><trkpt lat="45.718333582225036" lon="9.77085457347876"><ele>333.0</ele><time>2026-03-31T12:37:30Z</time></trkpt><trkpt lat="45.7184012211927" lon="9.770872419517909"><ele>333.0</ele><time>2026-03-31T12:37:34Z</time></trkpt><trkpt lat="45.71846016009519" lon="9.770927201484469"><ele>333.0</ele><time>2026-03-31T12:37:39Z</time></trkpt><trkpt lat="45.718524382840414" lon="9.770971251828104"><ele>333.0</ele><time>2026-03-31T12:37:44Z</time></trkpt><trkpt lat="45.71857481260897" lon="9.770912408438285"><ele>343.0</ele><time>2026-03-31T12:37:48Z</time></trkpt></trkseg></trk></gpx>